<?xml version="1.0" encoding="UTF-8" standalone="no" ?>
<gpx xmlns="http://www.topografix.com/GPX/1/1" xmlns:xsi="http://www.w3.org/2001/XMLSchema-instance" xsi:schemaLocation="http://www.topografix.com/GPX/1/1 http://www.topografix.com/GPX/1/1/gpx.xsd" version="1.1" creator="VisuGPX - https://www.visugpx.com">
  <metadata>
    <name>ballade à thorigné 79 le 03.01.2011</name>
    <desc><![CDATA[ballade à thorigné 79 le 03.01.2011]]></desc>
  </metadata>
  <trk>
    <name><![CDATA[Entraînement libre]]></name>
    <trkseg>
      <trkpt lat="46.29823" lon="-0.22719">
        <ele>108.0587</ele>
        <time>2011-01-03T14:35:24Z</time>
      </trkpt>
      <trkpt lat="46.29822" lon="-0.22717">
        <ele>108.0696</ele>
        <time>2011-01-03T14:35:25Z</time>
      </trkpt>
      <trkpt lat="46.29822" lon="-0.22717">
        <ele>108.3244</ele>
        <time>2011-01-03T14:35:26Z</time>
      </trkpt>
      <trkpt lat="46.29821" lon="-0.22716">
        <ele>108.3317</ele>
        <time>2011-01-03T14:35:27Z</time>
      </trkpt>
      <trkpt lat="46.29821" lon="-0.22715">
        <ele>108.3401</ele>
        <time>2011-01-03T14:35:28Z</time>
      </trkpt>
      <trkpt lat="46.29821" lon="-0.22714">
        <ele>108.355</ele>
        <time>2011-01-03T14:35:29Z</time>
      </trkpt>
      <trkpt lat="46.29821" lon="-0.22713">
        <ele>108.3702</ele>
        <time>2011-01-03T14:35:30Z</time>
      </trkpt>
      <trkpt lat="46.2982" lon="-0.22712">
        <ele>108.3868</ele>
        <time>2011-01-03T14:35:31Z</time>
      </trkpt>
      <trkpt lat="46.2982" lon="-0.22711">
        <ele>108.4039</ele>
        <time>2011-01-03T14:35:32Z</time>
      </trkpt>
      <trkpt lat="46.2982" lon="-0.2271">
        <ele>108.416</ele>
        <time>2011-01-03T14:35:33Z</time>
      </trkpt>
      <trkpt lat="46.2982" lon="-0.22709">
        <ele>108.4272</ele>
        <time>2011-01-03T14:35:34Z</time>
      </trkpt>
      <trkpt lat="46.2982" lon="-0.22708">
        <ele>108.4386</ele>
        <time>2011-01-03T14:35:35Z</time>
      </trkpt>
      <trkpt lat="46.29819" lon="-0.22707">
        <ele>108.4519</ele>
        <time>2011-01-03T14:35:36Z</time>
      </trkpt>
      <trkpt lat="46.29819" lon="-0.22705">
        <ele>108.4626</ele>
        <time>2011-01-03T14:35:37Z</time>
      </trkpt>
      <trkpt lat="46.29819" lon="-0.22705">
        <ele>108.4724</ele>
        <time>2011-01-03T14:35:38Z</time>
      </trkpt>
      <trkpt lat="46.29819" lon="-0.22704">
        <ele>108.4816</ele>
        <time>2011-01-03T14:35:39Z</time>
      </trkpt>
      <trkpt lat="46.29819" lon="-0.22703">
        <ele>108.4943</ele>
        <time>2011-01-03T14:35:40Z</time>
      </trkpt>
      <trkpt lat="46.29819" lon="-0.22702">
        <ele>108.5093</ele>
        <time>2011-01-03T14:35:41Z</time>
      </trkpt>
      <trkpt lat="46.29818" lon="-0.22701">
        <ele>108.5277</ele>
        <time>2011-01-03T14:35:42Z</time>
      </trkpt>
      <trkpt lat="46.29818" lon="-0.227">
        <ele>108.5499</ele>
        <time>2011-01-03T14:35:43Z</time>
      </trkpt>
      <trkpt lat="46.29818" lon="-0.227">
        <ele>108.5739</ele>
        <time>2011-01-03T14:35:44Z</time>
      </trkpt>
      <trkpt lat="46.29818" lon="-0.22699">
        <ele>108.6009</ele>
        <time>2011-01-03T14:35:45Z</time>
      </trkpt>
      <trkpt lat="46.29818" lon="-0.22698">
        <ele>108.6311</ele>
        <time>2011-01-03T14:35:46Z</time>
      </trkpt>
      <trkpt lat="46.29817" lon="-0.22697">
        <ele>108.6628</ele>
        <time>2011-01-03T14:35:47Z</time>
      </trkpt>
      <trkpt lat="46.29817" lon="-0.22696">
        <ele>108.6982</ele>
        <time>2011-01-03T14:35:48Z</time>
      </trkpt>
      <trkpt lat="46.29817" lon="-0.22694">
        <ele>108.7351</ele>
        <time>2011-01-03T14:35:49Z</time>
      </trkpt>
      <trkpt lat="46.29816" lon="-0.22692">
        <ele>108.8627</ele>
        <time>2011-01-03T14:35:53Z</time>
      </trkpt>
      <trkpt lat="46.29816" lon="-0.22691">
        <ele>108.9058</ele>
        <time>2011-01-03T14:35:54Z</time>
      </trkpt>
      <trkpt lat="46.29816" lon="-0.22691">
        <ele>108.9499</ele>
        <time>2011-01-03T14:35:55Z</time>
      </trkpt>
      <trkpt lat="46.29816" lon="-0.2269">
        <ele>108.9901</ele>
        <time>2011-01-03T14:35:56Z</time>
      </trkpt>
      <trkpt lat="46.29815" lon="-0.22689">
        <ele>109.0288</ele>
        <time>2011-01-03T14:35:57Z</time>
      </trkpt>
      <trkpt lat="46.29815" lon="-0.22688">
        <ele>109.0658</ele>
        <time>2011-01-03T14:35:58Z</time>
      </trkpt>
      <trkpt lat="46.29815" lon="-0.22687">
        <ele>109.103</ele>
        <time>2011-01-03T14:35:59Z</time>
      </trkpt>
      <trkpt lat="46.29815" lon="-0.22686">
        <ele>109.1397</ele>
        <time>2011-01-03T14:36:00Z</time>
      </trkpt>
      <trkpt lat="46.29815" lon="-0.22685">
        <ele>109.1773</ele>
        <time>2011-01-03T14:36:01Z</time>
      </trkpt>
      <trkpt lat="46.29814" lon="-0.22684">
        <ele>109.2153</ele>
        <time>2011-01-03T14:36:02Z</time>
      </trkpt>
      <trkpt lat="46.29814" lon="-0.22683">
        <ele>109.2515</ele>
        <time>2011-01-03T14:36:03Z</time>
      </trkpt>
      <trkpt lat="46.29814" lon="-0.22682">
        <ele>109.2859</ele>
        <time>2011-01-03T14:36:04Z</time>
      </trkpt>
      <trkpt lat="46.29813" lon="-0.22681">
        <ele>109.3188</ele>
        <time>2011-01-03T14:36:05Z</time>
      </trkpt>
      <trkpt lat="46.29813" lon="-0.2268">
        <ele>109.3536</ele>
        <time>2011-01-03T14:36:06Z</time>
      </trkpt>
      <trkpt lat="46.29813" lon="-0.22679">
        <ele>109.3871</ele>
        <time>2011-01-03T14:36:07Z</time>
      </trkpt>
      <trkpt lat="46.29812" lon="-0.22678">
        <ele>109.419</ele>
        <time>2011-01-03T14:36:08Z</time>
      </trkpt>
      <trkpt lat="46.29812" lon="-0.22677">
        <ele>109.4493</ele>
        <time>2011-01-03T14:36:09Z</time>
      </trkpt>
      <trkpt lat="46.29812" lon="-0.22676">
        <ele>109.4793</ele>
        <time>2011-01-03T14:36:10Z</time>
      </trkpt>
      <trkpt lat="46.29812" lon="-0.22676">
        <ele>109.5097</ele>
        <time>2011-01-03T14:36:11Z</time>
      </trkpt>
      <trkpt lat="46.29812" lon="-0.22675">
        <ele>109.5396</ele>
        <time>2011-01-03T14:36:12Z</time>
      </trkpt>
      <trkpt lat="46.29812" lon="-0.22675">
        <ele>109.5691</ele>
        <time>2011-01-03T14:36:13Z</time>
      </trkpt>
      <trkpt lat="46.29811" lon="-0.22674">
        <ele>109.597</ele>
        <time>2011-01-03T14:36:14Z</time>
      </trkpt>
      <trkpt lat="46.29811" lon="-0.22673">
        <ele>109.6227</ele>
        <time>2011-01-03T14:36:15Z</time>
      </trkpt>
      <trkpt lat="46.29811" lon="-0.22673">
        <ele>109.649</ele>
        <time>2011-01-03T14:36:16Z</time>
      </trkpt>
      <trkpt lat="46.29811" lon="-0.22672">
        <ele>109.6753</ele>
        <time>2011-01-03T14:36:17Z</time>
      </trkpt>
      <trkpt lat="46.29811" lon="-0.22671">
        <ele>109.7188</ele>
        <time>2011-01-03T14:36:18Z</time>
      </trkpt>
      <trkpt lat="46.2981" lon="-0.2267">
        <ele>109.8188</ele>
        <time>2011-01-03T14:36:22Z</time>
      </trkpt>
      <trkpt lat="46.29809" lon="-0.22666">
        <ele>109.9798</ele>
        <time>2011-01-03T14:36:30Z</time>
      </trkpt>
      <trkpt lat="46.29807" lon="-0.22662">
        <ele>110.1758</ele>
        <time>2011-01-03T14:36:39Z</time>
      </trkpt>
      <trkpt lat="46.29807" lon="-0.22661">
        <ele>110.235</ele>
        <time>2011-01-03T14:36:40Z</time>
      </trkpt>
      <trkpt lat="46.29807" lon="-0.2266">
        <ele>110.2917</ele>
        <time>2011-01-03T14:36:41Z</time>
      </trkpt>
      <trkpt lat="46.29806" lon="-0.22658">
        <ele>110.4117</ele>
        <time>2011-01-03T14:36:44Z</time>
      </trkpt>
      <trkpt lat="46.29806" lon="-0.22657">
        <ele>110.4665</ele>
        <time>2011-01-03T14:36:45Z</time>
      </trkpt>
      <trkpt lat="46.29806" lon="-0.22656">
        <ele>110.5227</ele>
        <time>2011-01-03T14:36:46Z</time>
      </trkpt>
      <trkpt lat="46.29806" lon="-0.22655">
        <ele>110.5771</ele>
        <time>2011-01-03T14:36:47Z</time>
      </trkpt>
      <trkpt lat="46.29806" lon="-0.22654">
        <ele>110.6283</ele>
        <time>2011-01-03T14:36:48Z</time>
      </trkpt>
      <trkpt lat="46.29806" lon="-0.22654">
        <ele>110.6801</ele>
        <time>2011-01-03T14:36:49Z</time>
      </trkpt>
      <trkpt lat="46.29806" lon="-0.22653">
        <ele>110.7309</ele>
        <time>2011-01-03T14:36:50Z</time>
      </trkpt>
      <trkpt lat="46.29805" lon="-0.22652">
        <ele>110.78</ele>
        <time>2011-01-03T14:36:51Z</time>
      </trkpt>
      <trkpt lat="46.29807" lon="-0.22649">
        <ele>110.8464</ele>
        <time>2011-01-03T14:36:58Z</time>
      </trkpt>
      <trkpt lat="46.29807" lon="-0.22648">
        <ele>110.8664</ele>
        <time>2011-01-03T14:36:59Z</time>
      </trkpt>
      <trkpt lat="46.29807" lon="-0.22647">
        <ele>110.8894</ele>
        <time>2011-01-03T14:37:00Z</time>
      </trkpt>
      <trkpt lat="46.29807" lon="-0.22646">
        <ele>110.9118</ele>
        <time>2011-01-03T14:37:01Z</time>
      </trkpt>
      <trkpt lat="46.29806" lon="-0.22645">
        <ele>110.9361</ele>
        <time>2011-01-03T14:37:02Z</time>
      </trkpt>
      <trkpt lat="46.29806" lon="-0.22644">
        <ele>110.9582</ele>
        <time>2011-01-03T14:37:03Z</time>
      </trkpt>
      <trkpt lat="46.29806" lon="-0.22642">
        <ele>110.9782</ele>
        <time>2011-01-03T14:37:04Z</time>
      </trkpt>
      <trkpt lat="46.29806" lon="-0.22641">
        <ele>110.9994</ele>
        <time>2011-01-03T14:37:05Z</time>
      </trkpt>
      <trkpt lat="46.29806" lon="-0.2264">
        <ele>111.0201</ele>
        <time>2011-01-03T14:37:06Z</time>
      </trkpt>
      <trkpt lat="46.29805" lon="-0.22639">
        <ele>111.045</ele>
        <time>2011-01-03T14:37:07Z</time>
      </trkpt>
      <trkpt lat="46.29805" lon="-0.22638">
        <ele>111.0753</ele>
        <time>2011-01-03T14:37:08Z</time>
      </trkpt>
      <trkpt lat="46.29805" lon="-0.22637">
        <ele>111.1114</ele>
        <time>2011-01-03T14:37:09Z</time>
      </trkpt>
      <trkpt lat="46.29805" lon="-0.22636">
        <ele>111.1509</ele>
        <time>2011-01-03T14:37:10Z</time>
      </trkpt>
      <trkpt lat="46.29805" lon="-0.22634">
        <ele>111.195</ele>
        <time>2011-01-03T14:37:11Z</time>
      </trkpt>
      <trkpt lat="46.29805" lon="-0.22633">
        <ele>111.2405</ele>
        <time>2011-01-03T14:37:12Z</time>
      </trkpt>
      <trkpt lat="46.29805" lon="-0.22632">
        <ele>111.2835</ele>
        <time>2011-01-03T14:37:13Z</time>
      </trkpt>
      <trkpt lat="46.29805" lon="-0.22631">
        <ele>111.3239</ele>
        <time>2011-01-03T14:37:14Z</time>
      </trkpt>
      <trkpt lat="46.29805" lon="-0.2263">
        <ele>111.3664</ele>
        <time>2011-01-03T14:37:15Z</time>
      </trkpt>
      <trkpt lat="46.29805" lon="-0.22629">
        <ele>111.4089</ele>
        <time>2011-01-03T14:37:16Z</time>
      </trkpt>
      <trkpt lat="46.29805" lon="-0.22627">
        <ele>111.4537</ele>
        <time>2011-01-03T14:37:17Z</time>
      </trkpt>
      <trkpt lat="46.29805" lon="-0.22626">
        <ele>111.505</ele>
        <time>2011-01-03T14:37:18Z</time>
      </trkpt>
      <trkpt lat="46.29805" lon="-0.22625">
        <ele>111.5595</ele>
        <time>2011-01-03T14:37:19Z</time>
      </trkpt>
      <trkpt lat="46.29805" lon="-0.22624">
        <ele>111.6152</ele>
        <time>2011-01-03T14:37:20Z</time>
      </trkpt>
      <trkpt lat="46.29806" lon="-0.22623">
        <ele>111.6737</ele>
        <time>2011-01-03T14:37:21Z</time>
      </trkpt>
      <trkpt lat="46.29806" lon="-0.22622">
        <ele>111.7352</ele>
        <time>2011-01-03T14:37:22Z</time>
      </trkpt>
      <trkpt lat="46.29806" lon="-0.22621">
        <ele>111.8012</ele>
        <time>2011-01-03T14:37:23Z</time>
      </trkpt>
      <trkpt lat="46.29806" lon="-0.22619">
        <ele>111.8798</ele>
        <time>2011-01-03T14:37:26Z</time>
      </trkpt>
      <trkpt lat="46.29806" lon="-0.22618">
        <ele>111.9462</ele>
        <time>2011-01-03T14:37:27Z</time>
      </trkpt>
      <trkpt lat="46.29806" lon="-0.22617">
        <ele>112.0087</ele>
        <time>2011-01-03T14:37:28Z</time>
      </trkpt>
      <trkpt lat="46.29806" lon="-0.22616">
        <ele>112.0645</ele>
        <time>2011-01-03T14:37:29Z</time>
      </trkpt>
      <trkpt lat="46.29806" lon="-0.22614">
        <ele>112.1111</ele>
        <time>2011-01-03T14:37:30Z</time>
      </trkpt>
      <trkpt lat="46.29806" lon="-0.22613">
        <ele>112.1521</ele>
        <time>2011-01-03T14:37:31Z</time>
      </trkpt>
      <trkpt lat="46.29806" lon="-0.22612">
        <ele>112.179</ele>
        <time>2011-01-03T14:37:32Z</time>
      </trkpt>
      <trkpt lat="46.29807" lon="-0.2261">
        <ele>112.2069</ele>
        <time>2011-01-03T14:37:33Z</time>
      </trkpt>
      <trkpt lat="46.29807" lon="-0.22609">
        <ele>112.2329</ele>
        <time>2011-01-03T14:37:34Z</time>
      </trkpt>
      <trkpt lat="46.29807" lon="-0.22608">
        <ele>112.2571</ele>
        <time>2011-01-03T14:37:35Z</time>
      </trkpt>
      <trkpt lat="46.29807" lon="-0.22607">
        <ele>112.2793</ele>
        <time>2011-01-03T14:37:36Z</time>
      </trkpt>
      <trkpt lat="46.29807" lon="-0.22605">
        <ele>112.298</ele>
        <time>2011-01-03T14:37:37Z</time>
      </trkpt>
      <trkpt lat="46.29807" lon="-0.22604">
        <ele>112.318</ele>
        <time>2011-01-03T14:37:38Z</time>
      </trkpt>
      <trkpt lat="46.29807" lon="-0.22603">
        <ele>112.3389</ele>
        <time>2011-01-03T14:37:39Z</time>
      </trkpt>
      <trkpt lat="46.29807" lon="-0.22601">
        <ele>112.3601</ele>
        <time>2011-01-03T14:37:40Z</time>
      </trkpt>
      <trkpt lat="46.29807" lon="-0.226">
        <ele>112.3756</ele>
        <time>2011-01-03T14:37:41Z</time>
      </trkpt>
      <trkpt lat="46.29807" lon="-0.22598">
        <ele>112.3837</ele>
        <time>2011-01-03T14:37:42Z</time>
      </trkpt>
      <trkpt lat="46.29807" lon="-0.22596">
        <ele>112.3837</ele>
        <time>2011-01-03T14:37:43Z</time>
      </trkpt>
      <trkpt lat="46.29807" lon="-0.22594">
        <ele>112.3749</ele>
        <time>2011-01-03T14:37:44Z</time>
      </trkpt>
      <trkpt lat="46.29807" lon="-0.22592">
        <ele>112.3623</ele>
        <time>2011-01-03T14:37:45Z</time>
      </trkpt>
      <trkpt lat="46.29807" lon="-0.2259">
        <ele>112.3439</ele>
        <time>2011-01-03T14:37:46Z</time>
      </trkpt>
      <trkpt lat="46.29808" lon="-0.22589">
        <ele>112.32</ele>
        <time>2011-01-03T14:37:47Z</time>
      </trkpt>
      <trkpt lat="46.29808" lon="-0.22588">
        <ele>112.2967</ele>
        <time>2011-01-03T14:37:48Z</time>
      </trkpt>
      <trkpt lat="46.29808" lon="-0.22586">
        <ele>112.2721</ele>
        <time>2011-01-03T14:37:49Z</time>
      </trkpt>
      <trkpt lat="46.29808" lon="-0.22585">
        <ele>112.2488</ele>
        <time>2011-01-03T14:37:50Z</time>
      </trkpt>
      <trkpt lat="46.29808" lon="-0.22584">
        <ele>112.2286</ele>
        <time>2011-01-03T14:37:51Z</time>
      </trkpt>
      <trkpt lat="46.29809" lon="-0.22583">
        <ele>112.2083</ele>
        <time>2011-01-03T14:37:52Z</time>
      </trkpt>
      <trkpt lat="46.29809" lon="-0.22581">
        <ele>112.1894</ele>
        <time>2011-01-03T14:37:53Z</time>
      </trkpt>
      <trkpt lat="46.2981" lon="-0.2258">
        <ele>112.1689</ele>
        <time>2011-01-03T14:37:54Z</time>
      </trkpt>
      <trkpt lat="46.2981" lon="-0.22579">
        <ele>112.1442</ele>
        <time>2011-01-03T14:37:55Z</time>
      </trkpt>
      <trkpt lat="46.2981" lon="-0.22578">
        <ele>112.1189</ele>
        <time>2011-01-03T14:37:56Z</time>
      </trkpt>
      <trkpt lat="46.2981" lon="-0.22576">
        <ele>112.0937</ele>
        <time>2011-01-03T14:37:57Z</time>
      </trkpt>
      <trkpt lat="46.2981" lon="-0.22575">
        <ele>112.0666</ele>
        <time>2011-01-03T14:37:58Z</time>
      </trkpt>
      <trkpt lat="46.2981" lon="-0.22575">
        <ele>112.04</ele>
        <time>2011-01-03T14:37:59Z</time>
      </trkpt>
      <trkpt lat="46.2981" lon="-0.22568">
        <ele>112.0365</ele>
        <time>2011-01-03T14:38:08Z</time>
      </trkpt>
      <trkpt lat="46.2981" lon="-0.22567">
        <ele>112.1911</ele>
        <time>2011-01-03T14:38:10Z</time>
      </trkpt>
      <trkpt lat="46.29814" lon="-0.22564">
        <ele>112.4607</ele>
        <time>2011-01-03T14:38:15Z</time>
      </trkpt>
      <trkpt lat="46.29815" lon="-0.22563">
        <ele>112.5431</ele>
        <time>2011-01-03T14:38:16Z</time>
      </trkpt>
      <trkpt lat="46.29816" lon="-0.22562">
        <ele>112.624</ele>
        <time>2011-01-03T14:38:17Z</time>
      </trkpt>
      <trkpt lat="46.29817" lon="-0.2256">
        <ele>112.7052</ele>
        <time>2011-01-03T14:38:18Z</time>
      </trkpt>
      <trkpt lat="46.29817" lon="-0.22558">
        <ele>112.7848</ele>
        <time>2011-01-03T14:38:19Z</time>
      </trkpt>
      <trkpt lat="46.29818" lon="-0.22557">
        <ele>112.8608</ele>
        <time>2011-01-03T14:38:20Z</time>
      </trkpt>
      <trkpt lat="46.29818" lon="-0.22555">
        <ele>112.9379</ele>
        <time>2011-01-03T14:38:21Z</time>
      </trkpt>
      <trkpt lat="46.29818" lon="-0.22554">
        <ele>113.0165</ele>
        <time>2011-01-03T14:38:22Z</time>
      </trkpt>
      <trkpt lat="46.29818" lon="-0.22552">
        <ele>113.0926</ele>
        <time>2011-01-03T14:38:23Z</time>
      </trkpt>
      <trkpt lat="46.29818" lon="-0.22551">
        <ele>113.1668</ele>
        <time>2011-01-03T14:38:24Z</time>
      </trkpt>
      <trkpt lat="46.29818" lon="-0.22549">
        <ele>113.2423</ele>
        <time>2011-01-03T14:38:25Z</time>
      </trkpt>
      <trkpt lat="46.29818" lon="-0.22547">
        <ele>113.3181</ele>
        <time>2011-01-03T14:38:26Z</time>
      </trkpt>
      <trkpt lat="46.29819" lon="-0.22546">
        <ele>113.3908</ele>
        <time>2011-01-03T14:38:27Z</time>
      </trkpt>
      <trkpt lat="46.29819" lon="-0.22544">
        <ele>113.4608</ele>
        <time>2011-01-03T14:38:28Z</time>
      </trkpt>
      <trkpt lat="46.29819" lon="-0.22543">
        <ele>113.5303</ele>
        <time>2011-01-03T14:38:29Z</time>
      </trkpt>
      <trkpt lat="46.2982" lon="-0.22542">
        <ele>113.5983</ele>
        <time>2011-01-03T14:38:30Z</time>
      </trkpt>
      <trkpt lat="46.2982" lon="-0.22541">
        <ele>113.667</ele>
        <time>2011-01-03T14:38:31Z</time>
      </trkpt>
      <trkpt lat="46.2982" lon="-0.2254">
        <ele>113.7374</ele>
        <time>2011-01-03T14:38:32Z</time>
      </trkpt>
      <trkpt lat="46.2982" lon="-0.22538">
        <ele>113.8072</ele>
        <time>2011-01-03T14:38:33Z</time>
      </trkpt>
      <trkpt lat="46.2982" lon="-0.22537">
        <ele>113.8753</ele>
        <time>2011-01-03T14:38:34Z</time>
      </trkpt>
      <trkpt lat="46.29821" lon="-0.22536">
        <ele>113.9407</ele>
        <time>2011-01-03T14:38:35Z</time>
      </trkpt>
      <trkpt lat="46.29821" lon="-0.22535">
        <ele>114.0055</ele>
        <time>2011-01-03T14:38:36Z</time>
      </trkpt>
      <trkpt lat="46.29821" lon="-0.22533">
        <ele>114.0709</ele>
        <time>2011-01-03T14:38:37Z</time>
      </trkpt>
      <trkpt lat="46.29821" lon="-0.22531">
        <ele>114.1337</ele>
        <time>2011-01-03T14:38:38Z</time>
      </trkpt>
      <trkpt lat="46.29821" lon="-0.2253">
        <ele>114.1949</ele>
        <time>2011-01-03T14:38:39Z</time>
      </trkpt>
      <trkpt lat="46.29821" lon="-0.22529">
        <ele>114.2554</ele>
        <time>2011-01-03T14:38:40Z</time>
      </trkpt>
      <trkpt lat="46.29821" lon="-0.22527">
        <ele>114.314</ele>
        <time>2011-01-03T14:38:41Z</time>
      </trkpt>
      <trkpt lat="46.29821" lon="-0.22526">
        <ele>114.3714</ele>
        <time>2011-01-03T14:38:42Z</time>
      </trkpt>
      <trkpt lat="46.29821" lon="-0.22524">
        <ele>114.4302</ele>
        <time>2011-01-03T14:38:43Z</time>
      </trkpt>
      <trkpt lat="46.29822" lon="-0.22523">
        <ele>114.4893</ele>
        <time>2011-01-03T14:38:44Z</time>
      </trkpt>
      <trkpt lat="46.29822" lon="-0.22521">
        <ele>114.548</ele>
        <time>2011-01-03T14:38:45Z</time>
      </trkpt>
      <trkpt lat="46.29822" lon="-0.2252">
        <ele>114.607</ele>
        <time>2011-01-03T14:38:46Z</time>
      </trkpt>
      <trkpt lat="46.29822" lon="-0.22518">
        <ele>114.6659</ele>
        <time>2011-01-03T14:38:47Z</time>
      </trkpt>
      <trkpt lat="46.29822" lon="-0.22517">
        <ele>114.7256</ele>
        <time>2011-01-03T14:38:48Z</time>
      </trkpt>
      <trkpt lat="46.29823" lon="-0.22516">
        <ele>114.7839</ele>
        <time>2011-01-03T14:38:49Z</time>
      </trkpt>
      <trkpt lat="46.29823" lon="-0.22514">
        <ele>114.8439</ele>
        <time>2011-01-03T14:38:50Z</time>
      </trkpt>
      <trkpt lat="46.29823" lon="-0.22513">
        <ele>114.9033</ele>
        <time>2011-01-03T14:38:51Z</time>
      </trkpt>
      <trkpt lat="46.29823" lon="-0.22511">
        <ele>114.965</ele>
        <time>2011-01-03T14:38:52Z</time>
      </trkpt>
      <trkpt lat="46.29823" lon="-0.2251">
        <ele>115.0276</ele>
        <time>2011-01-03T14:38:53Z</time>
      </trkpt>
      <trkpt lat="46.29824" lon="-0.22509">
        <ele>115.09</ele>
        <time>2011-01-03T14:38:54Z</time>
      </trkpt>
      <trkpt lat="46.29824" lon="-0.22508">
        <ele>115.1511</ele>
        <time>2011-01-03T14:38:55Z</time>
      </trkpt>
      <trkpt lat="46.29824" lon="-0.22506">
        <ele>115.2095</ele>
        <time>2011-01-03T14:38:56Z</time>
      </trkpt>
      <trkpt lat="46.29824" lon="-0.22505">
        <ele>115.2666</ele>
        <time>2011-01-03T14:38:57Z</time>
      </trkpt>
      <trkpt lat="46.29825" lon="-0.22504">
        <ele>115.318</ele>
        <time>2011-01-03T14:38:58Z</time>
      </trkpt>
      <trkpt lat="46.29825" lon="-0.22503">
        <ele>115.3698</ele>
        <time>2011-01-03T14:38:59Z</time>
      </trkpt>
      <trkpt lat="46.29825" lon="-0.22502">
        <ele>115.4206</ele>
        <time>2011-01-03T14:39:00Z</time>
      </trkpt>
      <trkpt lat="46.29825" lon="-0.22502">
        <ele>115.4718</ele>
        <time>2011-01-03T14:39:02Z</time>
      </trkpt>
      <trkpt lat="46.29825" lon="-0.22501">
        <ele>115.5168</ele>
        <time>2011-01-03T14:39:03Z</time>
      </trkpt>
      <trkpt lat="46.29825" lon="-0.225">
        <ele>115.5636</ele>
        <time>2011-01-03T14:39:04Z</time>
      </trkpt>
      <trkpt lat="46.29825" lon="-0.22499">
        <ele>115.6073</ele>
        <time>2011-01-03T14:39:05Z</time>
      </trkpt>
      <trkpt lat="46.29825" lon="-0.22497">
        <ele>115.6457</ele>
        <time>2011-01-03T14:39:06Z</time>
      </trkpt>
      <trkpt lat="46.29826" lon="-0.22495">
        <ele>115.6788</ele>
        <time>2011-01-03T14:39:07Z</time>
      </trkpt>
      <trkpt lat="46.29826" lon="-0.22493">
        <ele>115.7123</ele>
        <time>2011-01-03T14:39:08Z</time>
      </trkpt>
      <trkpt lat="46.29826" lon="-0.22491">
        <ele>115.7464</ele>
        <time>2011-01-03T14:39:09Z</time>
      </trkpt>
      <trkpt lat="46.29827" lon="-0.22489">
        <ele>115.7811</ele>
        <time>2011-01-03T14:39:10Z</time>
      </trkpt>
      <trkpt lat="46.29827" lon="-0.22487">
        <ele>115.8164</ele>
        <time>2011-01-03T14:39:11Z</time>
      </trkpt>
      <trkpt lat="46.29827" lon="-0.22486">
        <ele>115.8522</ele>
        <time>2011-01-03T14:39:12Z</time>
      </trkpt>
      <trkpt lat="46.29827" lon="-0.22484">
        <ele>115.8877</ele>
        <time>2011-01-03T14:39:13Z</time>
      </trkpt>
      <trkpt lat="46.29826" lon="-0.22484">
        <ele>115.9212</ele>
        <time>2011-01-03T14:39:14Z</time>
      </trkpt>
      <trkpt lat="46.29826" lon="-0.22483">
        <ele>115.9491</ele>
        <time>2011-01-03T14:39:15Z</time>
      </trkpt>
      <trkpt lat="46.29826" lon="-0.22481">
        <ele>115.9961</ele>
        <time>2011-01-03T14:39:16Z</time>
      </trkpt>
      <trkpt lat="46.29826" lon="-0.2248">
        <ele>116.0426</ele>
        <time>2011-01-03T14:39:17Z</time>
      </trkpt>
      <trkpt lat="46.29826" lon="-0.22478">
        <ele>116.0887</ele>
        <time>2011-01-03T14:39:18Z</time>
      </trkpt>
      <trkpt lat="46.29826" lon="-0.22476">
        <ele>116.1336</ele>
        <time>2011-01-03T14:39:19Z</time>
      </trkpt>
      <trkpt lat="46.29826" lon="-0.22475">
        <ele>116.1757</ele>
        <time>2011-01-03T14:39:20Z</time>
      </trkpt>
      <trkpt lat="46.29827" lon="-0.22474">
        <ele>116.2171</ele>
        <time>2011-01-03T14:39:21Z</time>
      </trkpt>
      <trkpt lat="46.29828" lon="-0.22473">
        <ele>116.2675</ele>
        <time>2011-01-03T14:39:22Z</time>
      </trkpt>
      <trkpt lat="46.29828" lon="-0.22472">
        <ele>116.3229</ele>
        <time>2011-01-03T14:39:23Z</time>
      </trkpt>
      <trkpt lat="46.29829" lon="-0.22471">
        <ele>116.3865</ele>
        <time>2011-01-03T14:39:24Z</time>
      </trkpt>
      <trkpt lat="46.29829" lon="-0.2247">
        <ele>116.457</ele>
        <time>2011-01-03T14:39:25Z</time>
      </trkpt>
      <trkpt lat="46.2983" lon="-0.2247">
        <ele>116.5306</ele>
        <time>2011-01-03T14:39:26Z</time>
      </trkpt>
      <trkpt lat="46.29831" lon="-0.22469">
        <ele>116.6089</ele>
        <time>2011-01-03T14:39:27Z</time>
      </trkpt>
      <trkpt lat="46.29831" lon="-0.22468">
        <ele>116.6884</ele>
        <time>2011-01-03T14:39:28Z</time>
      </trkpt>
      <trkpt lat="46.29832" lon="-0.22467">
        <ele>116.7697</ele>
        <time>2011-01-03T14:39:29Z</time>
      </trkpt>
      <trkpt lat="46.29832" lon="-0.22466">
        <ele>116.8488</ele>
        <time>2011-01-03T14:39:30Z</time>
      </trkpt>
      <trkpt lat="46.29832" lon="-0.22465">
        <ele>116.9304</ele>
        <time>2011-01-03T14:39:31Z</time>
      </trkpt>
      <trkpt lat="46.29831" lon="-0.22464">
        <ele>117.0472</ele>
        <time>2011-01-03T14:39:35Z</time>
      </trkpt>
      <trkpt lat="46.29831" lon="-0.22464">
        <ele>117.1323</ele>
        <time>2011-01-03T14:39:36Z</time>
      </trkpt>
      <trkpt lat="46.29831" lon="-0.22463">
        <ele>117.2131</ele>
        <time>2011-01-03T14:39:37Z</time>
      </trkpt>
      <trkpt lat="46.29831" lon="-0.22462">
        <ele>117.2889</ele>
        <time>2011-01-03T14:39:38Z</time>
      </trkpt>
      <trkpt lat="46.29831" lon="-0.22461">
        <ele>117.3605</ele>
        <time>2011-01-03T14:39:39Z</time>
      </trkpt>
      <trkpt lat="46.29831" lon="-0.2246">
        <ele>117.4281</ele>
        <time>2011-01-03T14:39:40Z</time>
      </trkpt>
      <trkpt lat="46.29832" lon="-0.22459">
        <ele>117.4905</ele>
        <time>2011-01-03T14:39:41Z</time>
      </trkpt>
      <trkpt lat="46.29832" lon="-0.22457">
        <ele>117.5497</ele>
        <time>2011-01-03T14:39:42Z</time>
      </trkpt>
      <trkpt lat="46.29833" lon="-0.22456">
        <ele>117.6055</ele>
        <time>2011-01-03T14:39:43Z</time>
      </trkpt>
      <trkpt lat="46.29833" lon="-0.22454">
        <ele>117.6614</ele>
        <time>2011-01-03T14:39:44Z</time>
      </trkpt>
      <trkpt lat="46.29833" lon="-0.22453">
        <ele>117.7195</ele>
        <time>2011-01-03T14:39:45Z</time>
      </trkpt>
      <trkpt lat="46.29834" lon="-0.22452">
        <ele>117.7736</ele>
        <time>2011-01-03T14:39:46Z</time>
      </trkpt>
      <trkpt lat="46.29834" lon="-0.2245">
        <ele>117.8265</ele>
        <time>2011-01-03T14:39:47Z</time>
      </trkpt>
      <trkpt lat="46.29834" lon="-0.22449">
        <ele>117.877</ele>
        <time>2011-01-03T14:39:48Z</time>
      </trkpt>
      <trkpt lat="46.29834" lon="-0.22448">
        <ele>117.9269</ele>
        <time>2011-01-03T14:39:49Z</time>
      </trkpt>
      <trkpt lat="46.29835" lon="-0.22447">
        <ele>117.9815</ele>
        <time>2011-01-03T14:39:50Z</time>
      </trkpt>
      <trkpt lat="46.29836" lon="-0.22445">
        <ele>118.0412</ele>
        <time>2011-01-03T14:39:51Z</time>
      </trkpt>
      <trkpt lat="46.29837" lon="-0.22444">
        <ele>118.0983</ele>
        <time>2011-01-03T14:39:52Z</time>
      </trkpt>
      <trkpt lat="46.29837" lon="-0.22443">
        <ele>118.1522</ele>
        <time>2011-01-03T14:39:53Z</time>
      </trkpt>
      <trkpt lat="46.29837" lon="-0.22442">
        <ele>118.2058</ele>
        <time>2011-01-03T14:39:54Z</time>
      </trkpt>
      <trkpt lat="46.29838" lon="-0.2244">
        <ele>118.2566</ele>
        <time>2011-01-03T14:39:55Z</time>
      </trkpt>
      <trkpt lat="46.29838" lon="-0.22439">
        <ele>118.3038</ele>
        <time>2011-01-03T14:39:56Z</time>
      </trkpt>
      <trkpt lat="46.29838" lon="-0.22437">
        <ele>118.3469</ele>
        <time>2011-01-03T14:39:57Z</time>
      </trkpt>
      <trkpt lat="46.29838" lon="-0.22436">
        <ele>118.3877</ele>
        <time>2011-01-03T14:39:58Z</time>
      </trkpt>
      <trkpt lat="46.29839" lon="-0.22434">
        <ele>118.4296</ele>
        <time>2011-01-03T14:39:59Z</time>
      </trkpt>
      <trkpt lat="46.29838" lon="-0.22433">
        <ele>118.4699</ele>
        <time>2011-01-03T14:40:00Z</time>
      </trkpt>
      <trkpt lat="46.29838" lon="-0.22432">
        <ele>118.513</ele>
        <time>2011-01-03T14:40:01Z</time>
      </trkpt>
      <trkpt lat="46.29837" lon="-0.22431">
        <ele>118.5574</ele>
        <time>2011-01-03T14:40:02Z</time>
      </trkpt>
      <trkpt lat="46.29838" lon="-0.22429">
        <ele>118.6024</ele>
        <time>2011-01-03T14:40:03Z</time>
      </trkpt>
      <trkpt lat="46.29838" lon="-0.22428">
        <ele>118.6466</ele>
        <time>2011-01-03T14:40:04Z</time>
      </trkpt>
      <trkpt lat="46.29838" lon="-0.22427">
        <ele>118.6961</ele>
        <time>2011-01-03T14:40:05Z</time>
      </trkpt>
      <trkpt lat="46.29838" lon="-0.22426">
        <ele>118.7446</ele>
        <time>2011-01-03T14:40:06Z</time>
      </trkpt>
      <trkpt lat="46.29838" lon="-0.22424">
        <ele>118.7919</ele>
        <time>2011-01-03T14:40:07Z</time>
      </trkpt>
      <trkpt lat="46.29839" lon="-0.22423">
        <ele>118.8385</ele>
        <time>2011-01-03T14:40:08Z</time>
      </trkpt>
      <trkpt lat="46.29839" lon="-0.22422">
        <ele>118.8842</ele>
        <time>2011-01-03T14:40:09Z</time>
      </trkpt>
      <trkpt lat="46.29839" lon="-0.2242">
        <ele>118.9295</ele>
        <time>2011-01-03T14:40:10Z</time>
      </trkpt>
      <trkpt lat="46.29839" lon="-0.22418">
        <ele>118.975</ele>
        <time>2011-01-03T14:40:11Z</time>
      </trkpt>
      <trkpt lat="46.29839" lon="-0.22416">
        <ele>119.0208</ele>
        <time>2011-01-03T14:40:12Z</time>
      </trkpt>
      <trkpt lat="46.29839" lon="-0.22414">
        <ele>119.0654</ele>
        <time>2011-01-03T14:40:13Z</time>
      </trkpt>
      <trkpt lat="46.29839" lon="-0.22412">
        <ele>119.1083</ele>
        <time>2011-01-03T14:40:14Z</time>
      </trkpt>
      <trkpt lat="46.29839" lon="-0.22411">
        <ele>119.1486</ele>
        <time>2011-01-03T14:40:15Z</time>
      </trkpt>
      <trkpt lat="46.29839" lon="-0.22409">
        <ele>119.1874</ele>
        <time>2011-01-03T14:40:16Z</time>
      </trkpt>
      <trkpt lat="46.29839" lon="-0.22407">
        <ele>119.2266</ele>
        <time>2011-01-03T14:40:17Z</time>
      </trkpt>
      <trkpt lat="46.29839" lon="-0.22406">
        <ele>119.2664</ele>
        <time>2011-01-03T14:40:18Z</time>
      </trkpt>
      <trkpt lat="46.29839" lon="-0.22404">
        <ele>119.3065</ele>
        <time>2011-01-03T14:40:19Z</time>
      </trkpt>
      <trkpt lat="46.29839" lon="-0.22403">
        <ele>119.3465</ele>
        <time>2011-01-03T14:40:20Z</time>
      </trkpt>
      <trkpt lat="46.2984" lon="-0.22401">
        <ele>119.3921</ele>
        <time>2011-01-03T14:40:21Z</time>
      </trkpt>
      <trkpt lat="46.29841" lon="-0.22399">
        <ele>119.4381</ele>
        <time>2011-01-03T14:40:22Z</time>
      </trkpt>
      <trkpt lat="46.29841" lon="-0.22398">
        <ele>119.4841</ele>
        <time>2011-01-03T14:40:23Z</time>
      </trkpt>
      <trkpt lat="46.29842" lon="-0.22396">
        <ele>119.5372</ele>
        <time>2011-01-03T14:40:24Z</time>
      </trkpt>
      <trkpt lat="46.29843" lon="-0.22394">
        <ele>119.5954</ele>
        <time>2011-01-03T14:40:25Z</time>
      </trkpt>
      <trkpt lat="46.29844" lon="-0.22393">
        <ele>119.6593</ele>
        <time>2011-01-03T14:40:26Z</time>
      </trkpt>
      <trkpt lat="46.29845" lon="-0.22391">
        <ele>119.7255</ele>
        <time>2011-01-03T14:40:27Z</time>
      </trkpt>
      <trkpt lat="46.29845" lon="-0.2239">
        <ele>119.7902</ele>
        <time>2011-01-03T14:40:28Z</time>
      </trkpt>
      <trkpt lat="46.29846" lon="-0.22389">
        <ele>119.8528</ele>
        <time>2011-01-03T14:40:29Z</time>
      </trkpt>
      <trkpt lat="46.29847" lon="-0.22387">
        <ele>119.9144</ele>
        <time>2011-01-03T14:40:30Z</time>
      </trkpt>
      <trkpt lat="46.29847" lon="-0.22386">
        <ele>119.9806</ele>
        <time>2011-01-03T14:40:31Z</time>
      </trkpt>
      <trkpt lat="46.29849" lon="-0.22384">
        <ele>120.0492</ele>
        <time>2011-01-03T14:40:32Z</time>
      </trkpt>
      <trkpt lat="46.29849" lon="-0.22383">
        <ele>120.1152</ele>
        <time>2011-01-03T14:40:33Z</time>
      </trkpt>
      <trkpt lat="46.29849" lon="-0.22381">
        <ele>120.1799</ele>
        <time>2011-01-03T14:40:34Z</time>
      </trkpt>
      <trkpt lat="46.2985" lon="-0.2238">
        <ele>120.2433</ele>
        <time>2011-01-03T14:40:35Z</time>
      </trkpt>
      <trkpt lat="46.2985" lon="-0.22378">
        <ele>120.3062</ele>
        <time>2011-01-03T14:40:36Z</time>
      </trkpt>
      <trkpt lat="46.2985" lon="-0.22377">
        <ele>120.3714</ele>
        <time>2011-01-03T14:40:37Z</time>
      </trkpt>
      <trkpt lat="46.29849" lon="-0.22377">
        <ele>120.4383</ele>
        <time>2011-01-03T14:40:38Z</time>
      </trkpt>
      <trkpt lat="46.29849" lon="-0.22376">
        <ele>120.5049</ele>
        <time>2011-01-03T14:40:39Z</time>
      </trkpt>
      <trkpt lat="46.29849" lon="-0.22374">
        <ele>120.5711</ele>
        <time>2011-01-03T14:40:40Z</time>
      </trkpt>
      <trkpt lat="46.29849" lon="-0.22373">
        <ele>120.6356</ele>
        <time>2011-01-03T14:40:41Z</time>
      </trkpt>
      <trkpt lat="46.2985" lon="-0.22372">
        <ele>120.6976</ele>
        <time>2011-01-03T14:40:42Z</time>
      </trkpt>
      <trkpt lat="46.2985" lon="-0.22371">
        <ele>120.7578</ele>
        <time>2011-01-03T14:40:43Z</time>
      </trkpt>
      <trkpt lat="46.2985" lon="-0.2237">
        <ele>120.8163</ele>
        <time>2011-01-03T14:40:44Z</time>
      </trkpt>
      <trkpt lat="46.2985" lon="-0.22369">
        <ele>120.8728</ele>
        <time>2011-01-03T14:40:45Z</time>
      </trkpt>
      <trkpt lat="46.2985" lon="-0.22367">
        <ele>120.9287</ele>
        <time>2011-01-03T14:40:46Z</time>
      </trkpt>
      <trkpt lat="46.2985" lon="-0.22366">
        <ele>120.9838</ele>
        <time>2011-01-03T14:40:47Z</time>
      </trkpt>
      <trkpt lat="46.29851" lon="-0.22364">
        <ele>121.0378</ele>
        <time>2011-01-03T14:40:48Z</time>
      </trkpt>
      <trkpt lat="46.29851" lon="-0.22363">
        <ele>121.0908</ele>
        <time>2011-01-03T14:40:49Z</time>
      </trkpt>
      <trkpt lat="46.29852" lon="-0.22362">
        <ele>121.142</ele>
        <time>2011-01-03T14:40:50Z</time>
      </trkpt>
      <trkpt lat="46.29852" lon="-0.22361">
        <ele>121.1906</ele>
        <time>2011-01-03T14:40:51Z</time>
      </trkpt>
      <trkpt lat="46.29852" lon="-0.2236">
        <ele>121.2336</ele>
        <time>2011-01-03T14:40:52Z</time>
      </trkpt>
      <trkpt lat="46.29852" lon="-0.22358">
        <ele>121.3337</ele>
        <time>2011-01-03T14:41:00Z</time>
      </trkpt>
      <trkpt lat="46.29853" lon="-0.22357">
        <ele>121.3512</ele>
        <time>2011-01-03T14:41:01Z</time>
      </trkpt>
      <trkpt lat="46.29854" lon="-0.22355">
        <ele>121.3691</ele>
        <time>2011-01-03T14:41:02Z</time>
      </trkpt>
      <trkpt lat="46.29855" lon="-0.22354">
        <ele>121.3884</ele>
        <time>2011-01-03T14:41:03Z</time>
      </trkpt>
      <trkpt lat="46.29855" lon="-0.22352">
        <ele>121.4057</ele>
        <time>2011-01-03T14:41:04Z</time>
      </trkpt>
      <trkpt lat="46.29856" lon="-0.22351">
        <ele>121.4186</ele>
        <time>2011-01-03T14:41:05Z</time>
      </trkpt>
      <trkpt lat="46.29857" lon="-0.22349">
        <ele>121.431</ele>
        <time>2011-01-03T14:41:06Z</time>
      </trkpt>
      <trkpt lat="46.29858" lon="-0.22348">
        <ele>121.4435</ele>
        <time>2011-01-03T14:41:07Z</time>
      </trkpt>
      <trkpt lat="46.29859" lon="-0.22346">
        <ele>121.4564</ele>
        <time>2011-01-03T14:41:08Z</time>
      </trkpt>
      <trkpt lat="46.2986" lon="-0.22345">
        <ele>121.4714</ele>
        <time>2011-01-03T14:41:09Z</time>
      </trkpt>
      <trkpt lat="46.2986" lon="-0.22344">
        <ele>121.4876</ele>
        <time>2011-01-03T14:41:10Z</time>
      </trkpt>
      <trkpt lat="46.29861" lon="-0.22342">
        <ele>121.5062</ele>
        <time>2011-01-03T14:41:11Z</time>
      </trkpt>
      <trkpt lat="46.29861" lon="-0.22341">
        <ele>121.5252</ele>
        <time>2011-01-03T14:41:12Z</time>
      </trkpt>
      <trkpt lat="46.29862" lon="-0.22339">
        <ele>121.5462</ele>
        <time>2011-01-03T14:41:13Z</time>
      </trkpt>
      <trkpt lat="46.29863" lon="-0.22338">
        <ele>121.5686</ele>
        <time>2011-01-03T14:41:14Z</time>
      </trkpt>
      <trkpt lat="46.29863" lon="-0.22337">
        <ele>121.5906</ele>
        <time>2011-01-03T14:41:15Z</time>
      </trkpt>
      <trkpt lat="46.29864" lon="-0.22336">
        <ele>121.6112</ele>
        <time>2011-01-03T14:41:16Z</time>
      </trkpt>
      <trkpt lat="46.29864" lon="-0.22334">
        <ele>121.631</ele>
        <time>2011-01-03T14:41:17Z</time>
      </trkpt>
      <trkpt lat="46.29864" lon="-0.22333">
        <ele>121.648</ele>
        <time>2011-01-03T14:41:18Z</time>
      </trkpt>
      <trkpt lat="46.29865" lon="-0.22332">
        <ele>121.6625</ele>
        <time>2011-01-03T14:41:19Z</time>
      </trkpt>
      <trkpt lat="46.29865" lon="-0.22331">
        <ele>121.673</ele>
        <time>2011-01-03T14:41:20Z</time>
      </trkpt>
      <trkpt lat="46.29865" lon="-0.2233">
        <ele>121.6823</ele>
        <time>2011-01-03T14:41:21Z</time>
      </trkpt>
      <trkpt lat="46.29866" lon="-0.2233">
        <ele>121.6931</ele>
        <time>2011-01-03T14:41:22Z</time>
      </trkpt>
      <trkpt lat="46.29866" lon="-0.22329">
        <ele>121.7019</ele>
        <time>2011-01-03T14:41:23Z</time>
      </trkpt>
      <trkpt lat="46.29866" lon="-0.22328">
        <ele>121.7138</ele>
        <time>2011-01-03T14:41:24Z</time>
      </trkpt>
      <trkpt lat="46.29867" lon="-0.22326">
        <ele>121.7257</ele>
        <time>2011-01-03T14:41:25Z</time>
      </trkpt>
      <trkpt lat="46.29868" lon="-0.22325">
        <ele>121.7426</ele>
        <time>2011-01-03T14:41:26Z</time>
      </trkpt>
      <trkpt lat="46.29868" lon="-0.22324">
        <ele>121.7588</ele>
        <time>2011-01-03T14:41:27Z</time>
      </trkpt>
      <trkpt lat="46.29868" lon="-0.22323">
        <ele>121.7719</ele>
        <time>2011-01-03T14:41:28Z</time>
      </trkpt>
      <trkpt lat="46.29869" lon="-0.22322">
        <ele>121.7842</ele>
        <time>2011-01-03T14:41:29Z</time>
      </trkpt>
      <trkpt lat="46.29869" lon="-0.22321">
        <ele>121.7932</ele>
        <time>2011-01-03T14:41:30Z</time>
      </trkpt>
      <trkpt lat="46.29869" lon="-0.2232">
        <ele>121.7975</ele>
        <time>2011-01-03T14:41:31Z</time>
      </trkpt>
      <trkpt lat="46.2987" lon="-0.22319">
        <ele>121.7983</ele>
        <time>2011-01-03T14:41:32Z</time>
      </trkpt>
      <trkpt lat="46.2987" lon="-0.22318">
        <ele>121.7984</ele>
        <time>2011-01-03T14:41:33Z</time>
      </trkpt>
      <trkpt lat="46.29869" lon="-0.22317">
        <ele>121.7966</ele>
        <time>2011-01-03T14:41:34Z</time>
      </trkpt>
      <trkpt lat="46.29869" lon="-0.22316">
        <ele>121.7928</ele>
        <time>2011-01-03T14:41:35Z</time>
      </trkpt>
      <trkpt lat="46.29869" lon="-0.22315">
        <ele>121.785</ele>
        <time>2011-01-03T14:41:36Z</time>
      </trkpt>
      <trkpt lat="46.29869" lon="-0.22314">
        <ele>121.7729</ele>
        <time>2011-01-03T14:41:37Z</time>
      </trkpt>
      <trkpt lat="46.29869" lon="-0.22312">
        <ele>121.7569</ele>
        <time>2011-01-03T14:41:38Z</time>
      </trkpt>
      <trkpt lat="46.29869" lon="-0.22311">
        <ele>121.7377</ele>
        <time>2011-01-03T14:41:39Z</time>
      </trkpt>
      <trkpt lat="46.29869" lon="-0.22309">
        <ele>121.719</ele>
        <time>2011-01-03T14:41:40Z</time>
      </trkpt>
      <trkpt lat="46.29869" lon="-0.22307">
        <ele>121.7032</ele>
        <time>2011-01-03T14:41:41Z</time>
      </trkpt>
      <trkpt lat="46.29869" lon="-0.22305">
        <ele>121.6894</ele>
        <time>2011-01-03T14:41:42Z</time>
      </trkpt>
      <trkpt lat="46.29869" lon="-0.22303">
        <ele>121.6833</ele>
        <time>2011-01-03T14:41:43Z</time>
      </trkpt>
      <trkpt lat="46.29869" lon="-0.22301">
        <ele>121.6757</ele>
        <time>2011-01-03T14:41:44Z</time>
      </trkpt>
      <trkpt lat="46.29869" lon="-0.22299">
        <ele>121.6667</ele>
        <time>2011-01-03T14:41:45Z</time>
      </trkpt>
      <trkpt lat="46.29869" lon="-0.22297">
        <ele>121.6581</ele>
        <time>2011-01-03T14:41:46Z</time>
      </trkpt>
      <trkpt lat="46.29868" lon="-0.22295">
        <ele>121.6425</ele>
        <time>2011-01-03T14:41:47Z</time>
      </trkpt>
      <trkpt lat="46.29868" lon="-0.22293">
        <ele>121.6216</ele>
        <time>2011-01-03T14:41:48Z</time>
      </trkpt>
      <trkpt lat="46.29867" lon="-0.22291">
        <ele>121.5959</ele>
        <time>2011-01-03T14:41:49Z</time>
      </trkpt>
      <trkpt lat="46.29867" lon="-0.22289">
        <ele>121.5712</ele>
        <time>2011-01-03T14:41:50Z</time>
      </trkpt>
      <trkpt lat="46.29866" lon="-0.22287">
        <ele>121.547</ele>
        <time>2011-01-03T14:41:51Z</time>
      </trkpt>
      <trkpt lat="46.29866" lon="-0.22285">
        <ele>121.5198</ele>
        <time>2011-01-03T14:41:52Z</time>
      </trkpt>
      <trkpt lat="46.29866" lon="-0.22284">
        <ele>121.4875</ele>
        <time>2011-01-03T14:41:53Z</time>
      </trkpt>
      <trkpt lat="46.29866" lon="-0.22282">
        <ele>121.4535</ele>
        <time>2011-01-03T14:41:54Z</time>
      </trkpt>
      <trkpt lat="46.29865" lon="-0.22281">
        <ele>121.4185</ele>
        <time>2011-01-03T14:41:55Z</time>
      </trkpt>
      <trkpt lat="46.29865" lon="-0.22279">
        <ele>121.3818</ele>
        <time>2011-01-03T14:41:56Z</time>
      </trkpt>
      <trkpt lat="46.29865" lon="-0.22278">
        <ele>121.342</ele>
        <time>2011-01-03T14:41:57Z</time>
      </trkpt>
      <trkpt lat="46.29864" lon="-0.22277">
        <ele>121.2977</ele>
        <time>2011-01-03T14:41:58Z</time>
      </trkpt>
      <trkpt lat="46.29864" lon="-0.22275">
        <ele>121.248</ele>
        <time>2011-01-03T14:41:59Z</time>
      </trkpt>
      <trkpt lat="46.29864" lon="-0.22274">
        <ele>121.1928</ele>
        <time>2011-01-03T14:42:00Z</time>
      </trkpt>
      <trkpt lat="46.29863" lon="-0.22272">
        <ele>121.1376</ele>
        <time>2011-01-03T14:42:01Z</time>
      </trkpt>
      <trkpt lat="46.29863" lon="-0.22271">
        <ele>121.0836</ele>
        <time>2011-01-03T14:42:02Z</time>
      </trkpt>
      <trkpt lat="46.29863" lon="-0.2227">
        <ele>121.0306</ele>
        <time>2011-01-03T14:42:03Z</time>
      </trkpt>
      <trkpt lat="46.29863" lon="-0.22268">
        <ele>120.9723</ele>
        <time>2011-01-03T14:42:04Z</time>
      </trkpt>
      <trkpt lat="46.29863" lon="-0.22267">
        <ele>120.9114</ele>
        <time>2011-01-03T14:42:05Z</time>
      </trkpt>
      <trkpt lat="46.29862" lon="-0.22265">
        <ele>120.8391</ele>
        <time>2011-01-03T14:42:06Z</time>
      </trkpt>
      <trkpt lat="46.29862" lon="-0.22264">
        <ele>120.7668</ele>
        <time>2011-01-03T14:42:07Z</time>
      </trkpt>
      <trkpt lat="46.29862" lon="-0.22263">
        <ele>120.6983</ele>
        <time>2011-01-03T14:42:08Z</time>
      </trkpt>
      <trkpt lat="46.29862" lon="-0.22261">
        <ele>120.6346</ele>
        <time>2011-01-03T14:42:09Z</time>
      </trkpt>
      <trkpt lat="46.29863" lon="-0.22259">
        <ele>120.5786</ele>
        <time>2011-01-03T14:42:10Z</time>
      </trkpt>
      <trkpt lat="46.29863" lon="-0.22258">
        <ele>120.523</ele>
        <time>2011-01-03T14:42:11Z</time>
      </trkpt>
      <trkpt lat="46.29863" lon="-0.22257">
        <ele>120.4699</ele>
        <time>2011-01-03T14:42:12Z</time>
      </trkpt>
      <trkpt lat="46.29863" lon="-0.22255">
        <ele>120.4192</ele>
        <time>2011-01-03T14:42:13Z</time>
      </trkpt>
      <trkpt lat="46.29862" lon="-0.22254">
        <ele>120.3711</ele>
        <time>2011-01-03T14:42:14Z</time>
      </trkpt>
      <trkpt lat="46.29862" lon="-0.22253">
        <ele>120.3255</ele>
        <time>2011-01-03T14:42:15Z</time>
      </trkpt>
      <trkpt lat="46.29862" lon="-0.22251">
        <ele>120.279</ele>
        <time>2011-01-03T14:42:16Z</time>
      </trkpt>
      <trkpt lat="46.29862" lon="-0.2225">
        <ele>120.2331</ele>
        <time>2011-01-03T14:42:17Z</time>
      </trkpt>
      <trkpt lat="46.29863" lon="-0.22249">
        <ele>120.1918</ele>
        <time>2011-01-03T14:42:18Z</time>
      </trkpt>
      <trkpt lat="46.29863" lon="-0.22248">
        <ele>120.1549</ele>
        <time>2011-01-03T14:42:19Z</time>
      </trkpt>
      <trkpt lat="46.29863" lon="-0.22247">
        <ele>120.1216</ele>
        <time>2011-01-03T14:42:20Z</time>
      </trkpt>
      <trkpt lat="46.29863" lon="-0.22246">
        <ele>120.0876</ele>
        <time>2011-01-03T14:42:21Z</time>
      </trkpt>
      <trkpt lat="46.29862" lon="-0.22245">
        <ele>120.0497</ele>
        <time>2011-01-03T14:42:22Z</time>
      </trkpt>
      <trkpt lat="46.29862" lon="-0.22244">
        <ele>120.0165</ele>
        <time>2011-01-03T14:42:23Z</time>
      </trkpt>
      <trkpt lat="46.29862" lon="-0.22243">
        <ele>119.9878</ele>
        <time>2011-01-03T14:42:24Z</time>
      </trkpt>
      <trkpt lat="46.29862" lon="-0.22242">
        <ele>119.9699</ele>
        <time>2011-01-03T14:42:25Z</time>
      </trkpt>
      <trkpt lat="46.29862" lon="-0.2224">
        <ele>119.954</ele>
        <time>2011-01-03T14:42:26Z</time>
      </trkpt>
      <trkpt lat="46.29862" lon="-0.22239">
        <ele>119.9413</ele>
        <time>2011-01-03T14:42:27Z</time>
      </trkpt>
      <trkpt lat="46.29862" lon="-0.22237">
        <ele>119.9425</ele>
        <time>2011-01-03T14:42:28Z</time>
      </trkpt>
      <trkpt lat="46.29861" lon="-0.22235">
        <ele>119.9356</ele>
        <time>2011-01-03T14:42:29Z</time>
      </trkpt>
      <trkpt lat="46.29861" lon="-0.22233">
        <ele>119.9301</ele>
        <time>2011-01-03T14:42:30Z</time>
      </trkpt>
      <trkpt lat="46.29861" lon="-0.22231">
        <ele>119.9291</ele>
        <time>2011-01-03T14:42:31Z</time>
      </trkpt>
      <trkpt lat="46.29861" lon="-0.2223">
        <ele>119.9304</ele>
        <time>2011-01-03T14:42:32Z</time>
      </trkpt>
      <trkpt lat="46.29861" lon="-0.22228">
        <ele>119.9359</ele>
        <time>2011-01-03T14:42:33Z</time>
      </trkpt>
      <trkpt lat="46.29861" lon="-0.22226">
        <ele>119.9377</ele>
        <time>2011-01-03T14:42:34Z</time>
      </trkpt>
      <trkpt lat="46.29861" lon="-0.22224">
        <ele>119.9481</ele>
        <time>2011-01-03T14:42:35Z</time>
      </trkpt>
      <trkpt lat="46.29861" lon="-0.22223">
        <ele>119.9596</ele>
        <time>2011-01-03T14:42:36Z</time>
      </trkpt>
      <trkpt lat="46.2986" lon="-0.22221">
        <ele>119.9773</ele>
        <time>2011-01-03T14:42:37Z</time>
      </trkpt>
      <trkpt lat="46.2986" lon="-0.22219">
        <ele>119.9952</ele>
        <time>2011-01-03T14:42:38Z</time>
      </trkpt>
      <trkpt lat="46.2986" lon="-0.22217">
        <ele>120.0115</ele>
        <time>2011-01-03T14:42:39Z</time>
      </trkpt>
      <trkpt lat="46.2986" lon="-0.22215">
        <ele>120.027</ele>
        <time>2011-01-03T14:42:40Z</time>
      </trkpt>
      <trkpt lat="46.2986" lon="-0.22213">
        <ele>120.0448</ele>
        <time>2011-01-03T14:42:41Z</time>
      </trkpt>
      <trkpt lat="46.29859" lon="-0.22211">
        <ele>120.0647</ele>
        <time>2011-01-03T14:42:42Z</time>
      </trkpt>
      <trkpt lat="46.29859" lon="-0.22209">
        <ele>120.079</ele>
        <time>2011-01-03T14:42:43Z</time>
      </trkpt>
      <trkpt lat="46.29859" lon="-0.22207">
        <ele>120.0875</ele>
        <time>2011-01-03T14:42:44Z</time>
      </trkpt>
      <trkpt lat="46.29859" lon="-0.22205">
        <ele>120.0915</ele>
        <time>2011-01-03T14:42:45Z</time>
      </trkpt>
      <trkpt lat="46.29859" lon="-0.22204">
        <ele>120.0947</ele>
        <time>2011-01-03T14:42:46Z</time>
      </trkpt>
      <trkpt lat="46.29859" lon="-0.22202">
        <ele>120.0935</ele>
        <time>2011-01-03T14:42:47Z</time>
      </trkpt>
      <trkpt lat="46.29859" lon="-0.222">
        <ele>120.0902</ele>
        <time>2011-01-03T14:42:48Z</time>
      </trkpt>
      <trkpt lat="46.29859" lon="-0.22198">
        <ele>120.0857</ele>
        <time>2011-01-03T14:42:49Z</time>
      </trkpt>
      <trkpt lat="46.29859" lon="-0.22197">
        <ele>120.0863</ele>
        <time>2011-01-03T14:42:50Z</time>
      </trkpt>
      <trkpt lat="46.29858" lon="-0.22194">
        <ele>120.0831</ele>
        <time>2011-01-03T14:42:51Z</time>
      </trkpt>
      <trkpt lat="46.29858" lon="-0.22192">
        <ele>120.0848</ele>
        <time>2011-01-03T14:42:52Z</time>
      </trkpt>
      <trkpt lat="46.29858" lon="-0.2219">
        <ele>120.0859</ele>
        <time>2011-01-03T14:42:53Z</time>
      </trkpt>
      <trkpt lat="46.29859" lon="-0.22189">
        <ele>120.0979</ele>
        <time>2011-01-03T14:42:54Z</time>
      </trkpt>
      <trkpt lat="46.29859" lon="-0.22186">
        <ele>120.1024</ele>
        <time>2011-01-03T14:42:55Z</time>
      </trkpt>
      <trkpt lat="46.29858" lon="-0.22184">
        <ele>120.1064</ele>
        <time>2011-01-03T14:42:56Z</time>
      </trkpt>
      <trkpt lat="46.29858" lon="-0.22182">
        <ele>120.1115</ele>
        <time>2011-01-03T14:42:57Z</time>
      </trkpt>
      <trkpt lat="46.29858" lon="-0.2218">
        <ele>120.1229</ele>
        <time>2011-01-03T14:42:58Z</time>
      </trkpt>
      <trkpt lat="46.29858" lon="-0.22178">
        <ele>120.1389</ele>
        <time>2011-01-03T14:42:59Z</time>
      </trkpt>
      <trkpt lat="46.29858" lon="-0.22176">
        <ele>120.1572</ele>
        <time>2011-01-03T14:43:00Z</time>
      </trkpt>
      <trkpt lat="46.29858" lon="-0.22174">
        <ele>120.1804</ele>
        <time>2011-01-03T14:43:01Z</time>
      </trkpt>
      <trkpt lat="46.29858" lon="-0.22172">
        <ele>120.2023</ele>
        <time>2011-01-03T14:43:02Z</time>
      </trkpt>
      <trkpt lat="46.29857" lon="-0.2217">
        <ele>120.2202</ele>
        <time>2011-01-03T14:43:03Z</time>
      </trkpt>
      <trkpt lat="46.29857" lon="-0.22168">
        <ele>120.2389</ele>
        <time>2011-01-03T14:43:04Z</time>
      </trkpt>
      <trkpt lat="46.29857" lon="-0.22166">
        <ele>120.2528</ele>
        <time>2011-01-03T14:43:05Z</time>
      </trkpt>
      <trkpt lat="46.29857" lon="-0.22165">
        <ele>120.265</ele>
        <time>2011-01-03T14:43:06Z</time>
      </trkpt>
      <trkpt lat="46.29857" lon="-0.22163">
        <ele>120.2748</ele>
        <time>2011-01-03T14:43:07Z</time>
      </trkpt>
      <trkpt lat="46.29857" lon="-0.22162">
        <ele>120.283</ele>
        <time>2011-01-03T14:43:08Z</time>
      </trkpt>
      <trkpt lat="46.29857" lon="-0.22161">
        <ele>120.2898</ele>
        <time>2011-01-03T14:43:09Z</time>
      </trkpt>
      <trkpt lat="46.29856" lon="-0.2216">
        <ele>120.296</ele>
        <time>2011-01-03T14:43:10Z</time>
      </trkpt>
      <trkpt lat="46.29856" lon="-0.22158">
        <ele>120.3005</ele>
        <time>2011-01-03T14:43:11Z</time>
      </trkpt>
      <trkpt lat="46.29856" lon="-0.22157">
        <ele>120.3054</ele>
        <time>2011-01-03T14:43:12Z</time>
      </trkpt>
      <trkpt lat="46.29855" lon="-0.22156">
        <ele>120.3084</ele>
        <time>2011-01-03T14:43:13Z</time>
      </trkpt>
      <trkpt lat="46.29855" lon="-0.22154">
        <ele>120.3052</ele>
        <time>2011-01-03T14:43:14Z</time>
      </trkpt>
      <trkpt lat="46.29855" lon="-0.22153">
        <ele>120.3059</ele>
        <time>2011-01-03T14:43:15Z</time>
      </trkpt>
      <trkpt lat="46.29854" lon="-0.22152">
        <ele>120.3082</ele>
        <time>2011-01-03T14:43:16Z</time>
      </trkpt>
      <trkpt lat="46.29854" lon="-0.22151">
        <ele>120.321</ele>
        <time>2011-01-03T14:43:17Z</time>
      </trkpt>
      <trkpt lat="46.29854" lon="-0.22149">
        <ele>120.3368</ele>
        <time>2011-01-03T14:43:18Z</time>
      </trkpt>
      <trkpt lat="46.29853" lon="-0.22148">
        <ele>120.3541</ele>
        <time>2011-01-03T14:43:19Z</time>
      </trkpt>
      <trkpt lat="46.29853" lon="-0.22147">
        <ele>120.374</ele>
        <time>2011-01-03T14:43:20Z</time>
      </trkpt>
      <trkpt lat="46.29853" lon="-0.22145">
        <ele>120.3945</ele>
        <time>2011-01-03T14:43:21Z</time>
      </trkpt>
      <trkpt lat="46.29853" lon="-0.22144">
        <ele>120.4123</ele>
        <time>2011-01-03T14:43:22Z</time>
      </trkpt>
      <trkpt lat="46.29852" lon="-0.22142">
        <ele>120.439</ele>
        <time>2011-01-03T14:43:23Z</time>
      </trkpt>
      <trkpt lat="46.29852" lon="-0.2214">
        <ele>120.4612</ele>
        <time>2011-01-03T14:43:24Z</time>
      </trkpt>
      <trkpt lat="46.29852" lon="-0.22138">
        <ele>120.4836</ele>
        <time>2011-01-03T14:43:25Z</time>
      </trkpt>
      <trkpt lat="46.29852" lon="-0.22137">
        <ele>120.5054</ele>
        <time>2011-01-03T14:43:26Z</time>
      </trkpt>
      <trkpt lat="46.29851" lon="-0.22135">
        <ele>120.5253</ele>
        <time>2011-01-03T14:43:27Z</time>
      </trkpt>
      <trkpt lat="46.2985" lon="-0.22134">
        <ele>120.5445</ele>
        <time>2011-01-03T14:43:28Z</time>
      </trkpt>
      <trkpt lat="46.2985" lon="-0.22133">
        <ele>120.5593</ele>
        <time>2011-01-03T14:43:29Z</time>
      </trkpt>
      <trkpt lat="46.2985" lon="-0.22131">
        <ele>120.5628</ele>
        <time>2011-01-03T14:43:30Z</time>
      </trkpt>
      <trkpt lat="46.2985" lon="-0.22129">
        <ele>120.5644</ele>
        <time>2011-01-03T14:43:31Z</time>
      </trkpt>
      <trkpt lat="46.2985" lon="-0.22128">
        <ele>120.564</ele>
        <time>2011-01-03T14:43:32Z</time>
      </trkpt>
      <trkpt lat="46.29849" lon="-0.22126">
        <ele>120.5591</ele>
        <time>2011-01-03T14:43:33Z</time>
      </trkpt>
      <trkpt lat="46.29849" lon="-0.22125">
        <ele>120.5542</ele>
        <time>2011-01-03T14:43:34Z</time>
      </trkpt>
      <trkpt lat="46.29849" lon="-0.22124">
        <ele>120.5456</ele>
        <time>2011-01-03T14:43:35Z</time>
      </trkpt>
      <trkpt lat="46.29849" lon="-0.22122">
        <ele>120.5382</ele>
        <time>2011-01-03T14:43:36Z</time>
      </trkpt>
      <trkpt lat="46.29848" lon="-0.22121">
        <ele>120.5371</ele>
        <time>2011-01-03T14:43:37Z</time>
      </trkpt>
      <trkpt lat="46.29848" lon="-0.22119">
        <ele>120.5364</ele>
        <time>2011-01-03T14:43:38Z</time>
      </trkpt>
      <trkpt lat="46.29847" lon="-0.22118">
        <ele>120.5384</ele>
        <time>2011-01-03T14:43:39Z</time>
      </trkpt>
      <trkpt lat="46.29847" lon="-0.22116">
        <ele>120.5352</ele>
        <time>2011-01-03T14:43:40Z</time>
      </trkpt>
      <trkpt lat="46.29847" lon="-0.22114">
        <ele>120.5342</ele>
        <time>2011-01-03T14:43:41Z</time>
      </trkpt>
      <trkpt lat="46.29848" lon="-0.22113">
        <ele>120.5341</ele>
        <time>2011-01-03T14:43:42Z</time>
      </trkpt>
      <trkpt lat="46.29848" lon="-0.22111">
        <ele>120.526</ele>
        <time>2011-01-03T14:43:43Z</time>
      </trkpt>
      <trkpt lat="46.29848" lon="-0.22109">
        <ele>120.5112</ele>
        <time>2011-01-03T14:43:44Z</time>
      </trkpt>
      <trkpt lat="46.29847" lon="-0.22108">
        <ele>120.4878</ele>
        <time>2011-01-03T14:43:45Z</time>
      </trkpt>
      <trkpt lat="46.29847" lon="-0.22107">
        <ele>120.4665</ele>
        <time>2011-01-03T14:43:46Z</time>
      </trkpt>
      <trkpt lat="46.29845" lon="-0.22103">
        <ele>120.4116</ele>
        <time>2011-01-03T14:43:49Z</time>
      </trkpt>
      <trkpt lat="46.29845" lon="-0.22101">
        <ele>120.3642</ele>
        <time>2011-01-03T14:43:50Z</time>
      </trkpt>
      <trkpt lat="46.29845" lon="-0.22099">
        <ele>120.3261</ele>
        <time>2011-01-03T14:43:51Z</time>
      </trkpt>
      <trkpt lat="46.29845" lon="-0.22098">
        <ele>120.295</ele>
        <time>2011-01-03T14:43:52Z</time>
      </trkpt>
      <trkpt lat="46.29845" lon="-0.22096">
        <ele>120.2665</ele>
        <time>2011-01-03T14:43:53Z</time>
      </trkpt>
      <trkpt lat="46.29845" lon="-0.22094">
        <ele>120.2385</ele>
        <time>2011-01-03T14:43:54Z</time>
      </trkpt>
      <trkpt lat="46.29844" lon="-0.22093">
        <ele>120.2089</ele>
        <time>2011-01-03T14:43:55Z</time>
      </trkpt>
      <trkpt lat="46.29844" lon="-0.22091">
        <ele>120.176</ele>
        <time>2011-01-03T14:43:56Z</time>
      </trkpt>
      <trkpt lat="46.29844" lon="-0.2209">
        <ele>120.1396</ele>
        <time>2011-01-03T14:43:57Z</time>
      </trkpt>
      <trkpt lat="46.29844" lon="-0.22088">
        <ele>120.1162</ele>
        <time>2011-01-03T14:43:58Z</time>
      </trkpt>
      <trkpt lat="46.29844" lon="-0.22087">
        <ele>120.0992</ele>
        <time>2011-01-03T14:43:59Z</time>
      </trkpt>
      <trkpt lat="46.29845" lon="-0.22082">
        <ele>120.1121</ele>
        <time>2011-01-03T14:44:04Z</time>
      </trkpt>
      <trkpt lat="46.29845" lon="-0.22081">
        <ele>120.1135</ele>
        <time>2011-01-03T14:44:05Z</time>
      </trkpt>
      <trkpt lat="46.29845" lon="-0.22079">
        <ele>120.1213</ele>
        <time>2011-01-03T14:44:06Z</time>
      </trkpt>
      <trkpt lat="46.29845" lon="-0.22078">
        <ele>120.1353</ele>
        <time>2011-01-03T14:44:07Z</time>
      </trkpt>
      <trkpt lat="46.29845" lon="-0.22077">
        <ele>120.1491</ele>
        <time>2011-01-03T14:44:08Z</time>
      </trkpt>
      <trkpt lat="46.29845" lon="-0.22075">
        <ele>120.1632</ele>
        <time>2011-01-03T14:44:09Z</time>
      </trkpt>
      <trkpt lat="46.29845" lon="-0.22074">
        <ele>120.1791</ele>
        <time>2011-01-03T14:44:10Z</time>
      </trkpt>
      <trkpt lat="46.29845" lon="-0.22073">
        <ele>120.1966</ele>
        <time>2011-01-03T14:44:11Z</time>
      </trkpt>
      <trkpt lat="46.29845" lon="-0.22072">
        <ele>120.2143</ele>
        <time>2011-01-03T14:44:12Z</time>
      </trkpt>
      <trkpt lat="46.29845" lon="-0.22071">
        <ele>120.2316</ele>
        <time>2011-01-03T14:44:13Z</time>
      </trkpt>
      <trkpt lat="46.29845" lon="-0.22069">
        <ele>120.2456</ele>
        <time>2011-01-03T14:44:14Z</time>
      </trkpt>
      <trkpt lat="46.29845" lon="-0.22068">
        <ele>120.2605</ele>
        <time>2011-01-03T14:44:15Z</time>
      </trkpt>
      <trkpt lat="46.29844" lon="-0.22067">
        <ele>120.2781</ele>
        <time>2011-01-03T14:44:16Z</time>
      </trkpt>
      <trkpt lat="46.29844" lon="-0.22066">
        <ele>120.2964</ele>
        <time>2011-01-03T14:44:17Z</time>
      </trkpt>
      <trkpt lat="46.29844" lon="-0.22065">
        <ele>120.3146</ele>
        <time>2011-01-03T14:44:18Z</time>
      </trkpt>
      <trkpt lat="46.29844" lon="-0.22064">
        <ele>120.3379</ele>
        <time>2011-01-03T14:44:19Z</time>
      </trkpt>
      <trkpt lat="46.29844" lon="-0.22063">
        <ele>120.3604</ele>
        <time>2011-01-03T14:44:20Z</time>
      </trkpt>
      <trkpt lat="46.29844" lon="-0.22062">
        <ele>120.382</ele>
        <time>2011-01-03T14:44:21Z</time>
      </trkpt>
      <trkpt lat="46.29844" lon="-0.2206">
        <ele>120.4086</ele>
        <time>2011-01-03T14:44:22Z</time>
      </trkpt>
      <trkpt lat="46.29843" lon="-0.22059">
        <ele>120.4353</ele>
        <time>2011-01-03T14:44:23Z</time>
      </trkpt>
      <trkpt lat="46.29843" lon="-0.22058">
        <ele>120.4614</ele>
        <time>2011-01-03T14:44:24Z</time>
      </trkpt>
      <trkpt lat="46.29843" lon="-0.22056">
        <ele>120.4868</ele>
        <time>2011-01-03T14:44:25Z</time>
      </trkpt>
      <trkpt lat="46.29843" lon="-0.22055">
        <ele>120.5187</ele>
        <time>2011-01-03T14:44:26Z</time>
      </trkpt>
      <trkpt lat="46.29843" lon="-0.22053">
        <ele>120.5562</ele>
        <time>2011-01-03T14:44:27Z</time>
      </trkpt>
      <trkpt lat="46.29842" lon="-0.22052">
        <ele>120.5979</ele>
        <time>2011-01-03T14:44:28Z</time>
      </trkpt>
      <trkpt lat="46.29842" lon="-0.22051">
        <ele>120.6392</ele>
        <time>2011-01-03T14:44:29Z</time>
      </trkpt>
      <trkpt lat="46.29841" lon="-0.2205">
        <ele>120.6789</ele>
        <time>2011-01-03T14:44:30Z</time>
      </trkpt>
      <trkpt lat="46.29841" lon="-0.22048">
        <ele>120.7128</ele>
        <time>2011-01-03T14:44:31Z</time>
      </trkpt>
      <trkpt lat="46.29841" lon="-0.22046">
        <ele>120.7431</ele>
        <time>2011-01-03T14:44:32Z</time>
      </trkpt>
      <trkpt lat="46.29841" lon="-0.22045">
        <ele>120.7924</ele>
        <time>2011-01-03T14:44:33Z</time>
      </trkpt>
      <trkpt lat="46.29841" lon="-0.22043">
        <ele>120.8465</ele>
        <time>2011-01-03T14:44:34Z</time>
      </trkpt>
      <trkpt lat="46.29841" lon="-0.22042">
        <ele>120.8978</ele>
        <time>2011-01-03T14:44:35Z</time>
      </trkpt>
      <trkpt lat="46.29841" lon="-0.22039">
        <ele>120.9478</ele>
        <time>2011-01-03T14:44:36Z</time>
      </trkpt>
      <trkpt lat="46.29841" lon="-0.22037">
        <ele>120.9913</ele>
        <time>2011-01-03T14:44:37Z</time>
      </trkpt>
      <trkpt lat="46.29841" lon="-0.22035">
        <ele>121.034</ele>
        <time>2011-01-03T14:44:38Z</time>
      </trkpt>
      <trkpt lat="46.29841" lon="-0.22032">
        <ele>121.0714</ele>
        <time>2011-01-03T14:44:39Z</time>
      </trkpt>
      <trkpt lat="46.2984" lon="-0.22029">
        <ele>121.1073</ele>
        <time>2011-01-03T14:44:40Z</time>
      </trkpt>
      <trkpt lat="46.2984" lon="-0.22027">
        <ele>121.1487</ele>
        <time>2011-01-03T14:44:41Z</time>
      </trkpt>
      <trkpt lat="46.29839" lon="-0.22025">
        <ele>121.186</ele>
        <time>2011-01-03T14:44:42Z</time>
      </trkpt>
      <trkpt lat="46.29839" lon="-0.22023">
        <ele>121.2213</ele>
        <time>2011-01-03T14:44:43Z</time>
      </trkpt>
      <trkpt lat="46.29839" lon="-0.22022">
        <ele>121.2594</ele>
        <time>2011-01-03T14:44:44Z</time>
      </trkpt>
      <trkpt lat="46.29839" lon="-0.2202">
        <ele>121.2942</ele>
        <time>2011-01-03T14:44:45Z</time>
      </trkpt>
      <trkpt lat="46.29839" lon="-0.22018">
        <ele>121.3272</ele>
        <time>2011-01-03T14:44:46Z</time>
      </trkpt>
      <trkpt lat="46.29839" lon="-0.22017">
        <ele>121.3584</ele>
        <time>2011-01-03T14:44:47Z</time>
      </trkpt>
      <trkpt lat="46.29839" lon="-0.22015">
        <ele>121.3951</ele>
        <time>2011-01-03T14:44:48Z</time>
      </trkpt>
      <trkpt lat="46.29838" lon="-0.22013">
        <ele>121.4318</ele>
        <time>2011-01-03T14:44:49Z</time>
      </trkpt>
      <trkpt lat="46.29838" lon="-0.22011">
        <ele>121.4675</ele>
        <time>2011-01-03T14:44:50Z</time>
      </trkpt>
      <trkpt lat="46.29838" lon="-0.22009">
        <ele>121.4971</ele>
        <time>2011-01-03T14:44:51Z</time>
      </trkpt>
      <trkpt lat="46.29838" lon="-0.22008">
        <ele>121.5294</ele>
        <time>2011-01-03T14:44:52Z</time>
      </trkpt>
      <trkpt lat="46.29838" lon="-0.22006">
        <ele>121.5586</ele>
        <time>2011-01-03T14:44:53Z</time>
      </trkpt>
      <trkpt lat="46.29838" lon="-0.22005">
        <ele>121.5872</ele>
        <time>2011-01-03T14:44:54Z</time>
      </trkpt>
      <trkpt lat="46.29838" lon="-0.22003">
        <ele>121.6141</ele>
        <time>2011-01-03T14:44:55Z</time>
      </trkpt>
      <trkpt lat="46.29838" lon="-0.22002">
        <ele>121.6404</ele>
        <time>2011-01-03T14:44:56Z</time>
      </trkpt>
      <trkpt lat="46.29838" lon="-0.22">
        <ele>121.6643</ele>
        <time>2011-01-03T14:44:57Z</time>
      </trkpt>
      <trkpt lat="46.29838" lon="-0.21999">
        <ele>121.6889</ele>
        <time>2011-01-03T14:44:58Z</time>
      </trkpt>
      <trkpt lat="46.29838" lon="-0.21998">
        <ele>121.7133</ele>
        <time>2011-01-03T14:44:59Z</time>
      </trkpt>
      <trkpt lat="46.29838" lon="-0.21996">
        <ele>121.7493</ele>
        <time>2011-01-03T14:45:00Z</time>
      </trkpt>
      <trkpt lat="46.29838" lon="-0.21995">
        <ele>121.7855</ele>
        <time>2011-01-03T14:45:01Z</time>
      </trkpt>
      <trkpt lat="46.29838" lon="-0.21994">
        <ele>121.8202</ele>
        <time>2011-01-03T14:45:02Z</time>
      </trkpt>
      <trkpt lat="46.29839" lon="-0.21992">
        <ele>121.8544</ele>
        <time>2011-01-03T14:45:03Z</time>
      </trkpt>
      <trkpt lat="46.29839" lon="-0.21991">
        <ele>121.8871</ele>
        <time>2011-01-03T14:45:04Z</time>
      </trkpt>
      <trkpt lat="46.29839" lon="-0.21989">
        <ele>121.9149</ele>
        <time>2011-01-03T14:45:05Z</time>
      </trkpt>
      <trkpt lat="46.2984" lon="-0.21988">
        <ele>121.9434</ele>
        <time>2011-01-03T14:45:06Z</time>
      </trkpt>
      <trkpt lat="46.2984" lon="-0.21986">
        <ele>121.9704</ele>
        <time>2011-01-03T14:45:07Z</time>
      </trkpt>
      <trkpt lat="46.29841" lon="-0.21985">
        <ele>121.9982</ele>
        <time>2011-01-03T14:45:08Z</time>
      </trkpt>
      <trkpt lat="46.29841" lon="-0.21983">
        <ele>122.0237</ele>
        <time>2011-01-03T14:45:09Z</time>
      </trkpt>
      <trkpt lat="46.29841" lon="-0.21982">
        <ele>122.0486</ele>
        <time>2011-01-03T14:45:10Z</time>
      </trkpt>
      <trkpt lat="46.29841" lon="-0.21981">
        <ele>122.0708</ele>
        <time>2011-01-03T14:45:11Z</time>
      </trkpt>
      <trkpt lat="46.29841" lon="-0.2198">
        <ele>122.0847</ele>
        <time>2011-01-03T14:45:12Z</time>
      </trkpt>
      <trkpt lat="46.29841" lon="-0.21978">
        <ele>122.0977</ele>
        <time>2011-01-03T14:45:16Z</time>
      </trkpt>
      <trkpt lat="46.29841" lon="-0.21977">
        <ele>122.1031</ele>
        <time>2011-01-03T14:45:17Z</time>
      </trkpt>
      <trkpt lat="46.29841" lon="-0.21976">
        <ele>122.1073</ele>
        <time>2011-01-03T14:45:18Z</time>
      </trkpt>
      <trkpt lat="46.29841" lon="-0.21975">
        <ele>122.1144</ele>
        <time>2011-01-03T14:45:19Z</time>
      </trkpt>
      <trkpt lat="46.29841" lon="-0.21974">
        <ele>122.11</ele>
        <time>2011-01-03T14:45:20Z</time>
      </trkpt>
      <trkpt lat="46.29841" lon="-0.21973">
        <ele>122.1064</ele>
        <time>2011-01-03T14:45:21Z</time>
      </trkpt>
      <trkpt lat="46.29841" lon="-0.21971">
        <ele>122.1025</ele>
        <time>2011-01-03T14:45:22Z</time>
      </trkpt>
      <trkpt lat="46.29841" lon="-0.2197">
        <ele>122.095</ele>
        <time>2011-01-03T14:45:23Z</time>
      </trkpt>
      <trkpt lat="46.29841" lon="-0.21969">
        <ele>122.0749</ele>
        <time>2011-01-03T14:45:24Z</time>
      </trkpt>
      <trkpt lat="46.29841" lon="-0.21967">
        <ele>122.0585</ele>
        <time>2011-01-03T14:45:25Z</time>
      </trkpt>
      <trkpt lat="46.29841" lon="-0.21966">
        <ele>122.0335</ele>
        <time>2011-01-03T14:45:26Z</time>
      </trkpt>
      <trkpt lat="46.29841" lon="-0.21964">
        <ele>122.0038</ele>
        <time>2011-01-03T14:45:27Z</time>
      </trkpt>
      <trkpt lat="46.29841" lon="-0.21962">
        <ele>121.9711</ele>
        <time>2011-01-03T14:45:28Z</time>
      </trkpt>
      <trkpt lat="46.29841" lon="-0.21961">
        <ele>121.9364</ele>
        <time>2011-01-03T14:45:29Z</time>
      </trkpt>
      <trkpt lat="46.29841" lon="-0.21959">
        <ele>121.9032</ele>
        <time>2011-01-03T14:45:30Z</time>
      </trkpt>
      <trkpt lat="46.29841" lon="-0.21958">
        <ele>121.8655</ele>
        <time>2011-01-03T14:45:31Z</time>
      </trkpt>
      <trkpt lat="46.29841" lon="-0.21957">
        <ele>121.8311</ele>
        <time>2011-01-03T14:45:32Z</time>
      </trkpt>
      <trkpt lat="46.29841" lon="-0.21955">
        <ele>121.7988</ele>
        <time>2011-01-03T14:45:33Z</time>
      </trkpt>
      <trkpt lat="46.29841" lon="-0.21954">
        <ele>121.7735</ele>
        <time>2011-01-03T14:45:34Z</time>
      </trkpt>
      <trkpt lat="46.29841" lon="-0.21953">
        <ele>121.751</ele>
        <time>2011-01-03T14:45:35Z</time>
      </trkpt>
      <trkpt lat="46.29842" lon="-0.21951">
        <ele>121.729</ele>
        <time>2011-01-03T14:45:36Z</time>
      </trkpt>
      <trkpt lat="46.29842" lon="-0.2195">
        <ele>121.7098</ele>
        <time>2011-01-03T14:45:37Z</time>
      </trkpt>
      <trkpt lat="46.29842" lon="-0.21948">
        <ele>121.6968</ele>
        <time>2011-01-03T14:45:38Z</time>
      </trkpt>
      <trkpt lat="46.29842" lon="-0.21946">
        <ele>121.6818</ele>
        <time>2011-01-03T14:45:39Z</time>
      </trkpt>
      <trkpt lat="46.29842" lon="-0.21945">
        <ele>121.6675</ele>
        <time>2011-01-03T14:45:40Z</time>
      </trkpt>
      <trkpt lat="46.29842" lon="-0.21943">
        <ele>121.6502</ele>
        <time>2011-01-03T14:45:41Z</time>
      </trkpt>
      <trkpt lat="46.29843" lon="-0.21942">
        <ele>121.6322</ele>
        <time>2011-01-03T14:45:42Z</time>
      </trkpt>
      <trkpt lat="46.29843" lon="-0.2194">
        <ele>121.6135</ele>
        <time>2011-01-03T14:45:43Z</time>
      </trkpt>
      <trkpt lat="46.29844" lon="-0.21938">
        <ele>121.5884</ele>
        <time>2011-01-03T14:45:44Z</time>
      </trkpt>
      <trkpt lat="46.29844" lon="-0.21936">
        <ele>121.5549</ele>
        <time>2011-01-03T14:45:45Z</time>
      </trkpt>
      <trkpt lat="46.29844" lon="-0.21934">
        <ele>121.5106</ele>
        <time>2011-01-03T14:45:46Z</time>
      </trkpt>
      <trkpt lat="46.29845" lon="-0.21932">
        <ele>121.4591</ele>
        <time>2011-01-03T14:45:47Z</time>
      </trkpt>
      <trkpt lat="46.29845" lon="-0.21928">
        <ele>121.4033</ele>
        <time>2011-01-03T14:45:48Z</time>
      </trkpt>
      <trkpt lat="46.29845" lon="-0.21925">
        <ele>121.3442</ele>
        <time>2011-01-03T14:45:49Z</time>
      </trkpt>
      <trkpt lat="46.29845" lon="-0.21923">
        <ele>121.2822</ele>
        <time>2011-01-03T14:45:50Z</time>
      </trkpt>
      <trkpt lat="46.29845" lon="-0.2192">
        <ele>121.2163</ele>
        <time>2011-01-03T14:45:51Z</time>
      </trkpt>
      <trkpt lat="46.29846" lon="-0.21918">
        <ele>121.1525</ele>
        <time>2011-01-03T14:45:52Z</time>
      </trkpt>
      <trkpt lat="46.29846" lon="-0.21915">
        <ele>121.0892</ele>
        <time>2011-01-03T14:45:53Z</time>
      </trkpt>
      <trkpt lat="46.29846" lon="-0.21913">
        <ele>121.0295</ele>
        <time>2011-01-03T14:45:54Z</time>
      </trkpt>
      <trkpt lat="46.29847" lon="-0.21911">
        <ele>120.9713</ele>
        <time>2011-01-03T14:45:55Z</time>
      </trkpt>
      <trkpt lat="46.29847" lon="-0.21909">
        <ele>120.9164</ele>
        <time>2011-01-03T14:45:56Z</time>
      </trkpt>
      <trkpt lat="46.29847" lon="-0.21908">
        <ele>120.8605</ele>
        <time>2011-01-03T14:45:57Z</time>
      </trkpt>
      <trkpt lat="46.29848" lon="-0.21906">
        <ele>120.8061</ele>
        <time>2011-01-03T14:45:58Z</time>
      </trkpt>
      <trkpt lat="46.29848" lon="-0.21905">
        <ele>120.7551</ele>
        <time>2011-01-03T14:45:59Z</time>
      </trkpt>
      <trkpt lat="46.29849" lon="-0.21904">
        <ele>120.7108</ele>
        <time>2011-01-03T14:46:00Z</time>
      </trkpt>
      <trkpt lat="46.29849" lon="-0.21904">
        <ele>120.6695</ele>
        <time>2011-01-03T14:46:01Z</time>
      </trkpt>
      <trkpt lat="46.29849" lon="-0.21903">
        <ele>120.6317</ele>
        <time>2011-01-03T14:46:02Z</time>
      </trkpt>
      <trkpt lat="46.29849" lon="-0.21901">
        <ele>120.5996</ele>
        <time>2011-01-03T14:46:03Z</time>
      </trkpt>
      <trkpt lat="46.2985" lon="-0.219">
        <ele>120.5697</ele>
        <time>2011-01-03T14:46:04Z</time>
      </trkpt>
      <trkpt lat="46.2985" lon="-0.21899">
        <ele>120.5398</ele>
        <time>2011-01-03T14:46:05Z</time>
      </trkpt>
      <trkpt lat="46.2985" lon="-0.21898">
        <ele>120.5057</ele>
        <time>2011-01-03T14:46:06Z</time>
      </trkpt>
      <trkpt lat="46.2985" lon="-0.21897">
        <ele>120.4708</ele>
        <time>2011-01-03T14:46:07Z</time>
      </trkpt>
      <trkpt lat="46.2985" lon="-0.21895">
        <ele>120.4361</ele>
        <time>2011-01-03T14:46:08Z</time>
      </trkpt>
      <trkpt lat="46.2985" lon="-0.21894">
        <ele>120.4059</ele>
        <time>2011-01-03T14:46:09Z</time>
      </trkpt>
      <trkpt lat="46.29851" lon="-0.21893">
        <ele>120.3851</ele>
        <time>2011-01-03T14:46:10Z</time>
      </trkpt>
      <trkpt lat="46.29851" lon="-0.21892">
        <ele>120.3662</ele>
        <time>2011-01-03T14:46:11Z</time>
      </trkpt>
      <trkpt lat="46.29852" lon="-0.21891">
        <ele>120.3516</ele>
        <time>2011-01-03T14:46:12Z</time>
      </trkpt>
      <trkpt lat="46.29852" lon="-0.2189">
        <ele>120.3403</ele>
        <time>2011-01-03T14:46:13Z</time>
      </trkpt>
      <trkpt lat="46.29853" lon="-0.21888">
        <ele>120.3294</ele>
        <time>2011-01-03T14:46:14Z</time>
      </trkpt>
      <trkpt lat="46.29853" lon="-0.21887">
        <ele>120.319</ele>
        <time>2011-01-03T14:46:15Z</time>
      </trkpt>
      <trkpt lat="46.29854" lon="-0.21886">
        <ele>120.3096</ele>
        <time>2011-01-03T14:46:16Z</time>
      </trkpt>
      <trkpt lat="46.29855" lon="-0.21885">
        <ele>120.2984</ele>
        <time>2011-01-03T14:46:17Z</time>
      </trkpt>
      <trkpt lat="46.29856" lon="-0.21884">
        <ele>120.2897</ele>
        <time>2011-01-03T14:46:18Z</time>
      </trkpt>
      <trkpt lat="46.29857" lon="-0.21883">
        <ele>120.281</ele>
        <time>2011-01-03T14:46:19Z</time>
      </trkpt>
      <trkpt lat="46.29857" lon="-0.21881">
        <ele>120.2742</ele>
        <time>2011-01-03T14:46:20Z</time>
      </trkpt>
      <trkpt lat="46.29858" lon="-0.21879">
        <ele>120.2739</ele>
        <time>2011-01-03T14:46:21Z</time>
      </trkpt>
      <trkpt lat="46.29859" lon="-0.21877">
        <ele>120.2715</ele>
        <time>2011-01-03T14:46:22Z</time>
      </trkpt>
      <trkpt lat="46.2986" lon="-0.21875">
        <ele>120.2722</ele>
        <time>2011-01-03T14:46:23Z</time>
      </trkpt>
      <trkpt lat="46.2986" lon="-0.21873">
        <ele>120.2743</ele>
        <time>2011-01-03T14:46:24Z</time>
      </trkpt>
      <trkpt lat="46.29861" lon="-0.21871">
        <ele>120.2913</ele>
        <time>2011-01-03T14:46:25Z</time>
      </trkpt>
      <trkpt lat="46.29862" lon="-0.21869">
        <ele>120.3223</ele>
        <time>2011-01-03T14:46:26Z</time>
      </trkpt>
      <trkpt lat="46.29862" lon="-0.21867">
        <ele>120.3571</ele>
        <time>2011-01-03T14:46:27Z</time>
      </trkpt>
      <trkpt lat="46.29863" lon="-0.21866">
        <ele>120.3917</ele>
        <time>2011-01-03T14:46:28Z</time>
      </trkpt>
      <trkpt lat="46.29863" lon="-0.21864">
        <ele>120.4262</ele>
        <time>2011-01-03T14:46:29Z</time>
      </trkpt>
      <trkpt lat="46.29863" lon="-0.21862">
        <ele>120.4725</ele>
        <time>2011-01-03T14:46:30Z</time>
      </trkpt>
      <trkpt lat="46.29863" lon="-0.2186">
        <ele>120.5212</ele>
        <time>2011-01-03T14:46:31Z</time>
      </trkpt>
      <trkpt lat="46.29864" lon="-0.21858">
        <ele>120.5704</ele>
        <time>2011-01-03T14:46:32Z</time>
      </trkpt>
      <trkpt lat="46.29864" lon="-0.21857">
        <ele>120.6191</ele>
        <time>2011-01-03T14:46:33Z</time>
      </trkpt>
      <trkpt lat="46.29865" lon="-0.21855">
        <ele>120.6613</ele>
        <time>2011-01-03T14:46:34Z</time>
      </trkpt>
      <trkpt lat="46.29865" lon="-0.21854">
        <ele>120.6933</ele>
        <time>2011-01-03T14:46:35Z</time>
      </trkpt>
      <trkpt lat="46.29865" lon="-0.21853">
        <ele>120.7149</ele>
        <time>2011-01-03T14:46:36Z</time>
      </trkpt>
      <trkpt lat="46.29865" lon="-0.21852">
        <ele>120.7267</ele>
        <time>2011-01-03T14:46:37Z</time>
      </trkpt>
      <trkpt lat="46.29866" lon="-0.2185">
        <ele>120.7298</ele>
        <time>2011-01-03T14:46:38Z</time>
      </trkpt>
      <trkpt lat="46.29866" lon="-0.21849">
        <ele>120.7247</ele>
        <time>2011-01-03T14:46:39Z</time>
      </trkpt>
      <trkpt lat="46.29866" lon="-0.21848">
        <ele>120.7111</ele>
        <time>2011-01-03T14:46:40Z</time>
      </trkpt>
      <trkpt lat="46.29866" lon="-0.21846">
        <ele>120.6922</ele>
        <time>2011-01-03T14:46:41Z</time>
      </trkpt>
      <trkpt lat="46.29867" lon="-0.21845">
        <ele>120.6696</ele>
        <time>2011-01-03T14:46:42Z</time>
      </trkpt>
      <trkpt lat="46.29867" lon="-0.21844">
        <ele>120.649</ele>
        <time>2011-01-03T14:46:43Z</time>
      </trkpt>
      <trkpt lat="46.29868" lon="-0.21842">
        <ele>120.6288</ele>
        <time>2011-01-03T14:46:44Z</time>
      </trkpt>
      <trkpt lat="46.29868" lon="-0.21841">
        <ele>120.6061</ele>
        <time>2011-01-03T14:46:45Z</time>
      </trkpt>
      <trkpt lat="46.29869" lon="-0.21839">
        <ele>120.5832</ele>
        <time>2011-01-03T14:46:46Z</time>
      </trkpt>
      <trkpt lat="46.2987" lon="-0.21838">
        <ele>120.5627</ele>
        <time>2011-01-03T14:46:47Z</time>
      </trkpt>
      <trkpt lat="46.2987" lon="-0.21836">
        <ele>120.5449</ele>
        <time>2011-01-03T14:46:48Z</time>
      </trkpt>
      <trkpt lat="46.2987" lon="-0.21835">
        <ele>120.5285</ele>
        <time>2011-01-03T14:46:49Z</time>
      </trkpt>
      <trkpt lat="46.29871" lon="-0.21833">
        <ele>120.5126</ele>
        <time>2011-01-03T14:46:50Z</time>
      </trkpt>
      <trkpt lat="46.29871" lon="-0.21831">
        <ele>120.4988</ele>
        <time>2011-01-03T14:46:51Z</time>
      </trkpt>
      <trkpt lat="46.29871" lon="-0.2183">
        <ele>120.4855</ele>
        <time>2011-01-03T14:46:52Z</time>
      </trkpt>
      <trkpt lat="46.29872" lon="-0.21828">
        <ele>120.4753</ele>
        <time>2011-01-03T14:46:53Z</time>
      </trkpt>
      <trkpt lat="46.29872" lon="-0.21826">
        <ele>120.4671</ele>
        <time>2011-01-03T14:46:54Z</time>
      </trkpt>
      <trkpt lat="46.29872" lon="-0.21825">
        <ele>120.4652</ele>
        <time>2011-01-03T14:46:55Z</time>
      </trkpt>
      <trkpt lat="46.29872" lon="-0.21823">
        <ele>120.4669</ele>
        <time>2011-01-03T14:46:56Z</time>
      </trkpt>
      <trkpt lat="46.29872" lon="-0.21822">
        <ele>120.4711</ele>
        <time>2011-01-03T14:46:57Z</time>
      </trkpt>
      <trkpt lat="46.29872" lon="-0.2182">
        <ele>120.4853</ele>
        <time>2011-01-03T14:46:58Z</time>
      </trkpt>
      <trkpt lat="46.29872" lon="-0.21819">
        <ele>120.5088</ele>
        <time>2011-01-03T14:46:59Z</time>
      </trkpt>
      <trkpt lat="46.29871" lon="-0.21818">
        <ele>120.5378</ele>
        <time>2011-01-03T14:47:00Z</time>
      </trkpt>
      <trkpt lat="46.29871" lon="-0.21816">
        <ele>120.5688</ele>
        <time>2011-01-03T14:47:01Z</time>
      </trkpt>
      <trkpt lat="46.2987" lon="-0.21815">
        <ele>120.6048</ele>
        <time>2011-01-03T14:47:02Z</time>
      </trkpt>
      <trkpt lat="46.2987" lon="-0.21814">
        <ele>120.6446</ele>
        <time>2011-01-03T14:47:03Z</time>
      </trkpt>
      <trkpt lat="46.29869" lon="-0.21814">
        <ele>120.6901</ele>
        <time>2011-01-03T14:47:04Z</time>
      </trkpt>
      <trkpt lat="46.29868" lon="-0.21813">
        <ele>120.7381</ele>
        <time>2011-01-03T14:47:05Z</time>
      </trkpt>
      <trkpt lat="46.29868" lon="-0.21813">
        <ele>120.7848</ele>
        <time>2011-01-03T14:47:06Z</time>
      </trkpt>
      <trkpt lat="46.29867" lon="-0.21813">
        <ele>120.8304</ele>
        <time>2011-01-03T14:47:07Z</time>
      </trkpt>
      <trkpt lat="46.29866" lon="-0.21813">
        <ele>120.8766</ele>
        <time>2011-01-03T14:47:08Z</time>
      </trkpt>
      <trkpt lat="46.29864" lon="-0.21812">
        <ele>120.9286</ele>
        <time>2011-01-03T14:47:09Z</time>
      </trkpt>
      <trkpt lat="46.29863" lon="-0.21812">
        <ele>120.9889</ele>
        <time>2011-01-03T14:47:10Z</time>
      </trkpt>
      <trkpt lat="46.29862" lon="-0.21812">
        <ele>121.0511</ele>
        <time>2011-01-03T14:47:11Z</time>
      </trkpt>
      <trkpt lat="46.29861" lon="-0.21811">
        <ele>121.1087</ele>
        <time>2011-01-03T14:47:12Z</time>
      </trkpt>
      <trkpt lat="46.2986" lon="-0.21811">
        <ele>121.1632</ele>
        <time>2011-01-03T14:47:13Z</time>
      </trkpt>
      <trkpt lat="46.29859" lon="-0.21812">
        <ele>121.2127</ele>
        <time>2011-01-03T14:47:14Z</time>
      </trkpt>
      <trkpt lat="46.29858" lon="-0.21812">
        <ele>121.259</ele>
        <time>2011-01-03T14:47:15Z</time>
      </trkpt>
      <trkpt lat="46.29857" lon="-0.21813">
        <ele>121.2993</ele>
        <time>2011-01-03T14:47:16Z</time>
      </trkpt>
      <trkpt lat="46.29857" lon="-0.21814">
        <ele>121.3403</ele>
        <time>2011-01-03T14:47:17Z</time>
      </trkpt>
      <trkpt lat="46.29856" lon="-0.21814">
        <ele>121.3786</ele>
        <time>2011-01-03T14:47:18Z</time>
      </trkpt>
      <trkpt lat="46.29855" lon="-0.21815">
        <ele>121.4153</ele>
        <time>2011-01-03T14:47:19Z</time>
      </trkpt>
      <trkpt lat="46.29854" lon="-0.21816">
        <ele>121.4503</ele>
        <time>2011-01-03T14:47:20Z</time>
      </trkpt>
      <trkpt lat="46.29853" lon="-0.21817">
        <ele>121.4901</ele>
        <time>2011-01-03T14:47:21Z</time>
      </trkpt>
      <trkpt lat="46.29852" lon="-0.21818">
        <ele>121.5271</ele>
        <time>2011-01-03T14:47:22Z</time>
      </trkpt>
      <trkpt lat="46.29852" lon="-0.21818">
        <ele>121.5627</ele>
        <time>2011-01-03T14:47:23Z</time>
      </trkpt>
      <trkpt lat="46.29851" lon="-0.21819">
        <ele>121.5962</ele>
        <time>2011-01-03T14:47:24Z</time>
      </trkpt>
      <trkpt lat="46.2985" lon="-0.21819">
        <ele>121.6258</ele>
        <time>2011-01-03T14:47:25Z</time>
      </trkpt>
      <trkpt lat="46.29849" lon="-0.2182">
        <ele>121.6529</ele>
        <time>2011-01-03T14:47:26Z</time>
      </trkpt>
      <trkpt lat="46.29848" lon="-0.21821">
        <ele>121.6765</ele>
        <time>2011-01-03T14:47:27Z</time>
      </trkpt>
      <trkpt lat="46.29847" lon="-0.21821">
        <ele>121.6949</ele>
        <time>2011-01-03T14:47:28Z</time>
      </trkpt>
      <trkpt lat="46.29846" lon="-0.21821">
        <ele>121.7134</ele>
        <time>2011-01-03T14:47:29Z</time>
      </trkpt>
      <trkpt lat="46.29845" lon="-0.21822">
        <ele>121.7339</ele>
        <time>2011-01-03T14:47:30Z</time>
      </trkpt>
      <trkpt lat="46.29844" lon="-0.21823">
        <ele>121.7537</ele>
        <time>2011-01-03T14:47:31Z</time>
      </trkpt>
      <trkpt lat="46.29843" lon="-0.21823">
        <ele>121.7778</ele>
        <time>2011-01-03T14:47:32Z</time>
      </trkpt>
      <trkpt lat="46.29842" lon="-0.21824">
        <ele>121.8005</ele>
        <time>2011-01-03T14:47:33Z</time>
      </trkpt>
      <trkpt lat="46.29841" lon="-0.21825">
        <ele>121.8184</ele>
        <time>2011-01-03T14:47:34Z</time>
      </trkpt>
      <trkpt lat="46.29841" lon="-0.21826">
        <ele>121.8351</ele>
        <time>2011-01-03T14:47:35Z</time>
      </trkpt>
      <trkpt lat="46.29839" lon="-0.21826">
        <ele>121.8483</ele>
        <time>2011-01-03T14:47:36Z</time>
      </trkpt>
      <trkpt lat="46.29838" lon="-0.21827">
        <ele>121.8578</ele>
        <time>2011-01-03T14:47:37Z</time>
      </trkpt>
      <trkpt lat="46.29837" lon="-0.21827">
        <ele>121.866</ele>
        <time>2011-01-03T14:47:38Z</time>
      </trkpt>
      <trkpt lat="46.29836" lon="-0.21828">
        <ele>121.8656</ele>
        <time>2011-01-03T14:47:39Z</time>
      </trkpt>
      <trkpt lat="46.29835" lon="-0.21829">
        <ele>121.8624</ele>
        <time>2011-01-03T14:47:40Z</time>
      </trkpt>
      <trkpt lat="46.29834" lon="-0.2183">
        <ele>121.8545</ele>
        <time>2011-01-03T14:47:41Z</time>
      </trkpt>
      <trkpt lat="46.29833" lon="-0.2183">
        <ele>121.8472</ele>
        <time>2011-01-03T14:47:42Z</time>
      </trkpt>
      <trkpt lat="46.29832" lon="-0.2183">
        <ele>121.8372</ele>
        <time>2011-01-03T14:47:43Z</time>
      </trkpt>
      <trkpt lat="46.29831" lon="-0.21831">
        <ele>121.8259</ele>
        <time>2011-01-03T14:47:44Z</time>
      </trkpt>
      <trkpt lat="46.29831" lon="-0.21831">
        <ele>121.8097</ele>
        <time>2011-01-03T14:47:45Z</time>
      </trkpt>
      <trkpt lat="46.2983" lon="-0.21831">
        <ele>121.5692</ele>
        <time>2011-01-03T14:47:53Z</time>
      </trkpt>
      <trkpt lat="46.29829" lon="-0.21831">
        <ele>121.4896</ele>
        <time>2011-01-03T14:47:54Z</time>
      </trkpt>
      <trkpt lat="46.29828" lon="-0.21831">
        <ele>121.4126</ele>
        <time>2011-01-03T14:47:55Z</time>
      </trkpt>
      <trkpt lat="46.29827" lon="-0.21831">
        <ele>121.3435</ele>
        <time>2011-01-03T14:47:56Z</time>
      </trkpt>
      <trkpt lat="46.29826" lon="-0.21831">
        <ele>121.2746</ele>
        <time>2011-01-03T14:47:57Z</time>
      </trkpt>
      <trkpt lat="46.29825" lon="-0.21831">
        <ele>121.2037</ele>
        <time>2011-01-03T14:47:58Z</time>
      </trkpt>
      <trkpt lat="46.29824" lon="-0.21831">
        <ele>121.1346</ele>
        <time>2011-01-03T14:47:59Z</time>
      </trkpt>
      <trkpt lat="46.29823" lon="-0.21831">
        <ele>121.065</ele>
        <time>2011-01-03T14:48:00Z</time>
      </trkpt>
      <trkpt lat="46.29822" lon="-0.21832">
        <ele>120.9961</ele>
        <time>2011-01-03T14:48:01Z</time>
      </trkpt>
      <trkpt lat="46.29821" lon="-0.21832">
        <ele>120.9328</ele>
        <time>2011-01-03T14:48:02Z</time>
      </trkpt>
      <trkpt lat="46.2982" lon="-0.21832">
        <ele>120.8753</ele>
        <time>2011-01-03T14:48:03Z</time>
      </trkpt>
      <trkpt lat="46.2982" lon="-0.21833">
        <ele>120.8257</ele>
        <time>2011-01-03T14:48:04Z</time>
      </trkpt>
      <trkpt lat="46.29819" lon="-0.21833">
        <ele>120.785</ele>
        <time>2011-01-03T14:48:05Z</time>
      </trkpt>
      <trkpt lat="46.29818" lon="-0.21834">
        <ele>120.7475</ele>
        <time>2011-01-03T14:48:06Z</time>
      </trkpt>
      <trkpt lat="46.29817" lon="-0.21835">
        <ele>120.7154</ele>
        <time>2011-01-03T14:48:07Z</time>
      </trkpt>
      <trkpt lat="46.29816" lon="-0.21835">
        <ele>120.6813</ele>
        <time>2011-01-03T14:48:08Z</time>
      </trkpt>
      <trkpt lat="46.29815" lon="-0.21836">
        <ele>120.6428</ele>
        <time>2011-01-03T14:48:09Z</time>
      </trkpt>
      <trkpt lat="46.29815" lon="-0.21837">
        <ele>120.5951</ele>
        <time>2011-01-03T14:48:10Z</time>
      </trkpt>
      <trkpt lat="46.29814" lon="-0.21837">
        <ele>120.5462</ele>
        <time>2011-01-03T14:48:11Z</time>
      </trkpt>
      <trkpt lat="46.29813" lon="-0.21837">
        <ele>120.4961</ele>
        <time>2011-01-03T14:48:12Z</time>
      </trkpt>
      <trkpt lat="46.29812" lon="-0.21837">
        <ele>120.4314</ele>
        <time>2011-01-03T14:48:13Z</time>
      </trkpt>
      <trkpt lat="46.2981" lon="-0.21836">
        <ele>120.36</ele>
        <time>2011-01-03T14:48:14Z</time>
      </trkpt>
      <trkpt lat="46.29809" lon="-0.21836">
        <ele>120.288</ele>
        <time>2011-01-03T14:48:15Z</time>
      </trkpt>
      <trkpt lat="46.29808" lon="-0.21835">
        <ele>120.2194</ele>
        <time>2011-01-03T14:48:16Z</time>
      </trkpt>
      <trkpt lat="46.29807" lon="-0.21835">
        <ele>120.1537</ele>
        <time>2011-01-03T14:48:17Z</time>
      </trkpt>
      <trkpt lat="46.29806" lon="-0.21835">
        <ele>120.0986</ele>
        <time>2011-01-03T14:48:18Z</time>
      </trkpt>
      <trkpt lat="46.29805" lon="-0.21836">
        <ele>120.0402</ele>
        <time>2011-01-03T14:48:19Z</time>
      </trkpt>
      <trkpt lat="46.29805" lon="-0.21836">
        <ele>119.9799</ele>
        <time>2011-01-03T14:48:20Z</time>
      </trkpt>
      <trkpt lat="46.29804" lon="-0.21836">
        <ele>119.9218</ele>
        <time>2011-01-03T14:48:21Z</time>
      </trkpt>
      <trkpt lat="46.29804" lon="-0.21837">
        <ele>119.8667</ele>
        <time>2011-01-03T14:48:22Z</time>
      </trkpt>
      <trkpt lat="46.29803" lon="-0.21838">
        <ele>119.8139</ele>
        <time>2011-01-03T14:48:23Z</time>
      </trkpt>
      <trkpt lat="46.29802" lon="-0.21838">
        <ele>119.7634</ele>
        <time>2011-01-03T14:48:24Z</time>
      </trkpt>
      <trkpt lat="46.29801" lon="-0.21839">
        <ele>119.7108</ele>
        <time>2011-01-03T14:48:25Z</time>
      </trkpt>
      <trkpt lat="46.298" lon="-0.2184">
        <ele>119.6641</ele>
        <time>2011-01-03T14:48:26Z</time>
      </trkpt>
      <trkpt lat="46.29799" lon="-0.21841">
        <ele>119.6108</ele>
        <time>2011-01-03T14:48:27Z</time>
      </trkpt>
      <trkpt lat="46.29799" lon="-0.21842">
        <ele>119.5581</ele>
        <time>2011-01-03T14:48:28Z</time>
      </trkpt>
      <trkpt lat="46.29798" lon="-0.21842">
        <ele>119.5023</ele>
        <time>2011-01-03T14:48:29Z</time>
      </trkpt>
      <trkpt lat="46.29797" lon="-0.21842">
        <ele>119.4425</ele>
        <time>2011-01-03T14:48:30Z</time>
      </trkpt>
      <trkpt lat="46.29796" lon="-0.21842">
        <ele>119.3769</ele>
        <time>2011-01-03T14:48:31Z</time>
      </trkpt>
      <trkpt lat="46.29796" lon="-0.21843">
        <ele>119.3083</ele>
        <time>2011-01-03T14:48:32Z</time>
      </trkpt>
      <trkpt lat="46.29796" lon="-0.21843">
        <ele>119.24</ele>
        <time>2011-01-03T14:48:33Z</time>
      </trkpt>
      <trkpt lat="46.29795" lon="-0.21843">
        <ele>119.1757</ele>
        <time>2011-01-03T14:48:34Z</time>
      </trkpt>
      <trkpt lat="46.29794" lon="-0.21843">
        <ele>119.1163</ele>
        <time>2011-01-03T14:48:35Z</time>
      </trkpt>
      <trkpt lat="46.29793" lon="-0.21843">
        <ele>119.0555</ele>
        <time>2011-01-03T14:48:36Z</time>
      </trkpt>
      <trkpt lat="46.29792" lon="-0.21843">
        <ele>118.9935</ele>
        <time>2011-01-03T14:48:37Z</time>
      </trkpt>
      <trkpt lat="46.29791" lon="-0.21842">
        <ele>118.8652</ele>
        <time>2011-01-03T14:48:40Z</time>
      </trkpt>
      <trkpt lat="46.2979" lon="-0.21843">
        <ele>118.8004</ele>
        <time>2011-01-03T14:48:41Z</time>
      </trkpt>
      <trkpt lat="46.29789" lon="-0.21844">
        <ele>118.7196</ele>
        <time>2011-01-03T14:48:42Z</time>
      </trkpt>
      <trkpt lat="46.29788" lon="-0.21845">
        <ele>118.6239</ele>
        <time>2011-01-03T14:48:43Z</time>
      </trkpt>
      <trkpt lat="46.29787" lon="-0.21845">
        <ele>118.5118</ele>
        <time>2011-01-03T14:48:44Z</time>
      </trkpt>
      <trkpt lat="46.29786" lon="-0.21846">
        <ele>118.3932</ele>
        <time>2011-01-03T14:48:45Z</time>
      </trkpt>
      <trkpt lat="46.29785" lon="-0.21847">
        <ele>118.2849</ele>
        <time>2011-01-03T14:48:46Z</time>
      </trkpt>
      <trkpt lat="46.29784" lon="-0.21848">
        <ele>118.1798</ele>
        <time>2011-01-03T14:48:47Z</time>
      </trkpt>
      <trkpt lat="46.29783" lon="-0.21849">
        <ele>118.0789</ele>
        <time>2011-01-03T14:48:48Z</time>
      </trkpt>
      <trkpt lat="46.29782" lon="-0.21849">
        <ele>117.975</ele>
        <time>2011-01-03T14:48:49Z</time>
      </trkpt>
      <trkpt lat="46.29781" lon="-0.2185">
        <ele>117.8723</ele>
        <time>2011-01-03T14:48:50Z</time>
      </trkpt>
      <trkpt lat="46.29781" lon="-0.2185">
        <ele>117.7746</ele>
        <time>2011-01-03T14:48:51Z</time>
      </trkpt>
      <trkpt lat="46.2978" lon="-0.21851">
        <ele>117.6797</ele>
        <time>2011-01-03T14:48:52Z</time>
      </trkpt>
      <trkpt lat="46.29779" lon="-0.21851">
        <ele>117.5914</ele>
        <time>2011-01-03T14:48:53Z</time>
      </trkpt>
      <trkpt lat="46.29779" lon="-0.21853">
        <ele>117.5147</ele>
        <time>2011-01-03T14:48:54Z</time>
      </trkpt>
      <trkpt lat="46.29778" lon="-0.21854">
        <ele>117.4425</ele>
        <time>2011-01-03T14:48:55Z</time>
      </trkpt>
      <trkpt lat="46.29778" lon="-0.21854">
        <ele>117.3737</ele>
        <time>2011-01-03T14:48:56Z</time>
      </trkpt>
      <trkpt lat="46.29777" lon="-0.21855">
        <ele>117.1301</ele>
        <time>2011-01-03T14:49:02Z</time>
      </trkpt>
      <trkpt lat="46.29776" lon="-0.21855">
        <ele>117.0268</ele>
        <time>2011-01-03T14:49:03Z</time>
      </trkpt>
      <trkpt lat="46.29776" lon="-0.21855">
        <ele>116.9258</ele>
        <time>2011-01-03T14:49:04Z</time>
      </trkpt>
      <trkpt lat="46.29775" lon="-0.21856">
        <ele>116.8215</ele>
        <time>2011-01-03T14:49:05Z</time>
      </trkpt>
      <trkpt lat="46.29774" lon="-0.21856">
        <ele>116.715</ele>
        <time>2011-01-03T14:49:06Z</time>
      </trkpt>
      <trkpt lat="46.29773" lon="-0.21857">
        <ele>116.6165</ele>
        <time>2011-01-03T14:49:07Z</time>
      </trkpt>
      <trkpt lat="46.29772" lon="-0.21858">
        <ele>116.5195</ele>
        <time>2011-01-03T14:49:08Z</time>
      </trkpt>
      <trkpt lat="46.29771" lon="-0.21859">
        <ele>116.4318</ele>
        <time>2011-01-03T14:49:09Z</time>
      </trkpt>
      <trkpt lat="46.2977" lon="-0.2186">
        <ele>116.3443</ele>
        <time>2011-01-03T14:49:10Z</time>
      </trkpt>
      <trkpt lat="46.29769" lon="-0.2186">
        <ele>116.2637</ele>
        <time>2011-01-03T14:49:11Z</time>
      </trkpt>
      <trkpt lat="46.29768" lon="-0.2186">
        <ele>116.1858</ele>
        <time>2011-01-03T14:49:12Z</time>
      </trkpt>
      <trkpt lat="46.29768" lon="-0.21861">
        <ele>116.1007</ele>
        <time>2011-01-03T14:49:13Z</time>
      </trkpt>
      <trkpt lat="46.29768" lon="-0.21861">
        <ele>116.0154</ele>
        <time>2011-01-03T14:49:14Z</time>
      </trkpt>
      <trkpt lat="46.29767" lon="-0.21862">
        <ele>115.9317</ele>
        <time>2011-01-03T14:49:15Z</time>
      </trkpt>
      <trkpt lat="46.29767" lon="-0.21862">
        <ele>115.8528</ele>
        <time>2011-01-03T14:49:16Z</time>
      </trkpt>
      <trkpt lat="46.29766" lon="-0.21862">
        <ele>115.776</ele>
        <time>2011-01-03T14:49:17Z</time>
      </trkpt>
      <trkpt lat="46.29765" lon="-0.21862">
        <ele>115.7019</ele>
        <time>2011-01-03T14:49:18Z</time>
      </trkpt>
      <trkpt lat="46.29764" lon="-0.21863">
        <ele>115.6298</ele>
        <time>2011-01-03T14:49:19Z</time>
      </trkpt>
      <trkpt lat="46.29763" lon="-0.21863">
        <ele>115.5584</ele>
        <time>2011-01-03T14:49:20Z</time>
      </trkpt>
      <trkpt lat="46.29763" lon="-0.21863">
        <ele>115.4871</ele>
        <time>2011-01-03T14:49:21Z</time>
      </trkpt>
      <trkpt lat="46.29762" lon="-0.21863">
        <ele>115.4121</ele>
        <time>2011-01-03T14:49:22Z</time>
      </trkpt>
      <trkpt lat="46.29761" lon="-0.21862">
        <ele>115.3392</ele>
        <time>2011-01-03T14:49:23Z</time>
      </trkpt>
      <trkpt lat="46.29761" lon="-0.21862">
        <ele>115.266</ele>
        <time>2011-01-03T14:49:24Z</time>
      </trkpt>
      <trkpt lat="46.2976" lon="-0.21861">
        <ele>115.1834</ele>
        <time>2011-01-03T14:49:25Z</time>
      </trkpt>
      <trkpt lat="46.29758" lon="-0.21861">
        <ele>114.9866</ele>
        <time>2011-01-03T14:49:30Z</time>
      </trkpt>
      <trkpt lat="46.29757" lon="-0.21861">
        <ele>114.8907</ele>
        <time>2011-01-03T14:49:31Z</time>
      </trkpt>
      <trkpt lat="46.29756" lon="-0.21862">
        <ele>114.788</ele>
        <time>2011-01-03T14:49:32Z</time>
      </trkpt>
      <trkpt lat="46.29755" lon="-0.21862">
        <ele>114.6904</ele>
        <time>2011-01-03T14:49:33Z</time>
      </trkpt>
      <trkpt lat="46.29754" lon="-0.21861">
        <ele>114.5863</ele>
        <time>2011-01-03T14:49:34Z</time>
      </trkpt>
      <trkpt lat="46.29753" lon="-0.21861">
        <ele>114.4852</ele>
        <time>2011-01-03T14:49:35Z</time>
      </trkpt>
      <trkpt lat="46.29752" lon="-0.21861">
        <ele>114.3883</ele>
        <time>2011-01-03T14:49:36Z</time>
      </trkpt>
      <trkpt lat="46.29751" lon="-0.21861">
        <ele>114.2937</ele>
        <time>2011-01-03T14:49:37Z</time>
      </trkpt>
      <trkpt lat="46.2975" lon="-0.21861">
        <ele>114.2024</ele>
        <time>2011-01-03T14:49:38Z</time>
      </trkpt>
      <trkpt lat="46.29749" lon="-0.21861">
        <ele>114.1078</ele>
        <time>2011-01-03T14:49:39Z</time>
      </trkpt>
      <trkpt lat="46.29748" lon="-0.21861">
        <ele>114.0144</ele>
        <time>2011-01-03T14:49:40Z</time>
      </trkpt>
      <trkpt lat="46.29747" lon="-0.21861">
        <ele>113.9243</ele>
        <time>2011-01-03T14:49:41Z</time>
      </trkpt>
      <trkpt lat="46.29746" lon="-0.21862">
        <ele>113.8355</ele>
        <time>2011-01-03T14:49:42Z</time>
      </trkpt>
      <trkpt lat="46.29744" lon="-0.21862">
        <ele>113.7389</ele>
        <time>2011-01-03T14:49:43Z</time>
      </trkpt>
      <trkpt lat="46.29743" lon="-0.21861">
        <ele>113.6321</ele>
        <time>2011-01-03T14:49:44Z</time>
      </trkpt>
      <trkpt lat="46.29742" lon="-0.21862">
        <ele>113.5282</ele>
        <time>2011-01-03T14:49:45Z</time>
      </trkpt>
      <trkpt lat="46.29741" lon="-0.21861">
        <ele>113.4245</ele>
        <time>2011-01-03T14:49:46Z</time>
      </trkpt>
      <trkpt lat="46.2974" lon="-0.21862">
        <ele>113.3218</ele>
        <time>2011-01-03T14:49:47Z</time>
      </trkpt>
      <trkpt lat="46.29739" lon="-0.21862">
        <ele>113.2033</ele>
        <time>2011-01-03T14:49:48Z</time>
      </trkpt>
      <trkpt lat="46.29738" lon="-0.21862">
        <ele>113.073</ele>
        <time>2011-01-03T14:49:49Z</time>
      </trkpt>
      <trkpt lat="46.29737" lon="-0.21862">
        <ele>112.945</ele>
        <time>2011-01-03T14:49:50Z</time>
      </trkpt>
      <trkpt lat="46.29736" lon="-0.21862">
        <ele>112.8118</ele>
        <time>2011-01-03T14:49:51Z</time>
      </trkpt>
      <trkpt lat="46.29734" lon="-0.21862">
        <ele>112.6868</ele>
        <time>2011-01-03T14:49:52Z</time>
      </trkpt>
      <trkpt lat="46.29733" lon="-0.21862">
        <ele>112.5703</ele>
        <time>2011-01-03T14:49:53Z</time>
      </trkpt>
      <trkpt lat="46.29733" lon="-0.21862">
        <ele>112.4553</ele>
        <time>2011-01-03T14:49:54Z</time>
      </trkpt>
      <trkpt lat="46.29732" lon="-0.21863">
        <ele>112.3423</ele>
        <time>2011-01-03T14:49:55Z</time>
      </trkpt>
      <trkpt lat="46.29731" lon="-0.21863">
        <ele>112.233</ele>
        <time>2011-01-03T14:49:56Z</time>
      </trkpt>
      <trkpt lat="46.2973" lon="-0.21864">
        <ele>112.133</ele>
        <time>2011-01-03T14:49:57Z</time>
      </trkpt>
      <trkpt lat="46.2973" lon="-0.21864">
        <ele>112.0404</ele>
        <time>2011-01-03T14:49:58Z</time>
      </trkpt>
      <trkpt lat="46.29729" lon="-0.21865">
        <ele>111.9507</ele>
        <time>2011-01-03T14:49:59Z</time>
      </trkpt>
      <trkpt lat="46.29728" lon="-0.21865">
        <ele>111.8655</ele>
        <time>2011-01-03T14:50:00Z</time>
      </trkpt>
      <trkpt lat="46.29727" lon="-0.21866">
        <ele>111.7791</ele>
        <time>2011-01-03T14:50:01Z</time>
      </trkpt>
      <trkpt lat="46.29726" lon="-0.21867">
        <ele>111.6954</ele>
        <time>2011-01-03T14:50:02Z</time>
      </trkpt>
      <trkpt lat="46.29725" lon="-0.21867">
        <ele>111.6088</ele>
        <time>2011-01-03T14:50:03Z</time>
      </trkpt>
      <trkpt lat="46.29724" lon="-0.21867">
        <ele>111.5261</ele>
        <time>2011-01-03T14:50:04Z</time>
      </trkpt>
      <trkpt lat="46.29723" lon="-0.21867">
        <ele>111.445</ele>
        <time>2011-01-03T14:50:05Z</time>
      </trkpt>
      <trkpt lat="46.29723" lon="-0.21867">
        <ele>111.3617</ele>
        <time>2011-01-03T14:50:06Z</time>
      </trkpt>
      <trkpt lat="46.29722" lon="-0.21867">
        <ele>111.1755</ele>
        <time>2011-01-03T14:50:09Z</time>
      </trkpt>
      <trkpt lat="46.29721" lon="-0.21867">
        <ele>111.0902</ele>
        <time>2011-01-03T14:50:10Z</time>
      </trkpt>
      <trkpt lat="46.2972" lon="-0.21867">
        <ele>111.0101</ele>
        <time>2011-01-03T14:50:11Z</time>
      </trkpt>
      <trkpt lat="46.2972" lon="-0.21867">
        <ele>110.9355</ele>
        <time>2011-01-03T14:50:12Z</time>
      </trkpt>
      <trkpt lat="46.29718" lon="-0.21868">
        <ele>110.866</ele>
        <time>2011-01-03T14:50:13Z</time>
      </trkpt>
      <trkpt lat="46.29718" lon="-0.21868">
        <ele>110.8007</ele>
        <time>2011-01-03T14:50:14Z</time>
      </trkpt>
      <trkpt lat="46.29717" lon="-0.21869">
        <ele>110.7328</ele>
        <time>2011-01-03T14:50:15Z</time>
      </trkpt>
      <trkpt lat="46.29716" lon="-0.21869">
        <ele>110.6588</ele>
        <time>2011-01-03T14:50:16Z</time>
      </trkpt>
      <trkpt lat="46.29715" lon="-0.2187">
        <ele>110.5814</ele>
        <time>2011-01-03T14:50:17Z</time>
      </trkpt>
      <trkpt lat="46.29714" lon="-0.2187">
        <ele>110.5007</ele>
        <time>2011-01-03T14:50:18Z</time>
      </trkpt>
      <trkpt lat="46.29713" lon="-0.2187">
        <ele>110.4192</ele>
        <time>2011-01-03T14:50:19Z</time>
      </trkpt>
      <trkpt lat="46.29712" lon="-0.2187">
        <ele>110.3397</ele>
        <time>2011-01-03T14:50:20Z</time>
      </trkpt>
      <trkpt lat="46.29711" lon="-0.21871">
        <ele>110.2518</ele>
        <time>2011-01-03T14:50:21Z</time>
      </trkpt>
      <trkpt lat="46.2971" lon="-0.21871">
        <ele>110.1618</ele>
        <time>2011-01-03T14:50:22Z</time>
      </trkpt>
      <trkpt lat="46.29709" lon="-0.21871">
        <ele>110.0736</ele>
        <time>2011-01-03T14:50:23Z</time>
      </trkpt>
      <trkpt lat="46.29709" lon="-0.21872">
        <ele>109.9832</ele>
        <time>2011-01-03T14:50:24Z</time>
      </trkpt>
      <trkpt lat="46.29708" lon="-0.21872">
        <ele>109.8965</ele>
        <time>2011-01-03T14:50:25Z</time>
      </trkpt>
      <trkpt lat="46.29707" lon="-0.21872">
        <ele>109.8091</ele>
        <time>2011-01-03T14:50:26Z</time>
      </trkpt>
      <trkpt lat="46.29706" lon="-0.21873">
        <ele>109.7289</ele>
        <time>2011-01-03T14:50:27Z</time>
      </trkpt>
      <trkpt lat="46.29705" lon="-0.21873">
        <ele>109.6453</ele>
        <time>2011-01-03T14:50:28Z</time>
      </trkpt>
      <trkpt lat="46.29704" lon="-0.21873">
        <ele>109.5587</ele>
        <time>2011-01-03T14:50:29Z</time>
      </trkpt>
      <trkpt lat="46.29703" lon="-0.21873">
        <ele>109.4713</ele>
        <time>2011-01-03T14:50:30Z</time>
      </trkpt>
      <trkpt lat="46.29702" lon="-0.21872">
        <ele>109.3913</ele>
        <time>2011-01-03T14:50:31Z</time>
      </trkpt>
      <trkpt lat="46.29701" lon="-0.21872">
        <ele>109.3131</ele>
        <time>2011-01-03T14:50:32Z</time>
      </trkpt>
      <trkpt lat="46.29701" lon="-0.21872">
        <ele>109.2335</ele>
        <time>2011-01-03T14:50:33Z</time>
      </trkpt>
      <trkpt lat="46.297" lon="-0.21871">
        <ele>109.146</ele>
        <time>2011-01-03T14:50:34Z</time>
      </trkpt>
      <trkpt lat="46.29699" lon="-0.2187">
        <ele>109.0489</ele>
        <time>2011-01-03T14:50:35Z</time>
      </trkpt>
      <trkpt lat="46.29697" lon="-0.21866">
        <ele>108.6202</ele>
        <time>2011-01-03T14:50:41Z</time>
      </trkpt>
      <trkpt lat="46.29696" lon="-0.21866">
        <ele>108.5592</ele>
        <time>2011-01-03T14:50:42Z</time>
      </trkpt>
      <trkpt lat="46.29696" lon="-0.21865">
        <ele>108.5092</ele>
        <time>2011-01-03T14:50:43Z</time>
      </trkpt>
      <trkpt lat="46.29696" lon="-0.21872">
        <ele>108.84</ele>
        <time>2011-01-03T14:50:55Z</time>
      </trkpt>
      <trkpt lat="46.29694" lon="-0.21877">
        <ele>110.2772</ele>
        <time>2011-01-03T14:51:07Z</time>
      </trkpt>
      <trkpt lat="46.29694" lon="-0.21877">
        <ele>110.565</ele>
        <time>2011-01-03T14:51:08Z</time>
      </trkpt>
      <trkpt lat="46.29692" lon="-0.21877">
        <ele>110.8459</ele>
        <time>2011-01-03T14:51:09Z</time>
      </trkpt>
      <trkpt lat="46.29691" lon="-0.21877">
        <ele>111.1203</ele>
        <time>2011-01-03T14:51:10Z</time>
      </trkpt>
      <trkpt lat="46.29689" lon="-0.21876">
        <ele>111.3877</ele>
        <time>2011-01-03T14:51:11Z</time>
      </trkpt>
      <trkpt lat="46.29688" lon="-0.21876">
        <ele>111.6487</ele>
        <time>2011-01-03T14:51:12Z</time>
      </trkpt>
      <trkpt lat="46.29687" lon="-0.21877">
        <ele>111.9026</ele>
        <time>2011-01-03T14:51:13Z</time>
      </trkpt>
      <trkpt lat="46.29686" lon="-0.21877">
        <ele>112.1494</ele>
        <time>2011-01-03T14:51:14Z</time>
      </trkpt>
      <trkpt lat="46.29684" lon="-0.21877">
        <ele>112.6315</ele>
        <time>2011-01-03T14:51:17Z</time>
      </trkpt>
      <trkpt lat="46.29683" lon="-0.21878">
        <ele>112.8466</ele>
        <time>2011-01-03T14:51:18Z</time>
      </trkpt>
      <trkpt lat="46.29683" lon="-0.21878">
        <ele>113.0505</ele>
        <time>2011-01-03T14:51:19Z</time>
      </trkpt>
      <trkpt lat="46.29682" lon="-0.21879">
        <ele>113.2404</ele>
        <time>2011-01-03T14:51:20Z</time>
      </trkpt>
      <trkpt lat="46.29681" lon="-0.2188">
        <ele>113.4167</ele>
        <time>2011-01-03T14:51:21Z</time>
      </trkpt>
      <trkpt lat="46.2968" lon="-0.21881">
        <ele>113.5806</ele>
        <time>2011-01-03T14:51:22Z</time>
      </trkpt>
      <trkpt lat="46.29679" lon="-0.21882">
        <ele>113.7373</ele>
        <time>2011-01-03T14:51:23Z</time>
      </trkpt>
      <trkpt lat="46.29678" lon="-0.21882">
        <ele>113.8853</ele>
        <time>2011-01-03T14:51:24Z</time>
      </trkpt>
      <trkpt lat="46.29678" lon="-0.21883">
        <ele>114.0291</ele>
        <time>2011-01-03T14:51:25Z</time>
      </trkpt>
      <trkpt lat="46.29677" lon="-0.21883">
        <ele>114.1695</ele>
        <time>2011-01-03T14:51:26Z</time>
      </trkpt>
      <trkpt lat="46.29676" lon="-0.21885">
        <ele>114.3003</ele>
        <time>2011-01-03T14:51:27Z</time>
      </trkpt>
      <trkpt lat="46.29676" lon="-0.21886">
        <ele>114.4238</ele>
        <time>2011-01-03T14:51:28Z</time>
      </trkpt>
      <trkpt lat="46.29676" lon="-0.21887">
        <ele>114.539</ele>
        <time>2011-01-03T14:51:29Z</time>
      </trkpt>
      <trkpt lat="46.29675" lon="-0.21888">
        <ele>114.6488</ele>
        <time>2011-01-03T14:51:30Z</time>
      </trkpt>
      <trkpt lat="46.29675" lon="-0.21889">
        <ele>114.7489</ele>
        <time>2011-01-03T14:51:31Z</time>
      </trkpt>
      <trkpt lat="46.29675" lon="-0.2189">
        <ele>114.8427</ele>
        <time>2011-01-03T14:51:32Z</time>
      </trkpt>
      <trkpt lat="46.29674" lon="-0.21891">
        <ele>114.9335</ele>
        <time>2011-01-03T14:51:33Z</time>
      </trkpt>
      <trkpt lat="46.29673" lon="-0.21892">
        <ele>115.0214</ele>
        <time>2011-01-03T14:51:34Z</time>
      </trkpt>
      <trkpt lat="46.29673" lon="-0.21893">
        <ele>115.1066</ele>
        <time>2011-01-03T14:51:35Z</time>
      </trkpt>
      <trkpt lat="46.29672" lon="-0.21894">
        <ele>115.1892</ele>
        <time>2011-01-03T14:51:36Z</time>
      </trkpt>
      <trkpt lat="46.29672" lon="-0.21895">
        <ele>115.2662</ele>
        <time>2011-01-03T14:51:37Z</time>
      </trkpt>
      <trkpt lat="46.29671" lon="-0.21896">
        <ele>115.3422</ele>
        <time>2011-01-03T14:51:38Z</time>
      </trkpt>
      <trkpt lat="46.2967" lon="-0.21896">
        <ele>115.411</ele>
        <time>2011-01-03T14:51:39Z</time>
      </trkpt>
      <trkpt lat="46.2967" lon="-0.21897">
        <ele>115.4719</ele>
        <time>2011-01-03T14:51:40Z</time>
      </trkpt>
      <trkpt lat="46.2967" lon="-0.21898">
        <ele>115.5267</ele>
        <time>2011-01-03T14:51:41Z</time>
      </trkpt>
      <trkpt lat="46.29668" lon="-0.219">
        <ele>115.5453</ele>
        <time>2011-01-03T14:51:45Z</time>
      </trkpt>
      <trkpt lat="46.29666" lon="-0.21906">
        <ele>115.4375</ele>
        <time>2011-01-03T14:51:52Z</time>
      </trkpt>
      <trkpt lat="46.29665" lon="-0.21907">
        <ele>115.4022</ele>
        <time>2011-01-03T14:51:53Z</time>
      </trkpt>
      <trkpt lat="46.29665" lon="-0.21909">
        <ele>115.3571</ele>
        <time>2011-01-03T14:51:54Z</time>
      </trkpt>
      <trkpt lat="46.29664" lon="-0.21911">
        <ele>115.3038</ele>
        <time>2011-01-03T14:51:55Z</time>
      </trkpt>
      <trkpt lat="46.29664" lon="-0.21912">
        <ele>115.2521</ele>
        <time>2011-01-03T14:51:56Z</time>
      </trkpt>
      <trkpt lat="46.29663" lon="-0.21913">
        <ele>115.2002</ele>
        <time>2011-01-03T14:51:57Z</time>
      </trkpt>
      <trkpt lat="46.29662" lon="-0.21913">
        <ele>115.1496</ele>
        <time>2011-01-03T14:51:58Z</time>
      </trkpt>
      <trkpt lat="46.29662" lon="-0.21914">
        <ele>115.0993</ele>
        <time>2011-01-03T14:51:59Z</time>
      </trkpt>
      <trkpt lat="46.29662" lon="-0.21915">
        <ele>115.0498</ele>
        <time>2011-01-03T14:52:00Z</time>
      </trkpt>
      <trkpt lat="46.29661" lon="-0.21916">
        <ele>115.0039</ele>
        <time>2011-01-03T14:52:01Z</time>
      </trkpt>
      <trkpt lat="46.29661" lon="-0.21916">
        <ele>114.9595</ele>
        <time>2011-01-03T14:52:02Z</time>
      </trkpt>
      <trkpt lat="46.29661" lon="-0.21917">
        <ele>114.9193</ele>
        <time>2011-01-03T14:52:03Z</time>
      </trkpt>
      <trkpt lat="46.29661" lon="-0.21918">
        <ele>114.8784</ele>
        <time>2011-01-03T14:52:04Z</time>
      </trkpt>
      <trkpt lat="46.2966" lon="-0.21919">
        <ele>114.8402</ele>
        <time>2011-01-03T14:52:05Z</time>
      </trkpt>
      <trkpt lat="46.2966" lon="-0.2192">
        <ele>114.8024</ele>
        <time>2011-01-03T14:52:06Z</time>
      </trkpt>
      <trkpt lat="46.2966" lon="-0.21921">
        <ele>114.7653</ele>
        <time>2011-01-03T14:52:07Z</time>
      </trkpt>
      <trkpt lat="46.29659" lon="-0.21921">
        <ele>114.7304</ele>
        <time>2011-01-03T14:52:08Z</time>
      </trkpt>
      <trkpt lat="46.29659" lon="-0.21922">
        <ele>114.6919</ele>
        <time>2011-01-03T14:52:09Z</time>
      </trkpt>
      <trkpt lat="46.29659" lon="-0.21928">
        <ele>114.4585</ele>
        <time>2011-01-03T14:52:18Z</time>
      </trkpt>
      <trkpt lat="46.29659" lon="-0.21929">
        <ele>114.3909</ele>
        <time>2011-01-03T14:52:19Z</time>
      </trkpt>
      <trkpt lat="46.29659" lon="-0.2193">
        <ele>114.3167</ele>
        <time>2011-01-03T14:52:20Z</time>
      </trkpt>
      <trkpt lat="46.29658" lon="-0.2193">
        <ele>114.2423</ele>
        <time>2011-01-03T14:52:21Z</time>
      </trkpt>
      <trkpt lat="46.29657" lon="-0.21931">
        <ele>114.1607</ele>
        <time>2011-01-03T14:52:22Z</time>
      </trkpt>
      <trkpt lat="46.29657" lon="-0.21932">
        <ele>114.0742</ele>
        <time>2011-01-03T14:52:23Z</time>
      </trkpt>
      <trkpt lat="46.29657" lon="-0.21932">
        <ele>113.9989</ele>
        <time>2011-01-03T14:52:24Z</time>
      </trkpt>
      <trkpt lat="46.29656" lon="-0.21931">
        <ele>113.9246</ele>
        <time>2011-01-03T14:52:25Z</time>
      </trkpt>
      <trkpt lat="46.29653" lon="-0.21935">
        <ele>113.4174</ele>
        <time>2011-01-03T14:52:32Z</time>
      </trkpt>
      <trkpt lat="46.29652" lon="-0.21936">
        <ele>113.2776</ele>
        <time>2011-01-03T14:52:33Z</time>
      </trkpt>
      <trkpt lat="46.2965" lon="-0.21937">
        <ele>113.1235</ele>
        <time>2011-01-03T14:52:34Z</time>
      </trkpt>
      <trkpt lat="46.29649" lon="-0.21939">
        <ele>112.9663</ele>
        <time>2011-01-03T14:52:35Z</time>
      </trkpt>
      <trkpt lat="46.29647" lon="-0.2194">
        <ele>112.7929</ele>
        <time>2011-01-03T14:52:37Z</time>
      </trkpt>
      <trkpt lat="46.29646" lon="-0.21941">
        <ele>112.6381</ele>
        <time>2011-01-03T14:52:38Z</time>
      </trkpt>
      <trkpt lat="46.29645" lon="-0.21942">
        <ele>112.48</ele>
        <time>2011-01-03T14:52:39Z</time>
      </trkpt>
      <trkpt lat="46.29644" lon="-0.21943">
        <ele>112.327</ele>
        <time>2011-01-03T14:52:40Z</time>
      </trkpt>
      <trkpt lat="46.29644" lon="-0.21944">
        <ele>112.1777</ele>
        <time>2011-01-03T14:52:41Z</time>
      </trkpt>
      <trkpt lat="46.29643" lon="-0.21944">
        <ele>112.0341</ele>
        <time>2011-01-03T14:52:42Z</time>
      </trkpt>
      <trkpt lat="46.29643" lon="-0.21945">
        <ele>111.894</ele>
        <time>2011-01-03T14:52:43Z</time>
      </trkpt>
      <trkpt lat="46.29642" lon="-0.21945">
        <ele>111.7601</ele>
        <time>2011-01-03T14:52:44Z</time>
      </trkpt>
      <trkpt lat="46.29641" lon="-0.21946">
        <ele>111.6338</ele>
        <time>2011-01-03T14:52:45Z</time>
      </trkpt>
      <trkpt lat="46.29641" lon="-0.21946">
        <ele>111.5154</ele>
        <time>2011-01-03T14:52:46Z</time>
      </trkpt>
      <trkpt lat="46.2964" lon="-0.21947">
        <ele>111.4044</ele>
        <time>2011-01-03T14:52:47Z</time>
      </trkpt>
      <trkpt lat="46.29639" lon="-0.21948">
        <ele>111.3055</ele>
        <time>2011-01-03T14:52:48Z</time>
      </trkpt>
      <trkpt lat="46.29639" lon="-0.21948">
        <ele>111.215</ele>
        <time>2011-01-03T14:52:49Z</time>
      </trkpt>
      <trkpt lat="46.29638" lon="-0.21949">
        <ele>111.1267</ele>
        <time>2011-01-03T14:52:50Z</time>
      </trkpt>
      <trkpt lat="46.29638" lon="-0.21949">
        <ele>111.0412</ele>
        <time>2011-01-03T14:52:51Z</time>
      </trkpt>
      <trkpt lat="46.29638" lon="-0.2195">
        <ele>110.9606</ele>
        <time>2011-01-03T14:52:52Z</time>
      </trkpt>
      <trkpt lat="46.29637" lon="-0.21951">
        <ele>110.5065</ele>
        <time>2011-01-03T14:52:58Z</time>
      </trkpt>
      <trkpt lat="46.29636" lon="-0.21951">
        <ele>110.4</ele>
        <time>2011-01-03T14:52:59Z</time>
      </trkpt>
      <trkpt lat="46.29636" lon="-0.21952">
        <ele>110.2976</ele>
        <time>2011-01-03T14:53:00Z</time>
      </trkpt>
      <trkpt lat="46.29636" lon="-0.21952">
        <ele>110.2003</ele>
        <time>2011-01-03T14:53:01Z</time>
      </trkpt>
      <trkpt lat="46.29635" lon="-0.21953">
        <ele>110.107</ele>
        <time>2011-01-03T14:53:02Z</time>
      </trkpt>
      <trkpt lat="46.29635" lon="-0.21954">
        <ele>110.0149</ele>
        <time>2011-01-03T14:53:03Z</time>
      </trkpt>
      <trkpt lat="46.29634" lon="-0.21955">
        <ele>109.9154</ele>
        <time>2011-01-03T14:53:04Z</time>
      </trkpt>
      <trkpt lat="46.29633" lon="-0.21955">
        <ele>109.8051</ele>
        <time>2011-01-03T14:53:05Z</time>
      </trkpt>
      <trkpt lat="46.29633" lon="-0.21956">
        <ele>109.6959</ele>
        <time>2011-01-03T14:53:06Z</time>
      </trkpt>
      <trkpt lat="46.29632" lon="-0.21957">
        <ele>109.5757</ele>
        <time>2011-01-03T14:53:07Z</time>
      </trkpt>
      <trkpt lat="46.29631" lon="-0.21958">
        <ele>109.4417</ele>
        <time>2011-01-03T14:53:08Z</time>
      </trkpt>
      <trkpt lat="46.2963" lon="-0.21959">
        <ele>109.2995</ele>
        <time>2011-01-03T14:53:09Z</time>
      </trkpt>
      <trkpt lat="46.29629" lon="-0.2196">
        <ele>109.1528</ele>
        <time>2011-01-03T14:53:10Z</time>
      </trkpt>
      <trkpt lat="46.29628" lon="-0.21961">
        <ele>109.0025</ele>
        <time>2011-01-03T14:53:11Z</time>
      </trkpt>
      <trkpt lat="46.29627" lon="-0.21962">
        <ele>108.8609</ele>
        <time>2011-01-03T14:53:12Z</time>
      </trkpt>
      <trkpt lat="46.29626" lon="-0.21963">
        <ele>108.7265</ele>
        <time>2011-01-03T14:53:13Z</time>
      </trkpt>
      <trkpt lat="46.29625" lon="-0.21964">
        <ele>108.598</ele>
        <time>2011-01-03T14:53:14Z</time>
      </trkpt>
      <trkpt lat="46.29624" lon="-0.21965">
        <ele>108.4832</ele>
        <time>2011-01-03T14:53:15Z</time>
      </trkpt>
      <trkpt lat="46.29623" lon="-0.21966">
        <ele>108.3771</ele>
        <time>2011-01-03T14:53:16Z</time>
      </trkpt>
      <trkpt lat="46.29623" lon="-0.21966">
        <ele>108.2806</ele>
        <time>2011-01-03T14:53:17Z</time>
      </trkpt>
      <trkpt lat="46.29622" lon="-0.21966">
        <ele>108.1901</ele>
        <time>2011-01-03T14:53:18Z</time>
      </trkpt>
      <trkpt lat="46.29621" lon="-0.21967">
        <ele>108.1038</ele>
        <time>2011-01-03T14:53:19Z</time>
      </trkpt>
      <trkpt lat="46.29619" lon="-0.21967">
        <ele>108.0236</ele>
        <time>2011-01-03T14:53:20Z</time>
      </trkpt>
      <trkpt lat="46.29618" lon="-0.21967">
        <ele>107.9449</ele>
        <time>2011-01-03T14:53:21Z</time>
      </trkpt>
      <trkpt lat="46.29617" lon="-0.21968">
        <ele>107.8614</ele>
        <time>2011-01-03T14:53:22Z</time>
      </trkpt>
      <trkpt lat="46.29616" lon="-0.21969">
        <ele>107.774</ele>
        <time>2011-01-03T14:53:23Z</time>
      </trkpt>
      <trkpt lat="46.29615" lon="-0.21969">
        <ele>107.6863</ele>
        <time>2011-01-03T14:53:24Z</time>
      </trkpt>
      <trkpt lat="46.29614" lon="-0.2197">
        <ele>107.5918</ele>
        <time>2011-01-03T14:53:25Z</time>
      </trkpt>
      <trkpt lat="46.29613" lon="-0.2197">
        <ele>107.4907</ele>
        <time>2011-01-03T14:53:26Z</time>
      </trkpt>
      <trkpt lat="46.29612" lon="-0.21971">
        <ele>107.3852</ele>
        <time>2011-01-03T14:53:27Z</time>
      </trkpt>
      <trkpt lat="46.29611" lon="-0.21971">
        <ele>107.2768</ele>
        <time>2011-01-03T14:53:28Z</time>
      </trkpt>
      <trkpt lat="46.2961" lon="-0.21972">
        <ele>107.1707</ele>
        <time>2011-01-03T14:53:29Z</time>
      </trkpt>
      <trkpt lat="46.29609" lon="-0.21973">
        <ele>107.0539</ele>
        <time>2011-01-03T14:53:30Z</time>
      </trkpt>
      <trkpt lat="46.29608" lon="-0.21973">
        <ele>106.9401</ele>
        <time>2011-01-03T14:53:31Z</time>
      </trkpt>
      <trkpt lat="46.29607" lon="-0.21973">
        <ele>106.8294</ele>
        <time>2011-01-03T14:53:32Z</time>
      </trkpt>
      <trkpt lat="46.29606" lon="-0.21973">
        <ele>106.7197</ele>
        <time>2011-01-03T14:53:33Z</time>
      </trkpt>
      <trkpt lat="46.29605" lon="-0.21973">
        <ele>106.6126</ele>
        <time>2011-01-03T14:53:34Z</time>
      </trkpt>
      <trkpt lat="46.29604" lon="-0.21974">
        <ele>106.5083</ele>
        <time>2011-01-03T14:53:35Z</time>
      </trkpt>
      <trkpt lat="46.29602" lon="-0.21975">
        <ele>106.3991</ele>
        <time>2011-01-03T14:53:36Z</time>
      </trkpt>
      <trkpt lat="46.29601" lon="-0.21976">
        <ele>106.2895</ele>
        <time>2011-01-03T14:53:37Z</time>
      </trkpt>
      <trkpt lat="46.296" lon="-0.21976">
        <ele>106.1698</ele>
        <time>2011-01-03T14:53:38Z</time>
      </trkpt>
      <trkpt lat="46.29599" lon="-0.21976">
        <ele>106.0513</ele>
        <time>2011-01-03T14:53:39Z</time>
      </trkpt>
      <trkpt lat="46.29598" lon="-0.21976">
        <ele>105.9284</ele>
        <time>2011-01-03T14:53:40Z</time>
      </trkpt>
      <trkpt lat="46.29597" lon="-0.21975">
        <ele>105.8054</ele>
        <time>2011-01-03T14:53:41Z</time>
      </trkpt>
      <trkpt lat="46.29596" lon="-0.21975">
        <ele>105.675</ele>
        <time>2011-01-03T14:53:42Z</time>
      </trkpt>
      <trkpt lat="46.29595" lon="-0.21974">
        <ele>105.5464</ele>
        <time>2011-01-03T14:53:43Z</time>
      </trkpt>
      <trkpt lat="46.29594" lon="-0.21974">
        <ele>105.4203</ele>
        <time>2011-01-03T14:53:44Z</time>
      </trkpt>
      <trkpt lat="46.29593" lon="-0.21975">
        <ele>105.2975</ele>
        <time>2011-01-03T14:53:45Z</time>
      </trkpt>
      <trkpt lat="46.29592" lon="-0.21975">
        <ele>105.1801</ele>
        <time>2011-01-03T14:53:46Z</time>
      </trkpt>
      <trkpt lat="46.29591" lon="-0.21975">
        <ele>105.0651</ele>
        <time>2011-01-03T14:53:47Z</time>
      </trkpt>
      <trkpt lat="46.2959" lon="-0.21975">
        <ele>104.9513</ele>
        <time>2011-01-03T14:53:48Z</time>
      </trkpt>
      <trkpt lat="46.29589" lon="-0.21976">
        <ele>104.8388</ele>
        <time>2011-01-03T14:53:49Z</time>
      </trkpt>
      <trkpt lat="46.29588" lon="-0.21976">
        <ele>104.7275</ele>
        <time>2011-01-03T14:53:50Z</time>
      </trkpt>
      <trkpt lat="46.29588" lon="-0.21977">
        <ele>104.6223</ele>
        <time>2011-01-03T14:53:51Z</time>
      </trkpt>
      <trkpt lat="46.29586" lon="-0.21977">
        <ele>104.2722</ele>
        <time>2011-01-03T14:53:54Z</time>
      </trkpt>
      <trkpt lat="46.29585" lon="-0.21977">
        <ele>104.155</ele>
        <time>2011-01-03T14:53:55Z</time>
      </trkpt>
      <trkpt lat="46.29584" lon="-0.21977">
        <ele>104.039</ele>
        <time>2011-01-03T14:53:56Z</time>
      </trkpt>
      <trkpt lat="46.29583" lon="-0.21977">
        <ele>103.9258</ele>
        <time>2011-01-03T14:53:57Z</time>
      </trkpt>
      <trkpt lat="46.29582" lon="-0.21977">
        <ele>103.7924</ele>
        <time>2011-01-03T14:53:58Z</time>
      </trkpt>
      <trkpt lat="46.2958" lon="-0.21977">
        <ele>103.6609</ele>
        <time>2011-01-03T14:53:59Z</time>
      </trkpt>
      <trkpt lat="46.29579" lon="-0.21978">
        <ele>103.5101</ele>
        <time>2011-01-03T14:54:00Z</time>
      </trkpt>
      <trkpt lat="46.29578" lon="-0.21978">
        <ele>103.3588</ele>
        <time>2011-01-03T14:54:01Z</time>
      </trkpt>
      <trkpt lat="46.29575" lon="-0.21983">
        <ele>101.134</ele>
        <time>2011-01-03T14:54:24Z</time>
      </trkpt>
      <trkpt lat="46.29574" lon="-0.21984">
        <ele>100.9739</ele>
        <time>2011-01-03T14:54:25Z</time>
      </trkpt>
      <trkpt lat="46.29573" lon="-0.21985">
        <ele>100.8163</ele>
        <time>2011-01-03T14:54:26Z</time>
      </trkpt>
      <trkpt lat="46.29572" lon="-0.21985">
        <ele>100.6636</ele>
        <time>2011-01-03T14:54:27Z</time>
      </trkpt>
      <trkpt lat="46.2957" lon="-0.21986">
        <ele>100.5176</ele>
        <time>2011-01-03T14:54:28Z</time>
      </trkpt>
      <trkpt lat="46.29569" lon="-0.21986">
        <ele>100.3771</ele>
        <time>2011-01-03T14:54:29Z</time>
      </trkpt>
      <trkpt lat="46.29568" lon="-0.21986">
        <ele>100.2381</ele>
        <time>2011-01-03T14:54:30Z</time>
      </trkpt>
      <trkpt lat="46.29567" lon="-0.21986">
        <ele>100.0999</ele>
        <time>2011-01-03T14:54:31Z</time>
      </trkpt>
      <trkpt lat="46.29565" lon="-0.21985">
        <ele>99.9651</ele>
        <time>2011-01-03T14:54:32Z</time>
      </trkpt>
      <trkpt lat="46.29564" lon="-0.21985">
        <ele>99.8336</ele>
        <time>2011-01-03T14:54:33Z</time>
      </trkpt>
      <trkpt lat="46.29563" lon="-0.21984">
        <ele>99.7068</ele>
        <time>2011-01-03T14:54:34Z</time>
      </trkpt>
      <trkpt lat="46.29562" lon="-0.21984">
        <ele>99.583</ele>
        <time>2011-01-03T14:54:35Z</time>
      </trkpt>
      <trkpt lat="46.29561" lon="-0.21984">
        <ele>99.4626</ele>
        <time>2011-01-03T14:54:36Z</time>
      </trkpt>
      <trkpt lat="46.2956" lon="-0.21983">
        <ele>99.3434</ele>
        <time>2011-01-03T14:54:37Z</time>
      </trkpt>
      <trkpt lat="46.29559" lon="-0.21983">
        <ele>99.2268</ele>
        <time>2011-01-03T14:54:38Z</time>
      </trkpt>
      <trkpt lat="46.29558" lon="-0.21983">
        <ele>99.1126</ele>
        <time>2011-01-03T14:54:39Z</time>
      </trkpt>
      <trkpt lat="46.29557" lon="-0.21983">
        <ele>99.0015</ele>
        <time>2011-01-03T14:54:40Z</time>
      </trkpt>
      <trkpt lat="46.29556" lon="-0.21983">
        <ele>98.8903</ele>
        <time>2011-01-03T14:54:41Z</time>
      </trkpt>
      <trkpt lat="46.29556" lon="-0.21984">
        <ele>98.7764</ele>
        <time>2011-01-03T14:54:42Z</time>
      </trkpt>
      <trkpt lat="46.29555" lon="-0.21984">
        <ele>98.6643</ele>
        <time>2011-01-03T14:54:43Z</time>
      </trkpt>
      <trkpt lat="46.29554" lon="-0.21985">
        <ele>98.5585</ele>
        <time>2011-01-03T14:54:44Z</time>
      </trkpt>
      <trkpt lat="46.29552" lon="-0.21984">
        <ele>95.279</ele>
        <time>2011-01-03T14:55:34Z</time>
      </trkpt>
      <trkpt lat="46.29551" lon="-0.21983">
        <ele>95.1794</ele>
        <time>2011-01-03T14:55:35Z</time>
      </trkpt>
      <trkpt lat="46.2955" lon="-0.21983">
        <ele>95.0822</ele>
        <time>2011-01-03T14:55:36Z</time>
      </trkpt>
      <trkpt lat="46.29549" lon="-0.21984">
        <ele>94.9849</ele>
        <time>2011-01-03T14:55:37Z</time>
      </trkpt>
      <trkpt lat="46.29548" lon="-0.21984">
        <ele>94.8878</ele>
        <time>2011-01-03T14:55:38Z</time>
      </trkpt>
      <trkpt lat="46.29547" lon="-0.21985">
        <ele>94.7889</ele>
        <time>2011-01-03T14:55:39Z</time>
      </trkpt>
      <trkpt lat="46.29547" lon="-0.21986">
        <ele>94.6919</ele>
        <time>2011-01-03T14:55:40Z</time>
      </trkpt>
      <trkpt lat="46.29546" lon="-0.21987">
        <ele>94.5994</ele>
        <time>2011-01-03T14:55:41Z</time>
      </trkpt>
      <trkpt lat="46.29546" lon="-0.21989">
        <ele>94.5097</ele>
        <time>2011-01-03T14:55:42Z</time>
      </trkpt>
      <trkpt lat="46.29545" lon="-0.2199">
        <ele>94.4223</ele>
        <time>2011-01-03T14:55:43Z</time>
      </trkpt>
      <trkpt lat="46.29544" lon="-0.21991">
        <ele>94.3367</ele>
        <time>2011-01-03T14:55:44Z</time>
      </trkpt>
      <trkpt lat="46.29544" lon="-0.21992">
        <ele>94.2584</ele>
        <time>2011-01-03T14:55:45Z</time>
      </trkpt>
      <trkpt lat="46.29543" lon="-0.21993">
        <ele>94.1838</ele>
        <time>2011-01-03T14:55:46Z</time>
      </trkpt>
      <trkpt lat="46.29543" lon="-0.21995">
        <ele>94.1147</ele>
        <time>2011-01-03T14:55:47Z</time>
      </trkpt>
      <trkpt lat="46.29542" lon="-0.21996">
        <ele>94.0459</ele>
        <time>2011-01-03T14:55:48Z</time>
      </trkpt>
      <trkpt lat="46.29541" lon="-0.21997">
        <ele>93.98</ele>
        <time>2011-01-03T14:55:49Z</time>
      </trkpt>
      <trkpt lat="46.29538" lon="-0.22003">
        <ele>93.6452</ele>
        <time>2011-01-03T14:55:54Z</time>
      </trkpt>
      <trkpt lat="46.29534" lon="-0.22008">
        <ele>93.2903</ele>
        <time>2011-01-03T14:55:59Z</time>
      </trkpt>
      <trkpt lat="46.29533" lon="-0.22009">
        <ele>93.2437</ele>
        <time>2011-01-03T14:56:00Z</time>
      </trkpt>
      <trkpt lat="46.29532" lon="-0.22012">
        <ele>93.1547</ele>
        <time>2011-01-03T14:56:02Z</time>
      </trkpt>
      <trkpt lat="46.29532" lon="-0.22013">
        <ele>93.1167</ele>
        <time>2011-01-03T14:56:03Z</time>
      </trkpt>
      <trkpt lat="46.29531" lon="-0.22014">
        <ele>93.0812</ele>
        <time>2011-01-03T14:56:04Z</time>
      </trkpt>
      <trkpt lat="46.2953" lon="-0.22016">
        <ele>93.0458</ele>
        <time>2011-01-03T14:56:05Z</time>
      </trkpt>
      <trkpt lat="46.2953" lon="-0.22017">
        <ele>93.0099</ele>
        <time>2011-01-03T14:56:06Z</time>
      </trkpt>
      <trkpt lat="46.29529" lon="-0.22018">
        <ele>92.975</ele>
        <time>2011-01-03T14:56:07Z</time>
      </trkpt>
      <trkpt lat="46.29529" lon="-0.22019">
        <ele>92.95</ele>
        <time>2011-01-03T14:56:08Z</time>
      </trkpt>
      <trkpt lat="46.29528" lon="-0.2202">
        <ele>92.9264</ele>
        <time>2011-01-03T14:56:09Z</time>
      </trkpt>
      <trkpt lat="46.29528" lon="-0.22021">
        <ele>92.9052</ele>
        <time>2011-01-03T14:56:10Z</time>
      </trkpt>
      <trkpt lat="46.29528" lon="-0.22023">
        <ele>92.8636</ele>
        <time>2011-01-03T14:56:12Z</time>
      </trkpt>
      <trkpt lat="46.29527" lon="-0.22025">
        <ele>92.8393</ele>
        <time>2011-01-03T14:56:13Z</time>
      </trkpt>
      <trkpt lat="46.29527" lon="-0.22026">
        <ele>92.8107</ele>
        <time>2011-01-03T14:56:14Z</time>
      </trkpt>
      <trkpt lat="46.29527" lon="-0.22028">
        <ele>92.781</ele>
        <time>2011-01-03T14:56:15Z</time>
      </trkpt>
      <trkpt lat="46.29526" lon="-0.22029">
        <ele>92.7491</ele>
        <time>2011-01-03T14:56:16Z</time>
      </trkpt>
      <trkpt lat="46.29526" lon="-0.2203">
        <ele>92.7198</ele>
        <time>2011-01-03T14:56:17Z</time>
      </trkpt>
      <trkpt lat="46.29525" lon="-0.22032">
        <ele>92.6974</ele>
        <time>2011-01-03T14:56:18Z</time>
      </trkpt>
      <trkpt lat="46.29525" lon="-0.22033">
        <ele>92.6816</ele>
        <time>2011-01-03T14:56:19Z</time>
      </trkpt>
      <trkpt lat="46.29524" lon="-0.22035">
        <ele>92.6709</ele>
        <time>2011-01-03T14:56:20Z</time>
      </trkpt>
      <trkpt lat="46.29524" lon="-0.22036">
        <ele>92.6642</ele>
        <time>2011-01-03T14:56:21Z</time>
      </trkpt>
      <trkpt lat="46.29521" lon="-0.22042">
        <ele>92.6863</ele>
        <time>2011-01-03T14:56:26Z</time>
      </trkpt>
      <trkpt lat="46.29517" lon="-0.22045">
        <ele>92.8246</ele>
        <time>2011-01-03T14:56:45Z</time>
      </trkpt>
      <trkpt lat="46.29518" lon="-0.22047">
        <ele>93.2015</ele>
        <time>2011-01-03T14:56:57Z</time>
      </trkpt>
      <trkpt lat="46.29517" lon="-0.22049">
        <ele>93.2757</ele>
        <time>2011-01-03T14:56:58Z</time>
      </trkpt>
      <trkpt lat="46.29516" lon="-0.22052">
        <ele>93.3535</ele>
        <time>2011-01-03T14:56:59Z</time>
      </trkpt>
      <trkpt lat="46.29515" lon="-0.22053">
        <ele>93.4429</ele>
        <time>2011-01-03T14:57:00Z</time>
      </trkpt>
      <trkpt lat="46.29514" lon="-0.22054">
        <ele>93.5424</ele>
        <time>2011-01-03T14:57:01Z</time>
      </trkpt>
      <trkpt lat="46.29513" lon="-0.22054">
        <ele>93.6432</ele>
        <time>2011-01-03T14:57:02Z</time>
      </trkpt>
      <trkpt lat="46.29512" lon="-0.22055">
        <ele>93.7432</ele>
        <time>2011-01-03T14:57:03Z</time>
      </trkpt>
      <trkpt lat="46.29511" lon="-0.22055">
        <ele>93.8499</ele>
        <time>2011-01-03T14:57:04Z</time>
      </trkpt>
      <trkpt lat="46.2951" lon="-0.22055">
        <ele>93.9574</ele>
        <time>2011-01-03T14:57:05Z</time>
      </trkpt>
      <trkpt lat="46.29509" lon="-0.22056">
        <ele>94.0698</ele>
        <time>2011-01-03T14:57:06Z</time>
      </trkpt>
      <trkpt lat="46.29508" lon="-0.22056">
        <ele>94.1787</ele>
        <time>2011-01-03T14:57:07Z</time>
      </trkpt>
      <trkpt lat="46.29507" lon="-0.22057">
        <ele>94.2859</ele>
        <time>2011-01-03T14:57:08Z</time>
      </trkpt>
      <trkpt lat="46.29507" lon="-0.22057">
        <ele>94.4009</ele>
        <time>2011-01-03T14:57:09Z</time>
      </trkpt>
      <trkpt lat="46.29506" lon="-0.22058">
        <ele>94.5184</ele>
        <time>2011-01-03T14:57:10Z</time>
      </trkpt>
      <trkpt lat="46.29505" lon="-0.22058">
        <ele>94.6347</ele>
        <time>2011-01-03T14:57:11Z</time>
      </trkpt>
      <trkpt lat="46.29504" lon="-0.22057">
        <ele>94.7522</ele>
        <time>2011-01-03T14:57:12Z</time>
      </trkpt>
      <trkpt lat="46.29503" lon="-0.22058">
        <ele>94.8564</ele>
        <time>2011-01-03T14:57:13Z</time>
      </trkpt>
      <trkpt lat="46.29501" lon="-0.22057">
        <ele>94.9537</ele>
        <time>2011-01-03T14:57:14Z</time>
      </trkpt>
      <trkpt lat="46.295" lon="-0.22058">
        <ele>95.0453</ele>
        <time>2011-01-03T14:57:15Z</time>
      </trkpt>
      <trkpt lat="46.29499" lon="-0.22058">
        <ele>95.1366</ele>
        <time>2011-01-03T14:57:16Z</time>
      </trkpt>
      <trkpt lat="46.29498" lon="-0.22058">
        <ele>95.2281</ele>
        <time>2011-01-03T14:57:17Z</time>
      </trkpt>
      <trkpt lat="46.29496" lon="-0.22059">
        <ele>95.3172</ele>
        <time>2011-01-03T14:57:18Z</time>
      </trkpt>
      <trkpt lat="46.29495" lon="-0.22059">
        <ele>95.4044</ele>
        <time>2011-01-03T14:57:19Z</time>
      </trkpt>
      <trkpt lat="46.29494" lon="-0.2206">
        <ele>95.4945</ele>
        <time>2011-01-03T14:57:20Z</time>
      </trkpt>
      <trkpt lat="46.29493" lon="-0.2206">
        <ele>95.5837</ele>
        <time>2011-01-03T14:57:21Z</time>
      </trkpt>
      <trkpt lat="46.29491" lon="-0.22061">
        <ele>95.6694</ele>
        <time>2011-01-03T14:57:22Z</time>
      </trkpt>
      <trkpt lat="46.2949" lon="-0.22062">
        <ele>95.7498</ele>
        <time>2011-01-03T14:57:23Z</time>
      </trkpt>
      <trkpt lat="46.29489" lon="-0.22062">
        <ele>95.8279</ele>
        <time>2011-01-03T14:57:24Z</time>
      </trkpt>
      <trkpt lat="46.29488" lon="-0.22062">
        <ele>95.9179</ele>
        <time>2011-01-03T14:57:25Z</time>
      </trkpt>
      <trkpt lat="46.29487" lon="-0.22063">
        <ele>96.0158</ele>
        <time>2011-01-03T14:57:26Z</time>
      </trkpt>
      <trkpt lat="46.29486" lon="-0.22064">
        <ele>96.1111</ele>
        <time>2011-01-03T14:57:27Z</time>
      </trkpt>
      <trkpt lat="46.29485" lon="-0.22065">
        <ele>96.2178</ele>
        <time>2011-01-03T14:57:28Z</time>
      </trkpt>
      <trkpt lat="46.29483" lon="-0.22066">
        <ele>96.3358</ele>
        <time>2011-01-03T14:57:29Z</time>
      </trkpt>
      <trkpt lat="46.29482" lon="-0.22067">
        <ele>96.4658</ele>
        <time>2011-01-03T14:57:30Z</time>
      </trkpt>
      <trkpt lat="46.29481" lon="-0.22068">
        <ele>96.5897</ele>
        <time>2011-01-03T14:57:31Z</time>
      </trkpt>
      <trkpt lat="46.2948" lon="-0.22069">
        <ele>96.7107</ele>
        <time>2011-01-03T14:57:32Z</time>
      </trkpt>
      <trkpt lat="46.2948" lon="-0.2207">
        <ele>96.8302</ele>
        <time>2011-01-03T14:57:33Z</time>
      </trkpt>
      <trkpt lat="46.29479" lon="-0.2207">
        <ele>96.9398</ele>
        <time>2011-01-03T14:57:34Z</time>
      </trkpt>
      <trkpt lat="46.29478" lon="-0.22071">
        <ele>97.0422</ele>
        <time>2011-01-03T14:57:35Z</time>
      </trkpt>
      <trkpt lat="46.29477" lon="-0.22071">
        <ele>97.1434</ele>
        <time>2011-01-03T14:57:36Z</time>
      </trkpt>
      <trkpt lat="46.29477" lon="-0.22071">
        <ele>97.2362</ele>
        <time>2011-01-03T14:57:37Z</time>
      </trkpt>
      <trkpt lat="46.29476" lon="-0.22072">
        <ele>97.3234</ele>
        <time>2011-01-03T14:57:38Z</time>
      </trkpt>
      <trkpt lat="46.29475" lon="-0.22072">
        <ele>97.4051</ele>
        <time>2011-01-03T14:57:39Z</time>
      </trkpt>
      <trkpt lat="46.29474" lon="-0.22072">
        <ele>97.4827</ele>
        <time>2011-01-03T14:57:40Z</time>
      </trkpt>
      <trkpt lat="46.29474" lon="-0.22073">
        <ele>97.5577</ele>
        <time>2011-01-03T14:57:41Z</time>
      </trkpt>
      <trkpt lat="46.29472" lon="-0.22073">
        <ele>97.634</ele>
        <time>2011-01-03T14:57:42Z</time>
      </trkpt>
      <trkpt lat="46.29471" lon="-0.22073">
        <ele>97.7111</ele>
        <time>2011-01-03T14:57:43Z</time>
      </trkpt>
      <trkpt lat="46.2947" lon="-0.22073">
        <ele>97.7862</ele>
        <time>2011-01-03T14:57:44Z</time>
      </trkpt>
      <trkpt lat="46.2947" lon="-0.22074">
        <ele>97.8674</ele>
        <time>2011-01-03T14:57:45Z</time>
      </trkpt>
      <trkpt lat="46.29469" lon="-0.22074">
        <ele>97.9464</ele>
        <time>2011-01-03T14:57:46Z</time>
      </trkpt>
      <trkpt lat="46.29468" lon="-0.22074">
        <ele>98.0207</ele>
        <time>2011-01-03T14:57:47Z</time>
      </trkpt>
      <trkpt lat="46.29467" lon="-0.22075">
        <ele>98.0822</ele>
        <time>2011-01-03T14:57:48Z</time>
      </trkpt>
      <trkpt lat="46.29465" lon="-0.22076">
        <ele>98.1291</ele>
        <time>2011-01-03T14:57:49Z</time>
      </trkpt>
      <trkpt lat="46.29464" lon="-0.22077">
        <ele>98.178</ele>
        <time>2011-01-03T14:57:50Z</time>
      </trkpt>
      <trkpt lat="46.29463" lon="-0.22077">
        <ele>98.2176</ele>
        <time>2011-01-03T14:57:51Z</time>
      </trkpt>
      <trkpt lat="46.29462" lon="-0.22078">
        <ele>98.2554</ele>
        <time>2011-01-03T14:57:52Z</time>
      </trkpt>
      <trkpt lat="46.29461" lon="-0.22079">
        <ele>98.2873</ele>
        <time>2011-01-03T14:57:53Z</time>
      </trkpt>
      <trkpt lat="46.2946" lon="-0.22079">
        <ele>98.316</ele>
        <time>2011-01-03T14:57:54Z</time>
      </trkpt>
      <trkpt lat="46.29459" lon="-0.2208">
        <ele>98.3465</ele>
        <time>2011-01-03T14:57:55Z</time>
      </trkpt>
      <trkpt lat="46.29459" lon="-0.2208">
        <ele>98.3782</ele>
        <time>2011-01-03T14:57:56Z</time>
      </trkpt>
      <trkpt lat="46.29458" lon="-0.22081">
        <ele>98.4185</ele>
        <time>2011-01-03T14:57:57Z</time>
      </trkpt>
      <trkpt lat="46.29457" lon="-0.22082">
        <ele>98.4565</ele>
        <time>2011-01-03T14:57:58Z</time>
      </trkpt>
      <trkpt lat="46.29456" lon="-0.22083">
        <ele>98.482</ele>
        <time>2011-01-03T14:57:59Z</time>
      </trkpt>
      <trkpt lat="46.29455" lon="-0.22083">
        <ele>98.5069</ele>
        <time>2011-01-03T14:58:00Z</time>
      </trkpt>
      <trkpt lat="46.29454" lon="-0.22083">
        <ele>98.5307</ele>
        <time>2011-01-03T14:58:01Z</time>
      </trkpt>
      <trkpt lat="46.29453" lon="-0.22084">
        <ele>98.5469</ele>
        <time>2011-01-03T14:58:04Z</time>
      </trkpt>
      <trkpt lat="46.29452" lon="-0.22085">
        <ele>98.5476</ele>
        <time>2011-01-03T14:58:05Z</time>
      </trkpt>
      <trkpt lat="46.29451" lon="-0.22085">
        <ele>98.5316</ele>
        <time>2011-01-03T14:58:06Z</time>
      </trkpt>
      <trkpt lat="46.2945" lon="-0.22086">
        <ele>98.5045</ele>
        <time>2011-01-03T14:58:07Z</time>
      </trkpt>
      <trkpt lat="46.29449" lon="-0.22087">
        <ele>98.476</ele>
        <time>2011-01-03T14:58:08Z</time>
      </trkpt>
      <trkpt lat="46.29448" lon="-0.22087">
        <ele>98.4378</ele>
        <time>2011-01-03T14:58:09Z</time>
      </trkpt>
      <trkpt lat="46.29447" lon="-0.22088">
        <ele>98.4006</ele>
        <time>2011-01-03T14:58:10Z</time>
      </trkpt>
      <trkpt lat="46.29446" lon="-0.22088">
        <ele>98.3618</ele>
        <time>2011-01-03T14:58:11Z</time>
      </trkpt>
      <trkpt lat="46.29446" lon="-0.22088">
        <ele>98.3196</ele>
        <time>2011-01-03T14:58:12Z</time>
      </trkpt>
      <trkpt lat="46.29445" lon="-0.22089">
        <ele>98.2759</ele>
        <time>2011-01-03T14:58:13Z</time>
      </trkpt>
      <trkpt lat="46.29444" lon="-0.22089">
        <ele>98.2266</ele>
        <time>2011-01-03T14:58:14Z</time>
      </trkpt>
      <trkpt lat="46.29443" lon="-0.2209">
        <ele>98.1822</ele>
        <time>2011-01-03T14:58:15Z</time>
      </trkpt>
      <trkpt lat="46.2944" lon="-0.22092">
        <ele>97.9892</ele>
        <time>2011-01-03T14:58:20Z</time>
      </trkpt>
      <trkpt lat="46.2944" lon="-0.22092">
        <ele>97.9238</ele>
        <time>2011-01-03T14:58:21Z</time>
      </trkpt>
      <trkpt lat="46.29439" lon="-0.22092">
        <ele>97.8587</ele>
        <time>2011-01-03T14:58:22Z</time>
      </trkpt>
      <trkpt lat="46.29439" lon="-0.22092">
        <ele>97.7942</ele>
        <time>2011-01-03T14:58:23Z</time>
      </trkpt>
      <trkpt lat="46.29438" lon="-0.22093">
        <ele>97.7214</ele>
        <time>2011-01-03T14:58:24Z</time>
      </trkpt>
      <trkpt lat="46.29437" lon="-0.22093">
        <ele>97.6464</ele>
        <time>2011-01-03T14:58:25Z</time>
      </trkpt>
      <trkpt lat="46.29437" lon="-0.22093">
        <ele>97.5728</ele>
        <time>2011-01-03T14:58:26Z</time>
      </trkpt>
      <trkpt lat="46.29435" lon="-0.22094">
        <ele>97.4567</ele>
        <time>2011-01-03T14:58:29Z</time>
      </trkpt>
      <trkpt lat="46.29434" lon="-0.22095">
        <ele>97.4119</ele>
        <time>2011-01-03T14:58:30Z</time>
      </trkpt>
      <trkpt lat="46.29433" lon="-0.22095">
        <ele>97.3682</ele>
        <time>2011-01-03T14:58:31Z</time>
      </trkpt>
      <trkpt lat="46.29432" lon="-0.22096">
        <ele>97.3234</ele>
        <time>2011-01-03T14:58:32Z</time>
      </trkpt>
      <trkpt lat="46.29432" lon="-0.22096">
        <ele>97.2706</ele>
        <time>2011-01-03T14:58:33Z</time>
      </trkpt>
      <trkpt lat="46.29428" lon="-0.22099">
        <ele>97.1089</ele>
        <time>2011-01-03T14:58:37Z</time>
      </trkpt>
      <trkpt lat="46.29426" lon="-0.221">
        <ele>97.0172</ele>
        <time>2011-01-03T14:58:38Z</time>
      </trkpt>
      <trkpt lat="46.29425" lon="-0.221">
        <ele>96.9286</ele>
        <time>2011-01-03T14:58:39Z</time>
      </trkpt>
      <trkpt lat="46.29424" lon="-0.22101">
        <ele>96.8442</ele>
        <time>2011-01-03T14:58:40Z</time>
      </trkpt>
      <trkpt lat="46.29422" lon="-0.22101">
        <ele>96.7718</ele>
        <time>2011-01-03T14:58:41Z</time>
      </trkpt>
      <trkpt lat="46.29421" lon="-0.22102">
        <ele>96.7131</ele>
        <time>2011-01-03T14:58:42Z</time>
      </trkpt>
      <trkpt lat="46.29421" lon="-0.22103">
        <ele>96.6612</ele>
        <time>2011-01-03T14:58:43Z</time>
      </trkpt>
      <trkpt lat="46.29419" lon="-0.22104">
        <ele>96.6127</ele>
        <time>2011-01-03T14:58:44Z</time>
      </trkpt>
      <trkpt lat="46.29418" lon="-0.22105">
        <ele>96.5028</ele>
        <time>2011-01-03T14:58:47Z</time>
      </trkpt>
      <trkpt lat="46.29417" lon="-0.22106">
        <ele>96.4453</ele>
        <time>2011-01-03T14:58:48Z</time>
      </trkpt>
      <trkpt lat="46.29416" lon="-0.22107">
        <ele>96.4104</ele>
        <time>2011-01-03T14:58:49Z</time>
      </trkpt>
      <trkpt lat="46.29416" lon="-0.22107">
        <ele>96.3948</ele>
        <time>2011-01-03T14:58:50Z</time>
      </trkpt>
      <trkpt lat="46.29414" lon="-0.22108">
        <ele>96.3998</ele>
        <time>2011-01-03T14:58:51Z</time>
      </trkpt>
      <trkpt lat="46.2941" lon="-0.22112">
        <ele>96.3946</ele>
        <time>2011-01-03T14:59:00Z</time>
      </trkpt>
      <trkpt lat="46.29406" lon="-0.22113">
        <ele>96.6493</ele>
        <time>2011-01-03T14:59:06Z</time>
      </trkpt>
      <trkpt lat="46.29406" lon="-0.22113">
        <ele>96.7099</ele>
        <time>2011-01-03T14:59:07Z</time>
      </trkpt>
      <trkpt lat="46.29404" lon="-0.22114">
        <ele>96.7826</ele>
        <time>2011-01-03T14:59:08Z</time>
      </trkpt>
      <trkpt lat="46.29405" lon="-0.22114">
        <ele>97.2779</ele>
        <time>2011-01-03T14:59:20Z</time>
      </trkpt>
      <trkpt lat="46.29405" lon="-0.22114">
        <ele>97.4484</ele>
        <time>2011-01-03T14:59:21Z</time>
      </trkpt>
      <trkpt lat="46.29404" lon="-0.22115">
        <ele>97.6231</ele>
        <time>2011-01-03T14:59:22Z</time>
      </trkpt>
      <trkpt lat="46.29403" lon="-0.22116">
        <ele>97.7967</ele>
        <time>2011-01-03T14:59:23Z</time>
      </trkpt>
      <trkpt lat="46.29402" lon="-0.22117">
        <ele>97.9725</ele>
        <time>2011-01-03T14:59:24Z</time>
      </trkpt>
      <trkpt lat="46.29401" lon="-0.22118">
        <ele>98.1462</ele>
        <time>2011-01-03T14:59:25Z</time>
      </trkpt>
      <trkpt lat="46.294" lon="-0.22118">
        <ele>98.3177</ele>
        <time>2011-01-03T14:59:26Z</time>
      </trkpt>
      <trkpt lat="46.29398" lon="-0.22119">
        <ele>98.4878</ele>
        <time>2011-01-03T14:59:27Z</time>
      </trkpt>
      <trkpt lat="46.29398" lon="-0.2212">
        <ele>98.6573</ele>
        <time>2011-01-03T14:59:28Z</time>
      </trkpt>
      <trkpt lat="46.29396" lon="-0.2212">
        <ele>98.8289</ele>
        <time>2011-01-03T14:59:29Z</time>
      </trkpt>
      <trkpt lat="46.29396" lon="-0.22122">
        <ele>99.0045</ele>
        <time>2011-01-03T14:59:30Z</time>
      </trkpt>
      <trkpt lat="46.29395" lon="-0.22123">
        <ele>99.1807</ele>
        <time>2011-01-03T14:59:31Z</time>
      </trkpt>
      <trkpt lat="46.29395" lon="-0.22125">
        <ele>99.3601</ele>
        <time>2011-01-03T14:59:32Z</time>
      </trkpt>
      <trkpt lat="46.29393" lon="-0.22126">
        <ele>99.5426</ele>
        <time>2011-01-03T14:59:33Z</time>
      </trkpt>
      <trkpt lat="46.29393" lon="-0.22127">
        <ele>99.7277</ele>
        <time>2011-01-03T14:59:34Z</time>
      </trkpt>
      <trkpt lat="46.29392" lon="-0.22128">
        <ele>99.9174</ele>
        <time>2011-01-03T14:59:35Z</time>
      </trkpt>
      <trkpt lat="46.29392" lon="-0.2213">
        <ele>100.105</ele>
        <time>2011-01-03T14:59:36Z</time>
      </trkpt>
      <trkpt lat="46.29391" lon="-0.22131">
        <ele>100.2899</ele>
        <time>2011-01-03T14:59:37Z</time>
      </trkpt>
      <trkpt lat="46.29391" lon="-0.22132">
        <ele>100.4709</ele>
        <time>2011-01-03T14:59:38Z</time>
      </trkpt>
      <trkpt lat="46.2939" lon="-0.22133">
        <ele>100.6476</ele>
        <time>2011-01-03T14:59:39Z</time>
      </trkpt>
      <trkpt lat="46.2939" lon="-0.22134">
        <ele>100.8195</ele>
        <time>2011-01-03T14:59:40Z</time>
      </trkpt>
      <trkpt lat="46.29389" lon="-0.22135">
        <ele>100.9861</ele>
        <time>2011-01-03T14:59:41Z</time>
      </trkpt>
      <trkpt lat="46.29388" lon="-0.22135">
        <ele>101.1519</ele>
        <time>2011-01-03T14:59:42Z</time>
      </trkpt>
      <trkpt lat="46.29387" lon="-0.22136">
        <ele>101.3157</ele>
        <time>2011-01-03T14:59:43Z</time>
      </trkpt>
      <trkpt lat="46.29387" lon="-0.22137">
        <ele>101.4724</ele>
        <time>2011-01-03T14:59:44Z</time>
      </trkpt>
      <trkpt lat="46.29386" lon="-0.22138">
        <ele>101.7833</ele>
        <time>2011-01-03T14:59:47Z</time>
      </trkpt>
      <trkpt lat="46.29385" lon="-0.22139">
        <ele>101.925</ele>
        <time>2011-01-03T14:59:48Z</time>
      </trkpt>
      <trkpt lat="46.29385" lon="-0.2214">
        <ele>102.0644</ele>
        <time>2011-01-03T14:59:49Z</time>
      </trkpt>
      <trkpt lat="46.29385" lon="-0.22141">
        <ele>102.1981</ele>
        <time>2011-01-03T14:59:50Z</time>
      </trkpt>
      <trkpt lat="46.29384" lon="-0.22142">
        <ele>102.3272</ele>
        <time>2011-01-03T14:59:51Z</time>
      </trkpt>
      <trkpt lat="46.29383" lon="-0.22144">
        <ele>102.447</ele>
        <time>2011-01-03T14:59:52Z</time>
      </trkpt>
      <trkpt lat="46.29382" lon="-0.22144">
        <ele>102.5666</ele>
        <time>2011-01-03T14:59:53Z</time>
      </trkpt>
      <trkpt lat="46.29382" lon="-0.22145">
        <ele>102.6894</ele>
        <time>2011-01-03T14:59:54Z</time>
      </trkpt>
      <trkpt lat="46.29381" lon="-0.22146">
        <ele>102.8077</ele>
        <time>2011-01-03T14:59:55Z</time>
      </trkpt>
      <trkpt lat="46.2938" lon="-0.22147">
        <ele>102.9231</ele>
        <time>2011-01-03T14:59:56Z</time>
      </trkpt>
      <trkpt lat="46.2938" lon="-0.22147">
        <ele>103.0358</ele>
        <time>2011-01-03T14:59:57Z</time>
      </trkpt>
      <trkpt lat="46.29379" lon="-0.22147">
        <ele>103.1581</ele>
        <time>2011-01-03T14:59:58Z</time>
      </trkpt>
      <trkpt lat="46.29378" lon="-0.22148">
        <ele>103.2827</ele>
        <time>2011-01-03T14:59:59Z</time>
      </trkpt>
      <trkpt lat="46.29377" lon="-0.22148">
        <ele>103.4109</ele>
        <time>2011-01-03T15:00:00Z</time>
      </trkpt>
      <trkpt lat="46.29377" lon="-0.22149">
        <ele>103.5368</ele>
        <time>2011-01-03T15:00:01Z</time>
      </trkpt>
      <trkpt lat="46.29376" lon="-0.2215">
        <ele>103.6586</ele>
        <time>2011-01-03T15:00:02Z</time>
      </trkpt>
      <trkpt lat="46.29375" lon="-0.22151">
        <ele>103.7779</ele>
        <time>2011-01-03T15:00:03Z</time>
      </trkpt>
      <trkpt lat="46.29374" lon="-0.22152">
        <ele>103.895</ele>
        <time>2011-01-03T15:00:04Z</time>
      </trkpt>
      <trkpt lat="46.29373" lon="-0.22152">
        <ele>104.0108</ele>
        <time>2011-01-03T15:00:05Z</time>
      </trkpt>
      <trkpt lat="46.29372" lon="-0.22153">
        <ele>104.1238</ele>
        <time>2011-01-03T15:00:06Z</time>
      </trkpt>
      <trkpt lat="46.29371" lon="-0.22154">
        <ele>104.2351</ele>
        <time>2011-01-03T15:00:07Z</time>
      </trkpt>
      <trkpt lat="46.2937" lon="-0.22156">
        <ele>104.3675</ele>
        <time>2011-01-03T15:00:08Z</time>
      </trkpt>
      <trkpt lat="46.29369" lon="-0.22157">
        <ele>104.5036</ele>
        <time>2011-01-03T15:00:09Z</time>
      </trkpt>
      <trkpt lat="46.29368" lon="-0.22158">
        <ele>104.6452</ele>
        <time>2011-01-03T15:00:10Z</time>
      </trkpt>
      <trkpt lat="46.29367" lon="-0.22159">
        <ele>104.7898</ele>
        <time>2011-01-03T15:00:11Z</time>
      </trkpt>
      <trkpt lat="46.29366" lon="-0.2216">
        <ele>104.9332</ele>
        <time>2011-01-03T15:00:12Z</time>
      </trkpt>
      <trkpt lat="46.29366" lon="-0.22161">
        <ele>105.0788</ele>
        <time>2011-01-03T15:00:13Z</time>
      </trkpt>
      <trkpt lat="46.29365" lon="-0.22162">
        <ele>105.2232</ele>
        <time>2011-01-03T15:00:14Z</time>
      </trkpt>
      <trkpt lat="46.29364" lon="-0.22162">
        <ele>105.3607</ele>
        <time>2011-01-03T15:00:15Z</time>
      </trkpt>
      <trkpt lat="46.29364" lon="-0.22163">
        <ele>105.5035</ele>
        <time>2011-01-03T15:00:16Z</time>
      </trkpt>
      <trkpt lat="46.29363" lon="-0.22164">
        <ele>105.6438</ele>
        <time>2011-01-03T15:00:17Z</time>
      </trkpt>
      <trkpt lat="46.29363" lon="-0.22164">
        <ele>105.7818</ele>
        <time>2011-01-03T15:00:18Z</time>
      </trkpt>
      <trkpt lat="46.29362" lon="-0.22164">
        <ele>105.9153</ele>
        <time>2011-01-03T15:00:19Z</time>
      </trkpt>
      <trkpt lat="46.29361" lon="-0.22165">
        <ele>106.0443</ele>
        <time>2011-01-03T15:00:20Z</time>
      </trkpt>
      <trkpt lat="46.2936" lon="-0.22165">
        <ele>106.1702</ele>
        <time>2011-01-03T15:00:21Z</time>
      </trkpt>
      <trkpt lat="46.29359" lon="-0.22166">
        <ele>106.2975</ele>
        <time>2011-01-03T15:00:22Z</time>
      </trkpt>
      <trkpt lat="46.29359" lon="-0.22166">
        <ele>106.4346</ele>
        <time>2011-01-03T15:00:23Z</time>
      </trkpt>
      <trkpt lat="46.29358" lon="-0.22166">
        <ele>106.5704</ele>
        <time>2011-01-03T15:00:24Z</time>
      </trkpt>
      <trkpt lat="46.29357" lon="-0.22167">
        <ele>106.705</ele>
        <time>2011-01-03T15:00:25Z</time>
      </trkpt>
      <trkpt lat="46.29356" lon="-0.22168">
        <ele>106.8399</ele>
        <time>2011-01-03T15:00:26Z</time>
      </trkpt>
      <trkpt lat="46.29355" lon="-0.22168">
        <ele>106.9731</ele>
        <time>2011-01-03T15:00:27Z</time>
      </trkpt>
      <trkpt lat="46.29354" lon="-0.22169">
        <ele>107.1082</ele>
        <time>2011-01-03T15:00:28Z</time>
      </trkpt>
      <trkpt lat="46.29353" lon="-0.22171">
        <ele>107.2395</ele>
        <time>2011-01-03T15:00:29Z</time>
      </trkpt>
      <trkpt lat="46.29352" lon="-0.22172">
        <ele>107.367</ele>
        <time>2011-01-03T15:00:30Z</time>
      </trkpt>
      <trkpt lat="46.29351" lon="-0.22173">
        <ele>107.4925</ele>
        <time>2011-01-03T15:00:31Z</time>
      </trkpt>
      <trkpt lat="46.29351" lon="-0.22174">
        <ele>107.6208</ele>
        <time>2011-01-03T15:00:32Z</time>
      </trkpt>
      <trkpt lat="46.2935" lon="-0.22175">
        <ele>107.7467</ele>
        <time>2011-01-03T15:00:33Z</time>
      </trkpt>
      <trkpt lat="46.29349" lon="-0.22176">
        <ele>107.8751</ele>
        <time>2011-01-03T15:00:34Z</time>
      </trkpt>
      <trkpt lat="46.29348" lon="-0.22177">
        <ele>108.0149</ele>
        <time>2011-01-03T15:00:36Z</time>
      </trkpt>
      <trkpt lat="46.29347" lon="-0.22178">
        <ele>108.1382</ele>
        <time>2011-01-03T15:00:37Z</time>
      </trkpt>
      <trkpt lat="46.29347" lon="-0.22179">
        <ele>108.2573</ele>
        <time>2011-01-03T15:00:38Z</time>
      </trkpt>
      <trkpt lat="46.29346" lon="-0.2218">
        <ele>108.377</ele>
        <time>2011-01-03T15:00:39Z</time>
      </trkpt>
      <trkpt lat="46.29345" lon="-0.22181">
        <ele>108.4928</ele>
        <time>2011-01-03T15:00:40Z</time>
      </trkpt>
      <trkpt lat="46.29344" lon="-0.22181">
        <ele>108.6053</ele>
        <time>2011-01-03T15:00:41Z</time>
      </trkpt>
      <trkpt lat="46.29343" lon="-0.22182">
        <ele>108.7121</ele>
        <time>2011-01-03T15:00:42Z</time>
      </trkpt>
      <trkpt lat="46.29343" lon="-0.22183">
        <ele>108.8128</ele>
        <time>2011-01-03T15:00:43Z</time>
      </trkpt>
      <trkpt lat="46.29342" lon="-0.22183">
        <ele>108.9086</ele>
        <time>2011-01-03T15:00:44Z</time>
      </trkpt>
      <trkpt lat="46.29341" lon="-0.22183">
        <ele>108.9996</ele>
        <time>2011-01-03T15:00:45Z</time>
      </trkpt>
      <trkpt lat="46.2934" lon="-0.22182">
        <ele>109.0889</ele>
        <time>2011-01-03T15:00:46Z</time>
      </trkpt>
      <trkpt lat="46.29339" lon="-0.22182">
        <ele>109.1747</ele>
        <time>2011-01-03T15:00:47Z</time>
      </trkpt>
      <trkpt lat="46.29338" lon="-0.22183">
        <ele>109.2496</ele>
        <time>2011-01-03T15:00:48Z</time>
      </trkpt>
      <trkpt lat="46.29337" lon="-0.22183">
        <ele>109.3276</ele>
        <time>2011-01-03T15:00:49Z</time>
      </trkpt>
      <trkpt lat="46.29342" lon="-0.22189">
        <ele>109.5163</ele>
        <time>2011-01-03T15:01:02Z</time>
      </trkpt>
      <trkpt lat="46.29346" lon="-0.22191">
        <ele>109.6109</ele>
        <time>2011-01-03T15:01:06Z</time>
      </trkpt>
      <trkpt lat="46.29345" lon="-0.22192">
        <ele>110.3169</ele>
        <time>2011-01-03T15:01:12Z</time>
      </trkpt>
      <trkpt lat="46.29343" lon="-0.22192">
        <ele>110.5235</ele>
        <time>2011-01-03T15:01:13Z</time>
      </trkpt>
      <trkpt lat="46.29342" lon="-0.22192">
        <ele>110.7282</ele>
        <time>2011-01-03T15:01:14Z</time>
      </trkpt>
      <trkpt lat="46.2934" lon="-0.22192">
        <ele>110.9305</ele>
        <time>2011-01-03T15:01:15Z</time>
      </trkpt>
      <trkpt lat="46.29339" lon="-0.22192">
        <ele>111.1282</ele>
        <time>2011-01-03T15:01:16Z</time>
      </trkpt>
      <trkpt lat="46.29337" lon="-0.22193">
        <ele>111.3198</ele>
        <time>2011-01-03T15:01:17Z</time>
      </trkpt>
      <trkpt lat="46.29336" lon="-0.22193">
        <ele>111.5168</ele>
        <time>2011-01-03T15:01:18Z</time>
      </trkpt>
      <trkpt lat="46.29335" lon="-0.22193">
        <ele>111.711</ele>
        <time>2011-01-03T15:01:19Z</time>
      </trkpt>
      <trkpt lat="46.29334" lon="-0.22194">
        <ele>111.9083</ele>
        <time>2011-01-03T15:01:20Z</time>
      </trkpt>
      <trkpt lat="46.29333" lon="-0.22194">
        <ele>112.0972</ele>
        <time>2011-01-03T15:01:21Z</time>
      </trkpt>
      <trkpt lat="46.29332" lon="-0.22194">
        <ele>112.2782</ele>
        <time>2011-01-03T15:01:22Z</time>
      </trkpt>
      <trkpt lat="46.2933" lon="-0.22194">
        <ele>112.4438</ele>
        <time>2011-01-03T15:01:23Z</time>
      </trkpt>
      <trkpt lat="46.2933" lon="-0.22195">
        <ele>112.6084</ele>
        <time>2011-01-03T15:01:24Z</time>
      </trkpt>
      <trkpt lat="46.29328" lon="-0.22196">
        <ele>112.7741</ele>
        <time>2011-01-03T15:01:25Z</time>
      </trkpt>
      <trkpt lat="46.29327" lon="-0.22196">
        <ele>112.9363</ele>
        <time>2011-01-03T15:01:26Z</time>
      </trkpt>
      <trkpt lat="46.29327" lon="-0.22197">
        <ele>113.0968</ele>
        <time>2011-01-03T15:01:27Z</time>
      </trkpt>
      <trkpt lat="46.29324" lon="-0.22198">
        <ele>113.6606</ele>
        <time>2011-01-03T15:01:31Z</time>
      </trkpt>
      <trkpt lat="46.29323" lon="-0.22198">
        <ele>113.8606</ele>
        <time>2011-01-03T15:01:32Z</time>
      </trkpt>
      <trkpt lat="46.29322" lon="-0.22199">
        <ele>114.0746</ele>
        <time>2011-01-03T15:01:33Z</time>
      </trkpt>
      <trkpt lat="46.29321" lon="-0.22199">
        <ele>114.3052</ele>
        <time>2011-01-03T15:01:34Z</time>
      </trkpt>
      <trkpt lat="46.29319" lon="-0.22199">
        <ele>114.5467</ele>
        <time>2011-01-03T15:01:35Z</time>
      </trkpt>
      <trkpt lat="46.29318" lon="-0.22199">
        <ele>114.7636</ele>
        <time>2011-01-03T15:01:36Z</time>
      </trkpt>
      <trkpt lat="46.29316" lon="-0.222">
        <ele>114.9881</ele>
        <time>2011-01-03T15:01:37Z</time>
      </trkpt>
      <trkpt lat="46.29315" lon="-0.222">
        <ele>115.219</ele>
        <time>2011-01-03T15:01:38Z</time>
      </trkpt>
      <trkpt lat="46.29314" lon="-0.222">
        <ele>115.4449</ele>
        <time>2011-01-03T15:01:39Z</time>
      </trkpt>
      <trkpt lat="46.29313" lon="-0.222">
        <ele>115.6742</ele>
        <time>2011-01-03T15:01:40Z</time>
      </trkpt>
      <trkpt lat="46.29311" lon="-0.22201">
        <ele>115.8974</ele>
        <time>2011-01-03T15:01:41Z</time>
      </trkpt>
      <trkpt lat="46.29311" lon="-0.22201">
        <ele>116.1154</ele>
        <time>2011-01-03T15:01:42Z</time>
      </trkpt>
      <trkpt lat="46.2931" lon="-0.22202">
        <ele>116.3281</ele>
        <time>2011-01-03T15:01:43Z</time>
      </trkpt>
      <trkpt lat="46.29308" lon="-0.22202">
        <ele>116.5154</ele>
        <time>2011-01-03T15:01:44Z</time>
      </trkpt>
      <trkpt lat="46.29307" lon="-0.22203">
        <ele>116.6983</ele>
        <time>2011-01-03T15:01:45Z</time>
      </trkpt>
      <trkpt lat="46.29306" lon="-0.22204">
        <ele>116.8789</ele>
        <time>2011-01-03T15:01:46Z</time>
      </trkpt>
      <trkpt lat="46.29305" lon="-0.22205">
        <ele>117.0687</ele>
        <time>2011-01-03T15:01:47Z</time>
      </trkpt>
      <trkpt lat="46.29304" lon="-0.22205">
        <ele>117.2627</ele>
        <time>2011-01-03T15:01:48Z</time>
      </trkpt>
      <trkpt lat="46.29303" lon="-0.22206">
        <ele>117.4653</ele>
        <time>2011-01-03T15:01:49Z</time>
      </trkpt>
      <trkpt lat="46.29302" lon="-0.22207">
        <ele>117.6687</ele>
        <time>2011-01-03T15:01:50Z</time>
      </trkpt>
      <trkpt lat="46.29301" lon="-0.22208">
        <ele>117.8528</ele>
        <time>2011-01-03T15:01:51Z</time>
      </trkpt>
      <trkpt lat="46.293" lon="-0.22209">
        <ele>118.0359</ele>
        <time>2011-01-03T15:01:52Z</time>
      </trkpt>
      <trkpt lat="46.29299" lon="-0.2221">
        <ele>118.2196</ele>
        <time>2011-01-03T15:01:53Z</time>
      </trkpt>
      <trkpt lat="46.29298" lon="-0.22211">
        <ele>118.4045</ele>
        <time>2011-01-03T15:01:54Z</time>
      </trkpt>
      <trkpt lat="46.29297" lon="-0.22212">
        <ele>118.58</ele>
        <time>2011-01-03T15:01:55Z</time>
      </trkpt>
      <trkpt lat="46.29296" lon="-0.22213">
        <ele>118.7507</ele>
        <time>2011-01-03T15:01:56Z</time>
      </trkpt>
      <trkpt lat="46.29295" lon="-0.22214">
        <ele>118.914</ele>
        <time>2011-01-03T15:01:57Z</time>
      </trkpt>
      <trkpt lat="46.29291" lon="-0.22217">
        <ele>119.1529</ele>
        <time>2011-01-03T15:02:04Z</time>
      </trkpt>
      <trkpt lat="46.29289" lon="-0.22218">
        <ele>119.4199</ele>
        <time>2011-01-03T15:02:07Z</time>
      </trkpt>
      <trkpt lat="46.29288" lon="-0.22219">
        <ele>119.5419</ele>
        <time>2011-01-03T15:02:08Z</time>
      </trkpt>
      <trkpt lat="46.29287" lon="-0.2222">
        <ele>119.6623</ele>
        <time>2011-01-03T15:02:09Z</time>
      </trkpt>
      <trkpt lat="46.29286" lon="-0.2222">
        <ele>119.7821</ele>
        <time>2011-01-03T15:02:10Z</time>
      </trkpt>
      <trkpt lat="46.29285" lon="-0.22221">
        <ele>119.8897</ele>
        <time>2011-01-03T15:02:11Z</time>
      </trkpt>
      <trkpt lat="46.29283" lon="-0.22222">
        <ele>119.995</ele>
        <time>2011-01-03T15:02:12Z</time>
      </trkpt>
      <trkpt lat="46.29282" lon="-0.22223">
        <ele>120.0996</ele>
        <time>2011-01-03T15:02:13Z</time>
      </trkpt>
      <trkpt lat="46.29281" lon="-0.22223">
        <ele>120.202</ele>
        <time>2011-01-03T15:02:14Z</time>
      </trkpt>
      <trkpt lat="46.2928" lon="-0.22224">
        <ele>120.3077</ele>
        <time>2011-01-03T15:02:15Z</time>
      </trkpt>
      <trkpt lat="46.29279" lon="-0.22225">
        <ele>120.4031</ele>
        <time>2011-01-03T15:02:16Z</time>
      </trkpt>
      <trkpt lat="46.29278" lon="-0.22226">
        <ele>120.4922</ele>
        <time>2011-01-03T15:02:17Z</time>
      </trkpt>
      <trkpt lat="46.29277" lon="-0.22227">
        <ele>120.5598</ele>
        <time>2011-01-03T15:02:18Z</time>
      </trkpt>
      <trkpt lat="46.29276" lon="-0.22228">
        <ele>120.6293</ele>
        <time>2011-01-03T15:02:19Z</time>
      </trkpt>
      <trkpt lat="46.29275" lon="-0.22229">
        <ele>120.7061</ele>
        <time>2011-01-03T15:02:20Z</time>
      </trkpt>
      <trkpt lat="46.29274" lon="-0.22229">
        <ele>120.7842</ele>
        <time>2011-01-03T15:02:21Z</time>
      </trkpt>
      <trkpt lat="46.29273" lon="-0.2223">
        <ele>120.859</ele>
        <time>2011-01-03T15:02:22Z</time>
      </trkpt>
      <trkpt lat="46.29272" lon="-0.22231">
        <ele>120.9305</ele>
        <time>2011-01-03T15:02:23Z</time>
      </trkpt>
      <trkpt lat="46.29271" lon="-0.22232">
        <ele>121.0019</ele>
        <time>2011-01-03T15:02:24Z</time>
      </trkpt>
      <trkpt lat="46.29269" lon="-0.22233">
        <ele>121.077</ele>
        <time>2011-01-03T15:02:25Z</time>
      </trkpt>
      <trkpt lat="46.29268" lon="-0.22233">
        <ele>121.1487</ele>
        <time>2011-01-03T15:02:26Z</time>
      </trkpt>
      <trkpt lat="46.29267" lon="-0.22234">
        <ele>121.2186</ele>
        <time>2011-01-03T15:02:27Z</time>
      </trkpt>
      <trkpt lat="46.29266" lon="-0.22235">
        <ele>121.2859</ele>
        <time>2011-01-03T15:02:28Z</time>
      </trkpt>
      <trkpt lat="46.29265" lon="-0.22236">
        <ele>121.3547</ele>
        <time>2011-01-03T15:02:29Z</time>
      </trkpt>
      <trkpt lat="46.29264" lon="-0.22237">
        <ele>121.4232</ele>
        <time>2011-01-03T15:02:30Z</time>
      </trkpt>
      <trkpt lat="46.29263" lon="-0.22238">
        <ele>121.4883</ele>
        <time>2011-01-03T15:02:31Z</time>
      </trkpt>
      <trkpt lat="46.29263" lon="-0.22239">
        <ele>121.5517</ele>
        <time>2011-01-03T15:02:32Z</time>
      </trkpt>
      <trkpt lat="46.29262" lon="-0.22238">
        <ele>121.6262</ele>
        <time>2011-01-03T15:02:34Z</time>
      </trkpt>
      <trkpt lat="46.29261" lon="-0.22238">
        <ele>121.6944</ele>
        <time>2011-01-03T15:02:35Z</time>
      </trkpt>
      <trkpt lat="46.29261" lon="-0.22238">
        <ele>121.7623</ele>
        <time>2011-01-03T15:02:36Z</time>
      </trkpt>
      <trkpt lat="46.2926" lon="-0.22238">
        <ele>121.8297</ele>
        <time>2011-01-03T15:02:37Z</time>
      </trkpt>
      <trkpt lat="46.2926" lon="-0.22239">
        <ele>121.8975</ele>
        <time>2011-01-03T15:02:38Z</time>
      </trkpt>
      <trkpt lat="46.2926" lon="-0.2224">
        <ele>121.9652</ele>
        <time>2011-01-03T15:02:39Z</time>
      </trkpt>
      <trkpt lat="46.29259" lon="-0.22241">
        <ele>122.0334</ele>
        <time>2011-01-03T15:02:40Z</time>
      </trkpt>
      <trkpt lat="46.29258" lon="-0.22241">
        <ele>122.1008</ele>
        <time>2011-01-03T15:02:41Z</time>
      </trkpt>
      <trkpt lat="46.29258" lon="-0.22242">
        <ele>122.1691</ele>
        <time>2011-01-03T15:02:42Z</time>
      </trkpt>
      <trkpt lat="46.29258" lon="-0.22242">
        <ele>122.24</ele>
        <time>2011-01-03T15:02:43Z</time>
      </trkpt>
      <trkpt lat="46.29258" lon="-0.22243">
        <ele>122.3946</ele>
        <time>2011-01-03T15:02:46Z</time>
      </trkpt>
      <trkpt lat="46.29257" lon="-0.22243">
        <ele>122.4648</ele>
        <time>2011-01-03T15:02:47Z</time>
      </trkpt>
      <trkpt lat="46.29256" lon="-0.22244">
        <ele>122.5333</ele>
        <time>2011-01-03T15:02:48Z</time>
      </trkpt>
      <trkpt lat="46.29255" lon="-0.22245">
        <ele>122.6011</ele>
        <time>2011-01-03T15:02:49Z</time>
      </trkpt>
      <trkpt lat="46.29254" lon="-0.22246">
        <ele>122.6702</ele>
        <time>2011-01-03T15:02:50Z</time>
      </trkpt>
      <trkpt lat="46.29253" lon="-0.22247">
        <ele>122.7355</ele>
        <time>2011-01-03T15:02:51Z</time>
      </trkpt>
      <trkpt lat="46.29252" lon="-0.22248">
        <ele>122.8008</ele>
        <time>2011-01-03T15:02:52Z</time>
      </trkpt>
      <trkpt lat="46.29252" lon="-0.22248">
        <ele>122.8637</ele>
        <time>2011-01-03T15:02:53Z</time>
      </trkpt>
      <trkpt lat="46.2925" lon="-0.22248">
        <ele>122.9224</ele>
        <time>2011-01-03T15:02:54Z</time>
      </trkpt>
      <trkpt lat="46.2925" lon="-0.22249">
        <ele>122.9756</ele>
        <time>2011-01-03T15:02:55Z</time>
      </trkpt>
      <trkpt lat="46.29249" lon="-0.2225">
        <ele>123.0259</ele>
        <time>2011-01-03T15:02:56Z</time>
      </trkpt>
      <trkpt lat="46.29248" lon="-0.22251">
        <ele>123.0758</ele>
        <time>2011-01-03T15:02:57Z</time>
      </trkpt>
      <trkpt lat="46.29247" lon="-0.22251">
        <ele>123.1262</ele>
        <time>2011-01-03T15:02:58Z</time>
      </trkpt>
      <trkpt lat="46.29246" lon="-0.22252">
        <ele>123.1752</ele>
        <time>2011-01-03T15:02:59Z</time>
      </trkpt>
      <trkpt lat="46.29245" lon="-0.22253">
        <ele>123.2232</ele>
        <time>2011-01-03T15:03:00Z</time>
      </trkpt>
      <trkpt lat="46.29244" lon="-0.22254">
        <ele>123.2697</ele>
        <time>2011-01-03T15:03:01Z</time>
      </trkpt>
      <trkpt lat="46.29243" lon="-0.22255">
        <ele>123.3143</ele>
        <time>2011-01-03T15:03:02Z</time>
      </trkpt>
      <trkpt lat="46.29242" lon="-0.22257">
        <ele>123.3592</ele>
        <time>2011-01-03T15:03:03Z</time>
      </trkpt>
      <trkpt lat="46.2924" lon="-0.22258">
        <ele>123.4002</ele>
        <time>2011-01-03T15:03:04Z</time>
      </trkpt>
      <trkpt lat="46.29239" lon="-0.22258">
        <ele>123.4417</ele>
        <time>2011-01-03T15:03:05Z</time>
      </trkpt>
      <trkpt lat="46.29238" lon="-0.22259">
        <ele>123.4807</ele>
        <time>2011-01-03T15:03:06Z</time>
      </trkpt>
      <trkpt lat="46.29237" lon="-0.2226">
        <ele>123.5163</ele>
        <time>2011-01-03T15:03:07Z</time>
      </trkpt>
      <trkpt lat="46.29236" lon="-0.2226">
        <ele>123.5467</ele>
        <time>2011-01-03T15:03:08Z</time>
      </trkpt>
      <trkpt lat="46.29236" lon="-0.22261">
        <ele>123.5734</ele>
        <time>2011-01-03T15:03:09Z</time>
      </trkpt>
      <trkpt lat="46.29234" lon="-0.22262">
        <ele>123.6001</ele>
        <time>2011-01-03T15:03:10Z</time>
      </trkpt>
      <trkpt lat="46.29233" lon="-0.22262">
        <ele>123.6289</ele>
        <time>2011-01-03T15:03:11Z</time>
      </trkpt>
      <trkpt lat="46.29232" lon="-0.22263">
        <ele>123.6572</ele>
        <time>2011-01-03T15:03:12Z</time>
      </trkpt>
      <trkpt lat="46.29231" lon="-0.22264">
        <ele>123.6804</ele>
        <time>2011-01-03T15:03:13Z</time>
      </trkpt>
      <trkpt lat="46.2923" lon="-0.22264">
        <ele>123.6985</ele>
        <time>2011-01-03T15:03:14Z</time>
      </trkpt>
      <trkpt lat="46.29229" lon="-0.22265">
        <ele>123.7155</ele>
        <time>2011-01-03T15:03:15Z</time>
      </trkpt>
      <trkpt lat="46.29229" lon="-0.22266">
        <ele>123.7341</ele>
        <time>2011-01-03T15:03:16Z</time>
      </trkpt>
      <trkpt lat="46.29227" lon="-0.22267">
        <ele>123.7521</ele>
        <time>2011-01-03T15:03:17Z</time>
      </trkpt>
      <trkpt lat="46.29226" lon="-0.22268">
        <ele>123.7737</ele>
        <time>2011-01-03T15:03:18Z</time>
      </trkpt>
      <trkpt lat="46.29225" lon="-0.22269">
        <ele>123.7941</ele>
        <time>2011-01-03T15:03:19Z</time>
      </trkpt>
      <trkpt lat="46.29224" lon="-0.2227">
        <ele>123.8146</ele>
        <time>2011-01-03T15:03:20Z</time>
      </trkpt>
      <trkpt lat="46.29223" lon="-0.22271">
        <ele>123.8378</ele>
        <time>2011-01-03T15:03:21Z</time>
      </trkpt>
      <trkpt lat="46.29221" lon="-0.22272">
        <ele>123.8604</ele>
        <time>2011-01-03T15:03:22Z</time>
      </trkpt>
      <trkpt lat="46.2922" lon="-0.22273">
        <ele>123.8841</ele>
        <time>2011-01-03T15:03:23Z</time>
      </trkpt>
      <trkpt lat="46.29219" lon="-0.22274">
        <ele>123.9111</ele>
        <time>2011-01-03T15:03:24Z</time>
      </trkpt>
      <trkpt lat="46.29218" lon="-0.22275">
        <ele>123.9399</ele>
        <time>2011-01-03T15:03:25Z</time>
      </trkpt>
      <trkpt lat="46.29216" lon="-0.22276">
        <ele>123.9741</ele>
        <time>2011-01-03T15:03:26Z</time>
      </trkpt>
      <trkpt lat="46.29215" lon="-0.22276">
        <ele>124.0046</ele>
        <time>2011-01-03T15:03:27Z</time>
      </trkpt>
      <trkpt lat="46.29214" lon="-0.22277">
        <ele>124.0373</ele>
        <time>2011-01-03T15:03:28Z</time>
      </trkpt>
      <trkpt lat="46.29213" lon="-0.22278">
        <ele>124.0688</ele>
        <time>2011-01-03T15:03:29Z</time>
      </trkpt>
      <trkpt lat="46.29211" lon="-0.22279">
        <ele>124.0985</ele>
        <time>2011-01-03T15:03:30Z</time>
      </trkpt>
      <trkpt lat="46.2921" lon="-0.2228">
        <ele>124.1327</ele>
        <time>2011-01-03T15:03:31Z</time>
      </trkpt>
      <trkpt lat="46.2921" lon="-0.2228">
        <ele>124.1678</ele>
        <time>2011-01-03T15:03:32Z</time>
      </trkpt>
      <trkpt lat="46.29208" lon="-0.22281">
        <ele>124.2063</ele>
        <time>2011-01-03T15:03:33Z</time>
      </trkpt>
      <trkpt lat="46.29207" lon="-0.22282">
        <ele>124.2466</ele>
        <time>2011-01-03T15:03:34Z</time>
      </trkpt>
      <trkpt lat="46.29206" lon="-0.22282">
        <ele>124.2866</ele>
        <time>2011-01-03T15:03:35Z</time>
      </trkpt>
      <trkpt lat="46.29205" lon="-0.22283">
        <ele>124.3281</ele>
        <time>2011-01-03T15:03:36Z</time>
      </trkpt>
      <trkpt lat="46.29204" lon="-0.22284">
        <ele>124.3681</ele>
        <time>2011-01-03T15:03:37Z</time>
      </trkpt>
      <trkpt lat="46.29203" lon="-0.22284">
        <ele>124.4086</ele>
        <time>2011-01-03T15:03:38Z</time>
      </trkpt>
      <trkpt lat="46.29202" lon="-0.22285">
        <ele>124.4474</ele>
        <time>2011-01-03T15:03:39Z</time>
      </trkpt>
      <trkpt lat="46.292" lon="-0.22286">
        <ele>124.4879</ele>
        <time>2011-01-03T15:03:40Z</time>
      </trkpt>
      <trkpt lat="46.29199" lon="-0.22287">
        <ele>124.5306</ele>
        <time>2011-01-03T15:03:41Z</time>
      </trkpt>
      <trkpt lat="46.29197" lon="-0.22287">
        <ele>124.5773</ele>
        <time>2011-01-03T15:03:42Z</time>
      </trkpt>
      <trkpt lat="46.29196" lon="-0.22288">
        <ele>124.6239</ele>
        <time>2011-01-03T15:03:43Z</time>
      </trkpt>
      <trkpt lat="46.29195" lon="-0.22289">
        <ele>124.668</ele>
        <time>2011-01-03T15:03:44Z</time>
      </trkpt>
      <trkpt lat="46.29194" lon="-0.2229">
        <ele>124.7129</ele>
        <time>2011-01-03T15:03:45Z</time>
      </trkpt>
      <trkpt lat="46.29193" lon="-0.2229">
        <ele>124.7573</ele>
        <time>2011-01-03T15:03:46Z</time>
      </trkpt>
      <trkpt lat="46.29192" lon="-0.22292">
        <ele>124.7992</ele>
        <time>2011-01-03T15:03:47Z</time>
      </trkpt>
      <trkpt lat="46.29191" lon="-0.22293">
        <ele>124.8417</ele>
        <time>2011-01-03T15:03:48Z</time>
      </trkpt>
      <trkpt lat="46.2919" lon="-0.22294">
        <ele>124.8857</ele>
        <time>2011-01-03T15:03:49Z</time>
      </trkpt>
      <trkpt lat="46.2919" lon="-0.22295">
        <ele>124.9312</ele>
        <time>2011-01-03T15:03:50Z</time>
      </trkpt>
      <trkpt lat="46.29186" lon="-0.22297">
        <ele>125.2717</ele>
        <time>2011-01-03T15:04:29Z</time>
      </trkpt>
      <trkpt lat="46.29186" lon="-0.22299">
        <ele>125.3851</ele>
        <time>2011-01-03T15:04:30Z</time>
      </trkpt>
      <trkpt lat="46.29186" lon="-0.223">
        <ele>125.4986</ele>
        <time>2011-01-03T15:04:31Z</time>
      </trkpt>
      <trkpt lat="46.29186" lon="-0.22302">
        <ele>125.612</ele>
        <time>2011-01-03T15:04:32Z</time>
      </trkpt>
      <trkpt lat="46.29186" lon="-0.22304">
        <ele>125.7265</ele>
        <time>2011-01-03T15:04:33Z</time>
      </trkpt>
      <trkpt lat="46.29186" lon="-0.22305">
        <ele>125.8419</ele>
        <time>2011-01-03T15:04:34Z</time>
      </trkpt>
      <trkpt lat="46.29186" lon="-0.22307">
        <ele>125.9552</ele>
        <time>2011-01-03T15:04:35Z</time>
      </trkpt>
      <trkpt lat="46.29187" lon="-0.22308">
        <ele>126.0679</ele>
        <time>2011-01-03T15:04:36Z</time>
      </trkpt>
      <trkpt lat="46.29187" lon="-0.2231">
        <ele>126.1805</ele>
        <time>2011-01-03T15:04:37Z</time>
      </trkpt>
      <trkpt lat="46.29187" lon="-0.22312">
        <ele>126.2947</ele>
        <time>2011-01-03T15:04:38Z</time>
      </trkpt>
      <trkpt lat="46.29188" lon="-0.22313">
        <ele>126.41</ele>
        <time>2011-01-03T15:04:39Z</time>
      </trkpt>
      <trkpt lat="46.29188" lon="-0.22315">
        <ele>126.5244</ele>
        <time>2011-01-03T15:04:40Z</time>
      </trkpt>
      <trkpt lat="46.29189" lon="-0.22316">
        <ele>126.6379</ele>
        <time>2011-01-03T15:04:41Z</time>
      </trkpt>
      <trkpt lat="46.29189" lon="-0.22318">
        <ele>126.7514</ele>
        <time>2011-01-03T15:04:42Z</time>
      </trkpt>
      <trkpt lat="46.29189" lon="-0.22319">
        <ele>126.8631</ele>
        <time>2011-01-03T15:04:43Z</time>
      </trkpt>
      <trkpt lat="46.29189" lon="-0.2232">
        <ele>126.9745</ele>
        <time>2011-01-03T15:04:44Z</time>
      </trkpt>
      <trkpt lat="46.2919" lon="-0.22322">
        <ele>127.0839</ele>
        <time>2011-01-03T15:04:45Z</time>
      </trkpt>
      <trkpt lat="46.2919" lon="-0.22323">
        <ele>127.1933</ele>
        <time>2011-01-03T15:04:46Z</time>
      </trkpt>
      <trkpt lat="46.2919" lon="-0.22324">
        <ele>127.3004</ele>
        <time>2011-01-03T15:04:47Z</time>
      </trkpt>
      <trkpt lat="46.2919" lon="-0.22326">
        <ele>127.4057</ele>
        <time>2011-01-03T15:04:48Z</time>
      </trkpt>
      <trkpt lat="46.2919" lon="-0.22328">
        <ele>127.509</ele>
        <time>2011-01-03T15:04:49Z</time>
      </trkpt>
      <trkpt lat="46.2919" lon="-0.22329">
        <ele>127.6115</ele>
        <time>2011-01-03T15:04:50Z</time>
      </trkpt>
      <trkpt lat="46.29191" lon="-0.22331">
        <ele>127.714</ele>
        <time>2011-01-03T15:04:51Z</time>
      </trkpt>
      <trkpt lat="46.29191" lon="-0.22332">
        <ele>127.818</ele>
        <time>2011-01-03T15:04:52Z</time>
      </trkpt>
      <trkpt lat="46.29191" lon="-0.22334">
        <ele>127.9213</ele>
        <time>2011-01-03T15:04:53Z</time>
      </trkpt>
      <trkpt lat="46.29191" lon="-0.22335">
        <ele>128.024</ele>
        <time>2011-01-03T15:04:54Z</time>
      </trkpt>
      <trkpt lat="46.29192" lon="-0.22337">
        <ele>128.1252</ele>
        <time>2011-01-03T15:04:55Z</time>
      </trkpt>
      <trkpt lat="46.29192" lon="-0.22338">
        <ele>128.2241</ele>
        <time>2011-01-03T15:04:56Z</time>
      </trkpt>
      <trkpt lat="46.29192" lon="-0.22339">
        <ele>128.3208</ele>
        <time>2011-01-03T15:04:57Z</time>
      </trkpt>
      <trkpt lat="46.29193" lon="-0.2234">
        <ele>128.4154</ele>
        <time>2011-01-03T15:04:58Z</time>
      </trkpt>
      <trkpt lat="46.29193" lon="-0.22342">
        <ele>128.5082</ele>
        <time>2011-01-03T15:04:59Z</time>
      </trkpt>
      <trkpt lat="46.29194" lon="-0.22343">
        <ele>128.5982</ele>
        <time>2011-01-03T15:05:00Z</time>
      </trkpt>
      <trkpt lat="46.29194" lon="-0.22345">
        <ele>128.684</ele>
        <time>2011-01-03T15:05:01Z</time>
      </trkpt>
      <trkpt lat="46.29195" lon="-0.22346">
        <ele>128.7703</ele>
        <time>2011-01-03T15:05:02Z</time>
      </trkpt>
      <trkpt lat="46.29195" lon="-0.22347">
        <ele>128.856</ele>
        <time>2011-01-03T15:05:03Z</time>
      </trkpt>
      <trkpt lat="46.29195" lon="-0.22349">
        <ele>128.9394</ele>
        <time>2011-01-03T15:05:04Z</time>
      </trkpt>
      <trkpt lat="46.29196" lon="-0.2235">
        <ele>129.0189</ele>
        <time>2011-01-03T15:05:05Z</time>
      </trkpt>
      <trkpt lat="46.29196" lon="-0.22351">
        <ele>129.0946</ele>
        <time>2011-01-03T15:05:06Z</time>
      </trkpt>
      <trkpt lat="46.29196" lon="-0.22353">
        <ele>129.1648</ele>
        <time>2011-01-03T15:05:07Z</time>
      </trkpt>
      <trkpt lat="46.29197" lon="-0.22355">
        <ele>129.2342</ele>
        <time>2011-01-03T15:05:08Z</time>
      </trkpt>
      <trkpt lat="46.29197" lon="-0.22356">
        <ele>129.3019</ele>
        <time>2011-01-03T15:05:09Z</time>
      </trkpt>
      <trkpt lat="46.29197" lon="-0.22357">
        <ele>129.3695</ele>
        <time>2011-01-03T15:05:10Z</time>
      </trkpt>
      <trkpt lat="46.29198" lon="-0.22358">
        <ele>129.436</ele>
        <time>2011-01-03T15:05:11Z</time>
      </trkpt>
      <trkpt lat="46.29198" lon="-0.2236">
        <ele>129.5003</ele>
        <time>2011-01-03T15:05:12Z</time>
      </trkpt>
      <trkpt lat="46.29198" lon="-0.22361">
        <ele>129.5631</ele>
        <time>2011-01-03T15:05:13Z</time>
      </trkpt>
      <trkpt lat="46.29198" lon="-0.22362">
        <ele>129.6246</ele>
        <time>2011-01-03T15:05:14Z</time>
      </trkpt>
      <trkpt lat="46.29199" lon="-0.22363">
        <ele>129.6848</ele>
        <time>2011-01-03T15:05:15Z</time>
      </trkpt>
      <trkpt lat="46.29199" lon="-0.22364">
        <ele>129.7439</ele>
        <time>2011-01-03T15:05:16Z</time>
      </trkpt>
      <trkpt lat="46.29199" lon="-0.22366">
        <ele>129.8017</ele>
        <time>2011-01-03T15:05:17Z</time>
      </trkpt>
      <trkpt lat="46.292" lon="-0.22367">
        <ele>129.8566</ele>
        <time>2011-01-03T15:05:18Z</time>
      </trkpt>
      <trkpt lat="46.292" lon="-0.22369">
        <ele>129.9117</ele>
        <time>2011-01-03T15:05:19Z</time>
      </trkpt>
      <trkpt lat="46.29201" lon="-0.2237">
        <ele>129.9639</ele>
        <time>2011-01-03T15:05:20Z</time>
      </trkpt>
      <trkpt lat="46.29202" lon="-0.22371">
        <ele>130.0129</ele>
        <time>2011-01-03T15:05:21Z</time>
      </trkpt>
      <trkpt lat="46.29202" lon="-0.22373">
        <ele>130.0584</ele>
        <time>2011-01-03T15:05:22Z</time>
      </trkpt>
      <trkpt lat="46.29202" lon="-0.22375">
        <ele>130.0995</ele>
        <time>2011-01-03T15:05:23Z</time>
      </trkpt>
      <trkpt lat="46.29203" lon="-0.22376">
        <ele>130.1392</ele>
        <time>2011-01-03T15:05:24Z</time>
      </trkpt>
      <trkpt lat="46.29203" lon="-0.22377">
        <ele>130.1775</ele>
        <time>2011-01-03T15:05:25Z</time>
      </trkpt>
      <trkpt lat="46.29204" lon="-0.22379">
        <ele>130.2111</ele>
        <time>2011-01-03T15:05:26Z</time>
      </trkpt>
      <trkpt lat="46.29205" lon="-0.2238">
        <ele>130.2449</ele>
        <time>2011-01-03T15:05:27Z</time>
      </trkpt>
      <trkpt lat="46.29205" lon="-0.22382">
        <ele>130.2773</ele>
        <time>2011-01-03T15:05:28Z</time>
      </trkpt>
      <trkpt lat="46.29206" lon="-0.22383">
        <ele>130.3036</ele>
        <time>2011-01-03T15:05:29Z</time>
      </trkpt>
      <trkpt lat="46.29207" lon="-0.22384">
        <ele>130.3227</ele>
        <time>2011-01-03T15:05:30Z</time>
      </trkpt>
      <trkpt lat="46.29208" lon="-0.22386">
        <ele>130.3325</ele>
        <time>2011-01-03T15:05:31Z</time>
      </trkpt>
      <trkpt lat="46.29208" lon="-0.22388">
        <ele>130.34</ele>
        <time>2011-01-03T15:05:32Z</time>
      </trkpt>
      <trkpt lat="46.29208" lon="-0.2239">
        <ele>130.3471</ele>
        <time>2011-01-03T15:05:33Z</time>
      </trkpt>
      <trkpt lat="46.29208" lon="-0.22391">
        <ele>130.3527</ele>
        <time>2011-01-03T15:05:34Z</time>
      </trkpt>
      <trkpt lat="46.29209" lon="-0.22393">
        <ele>130.3513</ele>
        <time>2011-01-03T15:05:35Z</time>
      </trkpt>
      <trkpt lat="46.29209" lon="-0.22395">
        <ele>130.3424</ele>
        <time>2011-01-03T15:05:36Z</time>
      </trkpt>
      <trkpt lat="46.2921" lon="-0.22396">
        <ele>130.331</ele>
        <time>2011-01-03T15:05:37Z</time>
      </trkpt>
      <trkpt lat="46.2921" lon="-0.22397">
        <ele>130.3194</ele>
        <time>2011-01-03T15:05:38Z</time>
      </trkpt>
      <trkpt lat="46.29211" lon="-0.22398">
        <ele>130.3084</ele>
        <time>2011-01-03T15:05:39Z</time>
      </trkpt>
      <trkpt lat="46.29211" lon="-0.224">
        <ele>130.2981</ele>
        <time>2011-01-03T15:05:40Z</time>
      </trkpt>
      <trkpt lat="46.29211" lon="-0.22401">
        <ele>130.2895</ele>
        <time>2011-01-03T15:05:41Z</time>
      </trkpt>
      <trkpt lat="46.29212" lon="-0.22402">
        <ele>130.2806</ele>
        <time>2011-01-03T15:05:42Z</time>
      </trkpt>
      <trkpt lat="46.29213" lon="-0.22404">
        <ele>130.273</ele>
        <time>2011-01-03T15:05:43Z</time>
      </trkpt>
      <trkpt lat="46.29213" lon="-0.22405">
        <ele>130.2662</ele>
        <time>2011-01-03T15:05:44Z</time>
      </trkpt>
      <trkpt lat="46.29214" lon="-0.22406">
        <ele>130.2602</ele>
        <time>2011-01-03T15:05:45Z</time>
      </trkpt>
      <trkpt lat="46.29214" lon="-0.22408">
        <ele>130.2541</ele>
        <time>2011-01-03T15:05:46Z</time>
      </trkpt>
      <trkpt lat="46.29215" lon="-0.22409">
        <ele>130.2487</ele>
        <time>2011-01-03T15:05:47Z</time>
      </trkpt>
      <trkpt lat="46.29215" lon="-0.2241">
        <ele>130.2444</ele>
        <time>2011-01-03T15:05:48Z</time>
      </trkpt>
      <trkpt lat="46.29216" lon="-0.22412">
        <ele>130.2408</ele>
        <time>2011-01-03T15:05:49Z</time>
      </trkpt>
      <trkpt lat="46.29216" lon="-0.22413">
        <ele>130.2371</ele>
        <time>2011-01-03T15:05:50Z</time>
      </trkpt>
      <trkpt lat="46.29218" lon="-0.22414">
        <ele>130.2303</ele>
        <time>2011-01-03T15:05:51Z</time>
      </trkpt>
      <trkpt lat="46.29218" lon="-0.22416">
        <ele>130.2193</ele>
        <time>2011-01-03T15:05:52Z</time>
      </trkpt>
      <trkpt lat="46.29219" lon="-0.22417">
        <ele>130.2099</ele>
        <time>2011-01-03T15:05:53Z</time>
      </trkpt>
      <trkpt lat="46.2922" lon="-0.22417">
        <ele>130.2013</ele>
        <time>2011-01-03T15:05:54Z</time>
      </trkpt>
      <trkpt lat="46.29221" lon="-0.22418">
        <ele>130.1914</ele>
        <time>2011-01-03T15:05:55Z</time>
      </trkpt>
      <trkpt lat="46.29222" lon="-0.22419">
        <ele>130.1715</ele>
        <time>2011-01-03T15:05:56Z</time>
      </trkpt>
      <trkpt lat="46.29223" lon="-0.2242">
        <ele>130.1502</ele>
        <time>2011-01-03T15:05:57Z</time>
      </trkpt>
      <trkpt lat="46.29224" lon="-0.22421">
        <ele>130.1305</ele>
        <time>2011-01-03T15:05:58Z</time>
      </trkpt>
      <trkpt lat="46.29225" lon="-0.22422">
        <ele>130.1093</ele>
        <time>2011-01-03T15:05:59Z</time>
      </trkpt>
      <trkpt lat="46.29225" lon="-0.22424">
        <ele>130.0884</ele>
        <time>2011-01-03T15:06:00Z</time>
      </trkpt>
      <trkpt lat="46.29226" lon="-0.22425">
        <ele>130.0622</ele>
        <time>2011-01-03T15:06:01Z</time>
      </trkpt>
      <trkpt lat="46.29226" lon="-0.22427">
        <ele>130.015</ele>
        <time>2011-01-03T15:06:02Z</time>
      </trkpt>
      <trkpt lat="46.29227" lon="-0.2243">
        <ele>129.9587</ele>
        <time>2011-01-03T15:06:03Z</time>
      </trkpt>
      <trkpt lat="46.29228" lon="-0.22432">
        <ele>129.8987</ele>
        <time>2011-01-03T15:06:04Z</time>
      </trkpt>
      <trkpt lat="46.29228" lon="-0.22433">
        <ele>129.8421</ele>
        <time>2011-01-03T15:06:05Z</time>
      </trkpt>
      <trkpt lat="46.29229" lon="-0.22435">
        <ele>129.7918</ele>
        <time>2011-01-03T15:06:06Z</time>
      </trkpt>
      <trkpt lat="46.29229" lon="-0.22435">
        <ele>129.7447</ele>
        <time>2011-01-03T15:06:07Z</time>
      </trkpt>
      <trkpt lat="46.29229" lon="-0.22437">
        <ele>129.6985</ele>
        <time>2011-01-03T15:06:08Z</time>
      </trkpt>
      <trkpt lat="46.2923" lon="-0.22437">
        <ele>129.6505</ele>
        <time>2011-01-03T15:06:09Z</time>
      </trkpt>
      <trkpt lat="46.2923" lon="-0.22439">
        <ele>129.6042</ele>
        <time>2011-01-03T15:06:10Z</time>
      </trkpt>
      <trkpt lat="46.2923" lon="-0.2244">
        <ele>129.5592</ele>
        <time>2011-01-03T15:06:11Z</time>
      </trkpt>
      <trkpt lat="46.29231" lon="-0.22442">
        <ele>129.513</ele>
        <time>2011-01-03T15:06:12Z</time>
      </trkpt>
      <trkpt lat="46.29231" lon="-0.22443">
        <ele>129.467</ele>
        <time>2011-01-03T15:06:13Z</time>
      </trkpt>
      <trkpt lat="46.29231" lon="-0.22444">
        <ele>129.4219</ele>
        <time>2011-01-03T15:06:14Z</time>
      </trkpt>
      <trkpt lat="46.29232" lon="-0.22445">
        <ele>129.3794</ele>
        <time>2011-01-03T15:06:15Z</time>
      </trkpt>
      <trkpt lat="46.29232" lon="-0.22446">
        <ele>129.3398</ele>
        <time>2011-01-03T15:06:16Z</time>
      </trkpt>
      <trkpt lat="46.29232" lon="-0.22448">
        <ele>129.2961</ele>
        <time>2011-01-03T15:06:17Z</time>
      </trkpt>
      <trkpt lat="46.29232" lon="-0.22449">
        <ele>129.2542</ele>
        <time>2011-01-03T15:06:18Z</time>
      </trkpt>
      <trkpt lat="46.29233" lon="-0.22451">
        <ele>129.2131</ele>
        <time>2011-01-03T15:06:19Z</time>
      </trkpt>
      <trkpt lat="46.29233" lon="-0.22452">
        <ele>129.1723</ele>
        <time>2011-01-03T15:06:20Z</time>
      </trkpt>
      <trkpt lat="46.29234" lon="-0.22454">
        <ele>129.1323</ele>
        <time>2011-01-03T15:06:21Z</time>
      </trkpt>
      <trkpt lat="46.29234" lon="-0.22455">
        <ele>129.0926</ele>
        <time>2011-01-03T15:06:22Z</time>
      </trkpt>
      <trkpt lat="46.29235" lon="-0.22456">
        <ele>129.0547</ele>
        <time>2011-01-03T15:06:23Z</time>
      </trkpt>
      <trkpt lat="46.29235" lon="-0.22457">
        <ele>129.0179</ele>
        <time>2011-01-03T15:06:24Z</time>
      </trkpt>
      <trkpt lat="46.29236" lon="-0.22458">
        <ele>128.9857</ele>
        <time>2011-01-03T15:06:25Z</time>
      </trkpt>
      <trkpt lat="46.29236" lon="-0.22459">
        <ele>128.9642</ele>
        <time>2011-01-03T15:06:26Z</time>
      </trkpt>
      <trkpt lat="46.29237" lon="-0.22461">
        <ele>128.9474</ele>
        <time>2011-01-03T15:06:27Z</time>
      </trkpt>
      <trkpt lat="46.29238" lon="-0.22462">
        <ele>128.9339</ele>
        <time>2011-01-03T15:06:28Z</time>
      </trkpt>
      <trkpt lat="46.29238" lon="-0.22463">
        <ele>128.9132</ele>
        <time>2011-01-03T15:06:29Z</time>
      </trkpt>
      <trkpt lat="46.29239" lon="-0.22464">
        <ele>128.8925</ele>
        <time>2011-01-03T15:06:30Z</time>
      </trkpt>
      <trkpt lat="46.29239" lon="-0.22465">
        <ele>128.8728</ele>
        <time>2011-01-03T15:06:31Z</time>
      </trkpt>
      <trkpt lat="46.2924" lon="-0.22467">
        <ele>128.8509</ele>
        <time>2011-01-03T15:06:32Z</time>
      </trkpt>
      <trkpt lat="46.2924" lon="-0.22468">
        <ele>128.8268</ele>
        <time>2011-01-03T15:06:33Z</time>
      </trkpt>
      <trkpt lat="46.2924" lon="-0.2247">
        <ele>128.8026</ele>
        <time>2011-01-03T15:06:34Z</time>
      </trkpt>
      <trkpt lat="46.2924" lon="-0.22471">
        <ele>128.7763</ele>
        <time>2011-01-03T15:06:35Z</time>
      </trkpt>
      <trkpt lat="46.29241" lon="-0.22472">
        <ele>128.7497</ele>
        <time>2011-01-03T15:06:36Z</time>
      </trkpt>
      <trkpt lat="46.29242" lon="-0.22473">
        <ele>128.7243</ele>
        <time>2011-01-03T15:06:37Z</time>
      </trkpt>
      <trkpt lat="46.29242" lon="-0.22475">
        <ele>128.6984</ele>
        <time>2011-01-03T15:06:38Z</time>
      </trkpt>
      <trkpt lat="46.29242" lon="-0.22476">
        <ele>128.6648</ele>
        <time>2011-01-03T15:06:39Z</time>
      </trkpt>
      <trkpt lat="46.29243" lon="-0.22478">
        <ele>128.6227</ele>
        <time>2011-01-03T15:06:40Z</time>
      </trkpt>
      <trkpt lat="46.29244" lon="-0.2248">
        <ele>128.5748</ele>
        <time>2011-01-03T15:06:41Z</time>
      </trkpt>
      <trkpt lat="46.29244" lon="-0.22481">
        <ele>128.5313</ele>
        <time>2011-01-03T15:06:42Z</time>
      </trkpt>
      <trkpt lat="46.29245" lon="-0.22483">
        <ele>128.4892</ele>
        <time>2011-01-03T15:06:43Z</time>
      </trkpt>
      <trkpt lat="46.29245" lon="-0.22485">
        <ele>128.4481</ele>
        <time>2011-01-03T15:06:44Z</time>
      </trkpt>
      <trkpt lat="46.29246" lon="-0.22486">
        <ele>128.4093</ele>
        <time>2011-01-03T15:06:45Z</time>
      </trkpt>
      <trkpt lat="46.29246" lon="-0.22487">
        <ele>128.3703</ele>
        <time>2011-01-03T15:06:46Z</time>
      </trkpt>
      <trkpt lat="46.29247" lon="-0.22489">
        <ele>128.3275</ele>
        <time>2011-01-03T15:06:47Z</time>
      </trkpt>
      <trkpt lat="46.29247" lon="-0.2249">
        <ele>128.2833</ele>
        <time>2011-01-03T15:06:48Z</time>
      </trkpt>
      <trkpt lat="46.29247" lon="-0.22491">
        <ele>128.2372</ele>
        <time>2011-01-03T15:06:49Z</time>
      </trkpt>
      <trkpt lat="46.29248" lon="-0.22493">
        <ele>128.1922</ele>
        <time>2011-01-03T15:06:50Z</time>
      </trkpt>
      <trkpt lat="46.29248" lon="-0.22494">
        <ele>128.1486</ele>
        <time>2011-01-03T15:06:51Z</time>
      </trkpt>
      <trkpt lat="46.29248" lon="-0.22495">
        <ele>128.1048</ele>
        <time>2011-01-03T15:06:52Z</time>
      </trkpt>
      <trkpt lat="46.29249" lon="-0.22497">
        <ele>128.0619</ele>
        <time>2011-01-03T15:06:53Z</time>
      </trkpt>
      <trkpt lat="46.29249" lon="-0.22498">
        <ele>128.0163</ele>
        <time>2011-01-03T15:06:54Z</time>
      </trkpt>
      <trkpt lat="46.29249" lon="-0.225">
        <ele>127.9741</ele>
        <time>2011-01-03T15:06:55Z</time>
      </trkpt>
      <trkpt lat="46.2925" lon="-0.22501">
        <ele>127.9337</ele>
        <time>2011-01-03T15:06:56Z</time>
      </trkpt>
      <trkpt lat="46.29251" lon="-0.22502">
        <ele>127.8971</ele>
        <time>2011-01-03T15:06:57Z</time>
      </trkpt>
      <trkpt lat="46.29251" lon="-0.22504">
        <ele>127.8634</ele>
        <time>2011-01-03T15:06:58Z</time>
      </trkpt>
      <trkpt lat="46.29252" lon="-0.22505">
        <ele>127.8295</ele>
        <time>2011-01-03T15:06:59Z</time>
      </trkpt>
      <trkpt lat="46.29253" lon="-0.22506">
        <ele>127.7954</ele>
        <time>2011-01-03T15:07:00Z</time>
      </trkpt>
      <trkpt lat="46.29253" lon="-0.22507">
        <ele>127.763</ele>
        <time>2011-01-03T15:07:01Z</time>
      </trkpt>
      <trkpt lat="46.29254" lon="-0.22508">
        <ele>127.7327</ele>
        <time>2011-01-03T15:07:02Z</time>
      </trkpt>
      <trkpt lat="46.29255" lon="-0.22509">
        <ele>127.7024</ele>
        <time>2011-01-03T15:07:03Z</time>
      </trkpt>
      <trkpt lat="46.29255" lon="-0.2251">
        <ele>127.6753</ele>
        <time>2011-01-03T15:07:04Z</time>
      </trkpt>
      <trkpt lat="46.29256" lon="-0.2251">
        <ele>127.6507</ele>
        <time>2011-01-03T15:07:05Z</time>
      </trkpt>
      <trkpt lat="46.29256" lon="-0.22511">
        <ele>127.6204</ele>
        <time>2011-01-03T15:07:06Z</time>
      </trkpt>
      <trkpt lat="46.29257" lon="-0.22513">
        <ele>127.5885</ele>
        <time>2011-01-03T15:07:07Z</time>
      </trkpt>
      <trkpt lat="46.29258" lon="-0.22514">
        <ele>127.552</ele>
        <time>2011-01-03T15:07:08Z</time>
      </trkpt>
      <trkpt lat="46.29258" lon="-0.22516">
        <ele>127.5184</ele>
        <time>2011-01-03T15:07:09Z</time>
      </trkpt>
      <trkpt lat="46.29258" lon="-0.22518">
        <ele>127.4829</ele>
        <time>2011-01-03T15:07:10Z</time>
      </trkpt>
      <trkpt lat="46.29259" lon="-0.22519">
        <ele>127.4512</ele>
        <time>2011-01-03T15:07:11Z</time>
      </trkpt>
      <trkpt lat="46.2926" lon="-0.22521">
        <ele>127.4253</ele>
        <time>2011-01-03T15:07:12Z</time>
      </trkpt>
      <trkpt lat="46.2926" lon="-0.22522">
        <ele>127.4037</ele>
        <time>2011-01-03T15:07:13Z</time>
      </trkpt>
      <trkpt lat="46.29261" lon="-0.22523">
        <ele>127.378</ele>
        <time>2011-01-03T15:07:14Z</time>
      </trkpt>
      <trkpt lat="46.29261" lon="-0.22525">
        <ele>127.355</ele>
        <time>2011-01-03T15:07:15Z</time>
      </trkpt>
      <trkpt lat="46.29261" lon="-0.22526">
        <ele>127.3364</ele>
        <time>2011-01-03T15:07:16Z</time>
      </trkpt>
      <trkpt lat="46.29262" lon="-0.22527">
        <ele>127.3227</ele>
        <time>2011-01-03T15:07:17Z</time>
      </trkpt>
      <trkpt lat="46.29263" lon="-0.22529">
        <ele>127.3121</ele>
        <time>2011-01-03T15:07:18Z</time>
      </trkpt>
      <trkpt lat="46.29263" lon="-0.22529">
        <ele>127.3042</ele>
        <time>2011-01-03T15:07:19Z</time>
      </trkpt>
      <trkpt lat="46.29264" lon="-0.22531">
        <ele>127.3015</ele>
        <time>2011-01-03T15:07:20Z</time>
      </trkpt>
      <trkpt lat="46.29265" lon="-0.22532">
        <ele>127.2995</ele>
        <time>2011-01-03T15:07:21Z</time>
      </trkpt>
      <trkpt lat="46.29265" lon="-0.22534">
        <ele>127.3002</ele>
        <time>2011-01-03T15:07:22Z</time>
      </trkpt>
      <trkpt lat="46.29265" lon="-0.22535">
        <ele>127.3016</ele>
        <time>2011-01-03T15:07:23Z</time>
      </trkpt>
      <trkpt lat="46.29265" lon="-0.22535">
        <ele>127.3008</ele>
        <time>2011-01-03T15:07:25Z</time>
      </trkpt>
      <trkpt lat="46.29265" lon="-0.22537">
        <ele>127.2903</ele>
        <time>2011-01-03T15:07:26Z</time>
      </trkpt>
      <trkpt lat="46.29266" lon="-0.22538">
        <ele>127.2767</ele>
        <time>2011-01-03T15:07:27Z</time>
      </trkpt>
      <trkpt lat="46.29266" lon="-0.2254">
        <ele>127.2584</ele>
        <time>2011-01-03T15:07:28Z</time>
      </trkpt>
      <trkpt lat="46.29267" lon="-0.22541">
        <ele>127.2345</ele>
        <time>2011-01-03T15:07:29Z</time>
      </trkpt>
      <trkpt lat="46.29267" lon="-0.22542">
        <ele>127.214</ele>
        <time>2011-01-03T15:07:30Z</time>
      </trkpt>
      <trkpt lat="46.29268" lon="-0.22543">
        <ele>127.1979</ele>
        <time>2011-01-03T15:07:31Z</time>
      </trkpt>
      <trkpt lat="46.29268" lon="-0.22543">
        <ele>127.1852</ele>
        <time>2011-01-03T15:07:32Z</time>
      </trkpt>
      <trkpt lat="46.29269" lon="-0.22544">
        <ele>127.1744</ele>
        <time>2011-01-03T15:07:33Z</time>
      </trkpt>
      <trkpt lat="46.2927" lon="-0.22545">
        <ele>127.1593</ele>
        <time>2011-01-03T15:07:34Z</time>
      </trkpt>
      <trkpt lat="46.2927" lon="-0.22546">
        <ele>127.1486</ele>
        <time>2011-01-03T15:07:35Z</time>
      </trkpt>
      <trkpt lat="46.29271" lon="-0.22547">
        <ele>127.1388</ele>
        <time>2011-01-03T15:07:36Z</time>
      </trkpt>
      <trkpt lat="46.29272" lon="-0.22548">
        <ele>127.1314</ele>
        <time>2011-01-03T15:07:37Z</time>
      </trkpt>
      <trkpt lat="46.29272" lon="-0.22549">
        <ele>127.1264</ele>
        <time>2011-01-03T15:07:38Z</time>
      </trkpt>
      <trkpt lat="46.29273" lon="-0.2255">
        <ele>127.1199</ele>
        <time>2011-01-03T15:07:39Z</time>
      </trkpt>
      <trkpt lat="46.29273" lon="-0.22551">
        <ele>127.1161</ele>
        <time>2011-01-03T15:07:40Z</time>
      </trkpt>
      <trkpt lat="46.29274" lon="-0.22553">
        <ele>127.111</ele>
        <time>2011-01-03T15:07:41Z</time>
      </trkpt>
      <trkpt lat="46.29274" lon="-0.22554">
        <ele>127.1025</ele>
        <time>2011-01-03T15:07:42Z</time>
      </trkpt>
      <trkpt lat="46.29274" lon="-0.22555">
        <ele>127.0904</ele>
        <time>2011-01-03T15:07:43Z</time>
      </trkpt>
      <trkpt lat="46.29275" lon="-0.22556">
        <ele>127.0827</ele>
        <time>2011-01-03T15:07:44Z</time>
      </trkpt>
      <trkpt lat="46.29276" lon="-0.22558">
        <ele>127.0767</ele>
        <time>2011-01-03T15:07:45Z</time>
      </trkpt>
      <trkpt lat="46.29276" lon="-0.22559">
        <ele>127.0727</ele>
        <time>2011-01-03T15:07:46Z</time>
      </trkpt>
      <trkpt lat="46.29276" lon="-0.2256">
        <ele>127.0709</ele>
        <time>2011-01-03T15:07:47Z</time>
      </trkpt>
      <trkpt lat="46.29277" lon="-0.22561">
        <ele>127.0653</ele>
        <time>2011-01-03T15:07:48Z</time>
      </trkpt>
      <trkpt lat="46.29277" lon="-0.22562">
        <ele>127.0562</ele>
        <time>2011-01-03T15:07:49Z</time>
      </trkpt>
      <trkpt lat="46.29277" lon="-0.22564">
        <ele>127.0425</ele>
        <time>2011-01-03T15:07:50Z</time>
      </trkpt>
      <trkpt lat="46.29278" lon="-0.22565">
        <ele>127.0267</ele>
        <time>2011-01-03T15:07:51Z</time>
      </trkpt>
      <trkpt lat="46.29279" lon="-0.22566">
        <ele>127.0086</ele>
        <time>2011-01-03T15:07:52Z</time>
      </trkpt>
      <trkpt lat="46.29279" lon="-0.22568">
        <ele>126.9914</ele>
        <time>2011-01-03T15:07:53Z</time>
      </trkpt>
      <trkpt lat="46.29279" lon="-0.22569">
        <ele>126.9695</ele>
        <time>2011-01-03T15:07:54Z</time>
      </trkpt>
      <trkpt lat="46.2928" lon="-0.22571">
        <ele>126.945</ele>
        <time>2011-01-03T15:07:55Z</time>
      </trkpt>
      <trkpt lat="46.29281" lon="-0.22572">
        <ele>126.9192</ele>
        <time>2011-01-03T15:07:56Z</time>
      </trkpt>
      <trkpt lat="46.29281" lon="-0.22574">
        <ele>126.8921</ele>
        <time>2011-01-03T15:07:57Z</time>
      </trkpt>
      <trkpt lat="46.29281" lon="-0.22575">
        <ele>126.8625</ele>
        <time>2011-01-03T15:07:58Z</time>
      </trkpt>
      <trkpt lat="46.29281" lon="-0.22577">
        <ele>126.8333</ele>
        <time>2011-01-03T15:07:59Z</time>
      </trkpt>
      <trkpt lat="46.29282" lon="-0.22578">
        <ele>126.8082</ele>
        <time>2011-01-03T15:08:00Z</time>
      </trkpt>
      <trkpt lat="46.29282" lon="-0.2258">
        <ele>126.7837</ele>
        <time>2011-01-03T15:08:01Z</time>
      </trkpt>
      <trkpt lat="46.29282" lon="-0.22581">
        <ele>126.759</ele>
        <time>2011-01-03T15:08:02Z</time>
      </trkpt>
      <trkpt lat="46.29283" lon="-0.22582">
        <ele>126.7325</ele>
        <time>2011-01-03T15:08:03Z</time>
      </trkpt>
      <trkpt lat="46.29284" lon="-0.22583">
        <ele>126.7054</ele>
        <time>2011-01-03T15:08:04Z</time>
      </trkpt>
      <trkpt lat="46.29284" lon="-0.22585">
        <ele>126.6817</ele>
        <time>2011-01-03T15:08:05Z</time>
      </trkpt>
      <trkpt lat="46.29285" lon="-0.22586">
        <ele>126.6581</ele>
        <time>2011-01-03T15:08:06Z</time>
      </trkpt>
      <trkpt lat="46.29285" lon="-0.22587">
        <ele>126.6341</ele>
        <time>2011-01-03T15:08:07Z</time>
      </trkpt>
      <trkpt lat="46.29285" lon="-0.22588">
        <ele>126.6068</ele>
        <time>2011-01-03T15:08:08Z</time>
      </trkpt>
      <trkpt lat="46.29286" lon="-0.2259">
        <ele>126.579</ele>
        <time>2011-01-03T15:08:09Z</time>
      </trkpt>
      <trkpt lat="46.29287" lon="-0.22592">
        <ele>126.5513</ele>
        <time>2011-01-03T15:08:10Z</time>
      </trkpt>
      <trkpt lat="46.29287" lon="-0.22593">
        <ele>126.5216</ele>
        <time>2011-01-03T15:08:11Z</time>
      </trkpt>
      <trkpt lat="46.29287" lon="-0.22595">
        <ele>126.4898</ele>
        <time>2011-01-03T15:08:12Z</time>
      </trkpt>
      <trkpt lat="46.29287" lon="-0.22597">
        <ele>126.4522</ele>
        <time>2011-01-03T15:08:13Z</time>
      </trkpt>
      <trkpt lat="46.29287" lon="-0.22599">
        <ele>126.3983</ele>
        <time>2011-01-03T15:08:14Z</time>
      </trkpt>
      <trkpt lat="46.29288" lon="-0.226">
        <ele>126.3354</ele>
        <time>2011-01-03T15:08:15Z</time>
      </trkpt>
      <trkpt lat="46.29288" lon="-0.22601">
        <ele>126.2626</ele>
        <time>2011-01-03T15:08:16Z</time>
      </trkpt>
      <trkpt lat="46.29288" lon="-0.22602">
        <ele>126.1508</ele>
        <time>2011-01-03T15:08:17Z</time>
      </trkpt>
      <trkpt lat="46.29289" lon="-0.22603">
        <ele>125.9622</ele>
        <time>2011-01-03T15:08:19Z</time>
      </trkpt>
      <trkpt lat="46.29289" lon="-0.22604">
        <ele>125.7816</ele>
        <time>2011-01-03T15:08:20Z</time>
      </trkpt>
      <trkpt lat="46.29289" lon="-0.22605">
        <ele>125.6142</ele>
        <time>2011-01-03T15:08:21Z</time>
      </trkpt>
      <trkpt lat="46.29289" lon="-0.22606">
        <ele>125.4521</ele>
        <time>2011-01-03T15:08:22Z</time>
      </trkpt>
      <trkpt lat="46.2929" lon="-0.22608">
        <ele>125.2995</ele>
        <time>2011-01-03T15:08:23Z</time>
      </trkpt>
      <trkpt lat="46.2929" lon="-0.2261">
        <ele>125.1544</ele>
        <time>2011-01-03T15:08:24Z</time>
      </trkpt>
      <trkpt lat="46.2929" lon="-0.22611">
        <ele>125.0053</ele>
        <time>2011-01-03T15:08:25Z</time>
      </trkpt>
      <trkpt lat="46.29291" lon="-0.22613">
        <ele>124.851</ele>
        <time>2011-01-03T15:08:26Z</time>
      </trkpt>
      <trkpt lat="46.29292" lon="-0.22615">
        <ele>124.7004</ele>
        <time>2011-01-03T15:08:27Z</time>
      </trkpt>
      <trkpt lat="46.29292" lon="-0.22616">
        <ele>124.5488</ele>
        <time>2011-01-03T15:08:28Z</time>
      </trkpt>
      <trkpt lat="46.29293" lon="-0.22618">
        <ele>124.4064</ele>
        <time>2011-01-03T15:08:29Z</time>
      </trkpt>
      <trkpt lat="46.29293" lon="-0.2262">
        <ele>124.2735</ele>
        <time>2011-01-03T15:08:30Z</time>
      </trkpt>
      <trkpt lat="46.29294" lon="-0.22622">
        <ele>124.1476</ele>
        <time>2011-01-03T15:08:31Z</time>
      </trkpt>
      <trkpt lat="46.29294" lon="-0.22623">
        <ele>124.0173</ele>
        <time>2011-01-03T15:08:32Z</time>
      </trkpt>
      <trkpt lat="46.29294" lon="-0.22626">
        <ele>123.8932</ele>
        <time>2011-01-03T15:08:33Z</time>
      </trkpt>
      <trkpt lat="46.29294" lon="-0.22628">
        <ele>123.777</ele>
        <time>2011-01-03T15:08:34Z</time>
      </trkpt>
      <trkpt lat="46.29295" lon="-0.2263">
        <ele>123.6663</ele>
        <time>2011-01-03T15:08:35Z</time>
      </trkpt>
      <trkpt lat="46.29295" lon="-0.22631">
        <ele>123.5592</ele>
        <time>2011-01-03T15:08:36Z</time>
      </trkpt>
      <trkpt lat="46.29295" lon="-0.22633">
        <ele>123.4608</ele>
        <time>2011-01-03T15:08:37Z</time>
      </trkpt>
      <trkpt lat="46.29295" lon="-0.22635">
        <ele>123.3829</ele>
        <time>2011-01-03T15:08:38Z</time>
      </trkpt>
      <trkpt lat="46.29296" lon="-0.22636">
        <ele>123.3077</ele>
        <time>2011-01-03T15:08:39Z</time>
      </trkpt>
      <trkpt lat="46.29297" lon="-0.22638">
        <ele>123.236</ele>
        <time>2011-01-03T15:08:40Z</time>
      </trkpt>
      <trkpt lat="46.29297" lon="-0.22639">
        <ele>123.1858</ele>
        <time>2011-01-03T15:08:41Z</time>
      </trkpt>
      <trkpt lat="46.29298" lon="-0.22641">
        <ele>123.1591</ele>
        <time>2011-01-03T15:08:42Z</time>
      </trkpt>
      <trkpt lat="46.29298" lon="-0.22642">
        <ele>123.1492</ele>
        <time>2011-01-03T15:08:43Z</time>
      </trkpt>
      <trkpt lat="46.29299" lon="-0.22644">
        <ele>123.1415</ele>
        <time>2011-01-03T15:08:44Z</time>
      </trkpt>
      <trkpt lat="46.293" lon="-0.22645">
        <ele>123.1391</ele>
        <time>2011-01-03T15:08:45Z</time>
      </trkpt>
      <trkpt lat="46.293" lon="-0.22647">
        <ele>123.1432</ele>
        <time>2011-01-03T15:08:46Z</time>
      </trkpt>
      <trkpt lat="46.29301" lon="-0.22648">
        <ele>123.1542</ele>
        <time>2011-01-03T15:08:47Z</time>
      </trkpt>
      <trkpt lat="46.29302" lon="-0.22649">
        <ele>123.1709</ele>
        <time>2011-01-03T15:08:48Z</time>
      </trkpt>
      <trkpt lat="46.29302" lon="-0.22651">
        <ele>123.1908</ele>
        <time>2011-01-03T15:08:49Z</time>
      </trkpt>
      <trkpt lat="46.29302" lon="-0.22652">
        <ele>123.2109</ele>
        <time>2011-01-03T15:08:50Z</time>
      </trkpt>
      <trkpt lat="46.29303" lon="-0.22654">
        <ele>123.2354</ele>
        <time>2011-01-03T15:08:51Z</time>
      </trkpt>
      <trkpt lat="46.29303" lon="-0.22655">
        <ele>123.261</ele>
        <time>2011-01-03T15:08:52Z</time>
      </trkpt>
      <trkpt lat="46.29304" lon="-0.22657">
        <ele>123.2884</ele>
        <time>2011-01-03T15:08:53Z</time>
      </trkpt>
      <trkpt lat="46.29305" lon="-0.22659">
        <ele>123.3161</ele>
        <time>2011-01-03T15:08:54Z</time>
      </trkpt>
      <trkpt lat="46.29305" lon="-0.2266">
        <ele>123.344</ele>
        <time>2011-01-03T15:08:55Z</time>
      </trkpt>
      <trkpt lat="46.29305" lon="-0.22662">
        <ele>123.3736</ele>
        <time>2011-01-03T15:08:56Z</time>
      </trkpt>
      <trkpt lat="46.29306" lon="-0.22663">
        <ele>123.4034</ele>
        <time>2011-01-03T15:08:57Z</time>
      </trkpt>
      <trkpt lat="46.29306" lon="-0.22664">
        <ele>123.4325</ele>
        <time>2011-01-03T15:08:58Z</time>
      </trkpt>
      <trkpt lat="46.29306" lon="-0.22665">
        <ele>123.4629</ele>
        <time>2011-01-03T15:08:59Z</time>
      </trkpt>
      <trkpt lat="46.29307" lon="-0.22667">
        <ele>123.4924</ele>
        <time>2011-01-03T15:09:00Z</time>
      </trkpt>
      <trkpt lat="46.29307" lon="-0.22669">
        <ele>123.5219</ele>
        <time>2011-01-03T15:09:01Z</time>
      </trkpt>
      <trkpt lat="46.29308" lon="-0.2267">
        <ele>123.554</ele>
        <time>2011-01-03T15:09:02Z</time>
      </trkpt>
      <trkpt lat="46.29308" lon="-0.22671">
        <ele>123.5863</ele>
        <time>2011-01-03T15:09:03Z</time>
      </trkpt>
      <trkpt lat="46.29309" lon="-0.22673">
        <ele>123.617</ele>
        <time>2011-01-03T15:09:04Z</time>
      </trkpt>
      <trkpt lat="46.29309" lon="-0.22674">
        <ele>123.6438</ele>
        <time>2011-01-03T15:09:05Z</time>
      </trkpt>
      <trkpt lat="46.29309" lon="-0.22676">
        <ele>123.6698</ele>
        <time>2011-01-03T15:09:06Z</time>
      </trkpt>
      <trkpt lat="46.29309" lon="-0.22677">
        <ele>123.6948</ele>
        <time>2011-01-03T15:09:07Z</time>
      </trkpt>
      <trkpt lat="46.2931" lon="-0.22678">
        <ele>123.7186</ele>
        <time>2011-01-03T15:09:08Z</time>
      </trkpt>
      <trkpt lat="46.2931" lon="-0.22679">
        <ele>123.7399</ele>
        <time>2011-01-03T15:09:09Z</time>
      </trkpt>
      <trkpt lat="46.29311" lon="-0.2268">
        <ele>123.7614</ele>
        <time>2011-01-03T15:09:10Z</time>
      </trkpt>
      <trkpt lat="46.29311" lon="-0.22682">
        <ele>123.7833</ele>
        <time>2011-01-03T15:09:11Z</time>
      </trkpt>
      <trkpt lat="46.29311" lon="-0.22683">
        <ele>123.8019</ele>
        <time>2011-01-03T15:09:12Z</time>
      </trkpt>
      <trkpt lat="46.29312" lon="-0.22684">
        <ele>123.8223</ele>
        <time>2011-01-03T15:09:13Z</time>
      </trkpt>
      <trkpt lat="46.29312" lon="-0.22685">
        <ele>123.8409</ele>
        <time>2011-01-03T15:09:14Z</time>
      </trkpt>
      <trkpt lat="46.29313" lon="-0.22687">
        <ele>123.855</ele>
        <time>2011-01-03T15:09:15Z</time>
      </trkpt>
      <trkpt lat="46.29313" lon="-0.22688">
        <ele>123.8652</ele>
        <time>2011-01-03T15:09:16Z</time>
      </trkpt>
      <trkpt lat="46.29313" lon="-0.2269">
        <ele>123.8676</ele>
        <time>2011-01-03T15:09:17Z</time>
      </trkpt>
      <trkpt lat="46.29313" lon="-0.22691">
        <ele>123.867</ele>
        <time>2011-01-03T15:09:18Z</time>
      </trkpt>
      <trkpt lat="46.29313" lon="-0.22692">
        <ele>123.8622</ele>
        <time>2011-01-03T15:09:19Z</time>
      </trkpt>
      <trkpt lat="46.29313" lon="-0.22694">
        <ele>123.8563</ele>
        <time>2011-01-03T15:09:20Z</time>
      </trkpt>
      <trkpt lat="46.29313" lon="-0.22695">
        <ele>123.8498</ele>
        <time>2011-01-03T15:09:21Z</time>
      </trkpt>
      <trkpt lat="46.29313" lon="-0.22697">
        <ele>123.8441</ele>
        <time>2011-01-03T15:09:22Z</time>
      </trkpt>
      <trkpt lat="46.29313" lon="-0.22699">
        <ele>123.8413</ele>
        <time>2011-01-03T15:09:23Z</time>
      </trkpt>
      <trkpt lat="46.29313" lon="-0.227">
        <ele>123.8386</ele>
        <time>2011-01-03T15:09:24Z</time>
      </trkpt>
      <trkpt lat="46.29313" lon="-0.22702">
        <ele>123.8374</ele>
        <time>2011-01-03T15:09:25Z</time>
      </trkpt>
      <trkpt lat="46.29313" lon="-0.22704">
        <ele>123.836</ele>
        <time>2011-01-03T15:09:26Z</time>
      </trkpt>
      <trkpt lat="46.29313" lon="-0.22705">
        <ele>123.8341</ele>
        <time>2011-01-03T15:09:27Z</time>
      </trkpt>
      <trkpt lat="46.29313" lon="-0.22707">
        <ele>123.8327</ele>
        <time>2011-01-03T15:09:28Z</time>
      </trkpt>
      <trkpt lat="46.29313" lon="-0.22708">
        <ele>123.834</ele>
        <time>2011-01-03T15:09:29Z</time>
      </trkpt>
      <trkpt lat="46.29313" lon="-0.2271">
        <ele>123.8326</ele>
        <time>2011-01-03T15:09:30Z</time>
      </trkpt>
      <trkpt lat="46.29313" lon="-0.22711">
        <ele>123.8292</ele>
        <time>2011-01-03T15:09:31Z</time>
      </trkpt>
      <trkpt lat="46.29313" lon="-0.22713">
        <ele>123.824</ele>
        <time>2011-01-03T15:09:32Z</time>
      </trkpt>
      <trkpt lat="46.29314" lon="-0.22715">
        <ele>123.8176</ele>
        <time>2011-01-03T15:09:33Z</time>
      </trkpt>
      <trkpt lat="46.29314" lon="-0.22716">
        <ele>123.8113</ele>
        <time>2011-01-03T15:09:34Z</time>
      </trkpt>
      <trkpt lat="46.29314" lon="-0.22718">
        <ele>123.8052</ele>
        <time>2011-01-03T15:09:35Z</time>
      </trkpt>
      <trkpt lat="46.29314" lon="-0.22719">
        <ele>123.8038</ele>
        <time>2011-01-03T15:09:36Z</time>
      </trkpt>
      <trkpt lat="46.29315" lon="-0.22721">
        <ele>123.8064</ele>
        <time>2011-01-03T15:09:37Z</time>
      </trkpt>
      <trkpt lat="46.29315" lon="-0.22722">
        <ele>123.796</ele>
        <time>2011-01-03T15:09:38Z</time>
      </trkpt>
      <trkpt lat="46.29315" lon="-0.22724">
        <ele>123.7873</ele>
        <time>2011-01-03T15:09:39Z</time>
      </trkpt>
      <trkpt lat="46.29316" lon="-0.22725">
        <ele>123.7821</ele>
        <time>2011-01-03T15:09:40Z</time>
      </trkpt>
      <trkpt lat="46.29316" lon="-0.22726">
        <ele>123.7741</ele>
        <time>2011-01-03T15:09:41Z</time>
      </trkpt>
      <trkpt lat="46.29317" lon="-0.22727">
        <ele>123.7558</ele>
        <time>2011-01-03T15:09:42Z</time>
      </trkpt>
      <trkpt lat="46.29317" lon="-0.22729">
        <ele>123.726</ele>
        <time>2011-01-03T15:09:43Z</time>
      </trkpt>
      <trkpt lat="46.29317" lon="-0.22731">
        <ele>123.6879</ele>
        <time>2011-01-03T15:09:44Z</time>
      </trkpt>
      <trkpt lat="46.29317" lon="-0.22733">
        <ele>123.6423</ele>
        <time>2011-01-03T15:09:45Z</time>
      </trkpt>
      <trkpt lat="46.29317" lon="-0.22734">
        <ele>123.6023</ele>
        <time>2011-01-03T15:09:46Z</time>
      </trkpt>
      <trkpt lat="46.29318" lon="-0.22736">
        <ele>123.5605</ele>
        <time>2011-01-03T15:09:47Z</time>
      </trkpt>
      <trkpt lat="46.29318" lon="-0.22737">
        <ele>123.5182</ele>
        <time>2011-01-03T15:09:48Z</time>
      </trkpt>
      <trkpt lat="46.29318" lon="-0.22739">
        <ele>123.4764</ele>
        <time>2011-01-03T15:09:49Z</time>
      </trkpt>
      <trkpt lat="46.29318" lon="-0.22741">
        <ele>123.4177</ele>
        <time>2011-01-03T15:09:50Z</time>
      </trkpt>
      <trkpt lat="46.29318" lon="-0.22743">
        <ele>123.3625</ele>
        <time>2011-01-03T15:09:51Z</time>
      </trkpt>
      <trkpt lat="46.29317" lon="-0.22745">
        <ele>123.3105</ele>
        <time>2011-01-03T15:09:52Z</time>
      </trkpt>
      <trkpt lat="46.29317" lon="-0.22747">
        <ele>123.2602</ele>
        <time>2011-01-03T15:09:53Z</time>
      </trkpt>
      <trkpt lat="46.29317" lon="-0.22748">
        <ele>123.2133</ele>
        <time>2011-01-03T15:09:54Z</time>
      </trkpt>
      <trkpt lat="46.29317" lon="-0.2275">
        <ele>123.1656</ele>
        <time>2011-01-03T15:09:55Z</time>
      </trkpt>
      <trkpt lat="46.29317" lon="-0.22752">
        <ele>123.1165</ele>
        <time>2011-01-03T15:09:56Z</time>
      </trkpt>
      <trkpt lat="46.29317" lon="-0.22753">
        <ele>123.0663</ele>
        <time>2011-01-03T15:09:57Z</time>
      </trkpt>
      <trkpt lat="46.29317" lon="-0.22754">
        <ele>123.0176</ele>
        <time>2011-01-03T15:09:58Z</time>
      </trkpt>
      <trkpt lat="46.29317" lon="-0.22756">
        <ele>122.9699</ele>
        <time>2011-01-03T15:09:59Z</time>
      </trkpt>
      <trkpt lat="46.29317" lon="-0.22757">
        <ele>122.9236</ele>
        <time>2011-01-03T15:10:00Z</time>
      </trkpt>
      <trkpt lat="46.29317" lon="-0.22758">
        <ele>122.8732</ele>
        <time>2011-01-03T15:10:01Z</time>
      </trkpt>
      <trkpt lat="46.29318" lon="-0.2276">
        <ele>122.8228</ele>
        <time>2011-01-03T15:10:02Z</time>
      </trkpt>
      <trkpt lat="46.29318" lon="-0.22761">
        <ele>122.7721</ele>
        <time>2011-01-03T15:10:03Z</time>
      </trkpt>
      <trkpt lat="46.29318" lon="-0.22761">
        <ele>122.7236</ele>
        <time>2011-01-03T15:10:04Z</time>
      </trkpt>
      <trkpt lat="46.29318" lon="-0.22762">
        <ele>122.6796</ele>
        <time>2011-01-03T15:10:05Z</time>
      </trkpt>
      <trkpt lat="46.29319" lon="-0.22763">
        <ele>122.6358</ele>
        <time>2011-01-03T15:10:06Z</time>
      </trkpt>
      <trkpt lat="46.29319" lon="-0.22764">
        <ele>122.5944</ele>
        <time>2011-01-03T15:10:07Z</time>
      </trkpt>
      <trkpt lat="46.29319" lon="-0.22765">
        <ele>122.5535</ele>
        <time>2011-01-03T15:10:08Z</time>
      </trkpt>
      <trkpt lat="46.2932" lon="-0.22766">
        <ele>122.5106</ele>
        <time>2011-01-03T15:10:09Z</time>
      </trkpt>
      <trkpt lat="46.2932" lon="-0.22767">
        <ele>122.4654</ele>
        <time>2011-01-03T15:10:10Z</time>
      </trkpt>
      <trkpt lat="46.29321" lon="-0.22767">
        <ele>122.4187</ele>
        <time>2011-01-03T15:10:11Z</time>
      </trkpt>
      <trkpt lat="46.29321" lon="-0.22768">
        <ele>122.3708</ele>
        <time>2011-01-03T15:10:12Z</time>
      </trkpt>
      <trkpt lat="46.29321" lon="-0.22769">
        <ele>122.3216</ele>
        <time>2011-01-03T15:10:13Z</time>
      </trkpt>
      <trkpt lat="46.29322" lon="-0.2277">
        <ele>122.2751</ele>
        <time>2011-01-03T15:10:14Z</time>
      </trkpt>
      <trkpt lat="46.29322" lon="-0.22772">
        <ele>122.2221</ele>
        <time>2011-01-03T15:10:15Z</time>
      </trkpt>
      <trkpt lat="46.29322" lon="-0.22773">
        <ele>122.1687</ele>
        <time>2011-01-03T15:10:16Z</time>
      </trkpt>
      <trkpt lat="46.29322" lon="-0.22775">
        <ele>122.117</ele>
        <time>2011-01-03T15:10:17Z</time>
      </trkpt>
      <trkpt lat="46.29322" lon="-0.22776">
        <ele>122.0599</ele>
        <time>2011-01-03T15:10:18Z</time>
      </trkpt>
      <trkpt lat="46.29322" lon="-0.22777">
        <ele>121.9803</ele>
        <time>2011-01-03T15:10:19Z</time>
      </trkpt>
      <trkpt lat="46.29323" lon="-0.22778">
        <ele>121.9112</ele>
        <time>2011-01-03T15:10:20Z</time>
      </trkpt>
      <trkpt lat="46.29323" lon="-0.22779">
        <ele>121.83</ele>
        <time>2011-01-03T15:10:21Z</time>
      </trkpt>
      <trkpt lat="46.29324" lon="-0.2278">
        <ele>121.7434</ele>
        <time>2011-01-03T15:10:22Z</time>
      </trkpt>
      <trkpt lat="46.29324" lon="-0.22781">
        <ele>121.6519</ele>
        <time>2011-01-03T15:10:23Z</time>
      </trkpt>
      <trkpt lat="46.29324" lon="-0.22783">
        <ele>121.5344</ele>
        <time>2011-01-03T15:10:24Z</time>
      </trkpt>
      <trkpt lat="46.29324" lon="-0.22785">
        <ele>121.4182</ele>
        <time>2011-01-03T15:10:25Z</time>
      </trkpt>
      <trkpt lat="46.29325" lon="-0.22787">
        <ele>121.3215</ele>
        <time>2011-01-03T15:10:26Z</time>
      </trkpt>
      <trkpt lat="46.29326" lon="-0.22789">
        <ele>121.2243</ele>
        <time>2011-01-03T15:10:27Z</time>
      </trkpt>
      <trkpt lat="46.29326" lon="-0.22791">
        <ele>121.1345</ele>
        <time>2011-01-03T15:10:28Z</time>
      </trkpt>
      <trkpt lat="46.29326" lon="-0.22793">
        <ele>121.0459</ele>
        <time>2011-01-03T15:10:29Z</time>
      </trkpt>
      <trkpt lat="46.29326" lon="-0.22795">
        <ele>120.9622</ele>
        <time>2011-01-03T15:10:30Z</time>
      </trkpt>
      <trkpt lat="46.29326" lon="-0.22798">
        <ele>120.8011</ele>
        <time>2011-01-03T15:10:33Z</time>
      </trkpt>
      <trkpt lat="46.29326" lon="-0.228">
        <ele>120.7309</ele>
        <time>2011-01-03T15:10:34Z</time>
      </trkpt>
      <trkpt lat="46.29327" lon="-0.22802">
        <ele>120.6808</ele>
        <time>2011-01-03T15:10:35Z</time>
      </trkpt>
      <trkpt lat="46.29327" lon="-0.22803">
        <ele>120.6459</ele>
        <time>2011-01-03T15:10:36Z</time>
      </trkpt>
      <trkpt lat="46.29327" lon="-0.22805">
        <ele>120.6193</ele>
        <time>2011-01-03T15:10:37Z</time>
      </trkpt>
      <trkpt lat="46.29327" lon="-0.22806">
        <ele>120.5985</ele>
        <time>2011-01-03T15:10:38Z</time>
      </trkpt>
      <trkpt lat="46.29327" lon="-0.22808">
        <ele>120.5797</ele>
        <time>2011-01-03T15:10:39Z</time>
      </trkpt>
      <trkpt lat="46.29327" lon="-0.22809">
        <ele>120.5626</ele>
        <time>2011-01-03T15:10:40Z</time>
      </trkpt>
      <trkpt lat="46.29328" lon="-0.2281">
        <ele>120.5402</ele>
        <time>2011-01-03T15:10:41Z</time>
      </trkpt>
      <trkpt lat="46.29328" lon="-0.22811">
        <ele>120.5196</ele>
        <time>2011-01-03T15:10:42Z</time>
      </trkpt>
      <trkpt lat="46.29329" lon="-0.22818">
        <ele>120.2586</ele>
        <time>2011-01-03T15:10:56Z</time>
      </trkpt>
      <trkpt lat="46.29329" lon="-0.2282">
        <ele>120.1927</ele>
        <time>2011-01-03T15:10:57Z</time>
      </trkpt>
      <trkpt lat="46.29329" lon="-0.22822">
        <ele>120.1277</ele>
        <time>2011-01-03T15:10:58Z</time>
      </trkpt>
      <trkpt lat="46.2933" lon="-0.22824">
        <ele>120.0634</ele>
        <time>2011-01-03T15:10:59Z</time>
      </trkpt>
      <trkpt lat="46.2933" lon="-0.22826">
        <ele>120.0013</ele>
        <time>2011-01-03T15:11:00Z</time>
      </trkpt>
      <trkpt lat="46.29331" lon="-0.22827">
        <ele>119.939</ele>
        <time>2011-01-03T15:11:01Z</time>
      </trkpt>
      <trkpt lat="46.29332" lon="-0.22828">
        <ele>119.8825</ele>
        <time>2011-01-03T15:11:02Z</time>
      </trkpt>
      <trkpt lat="46.29332" lon="-0.2283">
        <ele>119.8327</ele>
        <time>2011-01-03T15:11:03Z</time>
      </trkpt>
      <trkpt lat="46.29333" lon="-0.22831">
        <ele>119.7882</ele>
        <time>2011-01-03T15:11:04Z</time>
      </trkpt>
      <trkpt lat="46.29334" lon="-0.22833">
        <ele>119.7452</ele>
        <time>2011-01-03T15:11:05Z</time>
      </trkpt>
      <trkpt lat="46.29334" lon="-0.22835">
        <ele>119.7038</ele>
        <time>2011-01-03T15:11:06Z</time>
      </trkpt>
      <trkpt lat="46.29334" lon="-0.22837">
        <ele>119.6694</ele>
        <time>2011-01-03T15:11:07Z</time>
      </trkpt>
      <trkpt lat="46.29335" lon="-0.22838">
        <ele>119.6464</ele>
        <time>2011-01-03T15:11:08Z</time>
      </trkpt>
      <trkpt lat="46.29335" lon="-0.22839">
        <ele>119.6247</ele>
        <time>2011-01-03T15:11:09Z</time>
      </trkpt>
      <trkpt lat="46.29335" lon="-0.22841">
        <ele>119.6066</ele>
        <time>2011-01-03T15:11:10Z</time>
      </trkpt>
      <trkpt lat="46.29335" lon="-0.22843">
        <ele>119.5918</ele>
        <time>2011-01-03T15:11:11Z</time>
      </trkpt>
      <trkpt lat="46.29335" lon="-0.22844">
        <ele>119.5822</ele>
        <time>2011-01-03T15:11:12Z</time>
      </trkpt>
      <trkpt lat="46.29335" lon="-0.22846">
        <ele>119.5717</ele>
        <time>2011-01-03T15:11:13Z</time>
      </trkpt>
      <trkpt lat="46.29335" lon="-0.22848">
        <ele>119.5685</ele>
        <time>2011-01-03T15:11:14Z</time>
      </trkpt>
      <trkpt lat="46.29335" lon="-0.22849">
        <ele>119.5593</ele>
        <time>2011-01-03T15:11:15Z</time>
      </trkpt>
      <trkpt lat="46.29335" lon="-0.22851">
        <ele>119.5563</ele>
        <time>2011-01-03T15:11:16Z</time>
      </trkpt>
      <trkpt lat="46.29335" lon="-0.22853">
        <ele>119.5492</ele>
        <time>2011-01-03T15:11:17Z</time>
      </trkpt>
      <trkpt lat="46.29335" lon="-0.22855">
        <ele>119.537</ele>
        <time>2011-01-03T15:11:18Z</time>
      </trkpt>
      <trkpt lat="46.29335" lon="-0.22857">
        <ele>119.5286</ele>
        <time>2011-01-03T15:11:19Z</time>
      </trkpt>
      <trkpt lat="46.29335" lon="-0.22858">
        <ele>119.5247</ele>
        <time>2011-01-03T15:11:20Z</time>
      </trkpt>
      <trkpt lat="46.29335" lon="-0.2286">
        <ele>119.5309</ele>
        <time>2011-01-03T15:11:21Z</time>
      </trkpt>
      <trkpt lat="46.29336" lon="-0.22862">
        <ele>119.5382</ele>
        <time>2011-01-03T15:11:22Z</time>
      </trkpt>
      <trkpt lat="46.29336" lon="-0.22863">
        <ele>119.5538</ele>
        <time>2011-01-03T15:11:23Z</time>
      </trkpt>
      <trkpt lat="46.29337" lon="-0.22865">
        <ele>119.5765</ele>
        <time>2011-01-03T15:11:24Z</time>
      </trkpt>
      <trkpt lat="46.29337" lon="-0.22867">
        <ele>119.5972</ele>
        <time>2011-01-03T15:11:25Z</time>
      </trkpt>
      <trkpt lat="46.29338" lon="-0.22869">
        <ele>119.6241</ele>
        <time>2011-01-03T15:11:26Z</time>
      </trkpt>
      <trkpt lat="46.29338" lon="-0.22871">
        <ele>119.6538</ele>
        <time>2011-01-03T15:11:27Z</time>
      </trkpt>
      <trkpt lat="46.29338" lon="-0.22872">
        <ele>119.6915</ele>
        <time>2011-01-03T15:11:28Z</time>
      </trkpt>
      <trkpt lat="46.29338" lon="-0.22873">
        <ele>119.7324</ele>
        <time>2011-01-03T15:11:29Z</time>
      </trkpt>
      <trkpt lat="46.29338" lon="-0.22873">
        <ele>119.7731</ele>
        <time>2011-01-03T15:11:30Z</time>
      </trkpt>
      <trkpt lat="46.29337" lon="-0.22876">
        <ele>119.8652</ele>
        <time>2011-01-03T15:11:35Z</time>
      </trkpt>
      <trkpt lat="46.29337" lon="-0.22877">
        <ele>119.9073</ele>
        <time>2011-01-03T15:11:36Z</time>
      </trkpt>
      <trkpt lat="46.29337" lon="-0.22878">
        <ele>119.9489</ele>
        <time>2011-01-03T15:11:37Z</time>
      </trkpt>
      <trkpt lat="46.29337" lon="-0.22879">
        <ele>119.9906</ele>
        <time>2011-01-03T15:11:38Z</time>
      </trkpt>
      <trkpt lat="46.29337" lon="-0.2288">
        <ele>120.0307</ele>
        <time>2011-01-03T15:11:39Z</time>
      </trkpt>
      <trkpt lat="46.29337" lon="-0.22882">
        <ele>120.0657</ele>
        <time>2011-01-03T15:11:40Z</time>
      </trkpt>
      <trkpt lat="46.29337" lon="-0.22883">
        <ele>120.0958</ele>
        <time>2011-01-03T15:11:41Z</time>
      </trkpt>
      <trkpt lat="46.29338" lon="-0.22885">
        <ele>120.1263</ele>
        <time>2011-01-03T15:11:42Z</time>
      </trkpt>
      <trkpt lat="46.29338" lon="-0.22886">
        <ele>120.1556</ele>
        <time>2011-01-03T15:11:43Z</time>
      </trkpt>
      <trkpt lat="46.29339" lon="-0.22887">
        <ele>120.1845</ele>
        <time>2011-01-03T15:11:44Z</time>
      </trkpt>
      <trkpt lat="46.29339" lon="-0.22889">
        <ele>120.2142</ele>
        <time>2011-01-03T15:11:45Z</time>
      </trkpt>
      <trkpt lat="46.29339" lon="-0.2289">
        <ele>120.2435</ele>
        <time>2011-01-03T15:11:46Z</time>
      </trkpt>
      <trkpt lat="46.29339" lon="-0.22891">
        <ele>120.2733</ele>
        <time>2011-01-03T15:11:47Z</time>
      </trkpt>
      <trkpt lat="46.2934" lon="-0.22892">
        <ele>120.3009</ele>
        <time>2011-01-03T15:11:48Z</time>
      </trkpt>
      <trkpt lat="46.2934" lon="-0.22894">
        <ele>120.3284</ele>
        <time>2011-01-03T15:11:49Z</time>
      </trkpt>
      <trkpt lat="46.2934" lon="-0.22895">
        <ele>120.3567</ele>
        <time>2011-01-03T15:11:50Z</time>
      </trkpt>
      <trkpt lat="46.2934" lon="-0.22897">
        <ele>120.3831</ele>
        <time>2011-01-03T15:11:51Z</time>
      </trkpt>
      <trkpt lat="46.2934" lon="-0.22898">
        <ele>120.4121</ele>
        <time>2011-01-03T15:11:52Z</time>
      </trkpt>
      <trkpt lat="46.2934" lon="-0.229">
        <ele>120.4416</ele>
        <time>2011-01-03T15:11:53Z</time>
      </trkpt>
      <trkpt lat="46.2934" lon="-0.22902">
        <ele>120.4725</ele>
        <time>2011-01-03T15:11:54Z</time>
      </trkpt>
      <trkpt lat="46.2934" lon="-0.22904">
        <ele>120.5027</ele>
        <time>2011-01-03T15:11:55Z</time>
      </trkpt>
      <trkpt lat="46.29341" lon="-0.22905">
        <ele>120.5357</ele>
        <time>2011-01-03T15:11:56Z</time>
      </trkpt>
      <trkpt lat="46.29342" lon="-0.22907">
        <ele>120.5678</ele>
        <time>2011-01-03T15:11:57Z</time>
      </trkpt>
      <trkpt lat="46.29342" lon="-0.22908">
        <ele>120.5995</ele>
        <time>2011-01-03T15:11:58Z</time>
      </trkpt>
      <trkpt lat="46.29342" lon="-0.2291">
        <ele>120.6306</ele>
        <time>2011-01-03T15:11:59Z</time>
      </trkpt>
      <trkpt lat="46.29343" lon="-0.22911">
        <ele>120.6609</ele>
        <time>2011-01-03T15:12:00Z</time>
      </trkpt>
      <trkpt lat="46.29343" lon="-0.22913">
        <ele>120.6904</ele>
        <time>2011-01-03T15:12:01Z</time>
      </trkpt>
      <trkpt lat="46.29344" lon="-0.22914">
        <ele>120.7186</ele>
        <time>2011-01-03T15:12:02Z</time>
      </trkpt>
      <trkpt lat="46.29344" lon="-0.22915">
        <ele>120.7445</ele>
        <time>2011-01-03T15:12:03Z</time>
      </trkpt>
      <trkpt lat="46.29344" lon="-0.22917">
        <ele>120.7667</ele>
        <time>2011-01-03T15:12:04Z</time>
      </trkpt>
      <trkpt lat="46.29345" lon="-0.22918">
        <ele>120.7883</ele>
        <time>2011-01-03T15:12:05Z</time>
      </trkpt>
      <trkpt lat="46.29345" lon="-0.22919">
        <ele>120.8104</ele>
        <time>2011-01-03T15:12:06Z</time>
      </trkpt>
      <trkpt lat="46.29345" lon="-0.22921">
        <ele>120.8307</ele>
        <time>2011-01-03T15:12:07Z</time>
      </trkpt>
      <trkpt lat="46.29345" lon="-0.22922">
        <ele>120.8513</ele>
        <time>2011-01-03T15:12:08Z</time>
      </trkpt>
      <trkpt lat="46.29345" lon="-0.22924">
        <ele>120.8728</ele>
        <time>2011-01-03T15:12:09Z</time>
      </trkpt>
      <trkpt lat="46.29345" lon="-0.22925">
        <ele>120.8938</ele>
        <time>2011-01-03T15:12:10Z</time>
      </trkpt>
      <trkpt lat="46.29345" lon="-0.22927">
        <ele>120.9121</ele>
        <time>2011-01-03T15:12:11Z</time>
      </trkpt>
      <trkpt lat="46.29346" lon="-0.22928">
        <ele>120.9277</ele>
        <time>2011-01-03T15:12:12Z</time>
      </trkpt>
      <trkpt lat="46.29346" lon="-0.22928">
        <ele>120.941</ele>
        <time>2011-01-03T15:12:13Z</time>
      </trkpt>
      <trkpt lat="46.29346" lon="-0.22929">
        <ele>120.954</ele>
        <time>2011-01-03T15:12:14Z</time>
      </trkpt>
      <trkpt lat="46.29347" lon="-0.22931">
        <ele>120.9595</ele>
        <time>2011-01-03T15:12:15Z</time>
      </trkpt>
      <trkpt lat="46.29347" lon="-0.22932">
        <ele>120.9643</ele>
        <time>2011-01-03T15:12:16Z</time>
      </trkpt>
      <trkpt lat="46.29347" lon="-0.22933">
        <ele>120.9682</ele>
        <time>2011-01-03T15:12:17Z</time>
      </trkpt>
      <trkpt lat="46.29348" lon="-0.22934">
        <ele>120.9734</ele>
        <time>2011-01-03T15:12:18Z</time>
      </trkpt>
      <trkpt lat="46.29347" lon="-0.22936">
        <ele>120.9734</ele>
        <time>2011-01-03T15:12:19Z</time>
      </trkpt>
      <trkpt lat="46.29347" lon="-0.22937">
        <ele>120.9744</ele>
        <time>2011-01-03T15:12:20Z</time>
      </trkpt>
      <trkpt lat="46.29348" lon="-0.22938">
        <ele>120.973</ele>
        <time>2011-01-03T15:12:21Z</time>
      </trkpt>
      <trkpt lat="46.29348" lon="-0.2294">
        <ele>120.9599</ele>
        <time>2011-01-03T15:12:22Z</time>
      </trkpt>
      <trkpt lat="46.29348" lon="-0.22941">
        <ele>120.9399</ele>
        <time>2011-01-03T15:12:23Z</time>
      </trkpt>
      <trkpt lat="46.29348" lon="-0.22943">
        <ele>120.9241</ele>
        <time>2011-01-03T15:12:24Z</time>
      </trkpt>
      <trkpt lat="46.29348" lon="-0.22945">
        <ele>120.8989</ele>
        <time>2011-01-03T15:12:25Z</time>
      </trkpt>
      <trkpt lat="46.29348" lon="-0.22948">
        <ele>120.8632</ele>
        <time>2011-01-03T15:12:26Z</time>
      </trkpt>
      <trkpt lat="46.29347" lon="-0.22951">
        <ele>120.8113</ele>
        <time>2011-01-03T15:12:27Z</time>
      </trkpt>
      <trkpt lat="46.29347" lon="-0.22954">
        <ele>120.7489</ele>
        <time>2011-01-03T15:12:28Z</time>
      </trkpt>
      <trkpt lat="46.29347" lon="-0.22956">
        <ele>120.6878</ele>
        <time>2011-01-03T15:12:29Z</time>
      </trkpt>
      <trkpt lat="46.29347" lon="-0.22957">
        <ele>120.629</ele>
        <time>2011-01-03T15:12:30Z</time>
      </trkpt>
      <trkpt lat="46.29347" lon="-0.22958">
        <ele>120.5762</ele>
        <time>2011-01-03T15:12:31Z</time>
      </trkpt>
      <trkpt lat="46.29347" lon="-0.2296">
        <ele>120.5199</ele>
        <time>2011-01-03T15:12:32Z</time>
      </trkpt>
      <trkpt lat="46.29347" lon="-0.22962">
        <ele>120.4607</ele>
        <time>2011-01-03T15:12:33Z</time>
      </trkpt>
      <trkpt lat="46.29347" lon="-0.22963">
        <ele>120.3999</ele>
        <time>2011-01-03T15:12:34Z</time>
      </trkpt>
      <trkpt lat="46.29348" lon="-0.22964">
        <ele>120.3412</ele>
        <time>2011-01-03T15:12:35Z</time>
      </trkpt>
      <trkpt lat="46.29348" lon="-0.22965">
        <ele>120.2836</ele>
        <time>2011-01-03T15:12:36Z</time>
      </trkpt>
      <trkpt lat="46.29349" lon="-0.22968">
        <ele>120.1499</ele>
        <time>2011-01-03T15:12:43Z</time>
      </trkpt>
      <trkpt lat="46.2935" lon="-0.22969">
        <ele>120.0662</ele>
        <time>2011-01-03T15:12:44Z</time>
      </trkpt>
      <trkpt lat="46.2935" lon="-0.2297">
        <ele>119.9857</ele>
        <time>2011-01-03T15:12:45Z</time>
      </trkpt>
      <trkpt lat="46.29351" lon="-0.22971">
        <ele>119.9044</ele>
        <time>2011-01-03T15:12:46Z</time>
      </trkpt>
      <trkpt lat="46.29351" lon="-0.22971">
        <ele>119.8254</ele>
        <time>2011-01-03T15:12:47Z</time>
      </trkpt>
      <trkpt lat="46.29352" lon="-0.22972">
        <ele>119.7476</ele>
        <time>2011-01-03T15:12:48Z</time>
      </trkpt>
      <trkpt lat="46.29352" lon="-0.22974">
        <ele>119.6751</ele>
        <time>2011-01-03T15:12:49Z</time>
      </trkpt>
      <trkpt lat="46.29352" lon="-0.22974">
        <ele>119.605</ele>
        <time>2011-01-03T15:12:50Z</time>
      </trkpt>
      <trkpt lat="46.29353" lon="-0.22975">
        <ele>119.5345</ele>
        <time>2011-01-03T15:12:51Z</time>
      </trkpt>
      <trkpt lat="46.29353" lon="-0.22976">
        <ele>119.4648</ele>
        <time>2011-01-03T15:12:52Z</time>
      </trkpt>
      <trkpt lat="46.29353" lon="-0.22977">
        <ele>119.4003</ele>
        <time>2011-01-03T15:12:53Z</time>
      </trkpt>
      <trkpt lat="46.29353" lon="-0.22979">
        <ele>119.3508</ele>
        <time>2011-01-03T15:12:54Z</time>
      </trkpt>
      <trkpt lat="46.29353" lon="-0.22981">
        <ele>119.3185</ele>
        <time>2011-01-03T15:12:55Z</time>
      </trkpt>
      <trkpt lat="46.29353" lon="-0.22983">
        <ele>119.2976</ele>
        <time>2011-01-03T15:12:56Z</time>
      </trkpt>
      <trkpt lat="46.29353" lon="-0.22985">
        <ele>119.2527</ele>
        <time>2011-01-03T15:12:57Z</time>
      </trkpt>
      <trkpt lat="46.29353" lon="-0.22986">
        <ele>119.2117</ele>
        <time>2011-01-03T15:12:58Z</time>
      </trkpt>
      <trkpt lat="46.29353" lon="-0.22987">
        <ele>119.1698</ele>
        <time>2011-01-03T15:12:59Z</time>
      </trkpt>
      <trkpt lat="46.29353" lon="-0.22989">
        <ele>119.136</ele>
        <time>2011-01-03T15:13:00Z</time>
      </trkpt>
      <trkpt lat="46.29353" lon="-0.2299">
        <ele>119.1105</ele>
        <time>2011-01-03T15:13:01Z</time>
      </trkpt>
      <trkpt lat="46.29353" lon="-0.22991">
        <ele>119.0793</ele>
        <time>2011-01-03T15:13:02Z</time>
      </trkpt>
      <trkpt lat="46.29353" lon="-0.22993">
        <ele>119.0388</ele>
        <time>2011-01-03T15:13:03Z</time>
      </trkpt>
      <trkpt lat="46.29353" lon="-0.22995">
        <ele>119.0018</ele>
        <time>2011-01-03T15:13:04Z</time>
      </trkpt>
      <trkpt lat="46.29353" lon="-0.22997">
        <ele>118.9664</ele>
        <time>2011-01-03T15:13:05Z</time>
      </trkpt>
      <trkpt lat="46.29353" lon="-0.22998">
        <ele>118.9352</ele>
        <time>2011-01-03T15:13:06Z</time>
      </trkpt>
      <trkpt lat="46.29353" lon="-0.23">
        <ele>118.9182</ele>
        <time>2011-01-03T15:13:07Z</time>
      </trkpt>
      <trkpt lat="46.29353" lon="-0.23002">
        <ele>118.9142</ele>
        <time>2011-01-03T15:13:08Z</time>
      </trkpt>
      <trkpt lat="46.29353" lon="-0.23003">
        <ele>118.9137</ele>
        <time>2011-01-03T15:13:09Z</time>
      </trkpt>
      <trkpt lat="46.29354" lon="-0.23005">
        <ele>118.9167</ele>
        <time>2011-01-03T15:13:10Z</time>
      </trkpt>
      <trkpt lat="46.29354" lon="-0.23006">
        <ele>118.9334</ele>
        <time>2011-01-03T15:13:11Z</time>
      </trkpt>
      <trkpt lat="46.29354" lon="-0.23008">
        <ele>118.9502</ele>
        <time>2011-01-03T15:13:12Z</time>
      </trkpt>
      <trkpt lat="46.29355" lon="-0.23009">
        <ele>118.9732</ele>
        <time>2011-01-03T15:13:13Z</time>
      </trkpt>
      <trkpt lat="46.29355" lon="-0.2301">
        <ele>118.9989</ele>
        <time>2011-01-03T15:13:14Z</time>
      </trkpt>
      <trkpt lat="46.29354" lon="-0.23011">
        <ele>119.0261</ele>
        <time>2011-01-03T15:13:15Z</time>
      </trkpt>
      <trkpt lat="46.29355" lon="-0.23012">
        <ele>119.0562</ele>
        <time>2011-01-03T15:13:16Z</time>
      </trkpt>
      <trkpt lat="46.29355" lon="-0.23013">
        <ele>119.0911</ele>
        <time>2011-01-03T15:13:17Z</time>
      </trkpt>
      <trkpt lat="46.29355" lon="-0.23014">
        <ele>119.1342</ele>
        <time>2011-01-03T15:13:18Z</time>
      </trkpt>
      <trkpt lat="46.29355" lon="-0.23016">
        <ele>119.1906</ele>
        <time>2011-01-03T15:13:19Z</time>
      </trkpt>
      <trkpt lat="46.29356" lon="-0.23018">
        <ele>119.2531</ele>
        <time>2011-01-03T15:13:20Z</time>
      </trkpt>
      <trkpt lat="46.29355" lon="-0.2302">
        <ele>119.3175</ele>
        <time>2011-01-03T15:13:21Z</time>
      </trkpt>
      <trkpt lat="46.29355" lon="-0.23021">
        <ele>119.3792</ele>
        <time>2011-01-03T15:13:22Z</time>
      </trkpt>
      <trkpt lat="46.29355" lon="-0.23023">
        <ele>119.4431</ele>
        <time>2011-01-03T15:13:23Z</time>
      </trkpt>
      <trkpt lat="46.29355" lon="-0.23025">
        <ele>119.5079</ele>
        <time>2011-01-03T15:13:24Z</time>
      </trkpt>
      <trkpt lat="46.29355" lon="-0.23027">
        <ele>119.585</ele>
        <time>2011-01-03T15:13:25Z</time>
      </trkpt>
      <trkpt lat="46.29355" lon="-0.23029">
        <ele>119.6638</ele>
        <time>2011-01-03T15:13:26Z</time>
      </trkpt>
      <trkpt lat="46.29355" lon="-0.2303">
        <ele>119.7419</ele>
        <time>2011-01-03T15:13:27Z</time>
      </trkpt>
      <trkpt lat="46.29356" lon="-0.23032">
        <ele>119.8177</ele>
        <time>2011-01-03T15:13:28Z</time>
      </trkpt>
      <trkpt lat="46.29356" lon="-0.23033">
        <ele>119.8939</ele>
        <time>2011-01-03T15:13:29Z</time>
      </trkpt>
      <trkpt lat="46.29356" lon="-0.23035">
        <ele>119.9673</ele>
        <time>2011-01-03T15:13:30Z</time>
      </trkpt>
      <trkpt lat="46.29356" lon="-0.23036">
        <ele>120.0404</ele>
        <time>2011-01-03T15:13:31Z</time>
      </trkpt>
      <trkpt lat="46.29356" lon="-0.23038">
        <ele>120.11</ele>
        <time>2011-01-03T15:13:32Z</time>
      </trkpt>
      <trkpt lat="46.29356" lon="-0.23039">
        <ele>120.1798</ele>
        <time>2011-01-03T15:13:33Z</time>
      </trkpt>
      <trkpt lat="46.29356" lon="-0.2304">
        <ele>120.2525</ele>
        <time>2011-01-03T15:13:34Z</time>
      </trkpt>
      <trkpt lat="46.29356" lon="-0.23042">
        <ele>120.3266</ele>
        <time>2011-01-03T15:13:35Z</time>
      </trkpt>
      <trkpt lat="46.29357" lon="-0.23043">
        <ele>120.4016</ele>
        <time>2011-01-03T15:13:36Z</time>
      </trkpt>
      <trkpt lat="46.29357" lon="-0.23044">
        <ele>120.4773</ele>
        <time>2011-01-03T15:13:37Z</time>
      </trkpt>
      <trkpt lat="46.29357" lon="-0.23045">
        <ele>120.5487</ele>
        <time>2011-01-03T15:13:38Z</time>
      </trkpt>
      <trkpt lat="46.29357" lon="-0.23046">
        <ele>120.6166</ele>
        <time>2011-01-03T15:13:39Z</time>
      </trkpt>
      <trkpt lat="46.29357" lon="-0.23048">
        <ele>120.6839</ele>
        <time>2011-01-03T15:13:40Z</time>
      </trkpt>
      <trkpt lat="46.29358" lon="-0.23049">
        <ele>120.7502</ele>
        <time>2011-01-03T15:13:41Z</time>
      </trkpt>
      <trkpt lat="46.29358" lon="-0.2305">
        <ele>120.8134</ele>
        <time>2011-01-03T15:13:42Z</time>
      </trkpt>
      <trkpt lat="46.29358" lon="-0.23052">
        <ele>120.8748</ele>
        <time>2011-01-03T15:13:43Z</time>
      </trkpt>
      <trkpt lat="46.29358" lon="-0.23054">
        <ele>120.9337</ele>
        <time>2011-01-03T15:13:44Z</time>
      </trkpt>
      <trkpt lat="46.29359" lon="-0.23056">
        <ele>120.9915</ele>
        <time>2011-01-03T15:13:45Z</time>
      </trkpt>
      <trkpt lat="46.29359" lon="-0.23058">
        <ele>121.0497</ele>
        <time>2011-01-03T15:13:46Z</time>
      </trkpt>
      <trkpt lat="46.29359" lon="-0.2306">
        <ele>121.0966</ele>
        <time>2011-01-03T15:13:47Z</time>
      </trkpt>
      <trkpt lat="46.29359" lon="-0.23062">
        <ele>121.1436</ele>
        <time>2011-01-03T15:13:48Z</time>
      </trkpt>
      <trkpt lat="46.29359" lon="-0.23064">
        <ele>121.1913</ele>
        <time>2011-01-03T15:13:49Z</time>
      </trkpt>
      <trkpt lat="46.29359" lon="-0.23066">
        <ele>121.2372</ele>
        <time>2011-01-03T15:13:50Z</time>
      </trkpt>
      <trkpt lat="46.29359" lon="-0.23068">
        <ele>121.2791</ele>
        <time>2011-01-03T15:13:51Z</time>
      </trkpt>
      <trkpt lat="46.2936" lon="-0.23069">
        <ele>121.3203</ele>
        <time>2011-01-03T15:13:52Z</time>
      </trkpt>
      <trkpt lat="46.2936" lon="-0.23071">
        <ele>121.3608</ele>
        <time>2011-01-03T15:13:53Z</time>
      </trkpt>
      <trkpt lat="46.2936" lon="-0.23073">
        <ele>121.4009</ele>
        <time>2011-01-03T15:13:54Z</time>
      </trkpt>
      <trkpt lat="46.2936" lon="-0.23075">
        <ele>121.4441</ele>
        <time>2011-01-03T15:13:55Z</time>
      </trkpt>
      <trkpt lat="46.2936" lon="-0.23076">
        <ele>121.4868</ele>
        <time>2011-01-03T15:13:56Z</time>
      </trkpt>
      <trkpt lat="46.29359" lon="-0.23078">
        <ele>121.5275</ele>
        <time>2011-01-03T15:13:57Z</time>
      </trkpt>
      <trkpt lat="46.29359" lon="-0.23079">
        <ele>121.5689</ele>
        <time>2011-01-03T15:13:58Z</time>
      </trkpt>
      <trkpt lat="46.29359" lon="-0.23081">
        <ele>121.609</ele>
        <time>2011-01-03T15:13:59Z</time>
      </trkpt>
      <trkpt lat="46.29359" lon="-0.23082">
        <ele>121.652</ele>
        <time>2011-01-03T15:14:00Z</time>
      </trkpt>
      <trkpt lat="46.29359" lon="-0.23083">
        <ele>121.6959</ele>
        <time>2011-01-03T15:14:01Z</time>
      </trkpt>
      <trkpt lat="46.29359" lon="-0.23085">
        <ele>121.743</ele>
        <time>2011-01-03T15:14:02Z</time>
      </trkpt>
      <trkpt lat="46.29359" lon="-0.23086">
        <ele>121.7888</ele>
        <time>2011-01-03T15:14:03Z</time>
      </trkpt>
      <trkpt lat="46.29359" lon="-0.23087">
        <ele>121.8351</ele>
        <time>2011-01-03T15:14:04Z</time>
      </trkpt>
      <trkpt lat="46.2936" lon="-0.23089">
        <ele>121.8814</ele>
        <time>2011-01-03T15:14:05Z</time>
      </trkpt>
      <trkpt lat="46.2936" lon="-0.2309">
        <ele>121.9298</ele>
        <time>2011-01-03T15:14:06Z</time>
      </trkpt>
      <trkpt lat="46.2936" lon="-0.23092">
        <ele>121.9782</ele>
        <time>2011-01-03T15:14:07Z</time>
      </trkpt>
      <trkpt lat="46.29361" lon="-0.23093">
        <ele>122.0275</ele>
        <time>2011-01-03T15:14:08Z</time>
      </trkpt>
      <trkpt lat="46.29361" lon="-0.23094">
        <ele>122.0779</ele>
        <time>2011-01-03T15:14:09Z</time>
      </trkpt>
      <trkpt lat="46.29361" lon="-0.23096">
        <ele>122.1292</ele>
        <time>2011-01-03T15:14:10Z</time>
      </trkpt>
      <trkpt lat="46.29361" lon="-0.23097">
        <ele>122.1811</ele>
        <time>2011-01-03T15:14:11Z</time>
      </trkpt>
      <trkpt lat="46.29361" lon="-0.23098">
        <ele>122.2334</ele>
        <time>2011-01-03T15:14:12Z</time>
      </trkpt>
      <trkpt lat="46.29361" lon="-0.23099">
        <ele>122.2865</ele>
        <time>2011-01-03T15:14:13Z</time>
      </trkpt>
      <trkpt lat="46.29362" lon="-0.231">
        <ele>122.3397</ele>
        <time>2011-01-03T15:14:14Z</time>
      </trkpt>
      <trkpt lat="46.29362" lon="-0.23102">
        <ele>122.3934</ele>
        <time>2011-01-03T15:14:15Z</time>
      </trkpt>
      <trkpt lat="46.29362" lon="-0.23103">
        <ele>122.4463</ele>
        <time>2011-01-03T15:14:16Z</time>
      </trkpt>
      <trkpt lat="46.29362" lon="-0.23104">
        <ele>122.501</ele>
        <time>2011-01-03T15:14:17Z</time>
      </trkpt>
      <trkpt lat="46.29362" lon="-0.23106">
        <ele>122.5549</ele>
        <time>2011-01-03T15:14:18Z</time>
      </trkpt>
      <trkpt lat="46.29362" lon="-0.23107">
        <ele>122.609</ele>
        <time>2011-01-03T15:14:19Z</time>
      </trkpt>
      <trkpt lat="46.29362" lon="-0.23109">
        <ele>122.6646</ele>
        <time>2011-01-03T15:14:20Z</time>
      </trkpt>
      <trkpt lat="46.29363" lon="-0.2311">
        <ele>122.7187</ele>
        <time>2011-01-03T15:14:21Z</time>
      </trkpt>
      <trkpt lat="46.29363" lon="-0.23112">
        <ele>122.7711</ele>
        <time>2011-01-03T15:14:22Z</time>
      </trkpt>
      <trkpt lat="46.29363" lon="-0.23113">
        <ele>122.8227</ele>
        <time>2011-01-03T15:14:23Z</time>
      </trkpt>
      <trkpt lat="46.29363" lon="-0.23115">
        <ele>122.8754</ele>
        <time>2011-01-03T15:14:24Z</time>
      </trkpt>
      <trkpt lat="46.29363" lon="-0.23116">
        <ele>122.9273</ele>
        <time>2011-01-03T15:14:25Z</time>
      </trkpt>
      <trkpt lat="46.29363" lon="-0.23118">
        <ele>122.9718</ele>
        <time>2011-01-03T15:14:26Z</time>
      </trkpt>
      <trkpt lat="46.29363" lon="-0.23119">
        <ele>123.0158</ele>
        <time>2011-01-03T15:14:27Z</time>
      </trkpt>
      <trkpt lat="46.29364" lon="-0.23121">
        <ele>123.0587</ele>
        <time>2011-01-03T15:14:28Z</time>
      </trkpt>
      <trkpt lat="46.29364" lon="-0.23122">
        <ele>123.101</ele>
        <time>2011-01-03T15:14:29Z</time>
      </trkpt>
      <trkpt lat="46.29364" lon="-0.23124">
        <ele>123.1449</ele>
        <time>2011-01-03T15:14:30Z</time>
      </trkpt>
      <trkpt lat="46.29364" lon="-0.23125">
        <ele>123.192</ele>
        <time>2011-01-03T15:14:31Z</time>
      </trkpt>
      <trkpt lat="46.29365" lon="-0.23127">
        <ele>123.2372</ele>
        <time>2011-01-03T15:14:32Z</time>
      </trkpt>
      <trkpt lat="46.29365" lon="-0.23129">
        <ele>123.2802</ele>
        <time>2011-01-03T15:14:33Z</time>
      </trkpt>
      <trkpt lat="46.29365" lon="-0.2313">
        <ele>123.3269</ele>
        <time>2011-01-03T15:14:34Z</time>
      </trkpt>
      <trkpt lat="46.29366" lon="-0.23132">
        <ele>123.3729</ele>
        <time>2011-01-03T15:14:35Z</time>
      </trkpt>
      <trkpt lat="46.29366" lon="-0.23133">
        <ele>123.4187</ele>
        <time>2011-01-03T15:14:36Z</time>
      </trkpt>
      <trkpt lat="46.29366" lon="-0.23134">
        <ele>123.4614</ele>
        <time>2011-01-03T15:14:37Z</time>
      </trkpt>
      <trkpt lat="46.29366" lon="-0.23136">
        <ele>123.5037</ele>
        <time>2011-01-03T15:14:38Z</time>
      </trkpt>
      <trkpt lat="46.29367" lon="-0.23137">
        <ele>123.5463</ele>
        <time>2011-01-03T15:14:39Z</time>
      </trkpt>
      <trkpt lat="46.29367" lon="-0.23138">
        <ele>123.5852</ele>
        <time>2011-01-03T15:14:40Z</time>
      </trkpt>
      <trkpt lat="46.29367" lon="-0.2314">
        <ele>123.6221</ele>
        <time>2011-01-03T15:14:41Z</time>
      </trkpt>
      <trkpt lat="46.29367" lon="-0.23141">
        <ele>123.6539</ele>
        <time>2011-01-03T15:14:42Z</time>
      </trkpt>
      <trkpt lat="46.29367" lon="-0.23142">
        <ele>123.6811</ele>
        <time>2011-01-03T15:14:43Z</time>
      </trkpt>
      <trkpt lat="46.29368" lon="-0.23143">
        <ele>123.7021</ele>
        <time>2011-01-03T15:14:44Z</time>
      </trkpt>
      <trkpt lat="46.29368" lon="-0.23144">
        <ele>123.7193</ele>
        <time>2011-01-03T15:14:45Z</time>
      </trkpt>
      <trkpt lat="46.29369" lon="-0.23145">
        <ele>123.7341</ele>
        <time>2011-01-03T15:14:46Z</time>
      </trkpt>
      <trkpt lat="46.29369" lon="-0.23147">
        <ele>123.7395</ele>
        <time>2011-01-03T15:14:47Z</time>
      </trkpt>
      <trkpt lat="46.29369" lon="-0.23149">
        <ele>123.7343</ele>
        <time>2011-01-03T15:14:48Z</time>
      </trkpt>
      <trkpt lat="46.29369" lon="-0.23151">
        <ele>123.7272</ele>
        <time>2011-01-03T15:14:49Z</time>
      </trkpt>
      <trkpt lat="46.29369" lon="-0.23153">
        <ele>123.7177</ele>
        <time>2011-01-03T15:14:50Z</time>
      </trkpt>
      <trkpt lat="46.29369" lon="-0.23155">
        <ele>123.706</ele>
        <time>2011-01-03T15:14:51Z</time>
      </trkpt>
      <trkpt lat="46.29369" lon="-0.23157">
        <ele>123.6918</ele>
        <time>2011-01-03T15:14:52Z</time>
      </trkpt>
      <trkpt lat="46.29369" lon="-0.23158">
        <ele>123.6759</ele>
        <time>2011-01-03T15:14:53Z</time>
      </trkpt>
      <trkpt lat="46.2937" lon="-0.2316">
        <ele>123.6627</ele>
        <time>2011-01-03T15:14:54Z</time>
      </trkpt>
      <trkpt lat="46.2937" lon="-0.23162">
        <ele>123.6498</ele>
        <time>2011-01-03T15:14:55Z</time>
      </trkpt>
      <trkpt lat="46.29371" lon="-0.23163">
        <ele>123.639</ele>
        <time>2011-01-03T15:14:56Z</time>
      </trkpt>
      <trkpt lat="46.29371" lon="-0.23165">
        <ele>123.6297</ele>
        <time>2011-01-03T15:14:57Z</time>
      </trkpt>
      <trkpt lat="46.29371" lon="-0.23166">
        <ele>123.6222</ele>
        <time>2011-01-03T15:14:58Z</time>
      </trkpt>
      <trkpt lat="46.29372" lon="-0.23167">
        <ele>123.6175</ele>
        <time>2011-01-03T15:14:59Z</time>
      </trkpt>
      <trkpt lat="46.29372" lon="-0.23168">
        <ele>123.6162</ele>
        <time>2011-01-03T15:15:00Z</time>
      </trkpt>
      <trkpt lat="46.29372" lon="-0.2317">
        <ele>123.6183</ele>
        <time>2011-01-03T15:15:01Z</time>
      </trkpt>
      <trkpt lat="46.29372" lon="-0.23171">
        <ele>123.6216</ele>
        <time>2011-01-03T15:15:02Z</time>
      </trkpt>
      <trkpt lat="46.29373" lon="-0.23172">
        <ele>123.6271</ele>
        <time>2011-01-03T15:15:03Z</time>
      </trkpt>
      <trkpt lat="46.29373" lon="-0.23174">
        <ele>123.6311</ele>
        <time>2011-01-03T15:15:04Z</time>
      </trkpt>
      <trkpt lat="46.29374" lon="-0.23175">
        <ele>123.6352</ele>
        <time>2011-01-03T15:15:05Z</time>
      </trkpt>
      <trkpt lat="46.29374" lon="-0.23176">
        <ele>123.6435</ele>
        <time>2011-01-03T15:15:06Z</time>
      </trkpt>
      <trkpt lat="46.29374" lon="-0.23178">
        <ele>123.653</ele>
        <time>2011-01-03T15:15:07Z</time>
      </trkpt>
      <trkpt lat="46.29374" lon="-0.23179">
        <ele>123.6616</ele>
        <time>2011-01-03T15:15:08Z</time>
      </trkpt>
      <trkpt lat="46.29375" lon="-0.2318">
        <ele>123.6694</ele>
        <time>2011-01-03T15:15:09Z</time>
      </trkpt>
      <trkpt lat="46.29375" lon="-0.23182">
        <ele>123.676</ele>
        <time>2011-01-03T15:15:10Z</time>
      </trkpt>
      <trkpt lat="46.29376" lon="-0.23183">
        <ele>123.6816</ele>
        <time>2011-01-03T15:15:11Z</time>
      </trkpt>
      <trkpt lat="46.29376" lon="-0.23184">
        <ele>123.688</ele>
        <time>2011-01-03T15:15:12Z</time>
      </trkpt>
      <trkpt lat="46.29376" lon="-0.23186">
        <ele>123.6924</ele>
        <time>2011-01-03T15:15:13Z</time>
      </trkpt>
      <trkpt lat="46.29376" lon="-0.23187">
        <ele>123.6962</ele>
        <time>2011-01-03T15:15:14Z</time>
      </trkpt>
      <trkpt lat="46.29377" lon="-0.23189">
        <ele>123.7008</ele>
        <time>2011-01-03T15:15:15Z</time>
      </trkpt>
      <trkpt lat="46.29377" lon="-0.23191">
        <ele>123.7055</ele>
        <time>2011-01-03T15:15:16Z</time>
      </trkpt>
      <trkpt lat="46.29377" lon="-0.23193">
        <ele>123.7104</ele>
        <time>2011-01-03T15:15:17Z</time>
      </trkpt>
      <trkpt lat="46.29377" lon="-0.23194">
        <ele>123.7129</ele>
        <time>2011-01-03T15:15:18Z</time>
      </trkpt>
      <trkpt lat="46.29378" lon="-0.23195">
        <ele>123.7192</ele>
        <time>2011-01-03T15:15:19Z</time>
      </trkpt>
      <trkpt lat="46.29379" lon="-0.23197">
        <ele>123.7275</ele>
        <time>2011-01-03T15:15:20Z</time>
      </trkpt>
      <trkpt lat="46.29379" lon="-0.23198">
        <ele>123.7362</ele>
        <time>2011-01-03T15:15:21Z</time>
      </trkpt>
      <trkpt lat="46.2938" lon="-0.232">
        <ele>123.7478</ele>
        <time>2011-01-03T15:15:22Z</time>
      </trkpt>
      <trkpt lat="46.29381" lon="-0.23201">
        <ele>123.7606</ele>
        <time>2011-01-03T15:15:23Z</time>
      </trkpt>
      <trkpt lat="46.29382" lon="-0.23202">
        <ele>123.7725</ele>
        <time>2011-01-03T15:15:24Z</time>
      </trkpt>
      <trkpt lat="46.29382" lon="-0.23204">
        <ele>123.7842</ele>
        <time>2011-01-03T15:15:25Z</time>
      </trkpt>
      <trkpt lat="46.29383" lon="-0.23205">
        <ele>123.7969</ele>
        <time>2011-01-03T15:15:26Z</time>
      </trkpt>
      <trkpt lat="46.29384" lon="-0.23206">
        <ele>123.8113</ele>
        <time>2011-01-03T15:15:27Z</time>
      </trkpt>
      <trkpt lat="46.29384" lon="-0.23208">
        <ele>123.8243</ele>
        <time>2011-01-03T15:15:28Z</time>
      </trkpt>
      <trkpt lat="46.29384" lon="-0.23209">
        <ele>123.8334</ele>
        <time>2011-01-03T15:15:29Z</time>
      </trkpt>
      <trkpt lat="46.29385" lon="-0.23211">
        <ele>123.8417</ele>
        <time>2011-01-03T15:15:30Z</time>
      </trkpt>
      <trkpt lat="46.29385" lon="-0.23213">
        <ele>123.8526</ele>
        <time>2011-01-03T15:15:31Z</time>
      </trkpt>
      <trkpt lat="46.29385" lon="-0.23214">
        <ele>123.8641</ele>
        <time>2011-01-03T15:15:32Z</time>
      </trkpt>
      <trkpt lat="46.29385" lon="-0.23216">
        <ele>123.8689</ele>
        <time>2011-01-03T15:15:33Z</time>
      </trkpt>
      <trkpt lat="46.29386" lon="-0.23217">
        <ele>123.8744</ele>
        <time>2011-01-03T15:15:34Z</time>
      </trkpt>
      <trkpt lat="46.29386" lon="-0.23217">
        <ele>123.8804</ele>
        <time>2011-01-03T15:15:35Z</time>
      </trkpt>
      <trkpt lat="46.29386" lon="-0.23218">
        <ele>123.8849</ele>
        <time>2011-01-03T15:15:37Z</time>
      </trkpt>
      <trkpt lat="46.29386" lon="-0.23219">
        <ele>123.8897</ele>
        <time>2011-01-03T15:15:38Z</time>
      </trkpt>
      <trkpt lat="46.29386" lon="-0.2322">
        <ele>123.8946</ele>
        <time>2011-01-03T15:15:39Z</time>
      </trkpt>
      <trkpt lat="46.29385" lon="-0.23221">
        <ele>123.8995</ele>
        <time>2011-01-03T15:15:40Z</time>
      </trkpt>
      <trkpt lat="46.29385" lon="-0.23223">
        <ele>123.9025</ele>
        <time>2011-01-03T15:15:41Z</time>
      </trkpt>
      <trkpt lat="46.29385" lon="-0.23223">
        <ele>123.9199</ele>
        <time>2011-01-03T15:15:42Z</time>
      </trkpt>
      <trkpt lat="46.29385" lon="-0.23223">
        <ele>123.919</ele>
        <time>2011-01-03T15:15:43Z</time>
      </trkpt>
      <trkpt lat="46.29386" lon="-0.23224">
        <ele>123.9078</ele>
        <time>2011-01-03T15:15:44Z</time>
      </trkpt>
      <trkpt lat="46.29387" lon="-0.23225">
        <ele>123.8943</ele>
        <time>2011-01-03T15:15:45Z</time>
      </trkpt>
      <trkpt lat="46.29388" lon="-0.23226">
        <ele>123.8771</ele>
        <time>2011-01-03T15:15:46Z</time>
      </trkpt>
      <trkpt lat="46.29388" lon="-0.23227">
        <ele>123.8674</ele>
        <time>2011-01-03T15:15:47Z</time>
      </trkpt>
      <trkpt lat="46.29389" lon="-0.23228">
        <ele>123.868</ele>
        <time>2011-01-03T15:15:48Z</time>
      </trkpt>
      <trkpt lat="46.2939" lon="-0.23229">
        <ele>123.8783</ele>
        <time>2011-01-03T15:15:49Z</time>
      </trkpt>
      <trkpt lat="46.2939" lon="-0.23231">
        <ele>123.8868</ele>
        <time>2011-01-03T15:15:50Z</time>
      </trkpt>
      <trkpt lat="46.2939" lon="-0.23233">
        <ele>123.9045</ele>
        <time>2011-01-03T15:15:51Z</time>
      </trkpt>
      <trkpt lat="46.2939" lon="-0.23234">
        <ele>123.9246</ele>
        <time>2011-01-03T15:15:52Z</time>
      </trkpt>
      <trkpt lat="46.2939" lon="-0.23235">
        <ele>123.9435</ele>
        <time>2011-01-03T15:15:53Z</time>
      </trkpt>
      <trkpt lat="46.29391" lon="-0.23237">
        <ele>123.9643</ele>
        <time>2011-01-03T15:15:54Z</time>
      </trkpt>
      <trkpt lat="46.29391" lon="-0.23239">
        <ele>123.986</ele>
        <time>2011-01-03T15:15:55Z</time>
      </trkpt>
      <trkpt lat="46.29392" lon="-0.2324">
        <ele>124.0086</ele>
        <time>2011-01-03T15:15:56Z</time>
      </trkpt>
      <trkpt lat="46.29392" lon="-0.23242">
        <ele>124.0303</ele>
        <time>2011-01-03T15:15:57Z</time>
      </trkpt>
      <trkpt lat="46.29393" lon="-0.23244">
        <ele>124.0517</ele>
        <time>2011-01-03T15:15:58Z</time>
      </trkpt>
      <trkpt lat="46.29393" lon="-0.23245">
        <ele>124.0726</ele>
        <time>2011-01-03T15:15:59Z</time>
      </trkpt>
      <trkpt lat="46.29393" lon="-0.23247">
        <ele>124.0947</ele>
        <time>2011-01-03T15:16:00Z</time>
      </trkpt>
      <trkpt lat="46.29394" lon="-0.23249">
        <ele>124.1164</ele>
        <time>2011-01-03T15:16:01Z</time>
      </trkpt>
      <trkpt lat="46.29395" lon="-0.2325">
        <ele>124.1427</ele>
        <time>2011-01-03T15:16:02Z</time>
      </trkpt>
      <trkpt lat="46.29395" lon="-0.23251">
        <ele>124.1758</ele>
        <time>2011-01-03T15:16:03Z</time>
      </trkpt>
      <trkpt lat="46.29396" lon="-0.23252">
        <ele>124.2145</ele>
        <time>2011-01-03T15:16:04Z</time>
      </trkpt>
      <trkpt lat="46.29396" lon="-0.23253">
        <ele>124.2512</ele>
        <time>2011-01-03T15:16:05Z</time>
      </trkpt>
      <trkpt lat="46.29397" lon="-0.23255">
        <ele>124.2892</ele>
        <time>2011-01-03T15:16:06Z</time>
      </trkpt>
      <trkpt lat="46.29398" lon="-0.23256">
        <ele>124.3316</ele>
        <time>2011-01-03T15:16:07Z</time>
      </trkpt>
      <trkpt lat="46.29398" lon="-0.23257">
        <ele>124.3745</ele>
        <time>2011-01-03T15:16:08Z</time>
      </trkpt>
      <trkpt lat="46.29399" lon="-0.23259">
        <ele>124.4222</ele>
        <time>2011-01-03T15:16:09Z</time>
      </trkpt>
      <trkpt lat="46.294" lon="-0.23261">
        <ele>124.473</ele>
        <time>2011-01-03T15:16:10Z</time>
      </trkpt>
      <trkpt lat="46.294" lon="-0.23263">
        <ele>124.5172</ele>
        <time>2011-01-03T15:16:11Z</time>
      </trkpt>
      <trkpt lat="46.29401" lon="-0.23264">
        <ele>124.5588</ele>
        <time>2011-01-03T15:16:12Z</time>
      </trkpt>
      <trkpt lat="46.29401" lon="-0.23266">
        <ele>124.6002</ele>
        <time>2011-01-03T15:16:13Z</time>
      </trkpt>
      <trkpt lat="46.29402" lon="-0.23268">
        <ele>124.6409</ele>
        <time>2011-01-03T15:16:14Z</time>
      </trkpt>
      <trkpt lat="46.29403" lon="-0.23269">
        <ele>124.6808</ele>
        <time>2011-01-03T15:16:15Z</time>
      </trkpt>
      <trkpt lat="46.29403" lon="-0.23271">
        <ele>124.7156</ele>
        <time>2011-01-03T15:16:16Z</time>
      </trkpt>
      <trkpt lat="46.29404" lon="-0.23273">
        <ele>124.7461</ele>
        <time>2011-01-03T15:16:17Z</time>
      </trkpt>
      <trkpt lat="46.29404" lon="-0.23274">
        <ele>124.7757</ele>
        <time>2011-01-03T15:16:18Z</time>
      </trkpt>
      <trkpt lat="46.29405" lon="-0.23276">
        <ele>124.8067</ele>
        <time>2011-01-03T15:16:19Z</time>
      </trkpt>
      <trkpt lat="46.29406" lon="-0.23277">
        <ele>124.8403</ele>
        <time>2011-01-03T15:16:20Z</time>
      </trkpt>
      <trkpt lat="46.29406" lon="-0.23278">
        <ele>124.878</ele>
        <time>2011-01-03T15:16:21Z</time>
      </trkpt>
      <trkpt lat="46.29407" lon="-0.2328">
        <ele>124.9175</ele>
        <time>2011-01-03T15:16:22Z</time>
      </trkpt>
      <trkpt lat="46.29408" lon="-0.23281">
        <ele>124.9597</ele>
        <time>2011-01-03T15:16:23Z</time>
      </trkpt>
      <trkpt lat="46.29409" lon="-0.23282">
        <ele>125</ele>
        <time>2011-01-03T15:16:24Z</time>
      </trkpt>
      <trkpt lat="46.29409" lon="-0.23282">
        <ele>125.0403</ele>
        <time>2011-01-03T15:16:26Z</time>
      </trkpt>
      <trkpt lat="46.29409" lon="-0.23283">
        <ele>125.0762</ele>
        <time>2011-01-03T15:16:27Z</time>
      </trkpt>
      <trkpt lat="46.2941" lon="-0.23285">
        <ele>125.1114</ele>
        <time>2011-01-03T15:16:28Z</time>
      </trkpt>
      <trkpt lat="46.29411" lon="-0.23286">
        <ele>125.1452</ele>
        <time>2011-01-03T15:16:29Z</time>
      </trkpt>
      <trkpt lat="46.29411" lon="-0.23287">
        <ele>125.1791</ele>
        <time>2011-01-03T15:16:30Z</time>
      </trkpt>
      <trkpt lat="46.29411" lon="-0.23289">
        <ele>125.213</ele>
        <time>2011-01-03T15:16:31Z</time>
      </trkpt>
      <trkpt lat="46.29411" lon="-0.2329">
        <ele>125.2475</ele>
        <time>2011-01-03T15:16:32Z</time>
      </trkpt>
      <trkpt lat="46.29411" lon="-0.23291">
        <ele>125.2819</ele>
        <time>2011-01-03T15:16:33Z</time>
      </trkpt>
      <trkpt lat="46.29412" lon="-0.23293">
        <ele>125.3148</ele>
        <time>2011-01-03T15:16:34Z</time>
      </trkpt>
      <trkpt lat="46.29412" lon="-0.23295">
        <ele>125.343</ele>
        <time>2011-01-03T15:16:35Z</time>
      </trkpt>
      <trkpt lat="46.29412" lon="-0.23297">
        <ele>125.3708</ele>
        <time>2011-01-03T15:16:36Z</time>
      </trkpt>
      <trkpt lat="46.29413" lon="-0.23298">
        <ele>125.3981</ele>
        <time>2011-01-03T15:16:37Z</time>
      </trkpt>
      <trkpt lat="46.29413" lon="-0.23299">
        <ele>125.4253</ele>
        <time>2011-01-03T15:16:38Z</time>
      </trkpt>
      <trkpt lat="46.29413" lon="-0.23301">
        <ele>125.4505</ele>
        <time>2011-01-03T15:16:39Z</time>
      </trkpt>
      <trkpt lat="46.29413" lon="-0.23302">
        <ele>125.4754</ele>
        <time>2011-01-03T15:16:40Z</time>
      </trkpt>
      <trkpt lat="46.29413" lon="-0.23304">
        <ele>125.4995</ele>
        <time>2011-01-03T15:16:41Z</time>
      </trkpt>
      <trkpt lat="46.29414" lon="-0.23305">
        <ele>125.5232</ele>
        <time>2011-01-03T15:16:42Z</time>
      </trkpt>
      <trkpt lat="46.29414" lon="-0.23307">
        <ele>125.5487</ele>
        <time>2011-01-03T15:16:43Z</time>
      </trkpt>
      <trkpt lat="46.29414" lon="-0.23308">
        <ele>125.5777</ele>
        <time>2011-01-03T15:16:44Z</time>
      </trkpt>
      <trkpt lat="46.29414" lon="-0.23309">
        <ele>125.6065</ele>
        <time>2011-01-03T15:16:45Z</time>
      </trkpt>
      <trkpt lat="46.29414" lon="-0.2331">
        <ele>125.6351</ele>
        <time>2011-01-03T15:16:46Z</time>
      </trkpt>
      <trkpt lat="46.29415" lon="-0.23312">
        <ele>125.6633</ele>
        <time>2011-01-03T15:16:47Z</time>
      </trkpt>
      <trkpt lat="46.29415" lon="-0.23313">
        <ele>125.6877</ele>
        <time>2011-01-03T15:16:48Z</time>
      </trkpt>
      <trkpt lat="46.29415" lon="-0.23315">
        <ele>125.7109</ele>
        <time>2011-01-03T15:16:49Z</time>
      </trkpt>
      <trkpt lat="46.29415" lon="-0.23316">
        <ele>125.7277</ele>
        <time>2011-01-03T15:16:50Z</time>
      </trkpt>
      <trkpt lat="46.29416" lon="-0.23318">
        <ele>125.7422</ele>
        <time>2011-01-03T15:16:51Z</time>
      </trkpt>
      <trkpt lat="46.29416" lon="-0.2332">
        <ele>125.7554</ele>
        <time>2011-01-03T15:16:52Z</time>
      </trkpt>
      <trkpt lat="46.29417" lon="-0.23322">
        <ele>125.768</ele>
        <time>2011-01-03T15:16:53Z</time>
      </trkpt>
      <trkpt lat="46.29417" lon="-0.23323">
        <ele>125.7807</ele>
        <time>2011-01-03T15:16:54Z</time>
      </trkpt>
      <trkpt lat="46.29417" lon="-0.23325">
        <ele>125.7943</ele>
        <time>2011-01-03T15:16:55Z</time>
      </trkpt>
      <trkpt lat="46.29417" lon="-0.23326">
        <ele>125.8092</ele>
        <time>2011-01-03T15:16:56Z</time>
      </trkpt>
      <trkpt lat="46.29418" lon="-0.23328">
        <ele>125.824</ele>
        <time>2011-01-03T15:16:57Z</time>
      </trkpt>
      <trkpt lat="46.29418" lon="-0.23329">
        <ele>125.8332</ele>
        <time>2011-01-03T15:16:58Z</time>
      </trkpt>
      <trkpt lat="46.29418" lon="-0.23331">
        <ele>125.8402</ele>
        <time>2011-01-03T15:16:59Z</time>
      </trkpt>
      <trkpt lat="46.29418" lon="-0.23332">
        <ele>125.8439</ele>
        <time>2011-01-03T15:17:00Z</time>
      </trkpt>
      <trkpt lat="46.29419" lon="-0.23334">
        <ele>125.849</ele>
        <time>2011-01-03T15:17:01Z</time>
      </trkpt>
      <trkpt lat="46.29419" lon="-0.23336">
        <ele>125.8517</ele>
        <time>2011-01-03T15:17:02Z</time>
      </trkpt>
      <trkpt lat="46.29419" lon="-0.23337">
        <ele>125.8543</ele>
        <time>2011-01-03T15:17:03Z</time>
      </trkpt>
      <trkpt lat="46.29419" lon="-0.23338">
        <ele>125.858</ele>
        <time>2011-01-03T15:17:04Z</time>
      </trkpt>
      <trkpt lat="46.29419" lon="-0.2334">
        <ele>125.8616</ele>
        <time>2011-01-03T15:17:05Z</time>
      </trkpt>
      <trkpt lat="46.29419" lon="-0.23341">
        <ele>125.8666</ele>
        <time>2011-01-03T15:17:06Z</time>
      </trkpt>
      <trkpt lat="46.2942" lon="-0.23343">
        <ele>125.8706</ele>
        <time>2011-01-03T15:17:07Z</time>
      </trkpt>
      <trkpt lat="46.29421" lon="-0.23345">
        <ele>125.8706</ele>
        <time>2011-01-03T15:17:08Z</time>
      </trkpt>
      <trkpt lat="46.29421" lon="-0.23346">
        <ele>125.8692</ele>
        <time>2011-01-03T15:17:09Z</time>
      </trkpt>
      <trkpt lat="46.29422" lon="-0.23347">
        <ele>125.8663</ele>
        <time>2011-01-03T15:17:10Z</time>
      </trkpt>
      <trkpt lat="46.29423" lon="-0.23348">
        <ele>125.8609</ele>
        <time>2011-01-03T15:17:11Z</time>
      </trkpt>
      <trkpt lat="46.29424" lon="-0.23349">
        <ele>125.8546</ele>
        <time>2011-01-03T15:17:12Z</time>
      </trkpt>
      <trkpt lat="46.29425" lon="-0.2335">
        <ele>125.8467</ele>
        <time>2011-01-03T15:17:13Z</time>
      </trkpt>
      <trkpt lat="46.29425" lon="-0.23351">
        <ele>125.8376</ele>
        <time>2011-01-03T15:17:14Z</time>
      </trkpt>
      <trkpt lat="46.29426" lon="-0.23352">
        <ele>125.825</ele>
        <time>2011-01-03T15:17:15Z</time>
      </trkpt>
      <trkpt lat="46.29427" lon="-0.23353">
        <ele>125.8116</ele>
        <time>2011-01-03T15:17:16Z</time>
      </trkpt>
      <trkpt lat="46.29428" lon="-0.23354">
        <ele>125.7985</ele>
        <time>2011-01-03T15:17:17Z</time>
      </trkpt>
      <trkpt lat="46.29429" lon="-0.23355">
        <ele>125.7855</ele>
        <time>2011-01-03T15:17:18Z</time>
      </trkpt>
      <trkpt lat="46.29429" lon="-0.23355">
        <ele>125.7716</ele>
        <time>2011-01-03T15:17:19Z</time>
      </trkpt>
      <trkpt lat="46.2943" lon="-0.23356">
        <ele>125.7576</ele>
        <time>2011-01-03T15:17:20Z</time>
      </trkpt>
      <trkpt lat="46.29431" lon="-0.23357">
        <ele>125.739</ele>
        <time>2011-01-03T15:17:21Z</time>
      </trkpt>
      <trkpt lat="46.29432" lon="-0.23358">
        <ele>125.7173</ele>
        <time>2011-01-03T15:17:22Z</time>
      </trkpt>
      <trkpt lat="46.29433" lon="-0.23359">
        <ele>125.6967</ele>
        <time>2011-01-03T15:17:23Z</time>
      </trkpt>
      <trkpt lat="46.29434" lon="-0.2336">
        <ele>125.6757</ele>
        <time>2011-01-03T15:17:24Z</time>
      </trkpt>
      <trkpt lat="46.29435" lon="-0.23361">
        <ele>125.6552</ele>
        <time>2011-01-03T15:17:25Z</time>
      </trkpt>
      <trkpt lat="46.29435" lon="-0.23362">
        <ele>125.6356</ele>
        <time>2011-01-03T15:17:26Z</time>
      </trkpt>
      <trkpt lat="46.29436" lon="-0.23362">
        <ele>125.6144</ele>
        <time>2011-01-03T15:17:27Z</time>
      </trkpt>
      <trkpt lat="46.29437" lon="-0.23362">
        <ele>125.5923</ele>
        <time>2011-01-03T15:17:28Z</time>
      </trkpt>
      <trkpt lat="46.29438" lon="-0.23363">
        <ele>125.5719</ele>
        <time>2011-01-03T15:17:29Z</time>
      </trkpt>
      <trkpt lat="46.29439" lon="-0.23363">
        <ele>125.5508</ele>
        <time>2011-01-03T15:17:30Z</time>
      </trkpt>
      <trkpt lat="46.2944" lon="-0.23364">
        <ele>125.5288</ele>
        <time>2011-01-03T15:17:31Z</time>
      </trkpt>
      <trkpt lat="46.29441" lon="-0.23364">
        <ele>125.5069</ele>
        <time>2011-01-03T15:17:32Z</time>
      </trkpt>
      <trkpt lat="46.29442" lon="-0.23365">
        <ele>125.4853</ele>
        <time>2011-01-03T15:17:33Z</time>
      </trkpt>
      <trkpt lat="46.29443" lon="-0.23366">
        <ele>125.4616</ele>
        <time>2011-01-03T15:17:34Z</time>
      </trkpt>
      <trkpt lat="46.29443" lon="-0.23367">
        <ele>125.4337</ele>
        <time>2011-01-03T15:17:35Z</time>
      </trkpt>
      <trkpt lat="46.29444" lon="-0.23369">
        <ele>125.395</ele>
        <time>2011-01-03T15:17:36Z</time>
      </trkpt>
      <trkpt lat="46.29445" lon="-0.2337">
        <ele>125.3547</ele>
        <time>2011-01-03T15:17:37Z</time>
      </trkpt>
      <trkpt lat="46.29445" lon="-0.23371">
        <ele>125.3139</ele>
        <time>2011-01-03T15:17:38Z</time>
      </trkpt>
      <trkpt lat="46.29446" lon="-0.23373">
        <ele>125.27</ele>
        <time>2011-01-03T15:17:39Z</time>
      </trkpt>
      <trkpt lat="46.29446" lon="-0.23374">
        <ele>125.2169</ele>
        <time>2011-01-03T15:17:40Z</time>
      </trkpt>
      <trkpt lat="46.29446" lon="-0.23375">
        <ele>125.1654</ele>
        <time>2011-01-03T15:17:41Z</time>
      </trkpt>
      <trkpt lat="46.29446" lon="-0.23376">
        <ele>125.1108</ele>
        <time>2011-01-03T15:17:42Z</time>
      </trkpt>
      <trkpt lat="46.29447" lon="-0.23378">
        <ele>125.0572</ele>
        <time>2011-01-03T15:17:43Z</time>
      </trkpt>
      <trkpt lat="46.29447" lon="-0.23379">
        <ele>125.0046</ele>
        <time>2011-01-03T15:17:44Z</time>
      </trkpt>
      <trkpt lat="46.29448" lon="-0.23381">
        <ele>124.9478</ele>
        <time>2011-01-03T15:17:45Z</time>
      </trkpt>
      <trkpt lat="46.29448" lon="-0.23383">
        <ele>124.8825</ele>
        <time>2011-01-03T15:17:46Z</time>
      </trkpt>
      <trkpt lat="46.29448" lon="-0.23385">
        <ele>124.8094</ele>
        <time>2011-01-03T15:17:47Z</time>
      </trkpt>
      <trkpt lat="46.29448" lon="-0.23387">
        <ele>124.7369</ele>
        <time>2011-01-03T15:17:48Z</time>
      </trkpt>
      <trkpt lat="46.29448" lon="-0.23389">
        <ele>124.6655</ele>
        <time>2011-01-03T15:17:49Z</time>
      </trkpt>
      <trkpt lat="46.29448" lon="-0.23391">
        <ele>124.5988</ele>
        <time>2011-01-03T15:17:50Z</time>
      </trkpt>
      <trkpt lat="46.29448" lon="-0.23392">
        <ele>124.5343</ele>
        <time>2011-01-03T15:17:51Z</time>
      </trkpt>
      <trkpt lat="46.29448" lon="-0.23394">
        <ele>124.47</ele>
        <time>2011-01-03T15:17:52Z</time>
      </trkpt>
      <trkpt lat="46.29448" lon="-0.23396">
        <ele>124.4116</ele>
        <time>2011-01-03T15:17:53Z</time>
      </trkpt>
      <trkpt lat="46.29448" lon="-0.23397">
        <ele>124.3591</ele>
        <time>2011-01-03T15:17:54Z</time>
      </trkpt>
      <trkpt lat="46.29448" lon="-0.23399">
        <ele>124.3058</ele>
        <time>2011-01-03T15:17:55Z</time>
      </trkpt>
      <trkpt lat="46.29448" lon="-0.234">
        <ele>124.2578</ele>
        <time>2011-01-03T15:17:56Z</time>
      </trkpt>
      <trkpt lat="46.29448" lon="-0.23401">
        <ele>124.2079</ele>
        <time>2011-01-03T15:17:57Z</time>
      </trkpt>
      <trkpt lat="46.29448" lon="-0.23403">
        <ele>124.1593</ele>
        <time>2011-01-03T15:17:58Z</time>
      </trkpt>
      <trkpt lat="46.29448" lon="-0.23404">
        <ele>124.1072</ele>
        <time>2011-01-03T15:17:59Z</time>
      </trkpt>
      <trkpt lat="46.29447" lon="-0.23405">
        <ele>124.0555</ele>
        <time>2011-01-03T15:18:00Z</time>
      </trkpt>
      <trkpt lat="46.29447" lon="-0.23401">
        <ele>123.8872</ele>
        <time>2011-01-03T15:18:06Z</time>
      </trkpt>
      <trkpt lat="46.29447" lon="-0.23401">
        <ele>123.8173</ele>
        <time>2011-01-03T15:18:07Z</time>
      </trkpt>
      <trkpt lat="46.29447" lon="-0.23402">
        <ele>123.7511</ele>
        <time>2011-01-03T15:18:08Z</time>
      </trkpt>
      <trkpt lat="46.29446" lon="-0.23404">
        <ele>123.6909</ele>
        <time>2011-01-03T15:18:09Z</time>
      </trkpt>
      <trkpt lat="46.29446" lon="-0.23405">
        <ele>123.6365</ele>
        <time>2011-01-03T15:18:10Z</time>
      </trkpt>
      <trkpt lat="46.29446" lon="-0.23407">
        <ele>123.5856</ele>
        <time>2011-01-03T15:18:11Z</time>
      </trkpt>
      <trkpt lat="46.29445" lon="-0.23409">
        <ele>123.5356</ele>
        <time>2011-01-03T15:18:12Z</time>
      </trkpt>
      <trkpt lat="46.29445" lon="-0.2341">
        <ele>123.4874</ele>
        <time>2011-01-03T15:18:13Z</time>
      </trkpt>
      <trkpt lat="46.29445" lon="-0.23412">
        <ele>123.4444</ele>
        <time>2011-01-03T15:18:14Z</time>
      </trkpt>
      <trkpt lat="46.29445" lon="-0.23414">
        <ele>123.4055</ele>
        <time>2011-01-03T15:18:15Z</time>
      </trkpt>
      <trkpt lat="46.29444" lon="-0.23416">
        <ele>123.3709</ele>
        <time>2011-01-03T15:18:16Z</time>
      </trkpt>
      <trkpt lat="46.29444" lon="-0.23419">
        <ele>123.3406</ele>
        <time>2011-01-03T15:18:17Z</time>
      </trkpt>
      <trkpt lat="46.29444" lon="-0.23421">
        <ele>123.3127</ele>
        <time>2011-01-03T15:18:18Z</time>
      </trkpt>
      <trkpt lat="46.29443" lon="-0.23423">
        <ele>123.2889</ele>
        <time>2011-01-03T15:18:19Z</time>
      </trkpt>
      <trkpt lat="46.29443" lon="-0.23425">
        <ele>123.2693</ele>
        <time>2011-01-03T15:18:20Z</time>
      </trkpt>
      <trkpt lat="46.29443" lon="-0.23427">
        <ele>123.2522</ele>
        <time>2011-01-03T15:18:21Z</time>
      </trkpt>
      <trkpt lat="46.29442" lon="-0.23428">
        <ele>123.2367</ele>
        <time>2011-01-03T15:18:22Z</time>
      </trkpt>
      <trkpt lat="46.29442" lon="-0.2343">
        <ele>123.2256</ele>
        <time>2011-01-03T15:18:23Z</time>
      </trkpt>
      <trkpt lat="46.29442" lon="-0.23431">
        <ele>123.2171</ele>
        <time>2011-01-03T15:18:24Z</time>
      </trkpt>
      <trkpt lat="46.29442" lon="-0.23432">
        <ele>123.2118</ele>
        <time>2011-01-03T15:18:25Z</time>
      </trkpt>
      <trkpt lat="46.29441" lon="-0.23433">
        <ele>123.209</ele>
        <time>2011-01-03T15:18:26Z</time>
      </trkpt>
      <trkpt lat="46.29441" lon="-0.23434">
        <ele>123.2062</ele>
        <time>2011-01-03T15:18:27Z</time>
      </trkpt>
      <trkpt lat="46.2944" lon="-0.23435">
        <ele>123.2048</ele>
        <time>2011-01-03T15:18:28Z</time>
      </trkpt>
      <trkpt lat="46.2944" lon="-0.23437">
        <ele>123.2056</ele>
        <time>2011-01-03T15:18:29Z</time>
      </trkpt>
      <trkpt lat="46.2944" lon="-0.23438">
        <ele>123.2097</ele>
        <time>2011-01-03T15:18:30Z</time>
      </trkpt>
      <trkpt lat="46.2944" lon="-0.2344">
        <ele>123.2157</ele>
        <time>2011-01-03T15:18:31Z</time>
      </trkpt>
      <trkpt lat="46.2944" lon="-0.23441">
        <ele>123.2232</ele>
        <time>2011-01-03T15:18:32Z</time>
      </trkpt>
      <trkpt lat="46.2944" lon="-0.23442">
        <ele>123.2326</ele>
        <time>2011-01-03T15:18:33Z</time>
      </trkpt>
      <trkpt lat="46.29439" lon="-0.23444">
        <ele>123.2444</ele>
        <time>2011-01-03T15:18:34Z</time>
      </trkpt>
      <trkpt lat="46.29439" lon="-0.23445">
        <ele>123.2572</ele>
        <time>2011-01-03T15:18:35Z</time>
      </trkpt>
      <trkpt lat="46.29438" lon="-0.23447">
        <ele>123.2715</ele>
        <time>2011-01-03T15:18:36Z</time>
      </trkpt>
      <trkpt lat="46.29438" lon="-0.23448">
        <ele>123.2874</ele>
        <time>2011-01-03T15:18:37Z</time>
      </trkpt>
      <trkpt lat="46.29438" lon="-0.23449">
        <ele>123.3054</ele>
        <time>2011-01-03T15:18:38Z</time>
      </trkpt>
      <trkpt lat="46.29438" lon="-0.23451">
        <ele>123.3255</ele>
        <time>2011-01-03T15:18:39Z</time>
      </trkpt>
      <trkpt lat="46.29437" lon="-0.23452">
        <ele>123.3462</ele>
        <time>2011-01-03T15:18:40Z</time>
      </trkpt>
      <trkpt lat="46.29437" lon="-0.23453">
        <ele>123.3673</ele>
        <time>2011-01-03T15:18:41Z</time>
      </trkpt>
      <trkpt lat="46.29436" lon="-0.23455">
        <ele>123.39</ele>
        <time>2011-01-03T15:18:42Z</time>
      </trkpt>
      <trkpt lat="46.29436" lon="-0.23457">
        <ele>123.4133</ele>
        <time>2011-01-03T15:18:43Z</time>
      </trkpt>
      <trkpt lat="46.29436" lon="-0.23458">
        <ele>123.4371</ele>
        <time>2011-01-03T15:18:44Z</time>
      </trkpt>
      <trkpt lat="46.29435" lon="-0.2346">
        <ele>123.4593</ele>
        <time>2011-01-03T15:18:45Z</time>
      </trkpt>
      <trkpt lat="46.29435" lon="-0.23461">
        <ele>123.4747</ele>
        <time>2011-01-03T15:18:46Z</time>
      </trkpt>
      <trkpt lat="46.29435" lon="-0.23463">
        <ele>123.4886</ele>
        <time>2011-01-03T15:18:47Z</time>
      </trkpt>
      <trkpt lat="46.29434" lon="-0.23464">
        <ele>123.5042</ele>
        <time>2011-01-03T15:18:48Z</time>
      </trkpt>
      <trkpt lat="46.29434" lon="-0.23465">
        <ele>123.5181</ele>
        <time>2011-01-03T15:18:49Z</time>
      </trkpt>
      <trkpt lat="46.29433" lon="-0.23466">
        <ele>123.5327</ele>
        <time>2011-01-03T15:18:50Z</time>
      </trkpt>
      <trkpt lat="46.29433" lon="-0.23466">
        <ele>123.5462</ele>
        <time>2011-01-03T15:18:51Z</time>
      </trkpt>
      <trkpt lat="46.29433" lon="-0.23468">
        <ele>123.5591</ele>
        <time>2011-01-03T15:18:52Z</time>
      </trkpt>
      <trkpt lat="46.29432" lon="-0.23469">
        <ele>123.5731</ele>
        <time>2011-01-03T15:18:53Z</time>
      </trkpt>
      <trkpt lat="46.29432" lon="-0.2347">
        <ele>123.5885</ele>
        <time>2011-01-03T15:18:54Z</time>
      </trkpt>
      <trkpt lat="46.29432" lon="-0.23471">
        <ele>123.606</ele>
        <time>2011-01-03T15:18:55Z</time>
      </trkpt>
      <trkpt lat="46.29431" lon="-0.23472">
        <ele>123.6202</ele>
        <time>2011-01-03T15:18:56Z</time>
      </trkpt>
      <trkpt lat="46.2943" lon="-0.23473">
        <ele>123.6338</ele>
        <time>2011-01-03T15:18:57Z</time>
      </trkpt>
      <trkpt lat="46.2943" lon="-0.23475">
        <ele>123.6459</ele>
        <time>2011-01-03T15:18:58Z</time>
      </trkpt>
      <trkpt lat="46.2943" lon="-0.23476">
        <ele>123.6562</ele>
        <time>2011-01-03T15:18:59Z</time>
      </trkpt>
      <trkpt lat="46.29429" lon="-0.23478">
        <ele>123.6665</ele>
        <time>2011-01-03T15:19:00Z</time>
      </trkpt>
      <trkpt lat="46.29429" lon="-0.23479">
        <ele>123.6749</ele>
        <time>2011-01-03T15:19:01Z</time>
      </trkpt>
      <trkpt lat="46.29429" lon="-0.23481">
        <ele>123.6825</ele>
        <time>2011-01-03T15:19:02Z</time>
      </trkpt>
      <trkpt lat="46.29429" lon="-0.23482">
        <ele>123.691</ele>
        <time>2011-01-03T15:19:03Z</time>
      </trkpt>
      <trkpt lat="46.29428" lon="-0.23483">
        <ele>123.7</ele>
        <time>2011-01-03T15:19:04Z</time>
      </trkpt>
      <trkpt lat="46.29428" lon="-0.23485">
        <ele>123.7101</ele>
        <time>2011-01-03T15:19:05Z</time>
      </trkpt>
      <trkpt lat="46.29428" lon="-0.23486">
        <ele>123.7201</ele>
        <time>2011-01-03T15:19:06Z</time>
      </trkpt>
      <trkpt lat="46.29427" lon="-0.23487">
        <ele>123.7305</ele>
        <time>2011-01-03T15:19:07Z</time>
      </trkpt>
      <trkpt lat="46.29427" lon="-0.23489">
        <ele>123.7362</ele>
        <time>2011-01-03T15:19:08Z</time>
      </trkpt>
      <trkpt lat="46.29427" lon="-0.2349">
        <ele>123.7415</ele>
        <time>2011-01-03T15:19:09Z</time>
      </trkpt>
      <trkpt lat="46.29427" lon="-0.23492">
        <ele>123.7462</ele>
        <time>2011-01-03T15:19:10Z</time>
      </trkpt>
      <trkpt lat="46.29426" lon="-0.23493">
        <ele>123.7484</ele>
        <time>2011-01-03T15:19:11Z</time>
      </trkpt>
      <trkpt lat="46.29426" lon="-0.23494">
        <ele>123.7493</ele>
        <time>2011-01-03T15:19:12Z</time>
      </trkpt>
      <trkpt lat="46.29426" lon="-0.23496">
        <ele>123.7472</ele>
        <time>2011-01-03T15:19:13Z</time>
      </trkpt>
      <trkpt lat="46.29425" lon="-0.23497">
        <ele>123.7453</ele>
        <time>2011-01-03T15:19:14Z</time>
      </trkpt>
      <trkpt lat="46.29425" lon="-0.23498">
        <ele>123.7451</ele>
        <time>2011-01-03T15:19:15Z</time>
      </trkpt>
      <trkpt lat="46.29425" lon="-0.23499">
        <ele>123.7448</ele>
        <time>2011-01-03T15:19:16Z</time>
      </trkpt>
      <trkpt lat="46.29425" lon="-0.23501">
        <ele>123.743</ele>
        <time>2011-01-03T15:19:17Z</time>
      </trkpt>
      <trkpt lat="46.29424" lon="-0.23502">
        <ele>123.7409</ele>
        <time>2011-01-03T15:19:18Z</time>
      </trkpt>
      <trkpt lat="46.29424" lon="-0.23503">
        <ele>123.7376</ele>
        <time>2011-01-03T15:19:19Z</time>
      </trkpt>
      <trkpt lat="46.29424" lon="-0.23504">
        <ele>123.7356</ele>
        <time>2011-01-03T15:19:20Z</time>
      </trkpt>
      <trkpt lat="46.29424" lon="-0.23506">
        <ele>123.7341</ele>
        <time>2011-01-03T15:19:21Z</time>
      </trkpt>
      <trkpt lat="46.29424" lon="-0.23507">
        <ele>123.731</ele>
        <time>2011-01-03T15:19:22Z</time>
      </trkpt>
      <trkpt lat="46.29424" lon="-0.23509">
        <ele>123.7253</ele>
        <time>2011-01-03T15:19:23Z</time>
      </trkpt>
      <trkpt lat="46.29424" lon="-0.2351">
        <ele>123.7202</ele>
        <time>2011-01-03T15:19:24Z</time>
      </trkpt>
      <trkpt lat="46.29424" lon="-0.23511">
        <ele>123.7195</ele>
        <time>2011-01-03T15:19:25Z</time>
      </trkpt>
      <trkpt lat="46.29423" lon="-0.23513">
        <ele>123.7209</ele>
        <time>2011-01-03T15:19:26Z</time>
      </trkpt>
      <trkpt lat="46.29423" lon="-0.23514">
        <ele>123.7216</ele>
        <time>2011-01-03T15:19:27Z</time>
      </trkpt>
      <trkpt lat="46.29422" lon="-0.23515">
        <ele>123.7281</ele>
        <time>2011-01-03T15:19:28Z</time>
      </trkpt>
      <trkpt lat="46.29422" lon="-0.23516">
        <ele>123.7396</ele>
        <time>2011-01-03T15:19:29Z</time>
      </trkpt>
      <trkpt lat="46.29421" lon="-0.23518">
        <ele>123.7558</ele>
        <time>2011-01-03T15:19:30Z</time>
      </trkpt>
      <trkpt lat="46.29421" lon="-0.23519">
        <ele>123.7725</ele>
        <time>2011-01-03T15:19:31Z</time>
      </trkpt>
      <trkpt lat="46.29421" lon="-0.23521">
        <ele>123.7963</ele>
        <time>2011-01-03T15:19:32Z</time>
      </trkpt>
      <trkpt lat="46.29421" lon="-0.23523">
        <ele>123.8238</ele>
        <time>2011-01-03T15:19:33Z</time>
      </trkpt>
      <trkpt lat="46.2942" lon="-0.23524">
        <ele>123.8534</ele>
        <time>2011-01-03T15:19:34Z</time>
      </trkpt>
      <trkpt lat="46.2942" lon="-0.23525">
        <ele>123.8845</ele>
        <time>2011-01-03T15:19:35Z</time>
      </trkpt>
      <trkpt lat="46.29419" lon="-0.23527">
        <ele>123.9155</ele>
        <time>2011-01-03T15:19:36Z</time>
      </trkpt>
      <trkpt lat="46.29419" lon="-0.23528">
        <ele>123.9488</ele>
        <time>2011-01-03T15:19:37Z</time>
      </trkpt>
      <trkpt lat="46.29418" lon="-0.2353">
        <ele>123.984</ele>
        <time>2011-01-03T15:19:38Z</time>
      </trkpt>
      <trkpt lat="46.29418" lon="-0.23532">
        <ele>124.019</ele>
        <time>2011-01-03T15:19:39Z</time>
      </trkpt>
      <trkpt lat="46.29417" lon="-0.23534">
        <ele>124.0539</ele>
        <time>2011-01-03T15:19:40Z</time>
      </trkpt>
      <trkpt lat="46.29417" lon="-0.23536">
        <ele>124.0879</ele>
        <time>2011-01-03T15:19:41Z</time>
      </trkpt>
      <trkpt lat="46.29417" lon="-0.23538">
        <ele>124.1242</ele>
        <time>2011-01-03T15:19:42Z</time>
      </trkpt>
      <trkpt lat="46.29416" lon="-0.23539">
        <ele>124.1602</ele>
        <time>2011-01-03T15:19:43Z</time>
      </trkpt>
      <trkpt lat="46.29416" lon="-0.23542">
        <ele>124.1871</ele>
        <time>2011-01-03T15:19:47Z</time>
      </trkpt>
      <trkpt lat="46.29415" lon="-0.23543">
        <ele>124.2062</ele>
        <time>2011-01-03T15:19:48Z</time>
      </trkpt>
      <trkpt lat="46.29415" lon="-0.23545">
        <ele>124.2263</ele>
        <time>2011-01-03T15:19:49Z</time>
      </trkpt>
      <trkpt lat="46.29415" lon="-0.23546">
        <ele>124.2449</ele>
        <time>2011-01-03T15:19:50Z</time>
      </trkpt>
      <trkpt lat="46.29414" lon="-0.23548">
        <ele>124.2634</ele>
        <time>2011-01-03T15:19:51Z</time>
      </trkpt>
      <trkpt lat="46.29414" lon="-0.2355">
        <ele>124.282</ele>
        <time>2011-01-03T15:19:52Z</time>
      </trkpt>
      <trkpt lat="46.29414" lon="-0.23552">
        <ele>124.2992</ele>
        <time>2011-01-03T15:19:53Z</time>
      </trkpt>
      <trkpt lat="46.29414" lon="-0.23553">
        <ele>124.3157</ele>
        <time>2011-01-03T15:19:54Z</time>
      </trkpt>
      <trkpt lat="46.29414" lon="-0.23555">
        <ele>124.3291</ele>
        <time>2011-01-03T15:19:55Z</time>
      </trkpt>
      <trkpt lat="46.29413" lon="-0.23556">
        <ele>124.3391</ele>
        <time>2011-01-03T15:19:56Z</time>
      </trkpt>
      <trkpt lat="46.29413" lon="-0.23557">
        <ele>124.3413</ele>
        <time>2011-01-03T15:19:57Z</time>
      </trkpt>
      <trkpt lat="46.29412" lon="-0.23558">
        <ele>124.3411</ele>
        <time>2011-01-03T15:19:58Z</time>
      </trkpt>
      <trkpt lat="46.29411" lon="-0.2356">
        <ele>124.3439</ele>
        <time>2011-01-03T15:19:59Z</time>
      </trkpt>
      <trkpt lat="46.29411" lon="-0.23561">
        <ele>124.3579</ele>
        <time>2011-01-03T15:20:00Z</time>
      </trkpt>
      <trkpt lat="46.2941" lon="-0.23563">
        <ele>124.3794</ele>
        <time>2011-01-03T15:20:01Z</time>
      </trkpt>
      <trkpt lat="46.2941" lon="-0.23565">
        <ele>124.4049</ele>
        <time>2011-01-03T15:20:02Z</time>
      </trkpt>
      <trkpt lat="46.29409" lon="-0.23566">
        <ele>124.4263</ele>
        <time>2011-01-03T15:20:03Z</time>
      </trkpt>
      <trkpt lat="46.29409" lon="-0.23568">
        <ele>124.4458</ele>
        <time>2011-01-03T15:20:04Z</time>
      </trkpt>
      <trkpt lat="46.29409" lon="-0.2357">
        <ele>124.4668</ele>
        <time>2011-01-03T15:20:05Z</time>
      </trkpt>
      <trkpt lat="46.29408" lon="-0.23572">
        <ele>124.4923</ele>
        <time>2011-01-03T15:20:06Z</time>
      </trkpt>
      <trkpt lat="46.29408" lon="-0.23573">
        <ele>124.5197</ele>
        <time>2011-01-03T15:20:07Z</time>
      </trkpt>
      <trkpt lat="46.29408" lon="-0.23574">
        <ele>124.5552</ele>
        <time>2011-01-03T15:20:08Z</time>
      </trkpt>
      <trkpt lat="46.29408" lon="-0.23575">
        <ele>124.5967</ele>
        <time>2011-01-03T15:20:09Z</time>
      </trkpt>
      <trkpt lat="46.29407" lon="-0.23576">
        <ele>124.6376</ele>
        <time>2011-01-03T15:20:10Z</time>
      </trkpt>
      <trkpt lat="46.29407" lon="-0.23577">
        <ele>124.681</ele>
        <time>2011-01-03T15:20:11Z</time>
      </trkpt>
      <trkpt lat="46.29407" lon="-0.23578">
        <ele>124.7234</ele>
        <time>2011-01-03T15:20:12Z</time>
      </trkpt>
      <trkpt lat="46.29406" lon="-0.23579">
        <ele>124.7641</ele>
        <time>2011-01-03T15:20:13Z</time>
      </trkpt>
      <trkpt lat="46.29407" lon="-0.23581">
        <ele>124.8056</ele>
        <time>2011-01-03T15:20:14Z</time>
      </trkpt>
      <trkpt lat="46.29407" lon="-0.23582">
        <ele>124.848</ele>
        <time>2011-01-03T15:20:15Z</time>
      </trkpt>
      <trkpt lat="46.29406" lon="-0.23583">
        <ele>124.8873</ele>
        <time>2011-01-03T15:20:16Z</time>
      </trkpt>
      <trkpt lat="46.29406" lon="-0.23585">
        <ele>124.9278</ele>
        <time>2011-01-03T15:20:17Z</time>
      </trkpt>
      <trkpt lat="46.29406" lon="-0.23586">
        <ele>124.9665</ele>
        <time>2011-01-03T15:20:18Z</time>
      </trkpt>
      <trkpt lat="46.29406" lon="-0.23588">
        <ele>125.0051</ele>
        <time>2011-01-03T15:20:19Z</time>
      </trkpt>
      <trkpt lat="46.29406" lon="-0.23589">
        <ele>125.0436</ele>
        <time>2011-01-03T15:20:20Z</time>
      </trkpt>
      <trkpt lat="46.29406" lon="-0.23591">
        <ele>125.0833</ele>
        <time>2011-01-03T15:20:21Z</time>
      </trkpt>
      <trkpt lat="46.29405" lon="-0.23592">
        <ele>125.1238</ele>
        <time>2011-01-03T15:20:22Z</time>
      </trkpt>
      <trkpt lat="46.29405" lon="-0.23593">
        <ele>125.1624</ele>
        <time>2011-01-03T15:20:23Z</time>
      </trkpt>
      <trkpt lat="46.29405" lon="-0.23595">
        <ele>125.1975</ele>
        <time>2011-01-03T15:20:24Z</time>
      </trkpt>
      <trkpt lat="46.29405" lon="-0.23596">
        <ele>125.2283</ele>
        <time>2011-01-03T15:20:25Z</time>
      </trkpt>
      <trkpt lat="46.29404" lon="-0.23598">
        <ele>125.2588</ele>
        <time>2011-01-03T15:20:26Z</time>
      </trkpt>
      <trkpt lat="46.29404" lon="-0.23599">
        <ele>125.282</ele>
        <time>2011-01-03T15:20:27Z</time>
      </trkpt>
      <trkpt lat="46.29404" lon="-0.23601">
        <ele>125.3062</ele>
        <time>2011-01-03T15:20:28Z</time>
      </trkpt>
      <trkpt lat="46.29404" lon="-0.23603">
        <ele>125.3271</ele>
        <time>2011-01-03T15:20:29Z</time>
      </trkpt>
      <trkpt lat="46.29403" lon="-0.23604">
        <ele>125.3469</ele>
        <time>2011-01-03T15:20:30Z</time>
      </trkpt>
      <trkpt lat="46.29403" lon="-0.23606">
        <ele>125.3653</ele>
        <time>2011-01-03T15:20:31Z</time>
      </trkpt>
      <trkpt lat="46.29403" lon="-0.23608">
        <ele>125.3845</ele>
        <time>2011-01-03T15:20:32Z</time>
      </trkpt>
      <trkpt lat="46.29403" lon="-0.2361">
        <ele>125.4043</ele>
        <time>2011-01-03T15:20:33Z</time>
      </trkpt>
      <trkpt lat="46.29403" lon="-0.23612">
        <ele>125.4234</ele>
        <time>2011-01-03T15:20:34Z</time>
      </trkpt>
      <trkpt lat="46.29402" lon="-0.23614">
        <ele>125.4436</ele>
        <time>2011-01-03T15:20:35Z</time>
      </trkpt>
      <trkpt lat="46.29402" lon="-0.23616">
        <ele>125.4642</ele>
        <time>2011-01-03T15:20:36Z</time>
      </trkpt>
      <trkpt lat="46.29401" lon="-0.23618">
        <ele>125.4832</ele>
        <time>2011-01-03T15:20:37Z</time>
      </trkpt>
      <trkpt lat="46.29401" lon="-0.2362">
        <ele>125.502</ele>
        <time>2011-01-03T15:20:38Z</time>
      </trkpt>
      <trkpt lat="46.29401" lon="-0.23622">
        <ele>125.5222</ele>
        <time>2011-01-03T15:20:39Z</time>
      </trkpt>
      <trkpt lat="46.294" lon="-0.23624">
        <ele>125.5444</ele>
        <time>2011-01-03T15:20:40Z</time>
      </trkpt>
      <trkpt lat="46.294" lon="-0.23625">
        <ele>125.569</ele>
        <time>2011-01-03T15:20:41Z</time>
      </trkpt>
      <trkpt lat="46.294" lon="-0.23627">
        <ele>125.5932</ele>
        <time>2011-01-03T15:20:42Z</time>
      </trkpt>
      <trkpt lat="46.294" lon="-0.23628">
        <ele>125.6159</ele>
        <time>2011-01-03T15:20:43Z</time>
      </trkpt>
      <trkpt lat="46.29399" lon="-0.2363">
        <ele>125.6383</ele>
        <time>2011-01-03T15:20:44Z</time>
      </trkpt>
      <trkpt lat="46.29399" lon="-0.23631">
        <ele>125.6594</ele>
        <time>2011-01-03T15:20:45Z</time>
      </trkpt>
      <trkpt lat="46.29399" lon="-0.23632">
        <ele>125.6792</ele>
        <time>2011-01-03T15:20:46Z</time>
      </trkpt>
      <trkpt lat="46.29398" lon="-0.23634">
        <ele>125.6977</ele>
        <time>2011-01-03T15:20:47Z</time>
      </trkpt>
      <trkpt lat="46.29398" lon="-0.23635">
        <ele>125.7159</ele>
        <time>2011-01-03T15:20:48Z</time>
      </trkpt>
      <trkpt lat="46.29398" lon="-0.23637">
        <ele>125.7336</ele>
        <time>2011-01-03T15:20:49Z</time>
      </trkpt>
      <trkpt lat="46.29398" lon="-0.23637">
        <ele>125.7506</ele>
        <time>2011-01-03T15:20:50Z</time>
      </trkpt>
      <trkpt lat="46.29398" lon="-0.23638">
        <ele>125.7672</ele>
        <time>2011-01-03T15:20:51Z</time>
      </trkpt>
      <trkpt lat="46.29398" lon="-0.2364">
        <ele>125.7842</ele>
        <time>2011-01-03T15:20:52Z</time>
      </trkpt>
      <trkpt lat="46.29398" lon="-0.23642">
        <ele>125.804</ele>
        <time>2011-01-03T15:20:53Z</time>
      </trkpt>
      <trkpt lat="46.29398" lon="-0.23643">
        <ele>125.8239</ele>
        <time>2011-01-03T15:20:54Z</time>
      </trkpt>
      <trkpt lat="46.29397" lon="-0.23644">
        <ele>125.8448</ele>
        <time>2011-01-03T15:20:55Z</time>
      </trkpt>
      <trkpt lat="46.29398" lon="-0.23645">
        <ele>125.8701</ele>
        <time>2011-01-03T15:20:56Z</time>
      </trkpt>
      <trkpt lat="46.29398" lon="-0.23647">
        <ele>125.8987</ele>
        <time>2011-01-03T15:20:57Z</time>
      </trkpt>
      <trkpt lat="46.29397" lon="-0.23649">
        <ele>125.9298</ele>
        <time>2011-01-03T15:20:58Z</time>
      </trkpt>
      <trkpt lat="46.29397" lon="-0.2365">
        <ele>125.9621</ele>
        <time>2011-01-03T15:20:59Z</time>
      </trkpt>
      <trkpt lat="46.29397" lon="-0.23652">
        <ele>125.9951</ele>
        <time>2011-01-03T15:21:00Z</time>
      </trkpt>
      <trkpt lat="46.29397" lon="-0.23653">
        <ele>126.0303</ele>
        <time>2011-01-03T15:21:01Z</time>
      </trkpt>
      <trkpt lat="46.29396" lon="-0.23654">
        <ele>126.0641</ele>
        <time>2011-01-03T15:21:02Z</time>
      </trkpt>
      <trkpt lat="46.29396" lon="-0.23655">
        <ele>126.0976</ele>
        <time>2011-01-03T15:21:03Z</time>
      </trkpt>
      <trkpt lat="46.29396" lon="-0.23657">
        <ele>126.1308</ele>
        <time>2011-01-03T15:21:04Z</time>
      </trkpt>
      <trkpt lat="46.29395" lon="-0.23658">
        <ele>126.164</ele>
        <time>2011-01-03T15:21:05Z</time>
      </trkpt>
      <trkpt lat="46.29395" lon="-0.23659">
        <ele>126.1965</ele>
        <time>2011-01-03T15:21:06Z</time>
      </trkpt>
      <trkpt lat="46.29395" lon="-0.2366">
        <ele>126.2265</ele>
        <time>2011-01-03T15:21:07Z</time>
      </trkpt>
      <trkpt lat="46.29395" lon="-0.23661">
        <ele>126.2544</ele>
        <time>2011-01-03T15:21:08Z</time>
      </trkpt>
      <trkpt lat="46.29394" lon="-0.23662">
        <ele>126.2789</ele>
        <time>2011-01-03T15:21:11Z</time>
      </trkpt>
      <trkpt lat="46.29394" lon="-0.23663">
        <ele>126.296</ele>
        <time>2011-01-03T15:21:12Z</time>
      </trkpt>
      <trkpt lat="46.29394" lon="-0.23664">
        <ele>126.3126</ele>
        <time>2011-01-03T15:21:13Z</time>
      </trkpt>
      <trkpt lat="46.29395" lon="-0.23664">
        <ele>126.3295</ele>
        <time>2011-01-03T15:21:14Z</time>
      </trkpt>
      <trkpt lat="46.29395" lon="-0.23665">
        <ele>126.3465</ele>
        <time>2011-01-03T15:21:15Z</time>
      </trkpt>
      <trkpt lat="46.29395" lon="-0.23665">
        <ele>126.3569</ele>
        <time>2011-01-03T15:21:16Z</time>
      </trkpt>
      <trkpt lat="46.29395" lon="-0.23665">
        <ele>126.3678</ele>
        <time>2011-01-03T15:21:17Z</time>
      </trkpt>
      <trkpt lat="46.29395" lon="-0.23665">
        <ele>126.3775</ele>
        <time>2011-01-03T15:21:18Z</time>
      </trkpt>
      <trkpt lat="46.29395" lon="-0.23665">
        <ele>126.3876</ele>
        <time>2011-01-03T15:21:19Z</time>
      </trkpt>
      <trkpt lat="46.29395" lon="-0.23665">
        <ele>126.4027</ele>
        <time>2011-01-03T15:21:20Z</time>
      </trkpt>
      <trkpt lat="46.29394" lon="-0.23665">
        <ele>126.4174</ele>
        <time>2011-01-03T15:21:21Z</time>
      </trkpt>
      <trkpt lat="46.29394" lon="-0.23666">
        <ele>126.4334</ele>
        <time>2011-01-03T15:21:22Z</time>
      </trkpt>
      <trkpt lat="46.29393" lon="-0.23668">
        <ele>126.4853</ele>
        <time>2011-01-03T15:21:29Z</time>
      </trkpt>
      <trkpt lat="46.29393" lon="-0.23669">
        <ele>126.514</ele>
        <time>2011-01-03T15:21:30Z</time>
      </trkpt>
      <trkpt lat="46.29393" lon="-0.23671">
        <ele>126.5449</ele>
        <time>2011-01-03T15:21:31Z</time>
      </trkpt>
      <trkpt lat="46.29393" lon="-0.23672">
        <ele>126.5713</ele>
        <time>2011-01-03T15:21:32Z</time>
      </trkpt>
      <trkpt lat="46.29393" lon="-0.23674">
        <ele>126.5954</ele>
        <time>2011-01-03T15:21:33Z</time>
      </trkpt>
      <trkpt lat="46.29393" lon="-0.23675">
        <ele>126.6218</ele>
        <time>2011-01-03T15:21:34Z</time>
      </trkpt>
      <trkpt lat="46.29393" lon="-0.23676">
        <ele>126.6546</ele>
        <time>2011-01-03T15:21:35Z</time>
      </trkpt>
      <trkpt lat="46.29393" lon="-0.23677">
        <ele>126.679</ele>
        <time>2011-01-03T15:21:36Z</time>
      </trkpt>
      <trkpt lat="46.29393" lon="-0.23678">
        <ele>126.7002</ele>
        <time>2011-01-03T15:21:37Z</time>
      </trkpt>
      <trkpt lat="46.29392" lon="-0.2368">
        <ele>126.7215</ele>
        <time>2011-01-03T15:21:38Z</time>
      </trkpt>
      <trkpt lat="46.29392" lon="-0.23681">
        <ele>126.7395</ele>
        <time>2011-01-03T15:21:39Z</time>
      </trkpt>
      <trkpt lat="46.2939" lon="-0.23683">
        <ele>126.7599</ele>
        <time>2011-01-03T15:21:40Z</time>
      </trkpt>
      <trkpt lat="46.2939" lon="-0.23684">
        <ele>126.7831</ele>
        <time>2011-01-03T15:21:41Z</time>
      </trkpt>
      <trkpt lat="46.29389" lon="-0.23686">
        <ele>126.81</ele>
        <time>2011-01-03T15:21:42Z</time>
      </trkpt>
      <trkpt lat="46.29388" lon="-0.23688">
        <ele>126.8353</ele>
        <time>2011-01-03T15:21:43Z</time>
      </trkpt>
      <trkpt lat="46.29388" lon="-0.2369">
        <ele>126.8654</ele>
        <time>2011-01-03T15:21:44Z</time>
      </trkpt>
      <trkpt lat="46.29387" lon="-0.2369">
        <ele>126.908</ele>
        <time>2011-01-03T15:21:45Z</time>
      </trkpt>
      <trkpt lat="46.29385" lon="-0.2369">
        <ele>126.9478</ele>
        <time>2011-01-03T15:21:46Z</time>
      </trkpt>
      <trkpt lat="46.29385" lon="-0.2369">
        <ele>126.986</ele>
        <time>2011-01-03T15:21:47Z</time>
      </trkpt>
      <trkpt lat="46.29386" lon="-0.23689">
        <ele>126.9962</ele>
        <time>2011-01-03T15:21:49Z</time>
      </trkpt>
      <trkpt lat="46.29386" lon="-0.23689">
        <ele>127.0228</ele>
        <time>2011-01-03T15:21:50Z</time>
      </trkpt>
      <trkpt lat="46.29387" lon="-0.23689">
        <ele>127.0601</ele>
        <time>2011-01-03T15:21:51Z</time>
      </trkpt>
      <trkpt lat="46.29387" lon="-0.2369">
        <ele>127.093</ele>
        <time>2011-01-03T15:21:52Z</time>
      </trkpt>
      <trkpt lat="46.29387" lon="-0.23691">
        <ele>127.1365</ele>
        <time>2011-01-03T15:21:53Z</time>
      </trkpt>
      <trkpt lat="46.29387" lon="-0.23693">
        <ele>127.1839</ele>
        <time>2011-01-03T15:21:54Z</time>
      </trkpt>
      <trkpt lat="46.29386" lon="-0.23695">
        <ele>127.239</ele>
        <time>2011-01-03T15:21:55Z</time>
      </trkpt>
      <trkpt lat="46.29386" lon="-0.23696">
        <ele>127.2963</ele>
        <time>2011-01-03T15:21:56Z</time>
      </trkpt>
      <trkpt lat="46.29385" lon="-0.23698">
        <ele>127.3621</ele>
        <time>2011-01-03T15:21:57Z</time>
      </trkpt>
      <trkpt lat="46.29385" lon="-0.23699">
        <ele>127.4292</ele>
        <time>2011-01-03T15:21:58Z</time>
      </trkpt>
      <trkpt lat="46.29384" lon="-0.23701">
        <ele>127.4951</ele>
        <time>2011-01-03T15:21:59Z</time>
      </trkpt>
      <trkpt lat="46.29383" lon="-0.23702">
        <ele>127.5508</ele>
        <time>2011-01-03T15:22:00Z</time>
      </trkpt>
      <trkpt lat="46.29383" lon="-0.23703">
        <ele>127.5991</ele>
        <time>2011-01-03T15:22:01Z</time>
      </trkpt>
      <trkpt lat="46.29382" lon="-0.23705">
        <ele>127.6445</ele>
        <time>2011-01-03T15:22:02Z</time>
      </trkpt>
      <trkpt lat="46.29381" lon="-0.23706">
        <ele>127.6839</ele>
        <time>2011-01-03T15:22:03Z</time>
      </trkpt>
      <trkpt lat="46.2938" lon="-0.23708">
        <ele>127.72</ele>
        <time>2011-01-03T15:22:04Z</time>
      </trkpt>
      <trkpt lat="46.29379" lon="-0.23709">
        <ele>127.7524</ele>
        <time>2011-01-03T15:22:05Z</time>
      </trkpt>
      <trkpt lat="46.29379" lon="-0.23711">
        <ele>127.7807</ele>
        <time>2011-01-03T15:22:06Z</time>
      </trkpt>
      <trkpt lat="46.29378" lon="-0.23712">
        <ele>127.8063</ele>
        <time>2011-01-03T15:22:07Z</time>
      </trkpt>
      <trkpt lat="46.29377" lon="-0.23714">
        <ele>127.8293</ele>
        <time>2011-01-03T15:22:08Z</time>
      </trkpt>
      <trkpt lat="46.29377" lon="-0.23715">
        <ele>127.8508</ele>
        <time>2011-01-03T15:22:09Z</time>
      </trkpt>
      <trkpt lat="46.29376" lon="-0.23716">
        <ele>127.8717</ele>
        <time>2011-01-03T15:22:10Z</time>
      </trkpt>
      <trkpt lat="46.29376" lon="-0.23717">
        <ele>127.8912</ele>
        <time>2011-01-03T15:22:11Z</time>
      </trkpt>
      <trkpt lat="46.29375" lon="-0.23719">
        <ele>127.9102</ele>
        <time>2011-01-03T15:22:12Z</time>
      </trkpt>
      <trkpt lat="46.29374" lon="-0.23719">
        <ele>127.9282</ele>
        <time>2011-01-03T15:22:13Z</time>
      </trkpt>
      <trkpt lat="46.29374" lon="-0.2372">
        <ele>127.9458</ele>
        <time>2011-01-03T15:22:14Z</time>
      </trkpt>
      <trkpt lat="46.29373" lon="-0.23721">
        <ele>127.9636</ele>
        <time>2011-01-03T15:22:15Z</time>
      </trkpt>
      <trkpt lat="46.29372" lon="-0.23723">
        <ele>127.9821</ele>
        <time>2011-01-03T15:22:16Z</time>
      </trkpt>
      <trkpt lat="46.29371" lon="-0.23724">
        <ele>127.9949</ele>
        <time>2011-01-03T15:22:17Z</time>
      </trkpt>
      <trkpt lat="46.29371" lon="-0.23726">
        <ele>128.0024</ele>
        <time>2011-01-03T15:22:18Z</time>
      </trkpt>
      <trkpt lat="46.2937" lon="-0.23728">
        <ele>128.011</ele>
        <time>2011-01-03T15:22:19Z</time>
      </trkpt>
      <trkpt lat="46.29369" lon="-0.2373">
        <ele>128.011</ele>
        <time>2011-01-03T15:22:20Z</time>
      </trkpt>
      <trkpt lat="46.29369" lon="-0.2373">
        <ele>128.0225</ele>
        <time>2011-01-03T15:22:21Z</time>
      </trkpt>
      <trkpt lat="46.29368" lon="-0.23732">
        <ele>128.0316</ele>
        <time>2011-01-03T15:22:22Z</time>
      </trkpt>
      <trkpt lat="46.29367" lon="-0.23733">
        <ele>128.0322</ele>
        <time>2011-01-03T15:22:23Z</time>
      </trkpt>
      <trkpt lat="46.29366" lon="-0.23734">
        <ele>128.0293</ele>
        <time>2011-01-03T15:22:24Z</time>
      </trkpt>
      <trkpt lat="46.29366" lon="-0.23736">
        <ele>128.0317</ele>
        <time>2011-01-03T15:22:25Z</time>
      </trkpt>
      <trkpt lat="46.29365" lon="-0.23737">
        <ele>128.0352</ele>
        <time>2011-01-03T15:22:26Z</time>
      </trkpt>
      <trkpt lat="46.29364" lon="-0.23739">
        <ele>128.04</ele>
        <time>2011-01-03T15:22:27Z</time>
      </trkpt>
      <trkpt lat="46.29364" lon="-0.2374">
        <ele>128.0473</ele>
        <time>2011-01-03T15:22:28Z</time>
      </trkpt>
      <trkpt lat="46.29363" lon="-0.23741">
        <ele>128.0561</ele>
        <time>2011-01-03T15:22:29Z</time>
      </trkpt>
      <trkpt lat="46.29363" lon="-0.23742">
        <ele>128.0671</ele>
        <time>2011-01-03T15:22:30Z</time>
      </trkpt>
      <trkpt lat="46.29362" lon="-0.23743">
        <ele>128.079</ele>
        <time>2011-01-03T15:22:31Z</time>
      </trkpt>
      <trkpt lat="46.29361" lon="-0.23744">
        <ele>128.0906</ele>
        <time>2011-01-03T15:22:32Z</time>
      </trkpt>
      <trkpt lat="46.2936" lon="-0.23745">
        <ele>128.1033</ele>
        <time>2011-01-03T15:22:33Z</time>
      </trkpt>
      <trkpt lat="46.29359" lon="-0.23746">
        <ele>128.115</ele>
        <time>2011-01-03T15:22:34Z</time>
      </trkpt>
      <trkpt lat="46.29359" lon="-0.23747">
        <ele>128.1252</ele>
        <time>2011-01-03T15:22:35Z</time>
      </trkpt>
      <trkpt lat="46.29358" lon="-0.23749">
        <ele>128.1337</ele>
        <time>2011-01-03T15:22:36Z</time>
      </trkpt>
      <trkpt lat="46.29357" lon="-0.2375">
        <ele>128.1416</ele>
        <time>2011-01-03T15:22:37Z</time>
      </trkpt>
      <trkpt lat="46.29356" lon="-0.2375">
        <ele>128.1474</ele>
        <time>2011-01-03T15:22:38Z</time>
      </trkpt>
      <trkpt lat="46.29356" lon="-0.23751">
        <ele>128.1604</ele>
        <time>2011-01-03T15:22:41Z</time>
      </trkpt>
      <trkpt lat="46.29355" lon="-0.23751">
        <ele>128.1658</ele>
        <time>2011-01-03T15:22:42Z</time>
      </trkpt>
      <trkpt lat="46.29354" lon="-0.23752">
        <ele>128.1685</ele>
        <time>2011-01-03T15:22:43Z</time>
      </trkpt>
      <trkpt lat="46.29353" lon="-0.23752">
        <ele>128.1651</ele>
        <time>2011-01-03T15:22:44Z</time>
      </trkpt>
      <trkpt lat="46.29353" lon="-0.23753">
        <ele>128.1609</ele>
        <time>2011-01-03T15:22:45Z</time>
      </trkpt>
      <trkpt lat="46.29353" lon="-0.23754">
        <ele>128.1571</ele>
        <time>2011-01-03T15:22:46Z</time>
      </trkpt>
      <trkpt lat="46.29352" lon="-0.23755">
        <ele>128.1537</ele>
        <time>2011-01-03T15:22:47Z</time>
      </trkpt>
      <trkpt lat="46.29351" lon="-0.23756">
        <ele>128.1492</ele>
        <time>2011-01-03T15:22:48Z</time>
      </trkpt>
      <trkpt lat="46.29351" lon="-0.23758">
        <ele>128.145</ele>
        <time>2011-01-03T15:22:49Z</time>
      </trkpt>
      <trkpt lat="46.29351" lon="-0.23759">
        <ele>128.145</ele>
        <time>2011-01-03T15:22:50Z</time>
      </trkpt>
      <trkpt lat="46.2935" lon="-0.2376">
        <ele>128.1402</ele>
        <time>2011-01-03T15:22:51Z</time>
      </trkpt>
      <trkpt lat="46.2935" lon="-0.23761">
        <ele>128.1351</ele>
        <time>2011-01-03T15:22:52Z</time>
      </trkpt>
      <trkpt lat="46.29349" lon="-0.23762">
        <ele>128.1329</ele>
        <time>2011-01-03T15:22:53Z</time>
      </trkpt>
      <trkpt lat="46.29348" lon="-0.23764">
        <ele>128.1376</ele>
        <time>2011-01-03T15:22:54Z</time>
      </trkpt>
      <trkpt lat="46.29347" lon="-0.23765">
        <ele>128.1435</ele>
        <time>2011-01-03T15:22:55Z</time>
      </trkpt>
      <trkpt lat="46.29346" lon="-0.23767">
        <ele>128.1509</ele>
        <time>2011-01-03T15:22:56Z</time>
      </trkpt>
      <trkpt lat="46.29345" lon="-0.23768">
        <ele>128.1557</ele>
        <time>2011-01-03T15:22:57Z</time>
      </trkpt>
      <trkpt lat="46.29344" lon="-0.23769">
        <ele>128.1602</ele>
        <time>2011-01-03T15:22:58Z</time>
      </trkpt>
      <trkpt lat="46.29343" lon="-0.2377">
        <ele>128.1655</ele>
        <time>2011-01-03T15:22:59Z</time>
      </trkpt>
      <trkpt lat="46.29342" lon="-0.23771">
        <ele>128.1687</ele>
        <time>2011-01-03T15:23:00Z</time>
      </trkpt>
      <trkpt lat="46.29342" lon="-0.23772">
        <ele>128.1706</ele>
        <time>2011-01-03T15:23:01Z</time>
      </trkpt>
      <trkpt lat="46.2934" lon="-0.23773">
        <ele>128.1701</ele>
        <time>2011-01-03T15:23:02Z</time>
      </trkpt>
      <trkpt lat="46.2934" lon="-0.23774">
        <ele>128.1672</ele>
        <time>2011-01-03T15:23:03Z</time>
      </trkpt>
      <trkpt lat="46.29339" lon="-0.23775">
        <ele>128.1569</ele>
        <time>2011-01-03T15:23:04Z</time>
      </trkpt>
      <trkpt lat="46.29338" lon="-0.23776">
        <ele>128.1426</ele>
        <time>2011-01-03T15:23:05Z</time>
      </trkpt>
      <trkpt lat="46.29337" lon="-0.23777">
        <ele>128.1231</ele>
        <time>2011-01-03T15:23:06Z</time>
      </trkpt>
      <trkpt lat="46.29336" lon="-0.23778">
        <ele>128.104</ele>
        <time>2011-01-03T15:23:07Z</time>
      </trkpt>
      <trkpt lat="46.29336" lon="-0.2378">
        <ele>128.0839</ele>
        <time>2011-01-03T15:23:08Z</time>
      </trkpt>
      <trkpt lat="46.29335" lon="-0.23781">
        <ele>128.0636</ele>
        <time>2011-01-03T15:23:09Z</time>
      </trkpt>
      <trkpt lat="46.29334" lon="-0.23782">
        <ele>128.0444</ele>
        <time>2011-01-03T15:23:10Z</time>
      </trkpt>
      <trkpt lat="46.29334" lon="-0.23783">
        <ele>128.0256</ele>
        <time>2011-01-03T15:23:11Z</time>
      </trkpt>
      <trkpt lat="46.29332" lon="-0.23785">
        <ele>128.0067</ele>
        <time>2011-01-03T15:23:12Z</time>
      </trkpt>
      <trkpt lat="46.29332" lon="-0.23786">
        <ele>127.9875</ele>
        <time>2011-01-03T15:23:13Z</time>
      </trkpt>
      <trkpt lat="46.29331" lon="-0.23787">
        <ele>127.969</ele>
        <time>2011-01-03T15:23:14Z</time>
      </trkpt>
      <trkpt lat="46.2933" lon="-0.23789">
        <ele>127.9507</ele>
        <time>2011-01-03T15:23:15Z</time>
      </trkpt>
      <trkpt lat="46.2933" lon="-0.2379">
        <ele>127.9302</ele>
        <time>2011-01-03T15:23:16Z</time>
      </trkpt>
      <trkpt lat="46.29329" lon="-0.23791">
        <ele>127.9094</ele>
        <time>2011-01-03T15:23:17Z</time>
      </trkpt>
      <trkpt lat="46.29329" lon="-0.23793">
        <ele>127.8884</ele>
        <time>2011-01-03T15:23:18Z</time>
      </trkpt>
      <trkpt lat="46.29328" lon="-0.23794">
        <ele>127.8676</ele>
        <time>2011-01-03T15:23:19Z</time>
      </trkpt>
      <trkpt lat="46.29327" lon="-0.23796">
        <ele>127.842</ele>
        <time>2011-01-03T15:23:20Z</time>
      </trkpt>
      <trkpt lat="46.29326" lon="-0.23797">
        <ele>127.8196</ele>
        <time>2011-01-03T15:23:21Z</time>
      </trkpt>
      <trkpt lat="46.29326" lon="-0.23798">
        <ele>127.7985</ele>
        <time>2011-01-03T15:23:22Z</time>
      </trkpt>
      <trkpt lat="46.29325" lon="-0.23799">
        <ele>127.7779</ele>
        <time>2011-01-03T15:23:23Z</time>
      </trkpt>
      <trkpt lat="46.29324" lon="-0.23801">
        <ele>127.7563</ele>
        <time>2011-01-03T15:23:24Z</time>
      </trkpt>
      <trkpt lat="46.29323" lon="-0.23802">
        <ele>127.7345</ele>
        <time>2011-01-03T15:23:25Z</time>
      </trkpt>
      <trkpt lat="46.29323" lon="-0.23804">
        <ele>127.7115</ele>
        <time>2011-01-03T15:23:26Z</time>
      </trkpt>
      <trkpt lat="46.29322" lon="-0.23805">
        <ele>127.6881</ele>
        <time>2011-01-03T15:23:27Z</time>
      </trkpt>
      <trkpt lat="46.29321" lon="-0.23806">
        <ele>127.6641</ele>
        <time>2011-01-03T15:23:28Z</time>
      </trkpt>
      <trkpt lat="46.29321" lon="-0.23808">
        <ele>127.6395</ele>
        <time>2011-01-03T15:23:29Z</time>
      </trkpt>
      <trkpt lat="46.29321" lon="-0.23809">
        <ele>127.613</ele>
        <time>2011-01-03T15:23:30Z</time>
      </trkpt>
      <trkpt lat="46.2932" lon="-0.23811">
        <ele>127.5842</ele>
        <time>2011-01-03T15:23:31Z</time>
      </trkpt>
      <trkpt lat="46.29319" lon="-0.23812">
        <ele>127.5542</ele>
        <time>2011-01-03T15:23:32Z</time>
      </trkpt>
      <trkpt lat="46.29318" lon="-0.23814">
        <ele>127.523</ele>
        <time>2011-01-03T15:23:33Z</time>
      </trkpt>
      <trkpt lat="46.29318" lon="-0.23815">
        <ele>127.4908</ele>
        <time>2011-01-03T15:23:34Z</time>
      </trkpt>
      <trkpt lat="46.29317" lon="-0.23817">
        <ele>127.4575</ele>
        <time>2011-01-03T15:23:35Z</time>
      </trkpt>
      <trkpt lat="46.29317" lon="-0.23818">
        <ele>127.4242</ele>
        <time>2011-01-03T15:23:36Z</time>
      </trkpt>
      <trkpt lat="46.29316" lon="-0.23819">
        <ele>127.3914</ele>
        <time>2011-01-03T15:23:37Z</time>
      </trkpt>
      <trkpt lat="46.29315" lon="-0.23821">
        <ele>127.3557</ele>
        <time>2011-01-03T15:23:38Z</time>
      </trkpt>
      <trkpt lat="46.29314" lon="-0.23822">
        <ele>127.319</ele>
        <time>2011-01-03T15:23:39Z</time>
      </trkpt>
      <trkpt lat="46.29314" lon="-0.23824">
        <ele>127.2797</ele>
        <time>2011-01-03T15:23:40Z</time>
      </trkpt>
      <trkpt lat="46.29313" lon="-0.23825">
        <ele>127.2407</ele>
        <time>2011-01-03T15:23:41Z</time>
      </trkpt>
      <trkpt lat="46.29312" lon="-0.23827">
        <ele>127.1998</ele>
        <time>2011-01-03T15:23:42Z</time>
      </trkpt>
      <trkpt lat="46.29311" lon="-0.23828">
        <ele>127.159</ele>
        <time>2011-01-03T15:23:43Z</time>
      </trkpt>
      <trkpt lat="46.29311" lon="-0.23829">
        <ele>127.1175</ele>
        <time>2011-01-03T15:23:44Z</time>
      </trkpt>
      <trkpt lat="46.2931" lon="-0.2383">
        <ele>127.0767</ele>
        <time>2011-01-03T15:23:45Z</time>
      </trkpt>
      <trkpt lat="46.29309" lon="-0.23832">
        <ele>127.0368</ele>
        <time>2011-01-03T15:23:46Z</time>
      </trkpt>
      <trkpt lat="46.29309" lon="-0.23833">
        <ele>126.9961</ele>
        <time>2011-01-03T15:23:47Z</time>
      </trkpt>
      <trkpt lat="46.29308" lon="-0.23834">
        <ele>126.9545</ele>
        <time>2011-01-03T15:23:48Z</time>
      </trkpt>
      <trkpt lat="46.29307" lon="-0.23835">
        <ele>126.9134</ele>
        <time>2011-01-03T15:23:49Z</time>
      </trkpt>
      <trkpt lat="46.29307" lon="-0.23835">
        <ele>126.8727</ele>
        <time>2011-01-03T15:23:50Z</time>
      </trkpt>
      <trkpt lat="46.29306" lon="-0.23837">
        <ele>126.8321</ele>
        <time>2011-01-03T15:23:51Z</time>
      </trkpt>
      <trkpt lat="46.29306" lon="-0.23838">
        <ele>126.792</ele>
        <time>2011-01-03T15:23:52Z</time>
      </trkpt>
      <trkpt lat="46.29305" lon="-0.23839">
        <ele>126.7524</ele>
        <time>2011-01-03T15:23:53Z</time>
      </trkpt>
      <trkpt lat="46.29304" lon="-0.2384">
        <ele>126.7136</ele>
        <time>2011-01-03T15:23:54Z</time>
      </trkpt>
      <trkpt lat="46.29303" lon="-0.23841">
        <ele>126.6752</ele>
        <time>2011-01-03T15:23:55Z</time>
      </trkpt>
      <trkpt lat="46.29303" lon="-0.23842">
        <ele>126.6375</ele>
        <time>2011-01-03T15:23:56Z</time>
      </trkpt>
      <trkpt lat="46.29302" lon="-0.23843">
        <ele>126.5988</ele>
        <time>2011-01-03T15:23:57Z</time>
      </trkpt>
      <trkpt lat="46.29301" lon="-0.23844">
        <ele>126.5579</ele>
        <time>2011-01-03T15:23:58Z</time>
      </trkpt>
      <trkpt lat="46.293" lon="-0.23845">
        <ele>126.5143</ele>
        <time>2011-01-03T15:23:59Z</time>
      </trkpt>
      <trkpt lat="46.293" lon="-0.23847">
        <ele>126.3783</ele>
        <time>2011-01-03T15:24:03Z</time>
      </trkpt>
      <trkpt lat="46.29299" lon="-0.23847">
        <ele>126.3362</ele>
        <time>2011-01-03T15:24:04Z</time>
      </trkpt>
      <trkpt lat="46.29299" lon="-0.23848">
        <ele>126.2942</ele>
        <time>2011-01-03T15:24:05Z</time>
      </trkpt>
      <trkpt lat="46.29298" lon="-0.23849">
        <ele>126.2534</ele>
        <time>2011-01-03T15:24:06Z</time>
      </trkpt>
      <trkpt lat="46.29297" lon="-0.23851">
        <ele>126.2123</ele>
        <time>2011-01-03T15:24:07Z</time>
      </trkpt>
      <trkpt lat="46.29297" lon="-0.23852">
        <ele>126.1704</ele>
        <time>2011-01-03T15:24:08Z</time>
      </trkpt>
      <trkpt lat="46.29296" lon="-0.23853">
        <ele>126.1283</ele>
        <time>2011-01-03T15:24:09Z</time>
      </trkpt>
      <trkpt lat="46.29295" lon="-0.23854">
        <ele>126.0842</ele>
        <time>2011-01-03T15:24:10Z</time>
      </trkpt>
      <trkpt lat="46.29294" lon="-0.23855">
        <ele>126.041</ele>
        <time>2011-01-03T15:24:11Z</time>
      </trkpt>
      <trkpt lat="46.29293" lon="-0.23856">
        <ele>125.9949</ele>
        <time>2011-01-03T15:24:12Z</time>
      </trkpt>
      <trkpt lat="46.29293" lon="-0.23856">
        <ele>125.9467</ele>
        <time>2011-01-03T15:24:13Z</time>
      </trkpt>
      <trkpt lat="46.29292" lon="-0.23857">
        <ele>125.8976</ele>
        <time>2011-01-03T15:24:14Z</time>
      </trkpt>
      <trkpt lat="46.29291" lon="-0.23858">
        <ele>125.8486</ele>
        <time>2011-01-03T15:24:15Z</time>
      </trkpt>
      <trkpt lat="46.29291" lon="-0.23859">
        <ele>125.8</ele>
        <time>2011-01-03T15:24:16Z</time>
      </trkpt>
      <trkpt lat="46.2929" lon="-0.2386">
        <ele>125.7516</ele>
        <time>2011-01-03T15:24:17Z</time>
      </trkpt>
      <trkpt lat="46.29289" lon="-0.23861">
        <ele>125.7043</ele>
        <time>2011-01-03T15:24:18Z</time>
      </trkpt>
      <trkpt lat="46.29289" lon="-0.23863">
        <ele>125.6589</ele>
        <time>2011-01-03T15:24:19Z</time>
      </trkpt>
      <trkpt lat="46.29288" lon="-0.23864">
        <ele>125.6145</ele>
        <time>2011-01-03T15:24:20Z</time>
      </trkpt>
      <trkpt lat="46.29287" lon="-0.23865">
        <ele>125.5707</ele>
        <time>2011-01-03T15:24:21Z</time>
      </trkpt>
      <trkpt lat="46.29287" lon="-0.23867">
        <ele>125.5279</ele>
        <time>2011-01-03T15:24:22Z</time>
      </trkpt>
      <trkpt lat="46.29286" lon="-0.23868">
        <ele>125.4863</ele>
        <time>2011-01-03T15:24:23Z</time>
      </trkpt>
      <trkpt lat="46.29285" lon="-0.23869">
        <ele>125.4487</ele>
        <time>2011-01-03T15:24:24Z</time>
      </trkpt>
      <trkpt lat="46.29284" lon="-0.2387">
        <ele>125.4111</ele>
        <time>2011-01-03T15:24:25Z</time>
      </trkpt>
      <trkpt lat="46.29283" lon="-0.23871">
        <ele>125.3787</ele>
        <time>2011-01-03T15:24:26Z</time>
      </trkpt>
      <trkpt lat="46.29282" lon="-0.23872">
        <ele>125.3471</ele>
        <time>2011-01-03T15:24:27Z</time>
      </trkpt>
      <trkpt lat="46.29281" lon="-0.23873">
        <ele>125.3471</ele>
        <time>2011-01-03T15:24:28Z</time>
      </trkpt>
      <trkpt lat="46.29281" lon="-0.23874">
        <ele>125.3149</ele>
        <time>2011-01-03T15:24:29Z</time>
      </trkpt>
      <trkpt lat="46.2928" lon="-0.23875">
        <ele>125.2719</ele>
        <time>2011-01-03T15:24:30Z</time>
      </trkpt>
      <trkpt lat="46.29279" lon="-0.23876">
        <ele>125.2188</ele>
        <time>2011-01-03T15:24:31Z</time>
      </trkpt>
      <trkpt lat="46.29278" lon="-0.23877">
        <ele>125.1618</ele>
        <time>2011-01-03T15:24:32Z</time>
      </trkpt>
      <trkpt lat="46.29277" lon="-0.23878">
        <ele>125.1022</ele>
        <time>2011-01-03T15:24:33Z</time>
      </trkpt>
      <trkpt lat="46.29277" lon="-0.2388">
        <ele>125.0431</ele>
        <time>2011-01-03T15:24:34Z</time>
      </trkpt>
      <trkpt lat="46.29276" lon="-0.23881">
        <ele>124.9835</ele>
        <time>2011-01-03T15:24:35Z</time>
      </trkpt>
      <trkpt lat="46.29276" lon="-0.23883">
        <ele>124.9251</ele>
        <time>2011-01-03T15:24:36Z</time>
      </trkpt>
      <trkpt lat="46.29275" lon="-0.23884">
        <ele>124.867</ele>
        <time>2011-01-03T15:24:37Z</time>
      </trkpt>
      <trkpt lat="46.29275" lon="-0.23885">
        <ele>124.8092</ele>
        <time>2011-01-03T15:24:38Z</time>
      </trkpt>
      <trkpt lat="46.29274" lon="-0.23886">
        <ele>124.7518</ele>
        <time>2011-01-03T15:24:39Z</time>
      </trkpt>
      <trkpt lat="46.29274" lon="-0.23887">
        <ele>124.6946</ele>
        <time>2011-01-03T15:24:40Z</time>
      </trkpt>
      <trkpt lat="46.29273" lon="-0.23888">
        <ele>124.6349</ele>
        <time>2011-01-03T15:24:41Z</time>
      </trkpt>
      <trkpt lat="46.29273" lon="-0.2389">
        <ele>124.5744</ele>
        <time>2011-01-03T15:24:42Z</time>
      </trkpt>
      <trkpt lat="46.29272" lon="-0.23891">
        <ele>124.5139</ele>
        <time>2011-01-03T15:24:43Z</time>
      </trkpt>
      <trkpt lat="46.29271" lon="-0.23892">
        <ele>124.4534</ele>
        <time>2011-01-03T15:24:44Z</time>
      </trkpt>
      <trkpt lat="46.29271" lon="-0.23894">
        <ele>124.3934</ele>
        <time>2011-01-03T15:24:45Z</time>
      </trkpt>
      <trkpt lat="46.2927" lon="-0.23895">
        <ele>124.3334</ele>
        <time>2011-01-03T15:24:46Z</time>
      </trkpt>
      <trkpt lat="46.29269" lon="-0.23897">
        <ele>124.2736</ele>
        <time>2011-01-03T15:24:47Z</time>
      </trkpt>
      <trkpt lat="46.29269" lon="-0.23898">
        <ele>124.2143</ele>
        <time>2011-01-03T15:24:48Z</time>
      </trkpt>
      <trkpt lat="46.29268" lon="-0.23899">
        <ele>124.1548</ele>
        <time>2011-01-03T15:24:49Z</time>
      </trkpt>
      <trkpt lat="46.29268" lon="-0.23901">
        <ele>124.0949</ele>
        <time>2011-01-03T15:24:50Z</time>
      </trkpt>
      <trkpt lat="46.29268" lon="-0.23902">
        <ele>124.0351</ele>
        <time>2011-01-03T15:24:51Z</time>
      </trkpt>
      <trkpt lat="46.29267" lon="-0.23903">
        <ele>123.9786</ele>
        <time>2011-01-03T15:24:52Z</time>
      </trkpt>
      <trkpt lat="46.29266" lon="-0.23904">
        <ele>123.9211</ele>
        <time>2011-01-03T15:24:53Z</time>
      </trkpt>
      <trkpt lat="46.29266" lon="-0.23905">
        <ele>123.8629</ele>
        <time>2011-01-03T15:24:54Z</time>
      </trkpt>
      <trkpt lat="46.29265" lon="-0.23906">
        <ele>123.8032</ele>
        <time>2011-01-03T15:24:55Z</time>
      </trkpt>
      <trkpt lat="46.29265" lon="-0.23907">
        <ele>123.7411</ele>
        <time>2011-01-03T15:24:56Z</time>
      </trkpt>
      <trkpt lat="46.29264" lon="-0.23908">
        <ele>123.6759</ele>
        <time>2011-01-03T15:24:57Z</time>
      </trkpt>
      <trkpt lat="46.29264" lon="-0.23909">
        <ele>123.61</ele>
        <time>2011-01-03T15:24:58Z</time>
      </trkpt>
      <trkpt lat="46.29263" lon="-0.2391">
        <ele>123.5436</ele>
        <time>2011-01-03T15:24:59Z</time>
      </trkpt>
      <trkpt lat="46.29263" lon="-0.23912">
        <ele>123.4775</ele>
        <time>2011-01-03T15:25:00Z</time>
      </trkpt>
      <trkpt lat="46.29263" lon="-0.23913">
        <ele>123.4117</ele>
        <time>2011-01-03T15:25:01Z</time>
      </trkpt>
      <trkpt lat="46.29262" lon="-0.23914">
        <ele>123.3447</ele>
        <time>2011-01-03T15:25:02Z</time>
      </trkpt>
      <trkpt lat="46.29261" lon="-0.23915">
        <ele>123.2767</ele>
        <time>2011-01-03T15:25:03Z</time>
      </trkpt>
      <trkpt lat="46.29261" lon="-0.23916">
        <ele>123.2081</ele>
        <time>2011-01-03T15:25:04Z</time>
      </trkpt>
      <trkpt lat="46.29261" lon="-0.23918">
        <ele>123.1387</ele>
        <time>2011-01-03T15:25:05Z</time>
      </trkpt>
      <trkpt lat="46.2926" lon="-0.23919">
        <ele>123.0695</ele>
        <time>2011-01-03T15:25:06Z</time>
      </trkpt>
      <trkpt lat="46.2926" lon="-0.2392">
        <ele>123.0003</ele>
        <time>2011-01-03T15:25:07Z</time>
      </trkpt>
      <trkpt lat="46.29259" lon="-0.23922">
        <ele>122.9322</ele>
        <time>2011-01-03T15:25:08Z</time>
      </trkpt>
      <trkpt lat="46.29259" lon="-0.23923">
        <ele>122.8642</ele>
        <time>2011-01-03T15:25:09Z</time>
      </trkpt>
      <trkpt lat="46.29258" lon="-0.23925">
        <ele>122.7967</ele>
        <time>2011-01-03T15:25:10Z</time>
      </trkpt>
      <trkpt lat="46.29258" lon="-0.23926">
        <ele>122.7298</ele>
        <time>2011-01-03T15:25:11Z</time>
      </trkpt>
      <trkpt lat="46.29257" lon="-0.23927">
        <ele>122.6628</ele>
        <time>2011-01-03T15:25:12Z</time>
      </trkpt>
      <trkpt lat="46.29256" lon="-0.23929">
        <ele>122.5959</ele>
        <time>2011-01-03T15:25:13Z</time>
      </trkpt>
      <trkpt lat="46.29256" lon="-0.2393">
        <ele>122.5303</ele>
        <time>2011-01-03T15:25:14Z</time>
      </trkpt>
      <trkpt lat="46.29255" lon="-0.23932">
        <ele>122.4641</ele>
        <time>2011-01-03T15:25:15Z</time>
      </trkpt>
      <trkpt lat="46.29254" lon="-0.23933">
        <ele>122.4003</ele>
        <time>2011-01-03T15:25:16Z</time>
      </trkpt>
      <trkpt lat="46.29254" lon="-0.23935">
        <ele>122.3375</ele>
        <time>2011-01-03T15:25:17Z</time>
      </trkpt>
      <trkpt lat="46.29253" lon="-0.23936">
        <ele>122.2733</ele>
        <time>2011-01-03T15:25:18Z</time>
      </trkpt>
      <trkpt lat="46.29253" lon="-0.23938">
        <ele>122.2099</ele>
        <time>2011-01-03T15:25:19Z</time>
      </trkpt>
      <trkpt lat="46.29253" lon="-0.23939">
        <ele>122.1451</ele>
        <time>2011-01-03T15:25:20Z</time>
      </trkpt>
      <trkpt lat="46.29253" lon="-0.2394">
        <ele>122.0805</ele>
        <time>2011-01-03T15:25:21Z</time>
      </trkpt>
      <trkpt lat="46.29252" lon="-0.23942">
        <ele>122.0142</ele>
        <time>2011-01-03T15:25:22Z</time>
      </trkpt>
      <trkpt lat="46.29252" lon="-0.23943">
        <ele>121.9477</ele>
        <time>2011-01-03T15:25:23Z</time>
      </trkpt>
      <trkpt lat="46.29251" lon="-0.23945">
        <ele>121.8826</ele>
        <time>2011-01-03T15:25:24Z</time>
      </trkpt>
      <trkpt lat="46.2925" lon="-0.23946">
        <ele>121.8194</ele>
        <time>2011-01-03T15:25:25Z</time>
      </trkpt>
      <trkpt lat="46.2925" lon="-0.23947">
        <ele>121.7575</ele>
        <time>2011-01-03T15:25:26Z</time>
      </trkpt>
      <trkpt lat="46.29249" lon="-0.23948">
        <ele>121.6974</ele>
        <time>2011-01-03T15:25:27Z</time>
      </trkpt>
      <trkpt lat="46.29248" lon="-0.23949">
        <ele>121.6409</ele>
        <time>2011-01-03T15:25:28Z</time>
      </trkpt>
      <trkpt lat="46.29248" lon="-0.2395">
        <ele>121.5865</ele>
        <time>2011-01-03T15:25:29Z</time>
      </trkpt>
      <trkpt lat="46.29247" lon="-0.23951">
        <ele>121.5344</ele>
        <time>2011-01-03T15:25:30Z</time>
      </trkpt>
      <trkpt lat="46.29247" lon="-0.23952">
        <ele>121.4844</ele>
        <time>2011-01-03T15:25:31Z</time>
      </trkpt>
      <trkpt lat="46.29246" lon="-0.23953">
        <ele>121.4359</ele>
        <time>2011-01-03T15:25:32Z</time>
      </trkpt>
      <trkpt lat="46.29245" lon="-0.23955">
        <ele>121.3751</ele>
        <time>2011-01-03T15:25:33Z</time>
      </trkpt>
      <trkpt lat="46.29245" lon="-0.23955">
        <ele>121.3064</ele>
        <time>2011-01-03T15:25:34Z</time>
      </trkpt>
      <trkpt lat="46.29245" lon="-0.23956">
        <ele>121.2389</ele>
        <time>2011-01-03T15:25:35Z</time>
      </trkpt>
      <trkpt lat="46.29245" lon="-0.23958">
        <ele>121.1725</ele>
        <time>2011-01-03T15:25:36Z</time>
      </trkpt>
      <trkpt lat="46.29244" lon="-0.2396">
        <ele>121.1072</ele>
        <time>2011-01-03T15:25:37Z</time>
      </trkpt>
      <trkpt lat="46.29244" lon="-0.23962">
        <ele>121.0428</ele>
        <time>2011-01-03T15:25:38Z</time>
      </trkpt>
      <trkpt lat="46.29242" lon="-0.23963">
        <ele>120.9778</ele>
        <time>2011-01-03T15:25:39Z</time>
      </trkpt>
      <trkpt lat="46.29242" lon="-0.23965">
        <ele>120.913</ele>
        <time>2011-01-03T15:25:40Z</time>
      </trkpt>
      <trkpt lat="46.29241" lon="-0.23967">
        <ele>120.8498</ele>
        <time>2011-01-03T15:25:41Z</time>
      </trkpt>
      <trkpt lat="46.2924" lon="-0.23969">
        <ele>120.7886</ele>
        <time>2011-01-03T15:25:42Z</time>
      </trkpt>
      <trkpt lat="46.2924" lon="-0.23971">
        <ele>120.729</ele>
        <time>2011-01-03T15:25:43Z</time>
      </trkpt>
      <trkpt lat="46.29239" lon="-0.23972">
        <ele>120.674</ele>
        <time>2011-01-03T15:25:44Z</time>
      </trkpt>
      <trkpt lat="46.29238" lon="-0.23973">
        <ele>120.6219</ele>
        <time>2011-01-03T15:25:45Z</time>
      </trkpt>
      <trkpt lat="46.29238" lon="-0.23974">
        <ele>120.5728</ele>
        <time>2011-01-03T15:25:46Z</time>
      </trkpt>
      <trkpt lat="46.29237" lon="-0.23975">
        <ele>120.5249</ele>
        <time>2011-01-03T15:25:47Z</time>
      </trkpt>
      <trkpt lat="46.29237" lon="-0.23976">
        <ele>120.4772</ele>
        <time>2011-01-03T15:25:48Z</time>
      </trkpt>
      <trkpt lat="46.29237" lon="-0.23977">
        <ele>120.4286</ele>
        <time>2011-01-03T15:25:49Z</time>
      </trkpt>
      <trkpt lat="46.29236" lon="-0.23979">
        <ele>120.3792</ele>
        <time>2011-01-03T15:25:50Z</time>
      </trkpt>
      <trkpt lat="46.29236" lon="-0.2398">
        <ele>120.3291</ele>
        <time>2011-01-03T15:25:51Z</time>
      </trkpt>
      <trkpt lat="46.29236" lon="-0.23981">
        <ele>120.2817</ele>
        <time>2011-01-03T15:25:52Z</time>
      </trkpt>
      <trkpt lat="46.29235" lon="-0.23982">
        <ele>120.2376</ele>
        <time>2011-01-03T15:25:53Z</time>
      </trkpt>
      <trkpt lat="46.29235" lon="-0.23983">
        <ele>120.1973</ele>
        <time>2011-01-03T15:25:54Z</time>
      </trkpt>
      <trkpt lat="46.29234" lon="-0.23984">
        <ele>120.1616</ele>
        <time>2011-01-03T15:25:55Z</time>
      </trkpt>
      <trkpt lat="46.29234" lon="-0.23985">
        <ele>120.1281</ele>
        <time>2011-01-03T15:25:56Z</time>
      </trkpt>
      <trkpt lat="46.29234" lon="-0.23987">
        <ele>120.0954</ele>
        <time>2011-01-03T15:25:57Z</time>
      </trkpt>
      <trkpt lat="46.29233" lon="-0.23988">
        <ele>120.0608</ele>
        <time>2011-01-03T15:25:58Z</time>
      </trkpt>
      <trkpt lat="46.29232" lon="-0.23989">
        <ele>120.0269</ele>
        <time>2011-01-03T15:25:59Z</time>
      </trkpt>
      <trkpt lat="46.29232" lon="-0.2399">
        <ele>119.9943</ele>
        <time>2011-01-03T15:26:00Z</time>
      </trkpt>
      <trkpt lat="46.29231" lon="-0.23991">
        <ele>119.9644</ele>
        <time>2011-01-03T15:26:01Z</time>
      </trkpt>
      <trkpt lat="46.29231" lon="-0.23992">
        <ele>119.9371</ele>
        <time>2011-01-03T15:26:02Z</time>
      </trkpt>
      <trkpt lat="46.2923" lon="-0.23994">
        <ele>119.9062</ele>
        <time>2011-01-03T15:26:03Z</time>
      </trkpt>
      <trkpt lat="46.29229" lon="-0.23996">
        <ele>119.8749</ele>
        <time>2011-01-03T15:26:04Z</time>
      </trkpt>
    </trkseg>
  </trk>
</gpx>